<?xml version='1.0' encoding='UTF-8'?><gpx version="1.1" creator="JPX - https://github.com/jenetics/jpx" xmlns="http://www.topografix.com/GPX/1/1"><trk><trkseg><trkpt lat="14.558257831601308" lon="120.9954075381824"><ele>9.0</ele><time>2026-04-06T04:24:56.001Z</time></trkpt><trkpt lat="14.55819573060328" lon="120.99547842255261"><ele>9.0</ele><time>2026-04-06T04:24:59.001Z</time></trkpt><trkpt lat="14.55812701977153" lon="120.99552147902803"><ele>9.0</ele><time>2026-04-06T04:25:01.001Z</time></trkpt><trkpt lat="14.558085054083168" lon="120.99558803022289"><ele>9.0</ele><time>2026-04-06T04:25:03.001Z</time></trkpt><trkpt lat="14.558010688128105" lon="120.99562255548945"><ele>9.0</ele><time>2026-04-06T04:25:04.001Z</time></trkpt><trkpt lat="14.55796288696391" lon="120.99567914645363"><ele>9.0</ele><time>2026-04-06T04:25:05.001Z</time></trkpt><trkpt lat="14.557888186740142" lon="120.99574624341763"><ele>9.0</ele><time>2026-04-06T04:25:06Z</time></trkpt><trkpt lat="14.55808797615276" lon="120.99590994005476"><ele>9.0</ele><time>2026-04-06T04:25:07Z</time></trkpt><trkpt lat="14.558028879691776" lon="120.99602293818846"><ele>9.0</ele><time>2026-04-06T04:25:08.085Z</time></trkpt><trkpt lat="14.557742602287144" lon="120.99593288838032"><ele>9.0</ele><time>2026-04-06T04:25:09.065Z</time></trkpt><trkpt lat="14.557642765252652" lon="120.99595803634003"><ele>9.0</ele><time>2026-04-06T04:25:10.064Z</time></trkpt><trkpt lat="14.557543097058748" lon="120.99600190380069"><ele>9.0</ele><time>2026-04-06T04:25:11.058Z</time></trkpt><trkpt lat="14.557448910886828" lon="120.99610933397139"><ele>9.0</ele><time>2026-04-06T04:25:13.053Z</time></trkpt><trkpt lat="14.558044861893556" lon="120.9960706311168"><ele>9.0</ele><time>2026-04-06T04:26:35.001Z</time></trkpt><trkpt lat="14.558135252495775" lon="120.99608680799747"><ele>9.0</ele><time>2026-04-06T04:26:45.001Z</time></trkpt><trkpt lat="14.558153027639996" lon="120.99617288652115"><ele>9.0</ele><time>2026-04-06T04:26:49.001Z</time></trkpt><trkpt lat="14.558058533056315" lon="120.9962185892897"><ele>9.0</ele><time>2026-04-06T04:26:50.001Z</time></trkpt><trkpt lat="14.55798764142992" lon="120.99622100053095"><ele>9.0</ele><time>2026-04-06T04:26:51.001Z</time></trkpt><trkpt lat="14.55791154481941" lon="120.99621402294886"><ele>9.0</ele><time>2026-04-06T04:26:52.001Z</time></trkpt><trkpt lat="14.557830451239537" lon="120.99621462090394"><ele>9.4</ele><time>2026-04-06T04:26:53.001Z</time></trkpt><trkpt lat="14.55773598716417" lon="120.99621878322793"><ele>9.8</ele><time>2026-04-06T04:26:54.001Z</time></trkpt><trkpt lat="14.557641629899384" lon="120.99624172819415"><ele>10.200000000000001</ele><time>2026-04-06T04:26:55.001Z</time></trkpt><trkpt lat="14.55756713946257" lon="120.99627676178143"><ele>10.600000000000001</ele><time>2026-04-06T04:26:56.001Z</time></trkpt><trkpt lat="14.55747977520455" lon="120.99631012570906"><ele>11.0</ele><time>2026-04-06T04:26:57.001Z</time></trkpt><trkpt lat="14.557395700040056" lon="120.99633371128998"><ele>11.0</ele><time>2026-04-06T04:26:58.001Z</time></trkpt><trkpt lat="14.557283385961197" lon="120.9963433973971"><ele>11.0</ele><time>2026-04-06T04:26:59.001Z</time></trkpt><trkpt lat="14.557187328653306" lon="120.99635580278714"><ele>11.0</ele><time>2026-04-06T04:27:00.001Z</time></trkpt><trkpt lat="14.557081747423556" lon="120.99639559505854"><ele>11.0</ele><time>2026-04-06T04:27:01.001Z</time></trkpt><trkpt lat="14.556974639748908" lon="120.9964205830062"><ele>11.0</ele><time>2026-04-06T04:27:02.001Z</time></trkpt><trkpt lat="14.556849787579576" lon="120.9964476131428"><ele>10.4</ele><time>2026-04-06T04:27:03.001Z</time></trkpt><trkpt lat="14.556742379162595" lon="120.99645487565893"><ele>9.8</ele><time>2026-04-06T04:27:04.001Z</time></trkpt><trkpt lat="14.556637746306722" lon="120.99647790340292"><ele>9.200000000000001</ele><time>2026-04-06T04:27:05.001Z</time></trkpt><trkpt lat="14.556545123369705" lon="120.9965230846983"><ele>8.600000000000001</ele><time>2026-04-06T04:27:06.001Z</time></trkpt><trkpt lat="14.556447709553812" lon="120.99656310017394"><ele>8.0</ele><time>2026-04-06T04:27:07.001Z</time></trkpt><trkpt lat="14.556376911104763" lon="120.9965859506736"><ele>8.0</ele><time>2026-04-06T04:27:08.001Z</time></trkpt><trkpt lat="14.556312420206822" lon="120.99659623032971"><ele>7.999999999999999</ele><time>2026-04-06T04:27:09.001Z</time></trkpt><trkpt lat="14.556246150642874" lon="120.99660271306293"><ele>8.0</ele><time>2026-04-06T04:27:10.001Z</time></trkpt><trkpt lat="14.556183338697062" lon="120.99662088353612"><ele>8.0</ele><time>2026-04-06T04:27:11.001Z</time></trkpt><trkpt lat="14.556114372270445" lon="120.99663582772105"><ele>7.999999999999999</ele><time>2026-04-06T04:27:12Z</time></trkpt><trkpt lat="14.556043078660046" lon="120.9966447566008"><ele>8.0</ele><time>2026-04-06T04:27:13Z</time></trkpt><trkpt lat="14.555974566869791" lon="120.99664859372957"><ele>8.0</ele><time>2026-04-06T04:27:14Z</time></trkpt><trkpt lat="14.555872411704964" lon="120.99668263045903"><ele>8.166666666666666</ele><time>2026-04-06T04:27:16Z</time></trkpt><trkpt lat="14.555785260448646" lon="120.99669816735107"><ele>8.333333333333332</ele><time>2026-04-06T04:27:18Z</time></trkpt><trkpt lat="14.555694677314301" lon="120.99671209829792"><ele>8.5</ele><time>2026-04-06T04:27:20Z</time></trkpt><trkpt lat="14.555631347312188" lon="120.99672972283267"><ele>8.666666666666666</ele><time>2026-04-06T04:27:21Z</time></trkpt><trkpt lat="14.555545554190582" lon="120.9967548278833"><ele>8.833333333333334</ele><time>2026-04-06T04:27:22Z</time></trkpt><trkpt lat="14.555447947965751" lon="120.99677971363819"><ele>9.0</ele><time>2026-04-06T04:27:23Z</time></trkpt><trkpt lat="14.555339168366856" lon="120.99680415764485"><ele>9.0</ele><time>2026-04-06T04:27:24Z</time></trkpt><trkpt lat="14.555220576698671" lon="120.99683347967266"><ele>9.0</ele><time>2026-04-06T04:27:25Z</time></trkpt><trkpt lat="14.555120339842272" lon="120.99685589763853"><ele>9.0</ele><time>2026-04-06T04:27:26Z</time></trkpt><trkpt lat="14.55503441447217" lon="120.99687930093096"><ele>9.0</ele><time>2026-04-06T04:27:27Z</time></trkpt><trkpt lat="14.554942815964065" lon="120.99689872934336"><ele>9.0</ele><time>2026-04-06T04:27:28Z</time></trkpt><trkpt lat="14.554874136978222" lon="120.99691541724057"><ele>9.0</ele><time>2026-04-06T04:27:29Z</time></trkpt><trkpt lat="14.554805358946648" lon="120.99693514522741"><ele>9.0</ele><time>2026-04-06T04:27:30Z</time></trkpt><trkpt lat="14.554733489066662" lon="120.99694829579418"><ele>9.0</ele><time>2026-04-06T04:27:31Z</time></trkpt><trkpt lat="14.554668939925202" lon="120.99695990792804"><ele>9.0</ele><time>2026-04-06T04:27:32Z</time></trkpt><trkpt lat="14.554542503954067" lon="120.99698834915657"><ele>9.0</ele><time>2026-04-06T04:27:34Z</time></trkpt><trkpt lat="14.554429057327255" lon="120.99700917359705"><ele>8.4</ele><time>2026-04-06T04:27:36Z</time></trkpt><trkpt lat="14.554357387266043" lon="120.9970310852937"><ele>7.800000000000001</ele><time>2026-04-06T04:27:38Z</time></trkpt><trkpt lat="14.554274878967258" lon="120.99704023270561"><ele>7.199999999999999</ele><time>2026-04-06T04:27:40Z</time></trkpt><trkpt lat="14.554184428077196" lon="120.9970554581091"><ele>6.6</ele><time>2026-04-06T04:27:42Z</time></trkpt><trkpt lat="14.554110664193777" lon="120.9970708810642"><ele>6.0</ele><time>2026-04-06T04:27:45Z</time></trkpt><trkpt lat="14.554043137562246" lon="120.99693904016176"><ele>6.0</ele><time>2026-04-06T04:27:47Z</time></trkpt><trkpt lat="14.55403582310263" lon="120.99685294226774"><ele>6.0</ele><time>2026-04-06T04:27:48Z</time></trkpt><trkpt lat="14.554017463202497" lon="120.99677243329123"><ele>6.0</ele><time>2026-04-06T04:27:49Z</time></trkpt><trkpt lat="14.55399773342311" lon="120.99668591730921"><ele>6.0</ele><time>2026-04-06T04:27:50Z</time></trkpt><trkpt lat="14.553948135471174" lon="120.9965958745319"><ele>6.0</ele><time>2026-04-06T04:27:51Z</time></trkpt><trkpt lat="14.553931771474263" lon="120.99651070746064"><ele>6.0</ele><time>2026-04-06T04:27:52Z</time></trkpt><trkpt lat="14.553921657839096" lon="120.99644271299408"><ele>6.5</ele><time>2026-04-06T04:27:53Z</time></trkpt><trkpt lat="14.553906126503612" lon="120.99637149299451"><ele>7.0</ele><time>2026-04-06T04:27:54Z</time></trkpt><trkpt lat="14.553928563568723" lon="120.99628837017548"><ele>7.5</ele><time>2026-04-06T04:27:55Z</time></trkpt><trkpt lat="14.553912592622886" lon="120.99621862491666"><ele>8.0</ele><time>2026-04-06T04:27:56Z</time></trkpt><trkpt lat="14.553892309644178" lon="120.99613004907792"><ele>8.5</ele><time>2026-04-06T04:27:57Z</time></trkpt><trkpt lat="14.553875126366275" lon="120.99605500959241"><ele>9.0</ele><time>2026-04-06T04:27:58Z</time></trkpt><trkpt lat="14.55385956927942" lon="120.99598707167326"><ele>9.0</ele><time>2026-04-06T04:27:59Z</time></trkpt><trkpt lat="14.553841821727419" lon="120.99590956803095"><ele>9.0</ele><time>2026-04-06T04:28:00Z</time></trkpt><trkpt lat="14.553824922759185" lon="120.99583602202692"><ele>9.0</ele><time>2026-04-06T04:28:01Z</time></trkpt><trkpt lat="14.553804801930506" lon="120.9957502274643"><ele>9.0</ele><time>2026-04-06T04:28:02Z</time></trkpt><trkpt lat="14.553781650127414" lon="120.99565150888685"><ele>9.0</ele><time>2026-04-06T04:28:03Z</time></trkpt><trkpt lat="14.553761295389691" lon="120.9955647179733"><ele>9.0</ele><time>2026-04-06T04:28:04Z</time></trkpt><trkpt lat="14.553747066029041" lon="120.99547722426752"><ele>9.166666666666666</ele><time>2026-04-06T04:28:05Z</time></trkpt><trkpt lat="14.553732919192447" lon="120.99540347654204"><ele>9.333333333333334</ele><time>2026-04-06T04:28:06Z</time></trkpt><trkpt lat="14.553719548788802" lon="120.99532243547355"><ele>9.5</ele><time>2026-04-06T04:28:07Z</time></trkpt><trkpt lat="14.553708019583166" lon="120.99523478614928"><ele>9.666666666666668</ele><time>2026-04-06T04:28:08Z</time></trkpt><trkpt lat="14.553695111443158" lon="120.99513665364306"><ele>9.833333333333334</ele><time>2026-04-06T04:28:09Z</time></trkpt><trkpt lat="14.553684597829921" lon="120.99505492379258"><ele>10.0</ele><time>2026-04-06T04:28:10Z</time></trkpt><trkpt lat="14.55367434307112" lon="120.99497380599283"><ele>9.5</ele><time>2026-04-06T04:28:11Z</time></trkpt><trkpt lat="14.553663154000445" lon="120.99488529761526"><ele>9.0</ele><time>2026-04-06T04:28:12Z</time></trkpt><trkpt lat="14.55365189507739" lon="120.9947962366504"><ele>8.5</ele><time>2026-04-06T04:28:13Z</time></trkpt><trkpt lat="14.553640583584578" lon="120.99470381857225"><ele>8.0</ele><time>2026-04-06T04:28:14Z</time></trkpt><trkpt lat="14.553630236277543" lon="120.99461916234874"><ele>7.500000000000001</ele><time>2026-04-06T04:28:15Z</time></trkpt><trkpt lat="14.55362085004655" lon="120.99454204114916"><ele>7.0</ele><time>2026-04-06T04:28:16Z</time></trkpt><trkpt lat="14.553612775838786" lon="120.9944754148477"><ele>7.0</ele><time>2026-04-06T04:28:17Z</time></trkpt><trkpt lat="14.553597010126692" lon="120.99436794586474"><ele>6.999999999999999</ele><time>2026-04-06T04:28:19Z</time></trkpt><trkpt lat="14.553583512620065" lon="120.9942779758189"><ele>6.999999999999999</ele><time>2026-04-06T04:28:21Z</time></trkpt><trkpt lat="14.553565745292062" lon="120.99415954562652"><ele>7.0</ele><time>2026-04-06T04:28:23Z</time></trkpt><trkpt lat="14.553549629364547" lon="120.99402851511405"><ele>7.0</ele><time>2026-04-06T04:28:25Z</time></trkpt><trkpt lat="14.553539956362197" lon="120.99395584696555"><ele>7.500000000000001</ele><time>2026-04-06T04:28:26Z</time></trkpt><trkpt lat="14.553530717422781" lon="120.99388086993385"><ele>8.0</ele><time>2026-04-06T04:28:27Z</time></trkpt><trkpt lat="14.55352328053305" lon="120.99380895883701"><ele>8.5</ele><time>2026-04-06T04:28:28Z</time></trkpt><trkpt lat="14.553513867632315" lon="120.99371794065718"><ele>9.0</ele><time>2026-04-06T04:28:29Z</time></trkpt><trkpt lat="14.553503853484667" lon="120.99362110872958"><ele>9.5</ele><time>2026-04-06T04:28:30Z</time></trkpt><trkpt lat="14.553492687633744" lon="120.99351314129702"><ele>10.0</ele><time>2026-04-06T04:28:31Z</time></trkpt><trkpt lat="14.553472351507697" lon="120.99339143914783"><ele>9.75</ele><time>2026-04-06T04:28:32Z</time></trkpt><trkpt lat="14.553455976335947" lon="120.99328052708566"><ele>9.5</ele><time>2026-04-06T04:28:33Z</time></trkpt><trkpt lat="14.553438379941516" lon="120.99316134355188"><ele>9.25</ele><time>2026-04-06T04:28:34Z</time></trkpt><trkpt lat="14.553417450336719" lon="120.99303976461161"><ele>9.0</ele><time>2026-04-06T04:28:35Z</time></trkpt><trkpt lat="14.55339086851583" lon="120.99290890477818"><ele>9.0</ele><time>2026-04-06T04:28:36Z</time></trkpt><trkpt lat="14.55336436801295" lon="120.99277876694555"><ele>9.0</ele><time>2026-04-06T04:28:37Z</time></trkpt><trkpt lat="14.553329497766999" lon="120.99264509696704"><ele>9.0</ele><time>2026-04-06T04:28:38Z</time></trkpt><trkpt lat="14.553294704278587" lon="120.99251227421078"><ele>9.0</ele><time>2026-04-06T04:28:39Z</time></trkpt><trkpt lat="14.553260508742332" lon="120.99237701023038"><ele>9.25</ele><time>2026-04-06T04:28:40Z</time></trkpt><trkpt lat="14.553221675426538" lon="120.9922420540693"><ele>9.5</ele><time>2026-04-06T04:28:41Z</time></trkpt><trkpt lat="14.553180924930038" lon="120.99209969850259"><ele>9.75</ele><time>2026-04-06T04:28:42Z</time></trkpt><trkpt lat="14.553140820422096" lon="120.99196484364397"><ele>10.0</ele><time>2026-04-06T04:28:43Z</time></trkpt><trkpt lat="14.553100151607543" lon="120.99183121053132"><ele>10.0</ele><time>2026-04-06T04:28:44Z</time></trkpt><trkpt lat="14.553057867754397" lon="120.99169472506479"><ele>10.0</ele><time>2026-04-06T04:28:45Z</time></trkpt><trkpt lat="14.553017022695974" lon="120.99156316727348"><ele>10.0</ele><time>2026-04-06T04:28:46Z</time></trkpt><trkpt lat="14.55297207762875" lon="120.9914184033572"><ele>10.0</ele><time>2026-04-06T04:28:47Z</time></trkpt><trkpt lat="14.55292803160808" lon="120.99127391998246"><ele>10.0</ele><time>2026-04-06T04:28:48Z</time></trkpt><trkpt lat="14.552884400771237" lon="120.99113467122622"><ele>10.0</ele><time>2026-04-06T04:28:49Z</time></trkpt><trkpt lat="14.552843452145614" lon="120.99100316552678"><ele>10.0</ele><time>2026-04-06T04:28:50Z</time></trkpt><trkpt lat="14.552801589190437" lon="120.990868723459"><ele>10.0</ele><time>2026-04-06T04:28:51Z</time></trkpt><trkpt lat="14.552757994381146" lon="120.99072871958008"><ele>10.0</ele><time>2026-04-06T04:28:52Z</time></trkpt><trkpt lat="14.552712354703342" lon="120.99058285917717"><ele>10.0</ele><time>2026-04-06T04:28:53Z</time></trkpt><trkpt lat="14.552666361429585" lon="120.99043595366824"><ele>10.0</ele><time>2026-04-06T04:28:54Z</time></trkpt><trkpt lat="14.552620924258274" lon="120.99029082413777"><ele>10.0</ele><time>2026-04-06T04:28:55Z</time></trkpt><trkpt lat="14.552574665582089" lon="120.9901448490567"><ele>10.0</ele><time>2026-04-06T04:28:56Z</time></trkpt><trkpt lat="14.55253392028283" lon="120.99001595805422"><ele>10.0</ele><time>2026-04-06T04:28:57.001Z</time></trkpt><trkpt lat="14.552494483705313" lon="120.98989087986486"><ele>10.0</ele><time>2026-04-06T04:28:58.001Z</time></trkpt><trkpt lat="14.552452622588886" lon="120.98975786616221"><ele>10.0</ele><time>2026-04-06T04:28:59.001Z</time></trkpt><trkpt lat="14.55241779187414" lon="120.98964040909136"><ele>10.0</ele><time>2026-04-06T04:29:00.001Z</time></trkpt><trkpt lat="14.55237901671582" lon="120.98950885552527"><ele>10.0</ele><time>2026-04-06T04:29:01.001Z</time></trkpt><trkpt lat="14.552339736210213" lon="120.98938322930736"><ele>10.0</ele><time>2026-04-06T04:29:02.001Z</time></trkpt><trkpt lat="14.55231194521927" lon="120.98925356407051"><ele>10.0</ele><time>2026-04-06T04:29:03.001Z</time></trkpt><trkpt lat="14.552277763970507" lon="120.98913079759978"><ele>9.0</ele><time>2026-04-06T04:29:04.001Z</time></trkpt><trkpt lat="14.55224391649296" lon="120.98900922991204"><ele>8.0</ele><time>2026-04-06T04:29:05.001Z</time></trkpt><trkpt lat="14.552209384389206" lon="120.98888520332356"><ele>7.0</ele><time>2026-04-06T04:29:06.001Z</time></trkpt><trkpt lat="14.552180234088613" lon="120.98877399720156"><ele>6.0</ele><time>2026-04-06T04:29:07.001Z</time></trkpt><trkpt lat="14.552151645248955" lon="120.98866118629871"><ele>6.0</ele><time>2026-04-06T04:29:08.001Z</time></trkpt><trkpt lat="14.552125809930454" lon="120.98855924074627"><ele>6.0</ele><time>2026-04-06T04:29:09.001Z</time></trkpt><trkpt lat="14.552105302081147" lon="120.98847831692636"><ele>6.0</ele><time>2026-04-06T04:29:10.001Z</time></trkpt><trkpt lat="14.55208925854608" lon="120.98841500902316"><ele>6.0</ele><time>2026-04-06T04:29:11.001Z</time></trkpt><trkpt lat="14.551971472104865" lon="120.9883351838808"><ele>6.0</ele><time>2026-04-06T04:29:13.001Z</time></trkpt><trkpt lat="14.551903865637742" lon="120.98835633561063"><ele>5.833333333333333</ele><time>2026-04-06T04:29:14.001Z</time></trkpt><trkpt lat="14.551869918874088" lon="120.9884429948614"><ele>5.666666666666667</ele><time>2026-04-06T04:29:15.001Z</time></trkpt><trkpt lat="14.551845811775799" lon="120.98850479680232"><ele>5.5</ele><time>2026-04-06T04:29:16.001Z</time></trkpt><trkpt lat="14.551843305487658" lon="120.98858157395757"><ele>5.333333333333334</ele><time>2026-04-06T04:29:17.001Z</time></trkpt><trkpt lat="14.551871879792635" lon="120.98865671248576"><ele>5.166666666666667</ele><time>2026-04-06T04:29:18Z</time></trkpt><trkpt lat="14.551898392075561" lon="120.98873917622836"><ele>5.0</ele><time>2026-04-06T04:29:19Z</time></trkpt><trkpt lat="14.551929350256419" lon="120.98883546802044"><ele>5.0</ele><time>2026-04-06T04:29:20Z</time></trkpt><trkpt lat="14.551958919889653" lon="120.98892744182918"><ele>5.0</ele><time>2026-04-06T04:29:21Z</time></trkpt><trkpt lat="14.551988126641652" lon="120.98901652136529"><ele>5.0</ele><time>2026-04-06T04:29:22Z</time></trkpt><trkpt lat="14.552015953724506" lon="120.98910350709832"><ele>5.0</ele><time>2026-04-06T04:29:23Z</time></trkpt><trkpt lat="14.552041415895554" lon="120.98918310042798"><ele>5.0</ele><time>2026-04-06T04:29:24Z</time></trkpt><trkpt lat="14.55206885399247" lon="120.98926582925239"><ele>5.0</ele><time>2026-04-06T04:29:25Z</time></trkpt><trkpt lat="14.552105396037947" lon="120.98938006289873"><ele>6.0</ele><time>2026-04-06T04:29:27Z</time></trkpt><trkpt lat="14.551969900132182" lon="120.98949440089311"><ele>7.0</ele><time>2026-04-06T04:29:30Z</time></trkpt><trkpt lat="14.551839065967625" lon="120.98951082717525"><ele>8.0</ele><time>2026-04-06T04:29:32Z</time></trkpt><trkpt lat="14.551763245393731" lon="120.98952723879756"><ele>9.0</ele><time>2026-04-06T04:29:33Z</time></trkpt><trkpt lat="14.551674306090703" lon="120.98954578957157"><ele>9.0</ele><time>2026-04-06T04:29:34Z</time></trkpt><trkpt lat="14.551583269853225" lon="120.98956879353193"><ele>9.0</ele><time>2026-04-06T04:29:35Z</time></trkpt><trkpt lat="14.551488698813868" lon="120.98959227199701"><ele>9.0</ele><time>2026-04-06T04:29:36Z</time></trkpt><trkpt lat="14.551384680869454" lon="120.98961992870925"><ele>9.0</ele><time>2026-04-06T04:29:37Z</time></trkpt><trkpt lat="14.551282587988934" lon="120.9896430698386"><ele>9.0</ele><time>2026-04-06T04:29:38Z</time></trkpt><trkpt lat="14.551163224276047" lon="120.98966868881925"><ele>8.5</ele><time>2026-04-06T04:29:39Z</time></trkpt><trkpt lat="14.5510415770451" lon="120.98969685784506"><ele>8.0</ele><time>2026-04-06T04:29:40Z</time></trkpt><trkpt lat="14.5509136492435" lon="120.98972737733915"><ele>7.5</ele><time>2026-04-06T04:29:41Z</time></trkpt><trkpt lat="14.550772514939958" lon="120.98976277832521"><ele>7.0</ele><time>2026-04-06T04:29:42Z</time></trkpt><trkpt lat="14.550631867109756" lon="120.98980097417774"><ele>7.0</ele><time>2026-04-06T04:29:43Z</time></trkpt><trkpt lat="14.550481466547186" lon="120.98983418407445"><ele>7.0</ele><time>2026-04-06T04:29:44Z</time></trkpt><trkpt lat="14.550329821943684" lon="120.98987029996117"><ele>7.0</ele><time>2026-04-06T04:29:45Z</time></trkpt><trkpt lat="14.550180794823367" lon="120.98990128521685"><ele>7.25</ele><time>2026-04-06T04:29:46Z</time></trkpt><trkpt lat="14.550041392270975" lon="120.98992916977669"><ele>7.5</ele><time>2026-04-06T04:29:47Z</time></trkpt><trkpt lat="14.549909877915603" lon="120.98995480780751"><ele>7.75</ele><time>2026-04-06T04:29:48Z</time></trkpt><trkpt lat="14.549788965974045" lon="120.98997672788191"><ele>8.0</ele><time>2026-04-06T04:29:49Z</time></trkpt><trkpt lat="14.549667074964466" lon="120.98999680831331"><ele>8.0</ele><time>2026-04-06T04:29:50Z</time></trkpt><trkpt lat="14.549535026104252" lon="120.99002650154748"><ele>8.0</ele><time>2026-04-06T04:29:51Z</time></trkpt><trkpt lat="14.549398084505508" lon="120.99006447014537"><ele>8.0</ele><time>2026-04-06T04:29:52Z</time></trkpt><trkpt lat="14.549261748167945" lon="120.99009992196137"><ele>8.0</ele><time>2026-04-06T04:29:53Z</time></trkpt><trkpt lat="14.549131688168618" lon="120.99013694640632"><ele>8.0</ele><time>2026-04-06T04:29:54Z</time></trkpt><trkpt lat="14.54901199971443" lon="120.9901737226805"><ele>8.0</ele><time>2026-04-06T04:29:55Z</time></trkpt><trkpt lat="14.548892378810077" lon="120.99021814196645"><ele>8.0</ele><time>2026-04-06T04:29:56Z</time></trkpt><trkpt lat="14.548768452316168" lon="120.99026786664733"><ele>8.0</ele><time>2026-04-06T04:29:57Z</time></trkpt><trkpt lat="14.54864356101456" lon="120.99031823982669"><ele>9.75</ele><time>2026-04-06T04:29:58Z</time></trkpt><trkpt lat="14.548507223605565" lon="120.99036391346601"><ele>11.5</ele><time>2026-04-06T04:29:59Z</time></trkpt><trkpt lat="14.54836949669498" lon="120.99040441870997"><ele>13.25</ele><time>2026-04-06T04:30:00Z</time></trkpt><trkpt lat="14.548227420684663" lon="120.99044231520327"><ele>15.0</ele><time>2026-04-06T04:30:01Z</time></trkpt><trkpt lat="14.548088532286215" lon="120.99048063191245"><ele>15.0</ele><time>2026-04-06T04:30:02Z</time></trkpt><trkpt lat="14.547953425360124" lon="120.99051749543723"><ele>15.0</ele><time>2026-04-06T04:30:03Z</time></trkpt><trkpt lat="14.547803657836393" lon="120.99055783395744"><ele>15.0</ele><time>2026-04-06T04:30:04Z</time></trkpt><trkpt lat="14.547662346973446" lon="120.9905931601725"><ele>15.0</ele><time>2026-04-06T04:30:05Z</time></trkpt><trkpt lat="14.547520242989636" lon="120.9906327395667"><ele>13.25</ele><time>2026-04-06T04:30:06Z</time></trkpt><trkpt lat="14.547369040151656" lon="120.99067483342947"><ele>11.5</ele><time>2026-04-06T04:30:07Z</time></trkpt><trkpt lat="14.54723940495736" lon="120.99071236836647"><ele>9.75</ele><time>2026-04-06T04:30:08Z</time></trkpt><trkpt lat="14.547098986156909" lon="120.99075017570301"><ele>8.0</ele><time>2026-04-06T04:30:09Z</time></trkpt><trkpt lat="14.546951136853705" lon="120.99078816182916"><ele>7.666666666666666</ele><time>2026-04-06T04:30:10Z</time></trkpt><trkpt lat="14.546808577582313" lon="120.99082091799332"><ele>7.333333333333334</ele><time>2026-04-06T04:30:11Z</time></trkpt><trkpt lat="14.546658844869858" lon="120.99085142762844"><ele>7.0</ele><time>2026-04-06T04:30:12Z</time></trkpt><trkpt lat="14.546508983525575" lon="120.99088100235974"><ele>7.0</ele><time>2026-04-06T04:30:13Z</time></trkpt><trkpt lat="14.546357917897561" lon="120.99091831250932"><ele>7.0</ele><time>2026-04-06T04:30:14Z</time></trkpt><trkpt lat="14.546198313914182" lon="120.99096014696907"><ele>7.0</ele><time>2026-04-06T04:30:15Z</time></trkpt><trkpt lat="14.546053185313694" lon="120.99099210460255"><ele>7.0</ele><time>2026-04-06T04:30:16Z</time></trkpt><trkpt lat="14.545897058112939" lon="120.99103297573106"><ele>7.0</ele><time>2026-04-06T04:30:17Z</time></trkpt><trkpt lat="14.545734598188114" lon="120.99107623058134"><ele>7.0</ele><time>2026-04-06T04:30:18Z</time></trkpt><trkpt lat="14.545589071743349" lon="120.99110394936805"><ele>7.0</ele><time>2026-04-06T04:30:19Z</time></trkpt><trkpt lat="14.545429383317082" lon="120.9911483458581"><ele>7.0</ele><time>2026-04-06T04:30:20Z</time></trkpt><trkpt lat="14.54527093584911" lon="120.99118496335966"><ele>7.0</ele><time>2026-04-06T04:30:21Z</time></trkpt><trkpt lat="14.545121371621546" lon="120.99121832200622"><ele>7.25</ele><time>2026-04-06T04:30:22Z</time></trkpt><trkpt lat="14.544977807420114" lon="120.99125020888172"><ele>7.5</ele><time>2026-04-06T04:30:23Z</time></trkpt><trkpt lat="14.544829983079802" lon="120.99128340281409"><ele>7.75</ele><time>2026-04-06T04:30:24Z</time></trkpt><trkpt lat="14.54468472610315" lon="120.99130762515867"><ele>8.0</ele><time>2026-04-06T04:30:25Z</time></trkpt><trkpt lat="14.544541581148696" lon="120.99133442383078"><ele>8.0</ele><time>2026-04-06T04:30:26Z</time></trkpt><trkpt lat="14.544395486823904" lon="120.99136951776963"><ele>8.0</ele><time>2026-04-06T04:30:27Z</time></trkpt><trkpt lat="14.54425080665573" lon="120.99140383767266"><ele>8.0</ele><time>2026-04-06T04:30:28Z</time></trkpt><trkpt lat="14.544103819213108" lon="120.99143495230958"><ele>8.0</ele><time>2026-04-06T04:30:29Z</time></trkpt><trkpt lat="14.54395428203606" lon="120.99144825996177"><ele>8.0</ele><time>2026-04-06T04:30:30Z</time></trkpt><trkpt lat="14.543794081631663" lon="120.99147379747238"><ele>8.0</ele><time>2026-04-06T04:30:31Z</time></trkpt><trkpt lat="14.543626058705803" lon="120.99150055129059"><ele>8.0</ele><time>2026-04-06T04:30:32Z</time></trkpt><trkpt lat="14.543456390393953" lon="120.99152807224795"><ele>7.333333333333333</ele><time>2026-04-06T04:30:33Z</time></trkpt><trkpt lat="14.543282407041977" lon="120.9915601455261"><ele>6.666666666666666</ele><time>2026-04-06T04:30:34Z</time></trkpt><trkpt lat="14.543109998498313" lon="120.99158139128146"><ele>6.0</ele><time>2026-04-06T04:30:35Z</time></trkpt><trkpt lat="14.542926538358099" lon="120.99162314890035"><ele>5.666666666666667</ele><time>2026-04-06T04:30:36Z</time></trkpt><trkpt lat="14.542746051644144" lon="120.99165100462972"><ele>5.333333333333334</ele><time>2026-04-06T04:30:37Z</time></trkpt><trkpt lat="14.54256650345815" lon="120.9916864061146"><ele>5.0</ele><time>2026-04-06T04:30:38Z</time></trkpt><trkpt lat="14.54237744318553" lon="120.99172312416825"><ele>5.666666666666667</ele><time>2026-04-06T04:30:39Z</time></trkpt><trkpt lat="14.542196956170537" lon="120.99175561943721"><ele>6.333333333333334</ele><time>2026-04-06T04:30:40Z</time></trkpt><trkpt lat="14.542015974494642" lon="120.99178297826123"><ele>7.0</ele><time>2026-04-06T04:30:41Z</time></trkpt><trkpt lat="14.541834673862889" lon="120.99181477997345"><ele>7.0</ele><time>2026-04-06T04:30:42Z</time></trkpt><trkpt lat="14.541648270793852" lon="120.99185913288876"><ele>7.0</ele><time>2026-04-06T04:30:43Z</time></trkpt><trkpt lat="14.541477511517439" lon="120.99188112111831"><ele>7.0</ele><time>2026-04-06T04:30:44Z</time></trkpt><trkpt lat="14.54129200354018" lon="120.99190989043122"><ele>11.333333333333334</ele><time>2026-04-06T04:30:45Z</time></trkpt><trkpt lat="14.541103482770819" lon="120.99194807017543"><ele>15.666666666666668</ele><time>2026-04-06T04:30:46Z</time></trkpt><trkpt lat="14.540916169596661" lon="120.99198582507452"><ele>20.0</ele><time>2026-04-06T04:30:47Z</time></trkpt><trkpt lat="14.540734352122636" lon="120.99201655488615"><ele>20.0</ele><time>2026-04-06T04:30:48Z</time></trkpt><trkpt lat="14.54054914487654" lon="120.99204672693784"><ele>20.0</ele><time>2026-04-06T04:30:49Z</time></trkpt><trkpt lat="14.540360227690764" lon="120.99207316832185"><ele>20.0</ele><time>2026-04-06T04:30:50Z</time></trkpt><trkpt lat="14.540180659775343" lon="120.99208760035177"><ele>16.333333333333336</ele><time>2026-04-06T04:30:51Z</time></trkpt><trkpt lat="14.540001403200948" lon="120.99209686561953"><ele>12.666666666666668</ele><time>2026-04-06T04:30:52Z</time></trkpt><trkpt lat="14.53981467298134" lon="120.99213193520855"><ele>9.0</ele><time>2026-04-06T04:30:53Z</time></trkpt><trkpt lat="14.53963457713918" lon="120.99216115819351"><ele>8.0</ele><time>2026-04-06T04:30:54Z</time></trkpt><trkpt lat="14.539457568561643" lon="120.99214575030065"><ele>7.0</ele><time>2026-04-06T04:30:55Z</time></trkpt><trkpt lat="14.539273557891685" lon="120.9921654679795"><ele>6.0</ele><time>2026-04-06T04:30:56Z</time></trkpt><trkpt lat="14.539098841153807" lon="120.99223672035217"><ele>6.0</ele><time>2026-04-06T04:30:57Z</time></trkpt><trkpt lat="14.538917177919787" lon="120.99226011197108"><ele>6.0</ele><time>2026-04-06T04:30:58Z</time></trkpt><trkpt lat="14.53873451452166" lon="120.99226875370186"><ele>6.0</ele><time>2026-04-06T04:30:59Z</time></trkpt><trkpt lat="14.538558711359437" lon="120.99226867778067"><ele>7.0</ele><time>2026-04-06T04:31:00Z</time></trkpt><trkpt lat="14.538387354811022" lon="120.9923124978003"><ele>8.0</ele><time>2026-04-06T04:31:01Z</time></trkpt><trkpt lat="14.538212524263791" lon="120.99232632549088"><ele>9.0</ele><time>2026-04-06T04:31:02Z</time></trkpt><trkpt lat="14.538042534692138" lon="120.99233585368154"><ele>7.666666666666667</ele><time>2026-04-06T04:31:03Z</time></trkpt><trkpt lat="14.537870290630666" lon="120.99235321522482"><ele>6.333333333333334</ele><time>2026-04-06T04:31:04Z</time></trkpt><trkpt lat="14.537695431715191" lon="120.99237892912367"><ele>5.0</ele><time>2026-04-06T04:31:05Z</time></trkpt><trkpt lat="14.53751906454539" lon="120.99239924206006"><ele>5.0</ele><time>2026-04-06T04:31:06.001Z</time></trkpt><trkpt lat="14.537346578108366" lon="120.99242215162856"><ele>5.0</ele><time>2026-04-06T04:31:07.001Z</time></trkpt><trkpt lat="14.537175502289358" lon="120.99245011568807"><ele>5.0</ele><time>2026-04-06T04:31:08.001Z</time></trkpt><trkpt lat="14.537008959297061" lon="120.99247253856898"><ele>4.666666666666667</ele><time>2026-04-06T04:31:09.001Z</time></trkpt><trkpt lat="14.536847498132982" lon="120.99248029264082"><ele>4.333333333333333</ele><time>2026-04-06T04:31:10.001Z</time></trkpt><trkpt lat="14.536687027551812" lon="120.99249748624044"><ele>4.0</ele><time>2026-04-06T04:31:11.001Z</time></trkpt><trkpt lat="14.536520448186112" lon="120.99251546314856"><ele>5.666666666666666</ele><time>2026-04-06T04:31:12.001Z</time></trkpt><trkpt lat="14.536356953059824" lon="120.99254696788212"><ele>7.333333333333333</ele><time>2026-04-06T04:31:13.001Z</time></trkpt><trkpt lat="14.536191276780759" lon="120.99256824677448"><ele>9.0</ele><time>2026-04-06T04:31:14.001Z</time></trkpt><trkpt lat="14.536025934751049" lon="120.99258276727183"><ele>9.0</ele><time>2026-04-06T04:31:15.001Z</time></trkpt><trkpt lat="14.535856543934916" lon="120.99260322050321"><ele>9.0</ele><time>2026-04-06T04:31:16.001Z</time></trkpt><trkpt lat="14.53568412220637" lon="120.99262464444985"><ele>9.0</ele><time>2026-04-06T04:31:17.001Z</time></trkpt><trkpt lat="14.535509838198447" lon="120.99263837782286"><ele>9.0</ele><time>2026-04-06T04:31:18.001Z</time></trkpt><trkpt lat="14.535332603892126" lon="120.99266341322337"><ele>9.0</ele><time>2026-04-06T04:31:19.001Z</time></trkpt><trkpt lat="14.53515249488864" lon="120.99268310944029"><ele>9.0</ele><time>2026-04-06T04:31:20.001Z</time></trkpt><trkpt lat="14.534977855093672" lon="120.99270265484934"><ele>9.0</ele><time>2026-04-06T04:31:21.001Z</time></trkpt><trkpt lat="14.53480901856526" lon="120.99272444335412"><ele>9.0</ele><time>2026-04-06T04:31:22.001Z</time></trkpt><trkpt lat="14.534640336775784" lon="120.99275442432415"><ele>9.0</ele><time>2026-04-06T04:31:23.001Z</time></trkpt><trkpt lat="14.534464284383402" lon="120.99275792512813"><ele>8.333333333333334</ele><time>2026-04-06T04:31:23.999Z</time></trkpt><trkpt lat="14.5343063363599" lon="120.99277228458173"><ele>7.666666666666667</ele><time>2026-04-06T04:31:24.999Z</time></trkpt><trkpt lat="14.534139778656302" lon="120.9927850365628"><ele>7.0</ele><time>2026-04-06T04:31:25.999Z</time></trkpt><trkpt lat="14.53397761463044" lon="120.99280477097352"><ele>7.0</ele><time>2026-04-06T04:31:26.999Z</time></trkpt><trkpt lat="14.533820237549786" lon="120.9928214404245"><ele>7.0</ele><time>2026-04-06T04:31:27.999Z</time></trkpt><trkpt lat="14.533655692841787" lon="120.99283992065816"><ele>7.0</ele><time>2026-04-06T04:31:28.999Z</time></trkpt><trkpt lat="14.533495654437823" lon="120.99285818908508"><ele>9.0</ele><time>2026-04-06T04:31:29.999Z</time></trkpt><trkpt lat="14.53333289281455" lon="120.99288067902738"><ele>11.0</ele><time>2026-04-06T04:31:30.999Z</time></trkpt><trkpt lat="14.53316914961796" lon="120.99290236045805"><ele>13.0</ele><time>2026-04-06T04:31:31.999Z</time></trkpt><trkpt lat="14.533007920742019" lon="120.99292316444547"><ele>11.333333333333332</ele><time>2026-04-06T04:31:32.999Z</time></trkpt><trkpt lat="14.532846970670375" lon="120.99294608690425"><ele>9.666666666666666</ele><time>2026-04-06T04:31:33.999Z</time></trkpt><trkpt lat="14.53268702230416" lon="120.99296352587871"><ele>8.0</ele><time>2026-04-06T04:31:34.999Z</time></trkpt><trkpt lat="14.532523034897483" lon="120.99299048086432"><ele>8.0</ele><time>2026-04-06T04:31:35.999Z</time></trkpt><trkpt lat="14.532358182386709" lon="120.99301856758218"><ele>8.0</ele><time>2026-04-06T04:31:36.999Z</time></trkpt><trkpt lat="14.532186683978084" lon="120.99302345677704"><ele>8.0</ele><time>2026-04-06T04:31:37.999Z</time></trkpt><trkpt lat="14.532023648403722" lon="120.99305564417884"><ele>7.333333333333333</ele><time>2026-04-06T04:31:38.999Z</time></trkpt><trkpt lat="14.53185256160205" lon="120.99306186273611"><ele>6.666666666666666</ele><time>2026-04-06T04:31:40Z</time></trkpt><trkpt lat="14.531687788479562" lon="120.9930812699476"><ele>6.0</ele><time>2026-04-06T04:31:41Z</time></trkpt><trkpt lat="14.531531724867353" lon="120.99309872902451"><ele>6.0</ele><time>2026-04-06T04:31:42Z</time></trkpt><trkpt lat="14.53138541730644" lon="120.99311399597612"><ele>6.0</ele><time>2026-04-06T04:31:43Z</time></trkpt><trkpt lat="14.531239258587211" lon="120.9931304565721"><ele>6.0</ele><time>2026-04-06T04:31:44Z</time></trkpt><trkpt lat="14.531089628185699" lon="120.99314608844246"><ele>6.0</ele><time>2026-04-06T04:31:45Z</time></trkpt><trkpt lat="14.530939311644104" lon="120.99316659431942"><ele>5.0</ele><time>2026-04-06T04:31:46Z</time></trkpt><trkpt lat="14.530790255735132" lon="120.99320358514326"><ele>4.0</ele><time>2026-04-06T04:31:47Z</time></trkpt><trkpt lat="14.530640139317265" lon="120.99321390285547"><ele>3.0</ele><time>2026-04-06T04:31:48Z</time></trkpt><trkpt lat="14.530490942185233" lon="120.99323225178364"><ele>4.333333333333334</ele><time>2026-04-06T04:31:49Z</time></trkpt><trkpt lat="14.530337394284544" lon="120.99324563254484"><ele>5.666666666666667</ele><time>2026-04-06T04:31:50Z</time></trkpt><trkpt lat="14.53018495878312" lon="120.99324435437393"><ele>7.0</ele><time>2026-04-06T04:31:51Z</time></trkpt><trkpt lat="14.530022402326534" lon="120.99326325782195"><ele>7.0</ele><time>2026-04-06T04:31:52Z</time></trkpt><trkpt lat="14.529854078730072" lon="120.99327988198873"><ele>7.0</ele><time>2026-04-06T04:31:53Z</time></trkpt><trkpt lat="14.529691961960667" lon="120.99330860453117"><ele>7.0</ele><time>2026-04-06T04:31:54Z</time></trkpt><trkpt lat="14.529530374776245" lon="120.99333305760763"><ele>7.0</ele><time>2026-04-06T04:31:55Z</time></trkpt><trkpt lat="14.52938972864031" lon="120.99334490391792"><ele>7.0</ele><time>2026-04-06T04:31:56Z</time></trkpt><trkpt lat="14.529241268377335" lon="120.99336361225565"><ele>7.0</ele><time>2026-04-06T04:31:57Z</time></trkpt><trkpt lat="14.529086721826127" lon="120.99338510463562"><ele>7.0</ele><time>2026-04-06T04:31:58Z</time></trkpt><trkpt lat="14.528924741773455" lon="120.99340212370241"><ele>7.0</ele><time>2026-04-06T04:31:59Z</time></trkpt><trkpt lat="14.528769680284293" lon="120.99341191941167"><ele>7.0</ele><time>2026-04-06T04:32:00Z</time></trkpt><trkpt lat="14.52859993903127" lon="120.99341737158709"><ele>7.0</ele><time>2026-04-06T04:32:01Z</time></trkpt><trkpt lat="14.528445102611032" lon="120.99342431735275"><ele>7.5</ele><time>2026-04-06T04:32:02Z</time></trkpt><trkpt lat="14.528305774385064" lon="120.99342778366254"><ele>8.0</ele><time>2026-04-06T04:32:03Z</time></trkpt><trkpt lat="14.528171110491707" lon="120.99343720605555"><ele>8.5</ele><time>2026-04-06T04:32:04Z</time></trkpt><trkpt lat="14.528056241998536" lon="120.99344272116345"><ele>9.0</ele><time>2026-04-06T04:32:05Z</time></trkpt><trkpt lat="14.527955367637935" lon="120.993449672668"><ele>9.166666666666666</ele><time>2026-04-06T04:32:06Z</time></trkpt><trkpt lat="14.527863630312236" lon="120.99345443986486"><ele>9.333333333333334</ele><time>2026-04-06T04:32:07Z</time></trkpt><trkpt lat="14.527772957689788" lon="120.9934667819222"><ele>9.5</ele><time>2026-04-06T04:32:08Z</time></trkpt><trkpt lat="14.527695575650545" lon="120.99347644133312"><ele>9.666666666666668</ele><time>2026-04-06T04:32:09Z</time></trkpt><trkpt lat="14.527626136209546" lon="120.99348505494487"><ele>9.833333333333334</ele><time>2026-04-06T04:32:10Z</time></trkpt><trkpt lat="14.52752755197179" lon="120.99349911026441"><ele>10.0</ele><time>2026-04-06T04:32:12Z</time></trkpt><trkpt lat="14.527444578722138" lon="120.99350464786951"><ele>10.0</ele><time>2026-04-06T04:33:11Z</time></trkpt><trkpt lat="14.527376008736109" lon="120.99351396650037"><ele>10.0</ele><time>2026-04-06T04:33:12Z</time></trkpt><trkpt lat="14.527277199825901" lon="120.99353052514937"><ele>10.0</ele><time>2026-04-06T04:33:13Z</time></trkpt><trkpt lat="14.52716696513912" lon="120.99354653154444"><ele>10.0</ele><time>2026-04-06T04:33:14Z</time></trkpt><trkpt lat="14.527047845288676" lon="120.99356091077517"><ele>10.0</ele><time>2026-04-06T04:33:15Z</time></trkpt><trkpt lat="14.526922227373065" lon="120.9935792947417"><ele>9.0</ele><time>2026-04-06T04:33:16.001Z</time></trkpt><trkpt lat="14.526780365929254" lon="120.99360037900931"><ele>8.0</ele><time>2026-04-06T04:33:17.001Z</time></trkpt><trkpt lat="14.526620763412385" lon="120.99361966866711"><ele>7.0</ele><time>2026-04-06T04:33:18.001Z</time></trkpt><trkpt lat="14.526454037031566" lon="120.99363467051634"><ele>7.0</ele><time>2026-04-06T04:33:19.001Z</time></trkpt><trkpt lat="14.526286333024045" lon="120.99364318255415"><ele>7.0</ele><time>2026-04-06T04:33:20.001Z</time></trkpt><trkpt lat="14.526105485463813" lon="120.99364490999464"><ele>7.0</ele><time>2026-04-06T04:33:21.001Z</time></trkpt><trkpt lat="14.525917942408265" lon="120.99365168860581"><ele>7.666666666666667</ele><time>2026-04-06T04:33:22.001Z</time></trkpt><trkpt lat="14.525727542504871" lon="120.99365253975768"><ele>8.333333333333334</ele><time>2026-04-06T04:33:23.001Z</time></trkpt><trkpt lat="14.525539996477615" lon="120.99365660097558"><ele>9.0</ele><time>2026-04-06T04:33:24.001Z</time></trkpt><trkpt lat="14.525340797889783" lon="120.99365774466331"><ele>9.0</ele><time>2026-04-06T04:33:25.001Z</time></trkpt><trkpt lat="14.525138011661127" lon="120.9936556279802"><ele>9.0</ele><time>2026-04-06T04:33:26.001Z</time></trkpt><trkpt lat="14.52493960824507" lon="120.99365180607519"><ele>9.0</ele><time>2026-04-06T04:33:27.001Z</time></trkpt><trkpt lat="14.52473936291898" lon="120.99365616713848"><ele>8.666666666666666</ele><time>2026-04-06T04:33:28.001Z</time></trkpt><trkpt lat="14.524528469733347" lon="120.99365871791592"><ele>8.333333333333332</ele><time>2026-04-06T04:33:29.001Z</time></trkpt><trkpt lat="14.524327101400143" lon="120.99366040691689"><ele>8.0</ele><time>2026-04-06T04:33:29.999Z</time></trkpt><trkpt lat="14.524111685026934" lon="120.99365813321813"><ele>8.0</ele><time>2026-04-06T04:33:30.999Z</time></trkpt><trkpt lat="14.523903327166162" lon="120.99365704381157"><ele>8.0</ele><time>2026-04-06T04:33:31.999Z</time></trkpt><trkpt lat="14.523686997545559" lon="120.99365496308941"><ele>8.0</ele><time>2026-04-06T04:33:32.999Z</time></trkpt><trkpt lat="14.523476169940949" lon="120.9936538536899"><ele>8.0</ele><time>2026-04-06T04:33:33.999Z</time></trkpt><trkpt lat="14.523253186020964" lon="120.99365004134081"><ele>8.0</ele><time>2026-04-06T04:33:34.999Z</time></trkpt><trkpt lat="14.523046700449209" lon="120.99365334058228"><ele>8.0</ele><time>2026-04-06T04:33:35.999Z</time></trkpt><trkpt lat="14.522823844766613" lon="120.99364750709766"><ele>7.0</ele><time>2026-04-06T04:33:36.999Z</time></trkpt><trkpt lat="14.522606600550686" lon="120.9936446836544"><ele>6.0</ele><time>2026-04-06T04:33:37.999Z</time></trkpt><trkpt lat="14.522395912774966" lon="120.99364304086811"><ele>5.0</ele><time>2026-04-06T04:33:38.999Z</time></trkpt><trkpt lat="14.522174465656263" lon="120.99363712911924"><ele>5.0</ele><time>2026-04-06T04:33:39.999Z</time></trkpt><trkpt lat="14.52196420198244" lon="120.9936381994482"><ele>5.0</ele><time>2026-04-06T04:33:40.999Z</time></trkpt><trkpt lat="14.52173931286988" lon="120.99362427265854"><ele>5.0</ele><time>2026-04-06T04:33:41.999Z</time></trkpt><trkpt lat="14.521529471090776" lon="120.99361443508435"><ele>5.0</ele><time>2026-04-06T04:33:42.999Z</time></trkpt><trkpt lat="14.521317791206767" lon="120.99359908053158"><ele>5.0</ele><time>2026-04-06T04:33:43.999Z</time></trkpt><trkpt lat="14.521105300438677" lon="120.99357831738634"><ele>5.0</ele><time>2026-04-06T04:33:44.999Z</time></trkpt><trkpt lat="14.520894353826336" lon="120.99355790236987"><ele>5.0</ele><time>2026-04-06T04:33:45.999Z</time></trkpt><trkpt lat="14.520694479357324" lon="120.99354640970222"><ele>5.0</ele><time>2026-04-06T04:33:46.999Z</time></trkpt><trkpt lat="14.520494122614753" lon="120.99353504092716"><ele>5.0</ele><time>2026-04-06T04:33:47.999Z</time></trkpt><trkpt lat="14.520298430606195" lon="120.9935285315193"><ele>6.0</ele><time>2026-04-06T04:33:48.999Z</time></trkpt><trkpt lat="14.520097736134565" lon="120.99351692817753"><ele>7.0</ele><time>2026-04-06T04:33:49.999Z</time></trkpt><trkpt lat="14.519901562433216" lon="120.99350303904353"><ele>8.0</ele><time>2026-04-06T04:33:50.999Z</time></trkpt><trkpt lat="14.519702122590855" lon="120.99348179878972"><ele>14.333333333333332</ele><time>2026-04-06T04:33:52Z</time></trkpt><trkpt lat="14.519518913219345" lon="120.99348060496615"><ele>20.666666666666668</ele><time>2026-04-06T04:33:53Z</time></trkpt><trkpt lat="14.519343053368962" lon="120.99346521247215"><ele>27.0</ele><time>2026-04-06T04:33:54Z</time></trkpt><trkpt lat="14.519179692215964" lon="120.99344957743166"><ele>27.0</ele><time>2026-04-06T04:33:55Z</time></trkpt><trkpt lat="14.519023084428353" lon="120.9934424505783"><ele>27.0</ele><time>2026-04-06T04:33:56Z</time></trkpt><trkpt lat="14.518872903715987" lon="120.99342008636528"><ele>27.0</ele><time>2026-04-06T04:33:57Z</time></trkpt><trkpt lat="14.518738965543552" lon="120.9934147004086"><ele>27.0</ele><time>2026-04-06T04:33:58Z</time></trkpt><trkpt lat="14.51860476449892" lon="120.99338317358648"><ele>25.8</ele><time>2026-04-06T04:33:59Z</time></trkpt><trkpt lat="14.518484203626818" lon="120.9933686584677"><ele>24.6</ele><time>2026-04-06T04:34:00Z</time></trkpt><trkpt lat="14.51837208109902" lon="120.9933561392705"><ele>23.400000000000002</ele><time>2026-04-06T04:34:01Z</time></trkpt><trkpt lat="14.518261536951254" lon="120.99333045766448"><ele>22.200000000000003</ele><time>2026-04-06T04:34:02Z</time></trkpt><trkpt lat="14.518161888607898" lon="120.99331243355083"><ele>21.0</ele><time>2026-04-06T04:34:03Z</time></trkpt><trkpt lat="14.518068277989189" lon="120.99329326390166"><ele>19.0</ele><time>2026-04-06T04:34:04Z</time></trkpt><trkpt lat="14.517985894965388" lon="120.99327577515079"><ele>17.0</ele><time>2026-04-06T04:34:05Z</time></trkpt><trkpt lat="14.517922857715746" lon="120.99327578255136"><ele>15.0</ele><time>2026-04-06T04:34:06Z</time></trkpt><trkpt lat="14.51782329175126" lon="120.9932546732793"><ele>13.0</ele><time>2026-04-06T04:34:08Z</time></trkpt><trkpt lat="14.517739953264604" lon="120.99324322911184"><ele>11.0</ele><time>2026-04-06T04:34:10Z</time></trkpt><trkpt lat="14.517669200626345" lon="120.99323032035839"><ele>9.0</ele><time>2026-04-06T04:34:12Z</time></trkpt><trkpt lat="14.517586946448452" lon="120.99321601310157"><ele>8.4</ele><time>2026-04-06T04:35:49.999Z</time></trkpt><trkpt lat="14.517492215358034" lon="120.99320230493039"><ele>7.800000000000001</ele><time>2026-04-06T04:35:51.999Z</time></trkpt><trkpt lat="14.51736168935705" lon="120.99318791598054"><ele>7.199999999999999</ele><time>2026-04-06T04:35:54Z</time></trkpt><trkpt lat="14.517276140212754" lon="120.99316514193227"><ele>6.6</ele><time>2026-04-06T04:35:55Z</time></trkpt><trkpt lat="14.517176482112928" lon="120.99314286203061"><ele>6.0</ele><time>2026-04-06T04:35:56Z</time></trkpt><trkpt lat="14.517039057647928" lon="120.99311483208031"><ele>6.0</ele><time>2026-04-06T04:35:57Z</time></trkpt><trkpt lat="14.516907188939307" lon="120.99309933518354"><ele>6.0</ele><time>2026-04-06T04:35:58Z</time></trkpt><trkpt lat="14.51680019265002" lon="120.99308676126252"><ele>6.0</ele><time>2026-04-06T04:35:59Z</time></trkpt><trkpt lat="14.516693469827544" lon="120.99308617814232"><ele>6.0</ele><time>2026-04-06T04:36:00Z</time></trkpt><trkpt lat="14.516618236775901" lon="120.99309579993174"><ele>6.0</ele><time>2026-04-06T04:36:01Z</time></trkpt><trkpt lat="14.516508462359308" lon="120.99379298399585"><ele>6.0</ele><time>2026-04-06T04:36:02Z</time></trkpt><trkpt lat="14.516624471220878" lon="120.99399015365509"><ele>6.0</ele><time>2026-04-06T04:36:03Z</time></trkpt><trkpt lat="14.516662078070704" lon="120.99413818093512"><ele>6.0</ele><time>2026-04-06T04:36:04Z</time></trkpt><trkpt lat="14.516694613861814" lon="120.99427779311814"><ele>6.0</ele><time>2026-04-06T04:36:05Z</time></trkpt><trkpt lat="14.516742391311128" lon="120.99441717617509"><ele>6.0</ele><time>2026-04-06T04:36:06Z</time></trkpt><trkpt lat="14.51683905121089" lon="120.99454772258554"><ele>6.0</ele><time>2026-04-06T04:36:07Z</time></trkpt><trkpt lat="14.51683462660582" lon="120.99467565164034"><ele>6.0</ele><time>2026-04-06T04:36:08Z</time></trkpt><trkpt lat="14.516850954610302" lon="120.99483631249817"><ele>6.0</ele><time>2026-04-06T04:36:09Z</time></trkpt><trkpt lat="14.516850183971247" lon="120.99499443389328"><ele>6.0</ele><time>2026-04-06T04:36:10Z</time></trkpt><trkpt lat="14.516934900059766" lon="120.99516056382568"><ele>6.0</ele><time>2026-04-06T04:36:11Z</time></trkpt><trkpt lat="14.51697654168519" lon="120.99529561001077"><ele>6.25</ele><time>2026-04-06T04:36:12Z</time></trkpt><trkpt lat="14.517105110774555" lon="120.99543424812899"><ele>6.5</ele><time>2026-04-06T04:36:13Z</time></trkpt><trkpt lat="14.517091295201421" lon="120.99554538530084"><ele>6.75</ele><time>2026-04-06T04:36:14Z</time></trkpt><trkpt lat="14.517078582619499" lon="120.99564764306123"><ele>7.0</ele><time>2026-04-06T04:36:15Z</time></trkpt><trkpt lat="14.517067946858539" lon="120.99573319511396"><ele>7.0</ele><time>2026-04-06T04:36:16Z</time></trkpt><trkpt lat="14.517058018114836" lon="120.99581306008281"><ele>6.999999999999999</ele><time>2026-04-06T04:36:17Z</time></trkpt><trkpt lat="14.517047849036766" lon="120.995894858259"><ele>6.999999999999999</ele><time>2026-04-06T04:36:18Z</time></trkpt><trkpt lat="14.517032303380336" lon="120.9960199044039"><ele>7.0</ele><time>2026-04-06T04:36:20Z</time></trkpt><trkpt lat="14.51694811617248" lon="120.99612353212673"><ele>7.0</ele><time>2026-04-06T04:36:22Z</time></trkpt><trkpt lat="14.516882466090278" lon="120.99615042510935"><ele>7.0</ele><time>2026-04-06T04:36:23Z</time></trkpt><trkpt lat="14.516759960434651" lon="120.99620092487736"><ele>6.999999999999999</ele><time>2026-04-06T04:36:25Z</time></trkpt><trkpt lat="14.51666217505979" lon="120.99617419140107"><ele>6.999999999999999</ele><time>2026-04-06T04:36:26Z</time></trkpt><trkpt lat="14.516562726488544" lon="120.99617656840435"><ele>7.0</ele><time>2026-04-06T04:36:27Z</time></trkpt><trkpt lat="14.51646158334122" lon="120.99614716101989"><ele>7.0</ele><time>2026-04-06T04:36:28Z</time></trkpt><trkpt lat="14.51632958693022" lon="120.9961390282923"><ele>7.0</ele><time>2026-04-06T04:36:29Z</time></trkpt><trkpt lat="14.516254280937499" lon="120.99607816219118"><ele>6.999999999999999</ele><time>2026-04-06T04:36:30Z</time></trkpt><trkpt lat="14.516164782077418" lon="120.99611536984122"><ele>6.999999999999999</ele><time>2026-04-06T04:36:31Z</time></trkpt><trkpt lat="14.51605451777571" lon="120.99610820126742"><ele>7.0</ele><time>2026-04-06T04:36:32Z</time></trkpt><trkpt lat="14.515954065935087" lon="120.99610406839432"><ele>7.0</ele><time>2026-04-06T04:36:33Z</time></trkpt><trkpt lat="14.515846707189763" lon="120.99608964416686"><ele>6.8</ele><time>2026-04-06T04:36:34Z</time></trkpt><trkpt lat="14.515756697345951" lon="120.99607610249073"><ele>6.6</ele><time>2026-04-06T04:36:35Z</time></trkpt><trkpt lat="14.51567527398825" lon="120.99603165453485"><ele>6.3999999999999995</ele><time>2026-04-06T04:36:36Z</time></trkpt><trkpt lat="14.515568671500592" lon="120.99601527454867"><ele>6.199999999999999</ele><time>2026-04-06T04:36:37Z</time></trkpt><trkpt lat="14.51546665929549" lon="120.99599966240952"><ele>6.0</ele><time>2026-04-06T04:36:38Z</time></trkpt><trkpt lat="14.51537187716574" lon="120.99598515678716"><ele>5.8</ele><time>2026-04-06T04:36:39Z</time></trkpt><trkpt lat="14.515288204426476" lon="120.99597235149812"><ele>5.6</ele><time>2026-04-06T04:36:40Z</time></trkpt><trkpt lat="14.515197660677236" lon="120.99595542430687"><ele>5.4</ele><time>2026-04-06T04:36:41Z</time></trkpt><trkpt lat="14.515106674034666" lon="120.9959398954907"><ele>5.2</ele><time>2026-04-06T04:36:42Z</time></trkpt><trkpt lat="14.515007454530567" lon="120.99592296174811"><ele>5.0</ele><time>2026-04-06T04:36:43Z</time></trkpt><trkpt lat="14.514908544125511" lon="120.995905183565"><ele>5.0</ele><time>2026-04-06T04:36:44Z</time></trkpt><trkpt lat="14.514813605753801" lon="120.99588784865195"><ele>5.0</ele><time>2026-04-06T04:36:45Z</time></trkpt><trkpt lat="14.51471197279585" lon="120.99586912450599"><ele>5.0</ele><time>2026-04-06T04:36:46Z</time></trkpt><trkpt lat="14.514614394433922" lon="120.99585380421902"><ele>5.0</ele><time>2026-04-06T04:36:47Z</time></trkpt><trkpt lat="14.514515989340383" lon="120.99583707211976"><ele>5.0</ele><time>2026-04-06T04:36:48Z</time></trkpt><trkpt lat="14.514420176182298" lon="120.99582162251443"><ele>5.166666666666667</ele><time>2026-04-06T04:36:49Z</time></trkpt><trkpt lat="14.51433716235077" lon="120.99580854332163"><ele>5.333333333333334</ele><time>2026-04-06T04:36:50Z</time></trkpt><trkpt lat="14.514261398949454" lon="120.9957966065679"><ele>5.5</ele><time>2026-04-06T04:36:51Z</time></trkpt><trkpt lat="14.514185267860736" lon="120.99578264601267"><ele>5.666666666666667</ele><time>2026-04-06T04:36:52Z</time></trkpt><trkpt lat="14.51410638110859" lon="120.9957703713082"><ele>5.833333333333333</ele><time>2026-04-06T04:36:53Z</time></trkpt><trkpt lat="14.514022061335657" lon="120.99575712681354"><ele>6.0</ele><time>2026-04-06T04:36:54Z</time></trkpt><trkpt lat="14.513932991851364" lon="120.99574219468775"><ele>6.0</ele><time>2026-04-06T04:36:55Z</time></trkpt><trkpt lat="14.513843721802365" lon="120.99572649563973"><ele>6.0</ele><time>2026-04-06T04:36:56Z</time></trkpt><trkpt lat="14.51374321126692" lon="120.99570900877488"><ele>6.0</ele><time>2026-04-06T04:36:57Z</time></trkpt><trkpt lat="14.51365656659996" lon="120.99569314767768"><ele>6.0</ele><time>2026-04-06T04:36:58Z</time></trkpt><trkpt lat="14.513573353004086" lon="120.99567791465715"><ele>6.0</ele><time>2026-04-06T04:36:59Z</time></trkpt><trkpt lat="14.513503587056999" lon="120.99566514336247"><ele>6.0</ele><time>2026-04-06T04:37:00Z</time></trkpt><trkpt lat="14.51341933026466" lon="120.9956495868076"><ele>5.3999999999999995</ele><time>2026-04-06T04:37:01Z</time></trkpt><trkpt lat="14.513321960459955" lon="120.99563141935825"><ele>4.8</ele><time>2026-04-06T04:37:02Z</time></trkpt><trkpt lat="14.513232846384891" lon="120.9956147922798"><ele>4.199999999999999</ele><time>2026-04-06T04:37:03Z</time></trkpt><trkpt lat="14.513142987412216" lon="120.99559802607541"><ele>3.5999999999999996</ele><time>2026-04-06T04:37:04Z</time></trkpt><trkpt lat="14.513060504340583" lon="120.99558382304693"><ele>3.0</ele><time>2026-04-06T04:37:05Z</time></trkpt><trkpt lat="14.512968205418233" lon="120.9955844882511"><ele>4.0</ele><time>2026-04-06T04:37:06Z</time></trkpt><trkpt lat="14.51288791452475" lon="120.99556176987714"><ele>5.0</ele><time>2026-04-06T04:37:07Z</time></trkpt><trkpt lat="14.512801579563808" lon="120.99554249158051"><ele>6.000000000000001</ele><time>2026-04-06T04:37:08Z</time></trkpt><trkpt lat="14.512670994142594" lon="120.99552172904504"><ele>7.0</ele><time>2026-04-06T04:37:09Z</time></trkpt><trkpt lat="14.512566624109906" lon="120.99549997719745"><ele>8.0</ele><time>2026-04-06T04:37:10Z</time></trkpt><trkpt lat="14.51246935535927" lon="120.99547829840955"><ele>8.0</ele><time>2026-04-06T04:37:11Z</time></trkpt><trkpt lat="14.512367826951959" lon="120.99544303589028"><ele>8.0</ele><time>2026-04-06T04:37:12Z</time></trkpt><trkpt lat="14.512262667684364" lon="120.99543692726505"><ele>8.0</ele><time>2026-04-06T04:37:13.001Z</time></trkpt><trkpt lat="14.51215493978586" lon="120.99541228435"><ele>8.0</ele><time>2026-04-06T04:37:14.001Z</time></trkpt><trkpt lat="14.512047127639763" lon="120.99538373220467"><ele>8.0</ele><time>2026-04-06T04:37:15.001Z</time></trkpt><trkpt lat="14.511929436294597" lon="120.9953600017585"><ele>7.75</ele><time>2026-04-06T04:37:16.001Z</time></trkpt><trkpt lat="14.511808550473903" lon="120.99533632116089"><ele>7.5</ele><time>2026-04-06T04:37:17.001Z</time></trkpt><trkpt lat="14.511688840791463" lon="120.99529338447653"><ele>7.25</ele><time>2026-04-06T04:37:18.001Z</time></trkpt><trkpt lat="14.511563623121258" lon="120.9952643082606"><ele>7.0</ele><time>2026-04-06T04:37:19.001Z</time></trkpt><trkpt lat="14.511439647424774" lon="120.99525256639242"><ele>7.0</ele><time>2026-04-06T04:37:20.001Z</time></trkpt><trkpt lat="14.511319037609356" lon="120.9952246789298"><ele>7.0</ele><time>2026-04-06T04:37:21.001Z</time></trkpt><trkpt lat="14.511205743253774" lon="120.99520004945333"><ele>7.0</ele><time>2026-04-06T04:37:22.001Z</time></trkpt><trkpt lat="14.511102222434328" lon="120.99517705268902"><ele>7.0</ele><time>2026-04-06T04:37:23.001Z</time></trkpt><trkpt lat="14.510996343139777" lon="120.9951576488648"><ele>6.6</ele><time>2026-04-06T04:37:24.001Z</time></trkpt><trkpt lat="14.510904368225885" lon="120.99510866432374"><ele>6.199999999999999</ele><time>2026-04-06T04:37:25.001Z</time></trkpt><trkpt lat="14.51079565470482" lon="120.99508290346199"><ele>5.8</ele><time>2026-04-06T04:37:26.001Z</time></trkpt><trkpt lat="14.510695406620453" lon="120.99505914863163"><ele>5.4</ele><time>2026-04-06T04:37:27.001Z</time></trkpt><trkpt lat="14.5105897489036" lon="120.99506248670899"><ele>5.0</ele><time>2026-04-06T04:37:28.001Z</time></trkpt><trkpt lat="14.510505546535223" lon="120.99504065790158"><ele>5.0</ele><time>2026-04-06T04:37:29.001Z</time></trkpt><trkpt lat="14.510412213665871" lon="120.99502237754366"><ele>5.0</ele><time>2026-04-06T04:37:30.001Z</time></trkpt><trkpt lat="14.510338447769142" lon="120.99500423231176"><ele>5.0</ele><time>2026-04-06T04:37:31.001Z</time></trkpt><trkpt lat="14.510267043186536" lon="120.99499060942078"><ele>5.0</ele><time>2026-04-06T04:37:32.001Z</time></trkpt><trkpt lat="14.510194145470829" lon="120.9949718724268"><ele>5.0</ele><time>2026-04-06T04:37:33.001Z</time></trkpt><trkpt lat="14.510138643124144" lon="120.99492523787745"><ele>5.0</ele><time>2026-04-06T04:37:34.001Z</time></trkpt><trkpt lat="14.510071779656402" lon="120.99490944328123"><ele>5.4</ele><time>2026-04-06T04:37:35.001Z</time></trkpt><trkpt lat="14.510006525095449" lon="120.99489402873664"><ele>5.8</ele><time>2026-04-06T04:37:36.001Z</time></trkpt><trkpt lat="14.509896536715956" lon="120.9948680470979"><ele>6.199999999999999</ele><time>2026-04-06T04:37:38.001Z</time></trkpt><trkpt lat="14.509804689023586" lon="120.99484635068693"><ele>6.6</ele><time>2026-04-06T04:37:40.001Z</time></trkpt><trkpt lat="14.509703275562376" lon="120.9948223946309"><ele>7.0</ele><time>2026-04-06T04:37:41.999Z</time></trkpt><trkpt lat="14.509596161160752" lon="120.99479583559427"><ele>7.166666666666667</ele><time>2026-04-06T04:37:43.999Z</time></trkpt><trkpt lat="14.509482060053363" lon="120.99476983926014"><ele>7.333333333333334</ele><time>2026-04-06T04:37:45.999Z</time></trkpt><trkpt lat="14.509417417688333" lon="120.99475523889166"><ele>7.5</ele><time>2026-04-06T04:37:46.999Z</time></trkpt><trkpt lat="14.509292148122643" lon="120.9947258040321"><ele>7.666666666666666</ele><time>2026-04-06T04:37:48.999Z</time></trkpt><trkpt lat="14.509228263003648" lon="120.99471061656548"><ele>7.833333333333333</ele><time>2026-04-06T04:37:49.999Z</time></trkpt><trkpt lat="14.509159438882556" lon="120.99469380382932"><ele>8.0</ele><time>2026-04-06T04:37:50.999Z</time></trkpt><trkpt lat="14.509052653877465" lon="120.99466721206362"><ele>8.0</ele><time>2026-04-06T04:37:52.999Z</time></trkpt><trkpt lat="14.508986438263026" lon="120.99465116423677"><ele>8.0</ele><time>2026-04-06T04:37:53.999Z</time></trkpt><trkpt lat="14.50887303942582" lon="120.99462384469493"><ele>8.0</ele><time>2026-04-06T04:37:55.999Z</time></trkpt><trkpt lat="14.508763057322676" lon="120.99459793248828"><ele>8.0</ele><time>2026-04-06T04:37:57.999Z</time></trkpt><trkpt lat="14.508655491804852" lon="120.9945713892322"><ele>8.0</ele><time>2026-04-06T04:37:59.999Z</time></trkpt><trkpt lat="14.508581963190535" lon="120.99455332849276"><ele>7.999999999999999</ele><time>2026-04-06T04:38:01.999Z</time></trkpt><trkpt lat="14.508520666771908" lon="120.99453827228821"><ele>8.0</ele><time>2026-04-06T04:38:04Z</time></trkpt><trkpt lat="14.508449564396832" lon="120.99452222637345"><ele>8.0</ele><time>2026-04-06T04:38:07Z</time></trkpt><trkpt lat="14.508381087069749" lon="120.99450652307738"><ele>8.0</ele><time>2026-04-06T04:38:09Z</time></trkpt><trkpt lat="14.508318368769642" lon="120.99449214033203"><ele>7.999999999999999</ele><time>2026-04-06T04:38:10Z</time></trkpt><trkpt lat="14.508230467366557" lon="120.99447198245251"><ele>8.0</ele><time>2026-04-06T04:38:11Z</time></trkpt><trkpt lat="14.508127886863468" lon="120.99445218187113"><ele>8.0</ele><time>2026-04-06T04:38:12Z</time></trkpt><trkpt lat="14.508015133354109" lon="120.99442812550733"><ele>8.0</ele><time>2026-04-06T04:38:13Z</time></trkpt><trkpt lat="14.507901831256083" lon="120.99440361550354"><ele>8.0</ele><time>2026-04-06T04:38:14Z</time></trkpt><trkpt lat="14.507799299678707" lon="120.99438145643921"><ele>8.0</ele><time>2026-04-06T04:38:15Z</time></trkpt><trkpt lat="14.507692774179985" lon="120.99435843398084"><ele>8.0</ele><time>2026-04-06T04:38:16Z</time></trkpt><trkpt lat="14.507566309817115" lon="120.99432938522067"><ele>7.25</ele><time>2026-04-06T04:38:17Z</time></trkpt><trkpt lat="14.507450021915" lon="120.99430229971007"><ele>6.5</ele><time>2026-04-06T04:38:18Z</time></trkpt><trkpt lat="14.507331436204032" lon="120.99427467898745"><ele>5.75</ele><time>2026-04-06T04:38:19Z</time></trkpt><trkpt lat="14.507207691278369" lon="120.99424585658738"><ele>5.0</ele><time>2026-04-06T04:38:20Z</time></trkpt><trkpt lat="14.507094014827953" lon="120.99421937933015"><ele>4.8</ele><time>2026-04-06T04:38:21Z</time></trkpt><trkpt lat="14.506972519871038" lon="120.99419108525767"><ele>4.6</ele><time>2026-04-06T04:38:22Z</time></trkpt><trkpt lat="14.506867909743477" lon="120.99416673353346"><ele>4.4</ele><time>2026-04-06T04:38:23Z</time></trkpt><trkpt lat="14.506776642722937" lon="120.99414548759023"><ele>4.2</ele><time>2026-04-06T04:38:24Z</time></trkpt><trkpt lat="14.506700393535425" lon="120.99412773762926"><ele>4.0</ele><time>2026-04-06T04:38:25Z</time></trkpt><trkpt lat="14.506622371779136" lon="120.99410957502577"><ele>3.9999999999999996</ele><time>2026-04-06T04:38:26Z</time></trkpt><trkpt lat="14.506547304115665" lon="120.99409210012841"><ele>4.0</ele><time>2026-04-06T04:38:27Z</time></trkpt><trkpt lat="14.50646958589617" lon="120.99407400819227"><ele>4.0</ele><time>2026-04-06T04:38:28Z</time></trkpt><trkpt lat="14.506384420475905" lon="120.99405418264018"><ele>4.0</ele><time>2026-04-06T04:38:29Z</time></trkpt><trkpt lat="14.506299729194028" lon="120.99403446750678"><ele>3.9999999999999996</ele><time>2026-04-06T04:38:30Z</time></trkpt><trkpt lat="14.506232094839351" lon="120.99402043988236"><ele>4.0</ele><time>2026-04-06T04:38:31Z</time></trkpt><trkpt lat="14.506159210898591" lon="120.99400377864015"><ele>3.9999999999999996</ele><time>2026-04-06T04:38:32Z</time></trkpt><trkpt lat="14.506084271413823" lon="120.99398664751826"><ele>4.0</ele><time>2026-04-06T04:38:33Z</time></trkpt><trkpt lat="14.506013663432926" lon="120.99397050657377"><ele>4.0</ele><time>2026-04-06T04:38:34Z</time></trkpt><trkpt lat="14.505934576014955" lon="120.99395242723307"><ele>4.0</ele><time>2026-04-06T04:38:36Z</time></trkpt><trkpt lat="14.505871263064412" lon="120.993937953926"><ele>3.9999999999999996</ele><time>2026-04-06T04:38:38Z</time></trkpt><trkpt lat="14.505754079945268" lon="120.99391116592047"><ele>4.0</ele><time>2026-04-06T04:38:40Z</time></trkpt><trkpt lat="14.505688037265715" lon="120.99389606860747"><ele>3.9999999999999996</ele><time>2026-04-06T04:38:41Z</time></trkpt><trkpt lat="14.505622374179413" lon="120.99388105806099"><ele>4.0</ele><time>2026-04-06T04:38:42Z</time></trkpt><trkpt lat="14.505548529973316" lon="120.9938641773238"><ele>4.0</ele><time>2026-04-06T04:38:43Z</time></trkpt><trkpt lat="14.505470288639513" lon="120.99384647948074"><ele>4.0</ele><time>2026-04-06T04:38:44Z</time></trkpt><trkpt lat="14.50538903061122" lon="120.99382934430503"><ele>3.9999999999999996</ele><time>2026-04-06T04:38:45Z</time></trkpt><trkpt lat="14.505305223136876" lon="120.99381167152025"><ele>4.0</ele><time>2026-04-06T04:38:46Z</time></trkpt><trkpt lat="14.505220024747068" lon="120.99380916111718"><ele>4.4</ele><time>2026-04-06T04:38:47Z</time></trkpt><trkpt lat="14.505123851899123" lon="120.99378839231206"><ele>4.800000000000001</ele><time>2026-04-06T04:38:48Z</time></trkpt><trkpt lat="14.505032825841367" lon="120.99376735388891"><ele>5.199999999999999</ele><time>2026-04-06T04:38:49Z</time></trkpt><trkpt lat="14.504935119534789" lon="120.99374748024644"><ele>5.6</ele><time>2026-04-06T04:38:50Z</time></trkpt><trkpt lat="14.504838380352322" lon="120.99372416777825"><ele>6.0</ele><time>2026-04-06T04:38:51Z</time></trkpt><trkpt lat="14.504751255656881" lon="120.99370560524132"><ele>6.0</ele><time>2026-04-06T04:38:52Z</time></trkpt><trkpt lat="14.5046710365371" lon="120.99368752230428"><ele>6.0</ele><time>2026-04-06T04:38:53Z</time></trkpt><trkpt lat="14.504599484683016" lon="120.99367074482501"><ele>6.0</ele><time>2026-04-06T04:38:54Z</time></trkpt><trkpt lat="14.504516456113963" lon="120.99364899589905"><ele>6.0</ele><time>2026-04-06T04:38:56Z</time></trkpt><trkpt lat="14.504444094363874" lon="120.99363246010354"><ele>6.0</ele><time>2026-04-06T04:38:58Z</time></trkpt><trkpt lat="14.50437634266666" lon="120.9936084694774"><ele>6.0</ele><time>2026-04-06T04:39:00Z</time></trkpt><trkpt lat="14.504249541568388" lon="120.99358283345342"><ele>6.166666666666667</ele><time>2026-04-06T04:39:02Z</time></trkpt><trkpt lat="14.504179046026332" lon="120.99354617163836"><ele>6.333333333333334</ele><time>2026-04-06T04:39:03Z</time></trkpt><trkpt lat="14.504093921274512" lon="120.99352128431924"><ele>6.5</ele><time>2026-04-06T04:39:04Z</time></trkpt><trkpt lat="14.504000236693027" lon="120.99349389439324"><ele>6.666666666666667</ele><time>2026-04-06T04:39:05Z</time></trkpt><trkpt lat="14.503916081428024" lon="120.99346929035966"><ele>6.833333333333334</ele><time>2026-04-06T04:39:06Z</time></trkpt><trkpt lat="14.503844105354213" lon="120.99343861703636"><ele>7.0</ele><time>2026-04-06T04:39:07Z</time></trkpt><trkpt lat="14.503782178502524" lon="120.99341527931617"><ele>6.833333333333334</ele><time>2026-04-06T04:39:08Z</time></trkpt><trkpt lat="14.50371940050145" lon="120.99339162084013"><ele>6.666666666666667</ele><time>2026-04-06T04:39:09Z</time></trkpt><trkpt lat="14.503616418532115" lon="120.9933536349335"><ele>6.5</ele><time>2026-04-06T04:39:11Z</time></trkpt><trkpt lat="14.503540155819497" lon="120.99332525738174"><ele>6.333333333333334</ele><time>2026-04-06T04:39:13Z</time></trkpt><trkpt lat="14.503477514598368" lon="120.99330194841122"><ele>6.166666666666667</ele><time>2026-04-06T04:39:15.001Z</time></trkpt><trkpt lat="14.503398399803434" lon="120.99327218443149"><ele>6.0</ele><time>2026-04-06T04:39:18.001Z</time></trkpt><trkpt lat="14.503319160617833" lon="120.99324037715701"><ele>6.199999999999999</ele><time>2026-04-06T04:39:21.001Z</time></trkpt><trkpt lat="14.503239771995716" lon="120.99320850989523"><ele>6.3999999999999995</ele><time>2026-04-06T04:39:23.001Z</time></trkpt><trkpt lat="14.503135223549872" lon="120.99316564344599"><ele>6.6</ele><time>2026-04-06T04:39:25.001Z</time></trkpt><trkpt lat="14.503073695715615" lon="120.9931397774054"><ele>6.8</ele><time>2026-04-06T04:39:26.001Z</time></trkpt><trkpt lat="14.502954169949316" lon="120.99308952927595"><ele>7.0</ele><time>2026-04-06T04:39:28.001Z</time></trkpt><trkpt lat="14.502880449554311" lon="120.99305853755982"><ele>7.0</ele><time>2026-04-06T04:39:29.001Z</time></trkpt><trkpt lat="14.502799771248037" lon="120.99302661975167"><ele>6.999999999999999</ele><time>2026-04-06T04:39:30.001Z</time></trkpt><trkpt lat="14.502718130844123" lon="120.9929953081896"><ele>6.999999999999999</ele><time>2026-04-06T04:39:31.001Z</time></trkpt><trkpt lat="14.5026321613931" lon="120.99296233629512"><ele>7.0</ele><time>2026-04-06T04:39:32.001Z</time></trkpt><trkpt lat="14.50254092662953" lon="120.99292688570128"><ele>7.0</ele><time>2026-04-06T04:39:33.001Z</time></trkpt><trkpt lat="14.50243906590253" lon="120.99288691325704"><ele>7.000000000000001</ele><time>2026-04-06T04:39:34.001Z</time></trkpt><trkpt lat="14.50235749044827" lon="120.99285495475499"><ele>7.0</ele><time>2026-04-06T04:39:35.001Z</time></trkpt><trkpt lat="14.502271208512013" lon="120.99282115241235"><ele>7.0</ele><time>2026-04-06T04:39:36.001Z</time></trkpt><trkpt lat="14.502185881111101" lon="120.99278772400497"><ele>7.0</ele><time>2026-04-06T04:39:37.001Z</time></trkpt><trkpt lat="14.502105838294362" lon="120.99275579861329"><ele>7.000000000000001</ele><time>2026-04-06T04:39:38.001Z</time></trkpt><trkpt lat="14.502036706231221" lon="120.99272835339619"><ele>7.0</ele><time>2026-04-06T04:39:39.001Z</time></trkpt><trkpt lat="14.501917410638786" lon="120.99268177747871"><ele>7.333333333333334</ele><time>2026-04-06T04:39:41.001Z</time></trkpt><trkpt lat="14.501809498295739" lon="120.99263966082552"><ele>7.666666666666667</ele><time>2026-04-06T04:39:43.001Z</time></trkpt><trkpt lat="14.501750299582085" lon="120.99261503063282"><ele>8.0</ele><time>2026-04-06T04:39:44.001Z</time></trkpt><trkpt lat="14.501688090844876" lon="120.99258804367267"><ele>8.333333333333334</ele><time>2026-04-06T04:39:45.001Z</time></trkpt><trkpt lat="14.501569769363117" lon="120.99253096094051"><ele>8.666666666666666</ele><time>2026-04-06T04:39:47.001Z</time></trkpt><trkpt lat="14.50151191466129" lon="120.99249499709582"><ele>9.0</ele><time>2026-04-06T04:39:47.999Z</time></trkpt><trkpt lat="14.501458574054551" lon="120.99245016868272"><ele>9.0</ele><time>2026-04-06T04:39:48.999Z</time></trkpt><trkpt lat="14.501390040035902" lon="120.992394940703"><ele>9.0</ele><time>2026-04-06T04:39:49.999Z</time></trkpt><trkpt lat="14.501377926364286" lon="120.99233048215369"><ele>9.0</ele><time>2026-04-06T04:39:50.999Z</time></trkpt><trkpt lat="14.501337981213151" lon="120.99225351212772"><ele>9.0</ele><time>2026-04-06T04:39:51.999Z</time></trkpt><trkpt lat="14.501296788421847" lon="120.99217389653789"><ele>9.0</ele><time>2026-04-06T04:39:52.999Z</time></trkpt><trkpt lat="14.501252418296444" lon="120.99208810383475"><ele>9.0</ele><time>2026-04-06T04:39:53.999Z</time></trkpt><trkpt lat="14.501206259852177" lon="120.9919988532756"><ele>9.0</ele><time>2026-04-06T04:39:54.999Z</time></trkpt><trkpt lat="14.501161388178671" lon="120.99191209145253"><ele>9.0</ele><time>2026-04-06T04:39:55.999Z</time></trkpt><trkpt lat="14.50112157654264" lon="120.99181556000444"><ele>9.0</ele><time>2026-04-06T04:39:56.999Z</time></trkpt><trkpt lat="14.501075126669981" lon="120.99171184091935"><ele>9.0</ele><time>2026-04-06T04:39:57.999Z</time></trkpt><trkpt lat="14.501038043855" lon="120.99162730352752"><ele>9.0</ele><time>2026-04-06T04:39:58.999Z</time></trkpt><trkpt lat="14.501004210904073" lon="120.9915499832514"><ele>9.0</ele><time>2026-04-06T04:39:59.999Z</time></trkpt><trkpt lat="14.500976832828044" lon="120.99148741501595"><ele>9.0</ele><time>2026-04-06T04:40:00.999Z</time></trkpt><trkpt lat="14.50093877403837" lon="120.99141652247555"><ele>9.0</ele><time>2026-04-06T04:40:01.999Z</time></trkpt><trkpt lat="14.500802949184942" lon="120.99131501862598"><ele>9.0</ele><time>2026-04-06T04:40:03.999Z</time></trkpt><trkpt lat="14.50073207547256" lon="120.99126736025859"><ele>9.0</ele><time>2026-04-06T04:40:05.999Z</time></trkpt><trkpt lat="14.500615464159042" lon="120.99134637789834"><ele>9.0</ele><time>2026-04-06T04:40:06.999Z</time></trkpt><trkpt lat="14.500542908911973" lon="120.9913582634"><ele>9.0</ele><time>2026-04-06T04:40:11Z</time></trkpt><trkpt lat="14.500435915767813" lon="120.99138980288474"><ele>9.0</ele><time>2026-04-06T04:40:13Z</time></trkpt><trkpt lat="14.500369455017509" lon="120.99142760651915"><ele>9.0</ele><time>2026-04-06T04:40:14Z</time></trkpt><trkpt lat="14.500296316401263" lon="120.99142010272442"><ele>9.0</ele><time>2026-04-06T04:40:15Z</time></trkpt><trkpt lat="14.500182183496467" lon="120.99143482716185"><ele>9.0</ele><time>2026-04-06T04:40:17Z</time></trkpt><trkpt lat="14.500081072010639" lon="120.9914133438723"><ele>9.166666666666666</ele><time>2026-04-06T04:40:19Z</time></trkpt><trkpt lat="14.500016641917165" lon="120.99140006070893"><ele>9.333333333333334</ele><time>2026-04-06T04:40:20Z</time></trkpt><trkpt lat="14.49992302560067" lon="120.99134265534377"><ele>9.5</ele><time>2026-04-06T04:40:22Z</time></trkpt><trkpt lat="14.499866126443926" lon="120.99131286029329"><ele>9.666666666666668</ele><time>2026-04-06T04:40:24Z</time></trkpt><trkpt lat="14.499793291172283" lon="120.99127071196312"><ele>9.833333333333334</ele><time>2026-04-06T04:40:26Z</time></trkpt><trkpt lat="14.499714451849695" lon="120.99122261867838"><ele>10.0</ele><time>2026-04-06T04:40:28Z</time></trkpt><trkpt lat="14.499645449574679" lon="120.99118063331574"><ele>10.0</ele><time>2026-04-06T04:40:30Z</time></trkpt><trkpt lat="14.499554061018237" lon="120.99112502670395"><ele>10.0</ele><time>2026-04-06T04:40:32Z</time></trkpt><trkpt lat="14.499443209757418" lon="120.99105757793033"><ele>10.0</ele><time>2026-04-06T04:40:34Z</time></trkpt><trkpt lat="14.49937400895325" lon="120.99101586077794"><ele>10.0</ele><time>2026-04-06T04:40:35Z</time></trkpt><trkpt lat="14.499306195286573" lon="120.99097485997164"><ele>10.0</ele><time>2026-04-06T04:40:36Z</time></trkpt><trkpt lat="14.499243716672037" lon="120.9909370847999"><ele>10.0</ele><time>2026-04-06T04:40:37Z</time></trkpt><trkpt lat="14.499184792174935" lon="120.99090145844758"><ele>10.0</ele><time>2026-04-06T04:40:38Z</time></trkpt><trkpt lat="14.499110368502668" lon="120.99085646116059"><ele>10.0</ele><time>2026-04-06T04:40:39Z</time></trkpt><trkpt lat="14.499029995340909" lon="120.9908105447664"><ele>10.0</ele><time>2026-04-06T04:40:40Z</time></trkpt><trkpt lat="14.498946052127339" lon="120.99076429641805"><ele>10.0</ele><time>2026-04-06T04:40:41Z</time></trkpt><trkpt lat="14.498868297553464" lon="120.99072145766506"><ele>10.0</ele><time>2026-04-06T04:40:42Z</time></trkpt><trkpt lat="14.498749597768692" lon="120.99065291962535"><ele>9.833333333333334</ele><time>2026-04-06T04:40:44Z</time></trkpt><trkpt lat="14.498676694172023" lon="120.99060978122812"><ele>9.666666666666668</ele><time>2026-04-06T04:40:45Z</time></trkpt><trkpt lat="14.498609489660018" lon="120.99057001509676"><ele>9.5</ele><time>2026-04-06T04:40:46Z</time></trkpt><trkpt lat="14.498542609476091" lon="120.99053106847096"><ele>9.333333333333334</ele><time>2026-04-06T04:40:47Z</time></trkpt><trkpt lat="14.498474777161872" lon="120.99049214367692"><ele>9.166666666666666</ele><time>2026-04-06T04:40:48Z</time></trkpt><trkpt lat="14.498401243939233" lon="120.9904496421772"><ele>9.0</ele><time>2026-04-06T04:40:49Z</time></trkpt><trkpt lat="14.49832442927876" lon="120.99040524404094"><ele>9.0</ele><time>2026-04-06T04:40:50Z</time></trkpt><trkpt lat="14.498241182520099" lon="120.99035734927071"><ele>9.0</ele><time>2026-04-06T04:40:51Z</time></trkpt><trkpt lat="14.498158786636301" lon="120.99031000084437"><ele>9.0</ele><time>2026-04-06T04:40:52Z</time></trkpt><trkpt lat="14.498086302050597" lon="120.99026834785977"><ele>9.0</ele><time>2026-04-06T04:40:53Z</time></trkpt><trkpt lat="14.498006675729656" lon="120.99022271248536"><ele>9.0</ele><time>2026-04-06T04:40:54Z</time></trkpt><trkpt lat="14.497934319678341" lon="120.99018148145437"><ele>9.0</ele><time>2026-04-06T04:40:55Z</time></trkpt><trkpt lat="14.497873295142144" lon="120.99014670751251"><ele>8.8</ele><time>2026-04-06T04:40:56Z</time></trkpt><trkpt lat="14.497765952859808" lon="120.99008553418652"><ele>8.600000000000001</ele><time>2026-04-06T04:40:58Z</time></trkpt><trkpt lat="14.497688653623543" lon="120.99004148043065"><ele>8.4</ele><time>2026-04-06T04:41:00Z</time></trkpt><trkpt lat="14.4976204414818" lon="120.99000260556566"><ele>8.200000000000001</ele><time>2026-04-06T04:41:02Z</time></trkpt><trkpt lat="14.497560649744882" lon="120.98996827036578"><ele>8.0</ele><time>2026-04-06T04:41:04Z</time></trkpt><trkpt lat="14.497477672841299" lon="120.9899206034744"><ele>7.999999999999999</ele><time>2026-04-06T04:41:07Z</time></trkpt><trkpt lat="14.49739708194833" lon="120.98987430725082"><ele>8.0</ele><time>2026-04-06T04:41:09Z</time></trkpt><trkpt lat="14.497306703220444" lon="120.98982238785884"><ele>8.0</ele><time>2026-04-06T04:41:11Z</time></trkpt><trkpt lat="14.497232030524064" lon="120.98981529556013"><ele>8.0</ele><time>2026-04-06T04:41:12Z</time></trkpt><trkpt lat="14.497176411105697" lon="120.98977292419806"><ele>7.999999999999999</ele><time>2026-04-06T04:41:13.001Z</time></trkpt><trkpt lat="14.497113165452355" lon="120.98974522435698"><ele>8.0</ele><time>2026-04-06T04:41:14.001Z</time></trkpt><trkpt lat="14.497045799373161" lon="120.98971571989048"><ele>7.999999999999999</ele><time>2026-04-06T04:41:15.001Z</time></trkpt><trkpt lat="14.496982545827017" lon="120.9896880165865"><ele>8.0</ele><time>2026-04-06T04:41:16.001Z</time></trkpt><trkpt lat="14.496910628514872" lon="120.98965709198994"><ele>8.0</ele><time>2026-04-06T04:41:17.001Z</time></trkpt><trkpt lat="14.496834610857077" lon="120.989626199117"><ele>8.0</ele><time>2026-04-06T04:41:18.001Z</time></trkpt><trkpt lat="14.496747103444036" lon="120.9895906369085"><ele>7.999999999999999</ele><time>2026-04-06T04:41:19.001Z</time></trkpt><trkpt lat="14.496669146103635" lon="120.98955900078941"><ele>8.0</ele><time>2026-04-06T04:41:20.001Z</time></trkpt><trkpt lat="14.49660216124057" lon="120.98953193427599"><ele>7.999999999999999</ele><time>2026-04-06T04:41:21.001Z</time></trkpt><trkpt lat="14.496533009200872" lon="120.98950399208331"><ele>8.0</ele><time>2026-04-06T04:41:22.001Z</time></trkpt><trkpt lat="14.496412991967043" lon="120.98945549684483"><ele>8.0</ele><time>2026-04-06T04:41:24.001Z</time></trkpt><trkpt lat="14.496349990959835" lon="120.98943004008488"><ele>8.0</ele><time>2026-04-06T04:41:25.001Z</time></trkpt><trkpt lat="14.496252129865269" lon="120.98939474136012"><ele>7.999999999999999</ele><time>2026-04-06T04:41:27.001Z</time></trkpt><trkpt lat="14.496189657102027" lon="120.98937508070254"><ele>8.0</ele><time>2026-04-06T04:41:29.001Z</time></trkpt><trkpt lat="14.496099161905647" lon="120.98934660118346"><ele>8.0</ele><time>2026-04-06T04:41:31.001Z</time></trkpt><trkpt lat="14.495999062603635" lon="120.9893150991755"><ele>8.0</ele><time>2026-04-06T04:41:33.001Z</time></trkpt><trkpt lat="14.495932023116083" lon="120.98929400139933"><ele>8.0</ele><time>2026-04-06T04:41:34.001Z</time></trkpt><trkpt lat="14.495838670478044" lon="120.98927188376517"><ele>8.0</ele><time>2026-04-06T04:41:35.001Z</time></trkpt><trkpt lat="14.49575079554506" lon="120.98924952834855"><ele>8.0</ele><time>2026-04-06T04:41:36.001Z</time></trkpt><trkpt lat="14.49565409188236" lon="120.98922492689115"><ele>7.999999999999999</ele><time>2026-04-06T04:41:37.001Z</time></trkpt><trkpt lat="14.495564252912366" lon="120.98920207181364"><ele>8.0</ele><time>2026-04-06T04:41:38.001Z</time></trkpt><trkpt lat="14.49548070016152" lon="120.98917623755959"><ele>8.0</ele><time>2026-04-06T04:41:39.001Z</time></trkpt><trkpt lat="14.495412117677873" lon="120.98914957917336"><ele>8.0</ele><time>2026-04-06T04:41:40.001Z</time></trkpt><trkpt lat="14.495331821076709" lon="120.98911836742813"><ele>7.999999999999999</ele><time>2026-04-06T04:41:41.001Z</time></trkpt><trkpt lat="14.495260720294922" lon="120.98909073015787"><ele>8.0</ele><time>2026-04-06T04:41:42.001Z</time></trkpt><trkpt lat="14.495197255091298" lon="120.98906619376717"><ele>8.200000000000001</ele><time>2026-04-06T04:41:43.001Z</time></trkpt><trkpt lat="14.495133455713471" lon="120.98904155766816"><ele>8.4</ele><time>2026-04-06T04:41:44.001Z</time></trkpt><trkpt lat="14.495038646905126" lon="120.98900494733142"><ele>8.600000000000001</ele><time>2026-04-06T04:41:46.001Z</time></trkpt><trkpt lat="14.4949262979015" lon="120.988959660549"><ele>8.8</ele><time>2026-04-06T04:41:48.001Z</time></trkpt><trkpt lat="14.494826483669065" lon="120.98891377151851"><ele>9.0</ele><time>2026-04-06T04:41:50.001Z</time></trkpt><trkpt lat="14.49476566517493" lon="120.98888629970456"><ele>9.0</ele><time>2026-04-06T04:41:51.001Z</time></trkpt><trkpt lat="14.494707944692053" lon="120.9888602272688"><ele>9.0</ele><time>2026-04-06T04:41:52.001Z</time></trkpt><trkpt lat="14.494608452956967" lon="120.98881520328881"><ele>9.0</ele><time>2026-04-06T04:41:53.999Z</time></trkpt><trkpt lat="14.494509589578318" lon="120.98877035566761"><ele>9.0</ele><time>2026-04-06T04:41:55.999Z</time></trkpt><trkpt lat="14.49443759812137" lon="120.9887376980116"><ele>9.0</ele><time>2026-04-06T04:41:56.999Z</time></trkpt><trkpt lat="14.494371502550239" lon="120.98870771491357"><ele>9.0</ele><time>2026-04-06T04:41:57.999Z</time></trkpt><trkpt lat="14.494302787563765" lon="120.98867654378279"><ele>8.833333333333334</ele><time>2026-04-06T04:41:58.999Z</time></trkpt><trkpt lat="14.494238571876847" lon="120.98864651573078"><ele>8.666666666666666</ele><time>2026-04-06T04:41:59.999Z</time></trkpt><trkpt lat="14.49417475699204" lon="120.98861749236963"><ele>8.5</ele><time>2026-04-06T04:42:00.999Z</time></trkpt><trkpt lat="14.494114933208458" lon="120.98859033781568"><ele>8.333333333333332</ele><time>2026-04-06T04:42:01.999Z</time></trkpt><trkpt lat="14.494055567397293" lon="120.9885633910955"><ele>8.166666666666666</ele><time>2026-04-06T04:42:02.999Z</time></trkpt><trkpt lat="14.493947923276805" lon="120.98851374938903"><ele>8.0</ele><time>2026-04-06T04:42:04.999Z</time></trkpt><trkpt lat="14.493883144163341" lon="120.9884838923347"><ele>7.999999999999999</ele><time>2026-04-06T04:42:05.999Z</time></trkpt><trkpt lat="14.493818335322242" lon="120.98845926665096"><ele>8.0</ele><time>2026-04-06T04:42:06.999Z</time></trkpt><trkpt lat="14.493733739637522" lon="120.98841999803929"><ele>8.0</ele><time>2026-04-06T04:42:09Z</time></trkpt><trkpt lat="14.493622666049072" lon="120.98836982796556"><ele>8.0</ele><time>2026-04-06T04:42:11Z</time></trkpt><trkpt lat="14.493564858005158" lon="120.98834371704162"><ele>7.999999999999999</ele><time>2026-04-06T04:42:12Z</time></trkpt><trkpt lat="14.493505925303374" lon="120.98831798655587"><ele>8.0</ele><time>2026-04-06T04:42:13Z</time></trkpt><trkpt lat="14.49338724880032" lon="120.9882673734055"><ele>8.0</ele><time>2026-04-06T04:42:15Z</time></trkpt><trkpt lat="14.493318582714625" lon="120.98823740598273"><ele>8.0</ele><time>2026-04-06T04:42:16Z</time></trkpt><trkpt lat="14.493237370520356" lon="120.98820192283482"><ele>8.0</ele><time>2026-04-06T04:42:17Z</time></trkpt><trkpt lat="14.493143135632934" lon="120.98816424711362"><ele>8.0</ele><time>2026-04-06T04:42:18Z</time></trkpt><trkpt lat="14.4930476014001" lon="120.98812621612998"><ele>8.0</ele><time>2026-04-06T04:42:19Z</time></trkpt><trkpt lat="14.492964341007998" lon="120.98809307078464"><ele>8.166666666666666</ele><time>2026-04-06T04:42:20Z</time></trkpt><trkpt lat="14.492893628819578" lon="120.98806678683897"><ele>8.333333333333332</ele><time>2026-04-06T04:42:21Z</time></trkpt><trkpt lat="14.49281354750737" lon="120.98803597036853"><ele>8.5</ele><time>2026-04-06T04:42:23Z</time></trkpt><trkpt lat="14.492752830247271" lon="120.9880126054865"><ele>8.666666666666666</ele><time>2026-04-06T04:42:26Z</time></trkpt><trkpt lat="14.492671765278352" lon="120.98798141051377"><ele>8.833333333333334</ele><time>2026-04-06T04:42:30Z</time></trkpt><trkpt lat="14.492593346184263" lon="120.98795123369007"><ele>9.0</ele><time>2026-04-06T04:42:32Z</time></trkpt><trkpt lat="14.492527126442335" lon="120.98793667781305"><ele>9.0</ele><time>2026-04-06T04:42:36Z</time></trkpt><trkpt lat="14.492464712785253" lon="120.98790207786742"><ele>9.0</ele><time>2026-04-06T04:42:55Z</time></trkpt><trkpt lat="14.49238075285733" lon="120.98788781405841"><ele>9.0</ele><time>2026-04-06T04:42:58Z</time></trkpt><trkpt lat="14.492312036033315" lon="120.9878585630202"><ele>9.0</ele><time>2026-04-06T04:43:00Z</time></trkpt><trkpt lat="14.492220050757885" lon="120.98782296594747"><ele>9.0</ele><time>2026-04-06T04:43:02Z</time></trkpt><trkpt lat="14.492121701338586" lon="120.9877917435928"><ele>9.0</ele><time>2026-04-06T04:43:04Z</time></trkpt><trkpt lat="14.492025702362488" lon="120.98775984239981"><ele>9.25</ele><time>2026-04-06T04:43:06Z</time></trkpt><trkpt lat="14.491925055808158" lon="120.98772483926318"><ele>9.5</ele><time>2026-04-06T04:43:08Z</time></trkpt><trkpt lat="14.491810658543356" lon="120.98768370259921"><ele>9.75</ele><time>2026-04-06T04:43:10Z</time></trkpt><trkpt lat="14.491706861470659" lon="120.98761707970725"><ele>10.0</ele><time>2026-04-06T04:43:12.001Z</time></trkpt><trkpt lat="14.491586308011957" lon="120.9875729338328"><ele>10.0</ele><time>2026-04-06T04:43:14.001Z</time></trkpt><trkpt lat="14.491510375638175" lon="120.9875450922872"><ele>10.0</ele><time>2026-04-06T04:43:15.001Z</time></trkpt><trkpt lat="14.49143962848637" lon="120.987518869135"><ele>10.0</ele><time>2026-04-06T04:43:16.001Z</time></trkpt><trkpt lat="14.491367249484352" lon="120.98749204112417"><ele>10.0</ele><time>2026-04-06T04:43:17.001Z</time></trkpt><trkpt lat="14.491271196095738" lon="120.9874564379581"><ele>10.0</ele><time>2026-04-06T04:43:18.001Z</time></trkpt><trkpt lat="14.491170431888527" lon="120.98741908868784"><ele>10.0</ele><time>2026-04-06T04:43:19.001Z</time></trkpt><trkpt lat="14.491058844837305" lon="120.98737974143654"><ele>9.4</ele><time>2026-04-06T04:43:20.001Z</time></trkpt><trkpt lat="14.490955159844198" lon="120.98734546365797"><ele>8.8</ele><time>2026-04-06T04:43:21.001Z</time></trkpt><trkpt lat="14.490857027748222" lon="120.98731311146177"><ele>8.2</ele><time>2026-04-06T04:43:22.001Z</time></trkpt><trkpt lat="14.490765395212298" lon="120.98728296262787"><ele>7.6</ele><time>2026-04-06T04:43:23.001Z</time></trkpt><trkpt lat="14.490688413635024" lon="120.98726039727875"><ele>7.0</ele><time>2026-04-06T04:43:24.001Z</time></trkpt><trkpt lat="14.490621640914604" lon="120.98724077685756"><ele>7.0</ele><time>2026-04-06T04:43:25.001Z</time></trkpt><trkpt lat="14.490534496238023" lon="120.98721333874221"><ele>6.999999999999999</ele><time>2026-04-06T04:43:26.001Z</time></trkpt><trkpt lat="14.490438859001365" lon="120.98718400788593"><ele>6.999999999999999</ele><time>2026-04-06T04:43:27.001Z</time></trkpt><trkpt lat="14.490331799407691" lon="120.98715114926782"><ele>7.0</ele><time>2026-04-06T04:43:28.001Z</time></trkpt><trkpt lat="14.490233025611788" lon="120.98711894286392"><ele>7.0</ele><time>2026-04-06T04:43:29.001Z</time></trkpt><trkpt lat="14.49013104273813" lon="120.98708608325117"><ele>7.0</ele><time>2026-04-06T04:43:30.001Z</time></trkpt><trkpt lat="14.490030799390091" lon="120.98705661209651"><ele>7.0</ele><time>2026-04-06T04:43:31.001Z</time></trkpt><trkpt lat="14.489927206936263" lon="120.98702613131668"><ele>7.0</ele><time>2026-04-06T04:43:32.001Z</time></trkpt><trkpt lat="14.489820706101245" lon="120.98699279439514"><ele>7.0</ele><time>2026-04-06T04:43:33.001Z</time></trkpt><trkpt lat="14.489699058801172" lon="120.98695488581438"><ele>7.5</ele><time>2026-04-06T04:43:34.001Z</time></trkpt><trkpt lat="14.489581890428415" lon="120.98695269545512"><ele>8.0</ele><time>2026-04-06T04:43:35.001Z</time></trkpt><trkpt lat="14.489479921476816" lon="120.98691779721214"><ele>8.5</ele><time>2026-04-06T04:43:36.001Z</time></trkpt><trkpt lat="14.489390583295657" lon="120.98687790528736"><ele>9.0</ele><time>2026-04-06T04:43:37.001Z</time></trkpt><trkpt lat="14.489232442970872" lon="120.9868498819048"><ele>9.0</ele><time>2026-04-06T04:43:38.001Z</time></trkpt><trkpt lat="14.48913461656585" lon="120.98675565099538"><ele>9.0</ele><time>2026-04-06T04:43:39.001Z</time></trkpt><trkpt lat="14.489014081535062" lon="120.98670573824383"><ele>9.0</ele><time>2026-04-06T04:43:40.001Z</time></trkpt><trkpt lat="14.488890141681114" lon="120.98665430958341"><ele>9.0</ele><time>2026-04-06T04:43:41.001Z</time></trkpt><trkpt lat="14.488765451145834" lon="120.986602568912"><ele>8.75</ele><time>2026-04-06T04:43:42.001Z</time></trkpt><trkpt lat="14.48865325199669" lon="120.98655308865688"><ele>8.5</ele><time>2026-04-06T04:43:43.001Z</time></trkpt><trkpt lat="14.488544869680085" lon="120.98650367633958"><ele>8.25</ele><time>2026-04-06T04:43:44.001Z</time></trkpt><trkpt lat="14.488441062514266" lon="120.98645595751385"><ele>8.0</ele><time>2026-04-06T04:43:45.001Z</time></trkpt><trkpt lat="14.488343883524102" lon="120.98641025003657"><ele>8.0</ele><time>2026-04-06T04:43:46.001Z</time></trkpt><trkpt lat="14.488238711949302" lon="120.98636129639578"><ele>8.0</ele><time>2026-04-06T04:43:47.001Z</time></trkpt><trkpt lat="14.488149216363114" lon="120.98633689631806"><ele>8.0</ele><time>2026-04-06T04:43:48.001Z</time></trkpt><trkpt lat="14.48805917676261" lon="120.98627507043145"><ele>8.0</ele><time>2026-04-06T04:43:49.001Z</time></trkpt><trkpt lat="14.487967372197717" lon="120.98623044056893"><ele>8.0</ele><time>2026-04-06T04:43:50.001Z</time></trkpt><trkpt lat="14.48786507388329" lon="120.98618074729453"><ele>8.200000000000001</ele><time>2026-04-06T04:43:51.001Z</time></trkpt><trkpt lat="14.487764803126577" lon="120.98613208875314"><ele>8.4</ele><time>2026-04-06T04:43:52.001Z</time></trkpt><trkpt lat="14.487663099310046" lon="120.98608266413525"><ele>8.600000000000001</ele><time>2026-04-06T04:43:53.001Z</time></trkpt><trkpt lat="14.487559674916731" lon="120.98603214280237"><ele>8.8</ele><time>2026-04-06T04:43:54.001Z</time></trkpt><trkpt lat="14.487469131743705" lon="120.98598791345842"><ele>9.0</ele><time>2026-04-06T04:43:55.001Z</time></trkpt><trkpt lat="14.487381431623769" lon="120.98595143323364"><ele>9.0</ele><time>2026-04-06T04:43:56.001Z</time></trkpt><trkpt lat="14.487293485089465" lon="120.98592074898764"><ele>9.0</ele><time>2026-04-06T04:43:57.001Z</time></trkpt><trkpt lat="14.487212308292769" lon="120.98586276756683"><ele>9.0</ele><time>2026-04-06T04:43:58.001Z</time></trkpt><trkpt lat="14.487119240162622" lon="120.98581742798562"><ele>9.0</ele><time>2026-04-06T04:43:59.001Z</time></trkpt><trkpt lat="14.48702390793076" lon="120.98577098556572"><ele>9.0</ele><time>2026-04-06T04:44:00Z</time></trkpt><trkpt lat="14.486923393817332" lon="120.98572172738832"><ele>8.8</ele><time>2026-04-06T04:44:01Z</time></trkpt><trkpt lat="14.486823747600932" lon="120.98567299800092"><ele>8.600000000000001</ele><time>2026-04-06T04:44:02Z</time></trkpt><trkpt lat="14.486720947637513" lon="120.98562317923982"><ele>8.4</ele><time>2026-04-06T04:44:03Z</time></trkpt><trkpt lat="14.486618265882537" lon="120.98558432823283"><ele>8.200000000000001</ele><time>2026-04-06T04:44:04Z</time></trkpt><trkpt lat="14.486516410073232" lon="120.98553531859862"><ele>8.0</ele><time>2026-04-06T04:44:05Z</time></trkpt><trkpt lat="14.486410515706158" lon="120.9854908573785"><ele>8.0</ele><time>2026-04-06T04:44:06Z</time></trkpt><trkpt lat="14.48631305124931" lon="120.98542664496874"><ele>8.0</ele><time>2026-04-06T04:44:07Z</time></trkpt><trkpt lat="14.48621755407325" lon="120.98538222337775"><ele>8.0</ele><time>2026-04-06T04:44:08Z</time></trkpt><trkpt lat="14.486129778839443" lon="120.98534131056574"><ele>8.0</ele><time>2026-04-06T04:44:09Z</time></trkpt><trkpt lat="14.486032412055721" lon="120.98529573705312"><ele>8.0</ele><time>2026-04-06T04:44:10Z</time></trkpt><trkpt lat="14.485935131397373" lon="120.98525000313286"><ele>8.25</ele><time>2026-04-06T04:44:11Z</time></trkpt><trkpt lat="14.485832609328536" lon="120.98520180521689"><ele>8.5</ele><time>2026-04-06T04:44:12Z</time></trkpt><trkpt lat="14.48572036027646" lon="120.98515170663826"><ele>8.75</ele><time>2026-04-06T04:44:13Z</time></trkpt><trkpt lat="14.485604192788172" lon="120.98510551187019"><ele>9.0</ele><time>2026-04-06T04:44:14Z</time></trkpt><trkpt lat="14.485496895240491" lon="120.98506284428802"><ele>9.25</ele><time>2026-04-06T04:44:15Z</time></trkpt><trkpt lat="14.48538313449812" lon="120.98503436282624"><ele>9.5</ele><time>2026-04-06T04:44:16Z</time></trkpt><trkpt lat="14.485268574519278" lon="120.98498028427872"><ele>9.75</ele><time>2026-04-06T04:44:17Z</time></trkpt><trkpt lat="14.485160483551079" lon="120.98493319724197"><ele>10.0</ele><time>2026-04-06T04:44:18Z</time></trkpt><trkpt lat="14.485064878940921" lon="120.98486919366199"><ele>9.8</ele><time>2026-04-06T04:44:19Z</time></trkpt><trkpt lat="14.48496131927797" lon="120.98481843308812"><ele>9.6</ele><time>2026-04-06T04:44:20Z</time></trkpt><trkpt lat="14.484857921734639" lon="120.98476775196634"><ele>9.4</ele><time>2026-04-06T04:44:21Z</time></trkpt><trkpt lat="14.4847647022129" lon="120.98472205981366"><ele>9.2</ele><time>2026-04-06T04:44:22Z</time></trkpt><trkpt lat="14.484667009402349" lon="120.98469460501208"><ele>9.0</ele><time>2026-04-06T04:44:23Z</time></trkpt><trkpt lat="14.484581534994586" lon="120.98464898466659"><ele>9.0</ele><time>2026-04-06T04:44:24Z</time></trkpt><trkpt lat="14.484500582577201" lon="120.98460495370445"><ele>9.0</ele><time>2026-04-06T04:44:25Z</time></trkpt><trkpt lat="14.48442309265878" lon="120.98456233458423"><ele>9.0</ele><time>2026-04-06T04:44:26Z</time></trkpt><trkpt lat="14.48433408970604" lon="120.98450949424904"><ele>9.0</ele><time>2026-04-06T04:44:27Z</time></trkpt><trkpt lat="14.484241244086606" lon="120.98445644180896"><ele>9.0</ele><time>2026-04-06T04:44:28Z</time></trkpt><trkpt lat="14.484163875401551" lon="120.9843907195025"><ele>9.0</ele><time>2026-04-06T04:44:29Z</time></trkpt><trkpt lat="14.484086574616867" lon="120.98434090142763"><ele>9.0</ele><time>2026-04-06T04:44:30Z</time></trkpt><trkpt lat="14.484009734826179" lon="120.98429138047835"><ele>9.0</ele><time>2026-04-06T04:44:31Z</time></trkpt><trkpt lat="14.483934855999795" lon="120.9842415414111"><ele>9.0</ele><time>2026-04-06T04:44:32Z</time></trkpt><trkpt lat="14.483865125712567" lon="120.98419032200462"><ele>9.0</ele><time>2026-04-06T04:44:33Z</time></trkpt><trkpt lat="14.483779435413453" lon="120.98414695708452"><ele>8.8</ele><time>2026-04-06T04:44:34Z</time></trkpt><trkpt lat="14.483704768624557" lon="120.9840920096092"><ele>8.600000000000001</ele><time>2026-04-06T04:44:35Z</time></trkpt><trkpt lat="14.483630939464568" lon="120.98401830361485"><ele>8.4</ele><time>2026-04-06T04:44:36Z</time></trkpt><trkpt lat="14.483560794690062" lon="120.98396236221048"><ele>8.200000000000001</ele><time>2026-04-06T04:44:37Z</time></trkpt><trkpt lat="14.483479547247775" lon="120.98389829876525"><ele>8.0</ele><time>2026-04-06T04:44:38Z</time></trkpt><trkpt lat="14.483399047665614" lon="120.98383482503175"><ele>7.999999999999999</ele><time>2026-04-06T04:44:39Z</time></trkpt><trkpt lat="14.483321489578056" lon="120.98377367061032"><ele>8.0</ele><time>2026-04-06T04:44:40Z</time></trkpt><trkpt lat="14.48325554708768" lon="120.98371913771193"><ele>8.0</ele><time>2026-04-06T04:44:41Z</time></trkpt><trkpt lat="14.483187885364398" lon="120.98366213830384"><ele>8.0</ele><time>2026-04-06T04:44:42Z</time></trkpt><trkpt lat="14.483120001477397" lon="120.98360495177715"><ele>7.999999999999999</ele><time>2026-04-06T04:44:43Z</time></trkpt><trkpt lat="14.483058880028203" lon="120.98355133077948"><ele>8.0</ele><time>2026-04-06T04:44:44Z</time></trkpt><trkpt lat="14.482999121957985" lon="120.98349784650209"><ele>7.999999999999999</ele><time>2026-04-06T04:44:45Z</time></trkpt><trkpt lat="14.482934340198174" lon="120.98343986593405"><ele>8.0</ele><time>2026-04-06T04:44:46Z</time></trkpt><trkpt lat="14.482865272346409" lon="120.98337804927174"><ele>8.0</ele><time>2026-04-06T04:44:47Z</time></trkpt><trkpt lat="14.482800541927144" lon="120.98332011469302"><ele>8.0</ele><time>2026-04-06T04:44:48Z</time></trkpt><trkpt lat="14.482742379183923" lon="120.98326805853284"><ele>7.999999999999999</ele><time>2026-04-06T04:44:49Z</time></trkpt><trkpt lat="14.482683749295402" lon="120.9832155839894"><ele>8.0</ele><time>2026-04-06T04:44:50Z</time></trkpt><trkpt lat="14.48263099214908" lon="120.98316836563848"><ele>8.333333333333332</ele><time>2026-04-06T04:44:51Z</time></trkpt><trkpt lat="14.482559726439401" lon="120.98310458187231"><ele>8.666666666666666</ele><time>2026-04-06T04:44:52Z</time></trkpt><trkpt lat="14.482496196561414" lon="120.98304772177633"><ele>9.0</ele><time>2026-04-06T04:44:53Z</time></trkpt><trkpt lat="14.482436364949578" lon="120.98299417167375"><ele>9.333333333333334</ele><time>2026-04-06T04:44:54Z</time></trkpt><trkpt lat="14.48238185468614" lon="120.98294538425274"><ele>9.666666666666668</ele><time>2026-04-06T04:44:55Z</time></trkpt><trkpt lat="14.482326354975413" lon="120.98289571127154"><ele>10.0</ele><time>2026-04-06T04:44:56Z</time></trkpt><trkpt lat="14.482265308133218" lon="120.98284107362332"><ele>10.0</ele><time>2026-04-06T04:44:57Z</time></trkpt><trkpt lat="14.48220468850213" lon="120.98278872520658"><ele>10.0</ele><time>2026-04-06T04:44:58Z</time></trkpt><trkpt lat="14.482136186961492" lon="120.98272912056089"><ele>10.0</ele><time>2026-04-06T04:44:59Z</time></trkpt><trkpt lat="14.482049260579103" lon="120.98265348404783"><ele>10.0</ele><time>2026-04-06T04:45:00Z</time></trkpt><trkpt lat="14.481947167513349" lon="120.98256465069001"><ele>10.0</ele><time>2026-04-06T04:45:01Z</time></trkpt><trkpt lat="14.481856769980018" lon="120.98248599388249"><ele>9.833333333333334</ele><time>2026-04-06T04:45:02Z</time></trkpt><trkpt lat="14.481774631439308" lon="120.98241452338407"><ele>9.666666666666668</ele><time>2026-04-06T04:45:03Z</time></trkpt><trkpt lat="14.481695834417492" lon="120.98234596042906"><ele>9.5</ele><time>2026-04-06T04:45:04Z</time></trkpt><trkpt lat="14.481625107523474" lon="120.98228441943778"><ele>9.333333333333334</ele><time>2026-04-06T04:45:05Z</time></trkpt><trkpt lat="14.481566157494449" lon="120.98223312577151"><ele>9.166666666666666</ele><time>2026-04-06T04:45:06Z</time></trkpt><trkpt lat="14.48151728187665" lon="120.98219073042834"><ele>9.0</ele><time>2026-04-06T04:45:07Z</time></trkpt><trkpt lat="14.481449748607519" lon="120.9821311832985"><ele>9.0</ele><time>2026-04-06T04:45:09Z</time></trkpt><trkpt lat="14.481376779347162" lon="120.98206208050827"><ele>9.0</ele><time>2026-04-06T04:45:11Z</time></trkpt><trkpt lat="14.48128313254284" lon="120.98197026749133"><ele>9.0</ele><time>2026-04-06T04:45:13.001Z</time></trkpt><trkpt lat="14.481221074123688" lon="120.98190942434434"><ele>9.0</ele><time>2026-04-06T04:45:14.001Z</time></trkpt><trkpt lat="14.481137975261294" lon="120.9818279530235"><ele>9.0</ele><time>2026-04-06T04:45:15.001Z</time></trkpt><trkpt lat="14.481059018680734" lon="120.9817365447377"><ele>9.5</ele><time>2026-04-06T04:45:16.001Z</time></trkpt><trkpt lat="14.480985485152429" lon="120.98164904291164"><ele>10.0</ele><time>2026-04-06T04:45:17.001Z</time></trkpt><trkpt lat="14.480908018719784" lon="120.98155765362114"><ele>10.5</ele><time>2026-04-06T04:45:18.001Z</time></trkpt><trkpt lat="14.4808228235428" lon="120.98146964264754"><ele>11.0</ele><time>2026-04-06T04:45:19.001Z</time></trkpt><trkpt lat="14.480738175045321" lon="120.98138307056297"><ele>11.0</ele><time>2026-04-06T04:45:20.001Z</time></trkpt><trkpt lat="14.480659123424115" lon="120.9813003550873"><ele>11.0</ele><time>2026-04-06T04:45:21.001Z</time></trkpt><trkpt lat="14.480584790355872" lon="120.98122160768642"><ele>11.0</ele><time>2026-04-06T04:45:22.001Z</time></trkpt><trkpt lat="14.480530535063085" lon="120.98116413039584"><ele>11.0</ele><time>2026-04-06T04:45:23.001Z</time></trkpt><trkpt lat="14.480457138983752" lon="120.9810872402667"><ele>11.0</ele><time>2026-04-06T04:45:25.001Z</time></trkpt><trkpt lat="14.480364138601251" lon="120.98099007694604"><ele>10.200000000000001</ele><time>2026-04-06T04:45:27.001Z</time></trkpt><trkpt lat="14.480271436409243" lon="120.98089300891048"><ele>9.4</ele><time>2026-04-06T04:45:29.001Z</time></trkpt><trkpt lat="14.480225514689275" lon="120.98084456801564"><ele>8.6</ele><time>2026-04-06T04:45:30.001Z</time></trkpt><trkpt lat="14.480170336982429" lon="120.98078636337058"><ele>7.8</ele><time>2026-04-06T04:45:31.001Z</time></trkpt><trkpt lat="14.480119555783837" lon="120.98073279642821"><ele>7.0</ele><time>2026-04-06T04:45:32.001Z</time></trkpt><trkpt lat="14.48004099273444" lon="120.98064992357372"><ele>6.833333333333334</ele><time>2026-04-06T04:45:34.001Z</time></trkpt><trkpt lat="14.479979003943958" lon="120.98058565663342"><ele>6.666666666666667</ele><time>2026-04-06T04:45:36.001Z</time></trkpt><trkpt lat="14.479910316293095" lon="120.9805171023468"><ele>6.5</ele><time>2026-04-06T04:45:38.001Z</time></trkpt><trkpt lat="14.479865189304341" lon="120.98047103727497"><ele>6.333333333333334</ele><time>2026-04-06T04:45:39.001Z</time></trkpt><trkpt lat="14.479794058863492" lon="120.98039842816478"><ele>6.166666666666667</ele><time>2026-04-06T04:45:40.001Z</time></trkpt><trkpt lat="14.47974248885981" lon="120.98034578610344"><ele>6.0</ele><time>2026-04-06T04:45:41.001Z</time></trkpt><trkpt lat="14.479689343281459" lon="120.98029153573333"><ele>6.0</ele><time>2026-04-06T04:45:42.001Z</time></trkpt><trkpt lat="14.479634714009975" lon="120.98023577081801"><ele>6.0</ele><time>2026-04-06T04:45:43.001Z</time></trkpt><trkpt lat="14.479578244307332" lon="120.98017812721561"><ele>6.0</ele><time>2026-04-06T04:45:44.001Z</time></trkpt><trkpt lat="14.479510499568601" lon="120.98010897419027"><ele>6.0</ele><time>2026-04-06T04:45:45.001Z</time></trkpt><trkpt lat="14.479445462886407" lon="120.98004258551482"><ele>6.0</ele><time>2026-04-06T04:45:46.001Z</time></trkpt><trkpt lat="14.47937715658069" lon="120.97997286900085"><ele>6.0</ele><time>2026-04-06T04:45:47.001Z</time></trkpt><trkpt lat="14.479306919434086" lon="120.97990119816542"><ele>6.5</ele><time>2026-04-06T04:45:48.001Z</time></trkpt><trkpt lat="14.479231054731953" lon="120.97982378495011"><ele>7.0</ele><time>2026-04-06T04:45:49.001Z</time></trkpt><trkpt lat="14.479147597649774" lon="120.97973862432285"><ele>7.5</ele><time>2026-04-06T04:45:50.001Z</time></trkpt><trkpt lat="14.479064089484826" lon="120.97965341159404"><ele>8.0</ele><time>2026-04-06T04:45:51.001Z</time></trkpt><trkpt lat="14.478973607383827" lon="120.97956108256933"><ele>8.0</ele><time>2026-04-06T04:45:52.001Z</time></trkpt><trkpt lat="14.47889076973352" lon="120.97947655405584"><ele>8.0</ele><time>2026-04-06T04:45:53.001Z</time></trkpt><trkpt lat="14.47881268648816" lon="120.9793900619502"><ele>8.0</ele><time>2026-04-06T04:45:54.001Z</time></trkpt><trkpt lat="14.47874697608214" lon="120.97931788513065"><ele>8.0</ele><time>2026-04-06T04:45:55.001Z</time></trkpt><trkpt lat="14.478681849940335" lon="120.97924634997464"><ele>8.0</ele><time>2026-04-06T04:45:56.001Z</time></trkpt><trkpt lat="14.478625676710354" lon="120.97918464885849"><ele>7.833333333333333</ele><time>2026-04-06T04:45:57.001Z</time></trkpt><trkpt lat="14.478555959866178" lon="120.97910807132952"><ele>7.666666666666666</ele><time>2026-04-06T04:45:59.001Z</time></trkpt><trkpt lat="14.478509822840318" lon="120.97905739404395"><ele>7.5</ele><time>2026-04-06T04:46:02.001Z</time></trkpt><trkpt lat="14.478449741225939" lon="120.97898080147834"><ele>7.333333333333334</ele><time>2026-04-06T04:46:07Z</time></trkpt><trkpt lat="14.47840343845528" lon="120.97892019948796"><ele>7.166666666666667</ele><time>2026-04-06T04:46:08Z</time></trkpt><trkpt lat="14.47834674644669" lon="120.97884599983574"><ele>7.0</ele><time>2026-04-06T04:46:09Z</time></trkpt><trkpt lat="14.478294892281019" lon="120.97877813201154"><ele>7.0</ele><time>2026-04-06T04:46:10Z</time></trkpt><trkpt lat="14.478228416598576" lon="120.97869112728947"><ele>6.999999999999999</ele><time>2026-04-06T04:46:11Z</time></trkpt><trkpt lat="14.478167047300646" lon="120.97861080586327"><ele>6.999999999999999</ele><time>2026-04-06T04:46:12Z</time></trkpt><trkpt lat="14.478099395406463" lon="120.9785222616884"><ele>7.0</ele><time>2026-04-06T04:46:13Z</time></trkpt><trkpt lat="14.478036623433963" lon="120.97844010443718"><ele>7.0</ele><time>2026-04-06T04:46:14Z</time></trkpt><trkpt lat="14.477985401282833" lon="120.97837031266437"><ele>7.199999999999999</ele><time>2026-04-06T04:46:15Z</time></trkpt><trkpt lat="14.47793588715889" lon="120.97830093802742"><ele>7.3999999999999995</ele><time>2026-04-06T04:46:16Z</time></trkpt><trkpt lat="14.47788131381705" lon="120.97822701688692"><ele>7.6000000000000005</ele><time>2026-04-06T04:46:17Z</time></trkpt><trkpt lat="14.477822900406379" lon="120.97814724968975"><ele>7.800000000000001</ele><time>2026-04-06T04:46:18Z</time></trkpt><trkpt lat="14.477760742569595" lon="120.97806236901609"><ele>8.0</ele><time>2026-04-06T04:46:19Z</time></trkpt><trkpt lat="14.47769722768102" lon="120.97797563520363"><ele>8.0</ele><time>2026-04-06T04:46:20Z</time></trkpt><trkpt lat="14.477627540909097" lon="120.97788047327988"><ele>8.0</ele><time>2026-04-06T04:46:21Z</time></trkpt><trkpt lat="14.477567083787331" lon="120.97779791507068"><ele>8.0</ele><time>2026-04-06T04:46:22Z</time></trkpt><trkpt lat="14.477505964359736" lon="120.97771636206035"><ele>8.0</ele><time>2026-04-06T04:46:23Z</time></trkpt><trkpt lat="14.477457805965367" lon="120.97765332931556"><ele>8.0</ele><time>2026-04-06T04:46:24Z</time></trkpt><trkpt lat="14.477402728610011" lon="120.97758124068402"><ele>7.800000000000001</ele><time>2026-04-06T04:46:25Z</time></trkpt><trkpt lat="14.477341829533442" lon="120.97751670691325"><ele>7.6000000000000005</ele><time>2026-04-06T04:46:26Z</time></trkpt><trkpt lat="14.47728576390053" lon="120.97745571697942"><ele>7.3999999999999995</ele><time>2026-04-06T04:46:27Z</time></trkpt><trkpt lat="14.477194881304888" lon="120.97741838682784"><ele>7.199999999999999</ele><time>2026-04-06T04:46:28Z</time></trkpt><trkpt lat="14.477088814362927" lon="120.97742320636274"><ele>7.0</ele><time>2026-04-06T04:46:29Z</time></trkpt><trkpt lat="14.476993945774796" lon="120.9774735787999"><ele>6.8</ele><time>2026-04-06T04:46:30Z</time></trkpt><trkpt lat="14.476904619425037" lon="120.97750895579154"><ele>6.6</ele><time>2026-04-06T04:46:31Z</time></trkpt><trkpt lat="14.476814671300867" lon="120.9775665911951"><ele>6.3999999999999995</ele><time>2026-04-06T04:46:32Z</time></trkpt><trkpt lat="14.476725340144116" lon="120.97762815390355"><ele>6.199999999999999</ele><time>2026-04-06T04:46:33Z</time></trkpt><trkpt lat="14.476625272621298" lon="120.97769722835926"><ele>6.0</ele><time>2026-04-06T04:46:34Z</time></trkpt><trkpt lat="14.476523662732877" lon="120.97775926691635"><ele>5.8</ele><time>2026-04-06T04:46:35Z</time></trkpt><trkpt lat="14.47642043185835" lon="120.97782527553441"><ele>5.6</ele><time>2026-04-06T04:46:36Z</time></trkpt><trkpt lat="14.476325196105579" lon="120.97788394611673"><ele>5.4</ele><time>2026-04-06T04:46:37Z</time></trkpt><trkpt lat="14.476236130636394" lon="120.97792927885766"><ele>5.2</ele><time>2026-04-06T04:46:38Z</time></trkpt><trkpt lat="14.476144800964324" lon="120.97798826806276"><ele>5.0</ele><time>2026-04-06T04:46:39Z</time></trkpt><trkpt lat="14.476045983808984" lon="120.97804306451631"><ele>5.0</ele><time>2026-04-06T04:46:40Z</time></trkpt><trkpt lat="14.47594744655399" lon="120.97809939347069"><ele>5.0</ele><time>2026-04-06T04:46:41Z</time></trkpt><trkpt lat="14.475842978772784" lon="120.97815442473271"><ele>5.0</ele><time>2026-04-06T04:46:42Z</time></trkpt><trkpt lat="14.475735478707387" lon="120.97820730965981"><ele>5.0</ele><time>2026-04-06T04:46:43Z</time></trkpt><trkpt lat="14.475626292152633" lon="120.97824170480176"><ele>5.0</ele><time>2026-04-06T04:46:44Z</time></trkpt><trkpt lat="14.475533375583778" lon="120.97826163498988"><ele>5.0</ele><time>2026-04-06T04:46:45Z</time></trkpt><trkpt lat="14.475469117867135" lon="120.97826833761403"><ele>5.0</ele><time>2026-04-06T04:46:46Z</time></trkpt><trkpt lat="14.475388484162494" lon="120.97826352689634"><ele>5.0</ele><time>2026-04-06T04:46:48Z</time></trkpt><trkpt lat="14.47531001963609" lon="120.97826503185274"><ele>5.0</ele><time>2026-04-06T04:46:51Z</time></trkpt><trkpt lat="14.4752071113537" lon="120.97826263066804"><ele>5.0</ele><time>2026-04-06T04:46:53Z</time></trkpt><trkpt lat="14.475095336436887" lon="120.97826025232143"><ele>5.2</ele><time>2026-04-06T04:46:55Z</time></trkpt><trkpt lat="14.474988911137409" lon="120.97825697671924"><ele>5.4</ele><time>2026-04-06T04:46:57Z</time></trkpt><trkpt lat="14.47490521153039" lon="120.97824876215871"><ele>5.6</ele><time>2026-04-06T04:46:59Z</time></trkpt><trkpt lat="14.474782780112562" lon="120.9782427294091"><ele>5.8</ele><time>2026-04-06T04:47:01Z</time></trkpt><trkpt lat="14.474653126891901" lon="120.9782305353296"><ele>6.0</ele><time>2026-04-06T04:47:03Z</time></trkpt><trkpt lat="14.47456126646316" lon="120.97822603602525"><ele>6.0</ele><time>2026-04-06T04:47:04Z</time></trkpt><trkpt lat="14.474457198042249" lon="120.97822180256355"><ele>6.0</ele><time>2026-04-06T04:47:05Z</time></trkpt><trkpt lat="14.47434839631842" lon="120.97820673935249"><ele>6.0</ele><time>2026-04-06T04:47:07Z</time></trkpt><trkpt lat="14.474281197273989" lon="120.97817842998076"><ele>6.0</ele><time>2026-04-06T04:47:08Z</time></trkpt><trkpt lat="14.474233795693506" lon="120.97812555658071"><ele>6.0</ele><time>2026-04-06T04:47:09Z</time></trkpt><trkpt lat="14.474171322180377" lon="120.97803803790097"><ele>6.0</ele><time>2026-04-06T04:47:11Z</time></trkpt><trkpt lat="14.474103347917678" lon="120.97793432117547"><ele>6.0</ele><time>2026-04-06T04:47:13Z</time></trkpt><trkpt lat="14.47405849826046" lon="120.97786341589871"><ele>6.0</ele><time>2026-04-06T04:47:14.001Z</time></trkpt><trkpt lat="14.474009371282374" lon="120.97778583409196"><ele>6.0</ele><time>2026-04-06T04:47:15.001Z</time></trkpt><trkpt lat="14.47396681277526" lon="120.97771999409878"><ele>6.0</ele><time>2026-04-06T04:47:16.001Z</time></trkpt><trkpt lat="14.47393339977895" lon="120.97766303010876"><ele>6.0</ele><time>2026-04-06T04:47:17.001Z</time></trkpt><trkpt lat="14.473894142773533" lon="120.97759502878324"><ele>6.0</ele><time>2026-04-06T04:47:19.001Z</time></trkpt><trkpt lat="14.473858467074665" lon="120.97753323103127"><ele>6.0</ele><time>2026-04-06T04:47:21.001Z</time></trkpt><trkpt lat="14.473797553841768" lon="120.97742570678889"><ele>6.0</ele><time>2026-04-06T04:47:23.001Z</time></trkpt><trkpt lat="14.473756320511109" lon="120.97735320805452"><ele>6.0</ele><time>2026-04-06T04:47:24.001Z</time></trkpt><trkpt lat="14.473712078623274" lon="120.97727560161572"><ele>6.0</ele><time>2026-04-06T04:47:25.001Z</time></trkpt><trkpt lat="14.473663249470812" lon="120.97718994854611"><ele>6.0</ele><time>2026-04-06T04:47:26.001Z</time></trkpt><trkpt lat="14.473612856326657" lon="120.97710155198546"><ele>6.0</ele><time>2026-04-06T04:47:27.001Z</time></trkpt><trkpt lat="14.473563657103107" lon="120.97701524965956"><ele>6.0</ele><time>2026-04-06T04:47:28.001Z</time></trkpt><trkpt lat="14.4735156990142" lon="120.97693857700524"><ele>6.0</ele><time>2026-04-06T04:47:29.001Z</time></trkpt><trkpt lat="14.47347257548904" lon="120.97687171339135"><ele>6.0</ele><time>2026-04-06T04:47:30.001Z</time></trkpt><trkpt lat="14.473435319739853" lon="120.97681394782356"><ele>6.0</ele><time>2026-04-06T04:47:31.001Z</time></trkpt><trkpt lat="14.47339662384842" lon="120.97676061623086"><ele>6.166666666666667</ele><time>2026-04-06T04:47:32.001Z</time></trkpt><trkpt lat="14.47333517560746" lon="120.97667601930173"><ele>6.333333333333334</ele><time>2026-04-06T04:47:34.001Z</time></trkpt><trkpt lat="14.473293380275503" lon="120.97661847890551"><ele>6.5</ele><time>2026-04-06T04:47:36.001Z</time></trkpt><trkpt lat="14.473248466047007" lon="120.97655664462845"><ele>6.666666666666667</ele><time>2026-04-06T04:47:38.001Z</time></trkpt><trkpt lat="14.473198277556794" lon="120.97648754877225"><ele>6.833333333333334</ele><time>2026-04-06T04:47:40.001Z</time></trkpt><trkpt lat="14.473136169952925" lon="120.97640267268065"><ele>7.0</ele><time>2026-04-06T04:47:42.001Z</time></trkpt><trkpt lat="14.473062244752631" lon="120.97630778300582"><ele>7.000000000000001</ele><time>2026-04-06T04:47:44.001Z</time></trkpt><trkpt lat="14.472976978274124" lon="120.97619960082254"><ele>7.0</ele><time>2026-04-06T04:47:46.001Z</time></trkpt><trkpt lat="14.472926645111295" lon="120.9761352149666"><ele>7.0</ele><time>2026-04-06T04:47:47.001Z</time></trkpt><trkpt lat="14.472871911452332" lon="120.97606511748886"><ele>7.0</ele><time>2026-04-06T04:47:48.001Z</time></trkpt><trkpt lat="14.472819474044973" lon="120.97599864777875"><ele>7.000000000000001</ele><time>2026-04-06T04:47:49.001Z</time></trkpt><trkpt lat="14.472779101693135" lon="120.9759475141439"><ele>7.0</ele><time>2026-04-06T04:47:50.001Z</time></trkpt><trkpt lat="14.472739307032743" lon="120.97589711221053"><ele>7.0</ele><time>2026-04-06T04:47:51.001Z</time></trkpt><trkpt lat="14.472676586039224" lon="120.9758176728982"><ele>6.999999999999999</ele><time>2026-04-06T04:47:53.001Z</time></trkpt><trkpt lat="14.472620659303672" lon="120.97574683884811"><ele>6.999999999999999</ele><time>2026-04-06T04:47:55.001Z</time></trkpt><trkpt lat="14.472551561553683" lon="120.9756605174675"><ele>7.0</ele><time>2026-04-06T04:47:57.001Z</time></trkpt><trkpt lat="14.472501836225675" lon="120.975599603026"><ele>7.0</ele><time>2026-04-06T04:47:58.001Z</time></trkpt><trkpt lat="14.472448756684177" lon="120.97553546940807"><ele>7.000000000000001</ele><time>2026-04-06T04:47:59.001Z</time></trkpt><trkpt lat="14.472402488506791" lon="120.97547830450412"><ele>7.0</ele><time>2026-04-06T04:48:00.001Z</time></trkpt><trkpt lat="14.472360507232969" lon="120.9754156558944"><ele>7.0</ele><time>2026-04-06T04:48:01.001Z</time></trkpt><trkpt lat="14.472321860234764" lon="120.97535798300756"><ele>7.0</ele><time>2026-04-06T04:48:02.001Z</time></trkpt><trkpt lat="14.472275779371468" lon="120.97528921660417"><ele>7.000000000000001</ele><time>2026-04-06T04:48:03.001Z</time></trkpt><trkpt lat="14.472225724543577" lon="120.97521483214602"><ele>7.0</ele><time>2026-04-06T04:48:04.001Z</time></trkpt><trkpt lat="14.472177548367258" lon="120.97514857592992"><ele>7.000000000000001</ele><time>2026-04-06T04:48:05.001Z</time></trkpt><trkpt lat="14.472138618418487" lon="120.9750896113553"><ele>7.0</ele><time>2026-04-06T04:48:06.001Z</time></trkpt><trkpt lat="14.472071434026374" lon="120.97498943820682"><ele>7.0</ele><time>2026-04-06T04:48:08.001Z</time></trkpt><trkpt lat="14.472025469505054" lon="120.97491019288427"><ele>7.0</ele><time>2026-04-06T04:48:10.001Z</time></trkpt><trkpt lat="14.471991471715748" lon="120.97484962398588"><ele>7.000000000000001</ele><time>2026-04-06T04:48:12Z</time></trkpt><trkpt lat="14.471955633728633" lon="120.9747832152112"><ele>7.0</ele><time>2026-04-06T04:48:19Z</time></trkpt><trkpt lat="14.4719074302395" lon="120.97469389281909"><ele>7.0</ele><time>2026-04-06T04:48:21Z</time></trkpt><trkpt lat="14.47186506696982" lon="120.97461539250347"><ele>6.999999999999999</ele><time>2026-04-06T04:48:22Z</time></trkpt><trkpt lat="14.47181452619344" lon="120.9745239909069"><ele>6.999999999999999</ele><time>2026-04-06T04:48:23Z</time></trkpt><trkpt lat="14.471768741903075" lon="120.97443297129252"><ele>7.0</ele><time>2026-04-06T04:48:24Z</time></trkpt><trkpt lat="14.471724263434382" lon="120.97434438127755"><ele>7.0</ele><time>2026-04-06T04:48:25Z</time></trkpt><trkpt lat="14.47168475926648" lon="120.97426569882356"><ele>7.000000000000001</ele><time>2026-04-06T04:48:26Z</time></trkpt><trkpt lat="14.47164747961471" lon="120.97419144706254"><ele>7.0</ele><time>2026-04-06T04:48:27Z</time></trkpt><trkpt lat="14.471611517792716" lon="120.97411982005757"><ele>7.0</ele><time>2026-04-06T04:48:28Z</time></trkpt><trkpt lat="14.471582038680525" lon="120.9740611050338"><ele>7.0</ele><time>2026-04-06T04:48:29Z</time></trkpt><trkpt lat="14.471550294048194" lon="120.97399787762275"><ele>7.000000000000001</ele><time>2026-04-06T04:48:30Z</time></trkpt><trkpt lat="14.471500980814747" lon="120.97389965795146"><ele>7.0</ele><time>2026-04-06T04:48:32Z</time></trkpt><trkpt lat="14.471471842580033" lon="120.97384157663085"><ele>6.833333333333334</ele><time>2026-04-06T04:48:33Z</time></trkpt><trkpt lat="14.471436292187503" lon="120.97377066136447"><ele>6.666666666666667</ele><time>2026-04-06T04:48:34Z</time></trkpt><trkpt lat="14.471402722249636" lon="120.97370369667779"><ele>6.5</ele><time>2026-04-06T04:48:35Z</time></trkpt><trkpt lat="14.471368537695868" lon="120.97363550596403"><ele>6.333333333333334</ele><time>2026-04-06T04:48:36Z</time></trkpt><trkpt lat="14.471309316954567" lon="120.97351886538392"><ele>6.166666666666667</ele><time>2026-04-06T04:48:38Z</time></trkpt><trkpt lat="14.471277357066027" lon="120.97345709069067"><ele>6.0</ele><time>2026-04-06T04:48:39Z</time></trkpt><trkpt lat="14.471244067109689" lon="120.97339274510752"><ele>6.166666666666667</ele><time>2026-04-06T04:48:40Z</time></trkpt><trkpt lat="14.471209489740119" lon="120.97332591111491"><ele>6.333333333333334</ele><time>2026-04-06T04:48:41Z</time></trkpt><trkpt lat="14.471174907427557" lon="120.9732590675723"><ele>6.5</ele><time>2026-04-06T04:48:42Z</time></trkpt><trkpt lat="14.47113922675755" lon="120.97319010107202"><ele>6.666666666666667</ele><time>2026-04-06T04:48:43Z</time></trkpt><trkpt lat="14.471099790776927" lon="120.97311451964792"><ele>6.833333333333334</ele><time>2026-04-06T04:48:44Z</time></trkpt><trkpt lat="14.471062351115433" lon="120.97304273585023"><ele>7.0</ele><time>2026-04-06T04:48:45Z</time></trkpt><trkpt lat="14.47102619212659" lon="120.97297340750791"><ele>7.000000000000001</ele><time>2026-04-06T04:48:46Z</time></trkpt><trkpt lat="14.470989104572174" lon="120.9729022988207"><ele>7.0</ele><time>2026-04-06T04:48:47Z</time></trkpt><trkpt lat="14.470953948546594" lon="120.97283489347389"><ele>7.0</ele><time>2026-04-06T04:48:48Z</time></trkpt><trkpt lat="14.47091771886696" lon="120.97276542960772"><ele>7.0</ele><time>2026-04-06T04:48:49Z</time></trkpt><trkpt lat="14.470881152665442" lon="120.97269532051232"><ele>7.000000000000001</ele><time>2026-04-06T04:48:50Z</time></trkpt><trkpt lat="14.470846756326063" lon="120.97262937173433"><ele>7.0</ele><time>2026-04-06T04:48:51Z</time></trkpt><trkpt lat="14.47080942996675" lon="120.97255780517636"><ele>7.000000000000001</ele><time>2026-04-06T04:48:52Z</time></trkpt><trkpt lat="14.470772904684214" lon="120.97248777452971"><ele>7.0</ele><time>2026-04-06T04:48:53Z</time></trkpt><trkpt lat="14.47072885775689" lon="120.97241498518598"><ele>7.0</ele><time>2026-04-06T04:48:54Z</time></trkpt><trkpt lat="14.470689468712875" lon="120.97235042353459"><ele>7.0</ele><time>2026-04-06T04:48:55Z</time></trkpt><trkpt lat="14.470655117233068" lon="120.97229411897153"><ele>7.000000000000001</ele><time>2026-04-06T04:48:56Z</time></trkpt><trkpt lat="14.470610391703962" lon="120.97222928502862"><ele>7.0</ele><time>2026-04-06T04:48:57Z</time></trkpt><trkpt lat="14.470568491646281" lon="120.97216621853535"><ele>7.000000000000001</ele><time>2026-04-06T04:48:58Z</time></trkpt><trkpt lat="14.470524239974527" lon="120.97209961250577"><ele>7.0</ele><time>2026-04-06T04:48:59Z</time></trkpt><trkpt lat="14.470479691137907" lon="120.97203255918228"><ele>7.0</ele><time>2026-04-06T04:49:00Z</time></trkpt><trkpt lat="14.470427680174355" lon="120.9719542741297"><ele>7.0</ele><time>2026-04-06T04:49:01Z</time></trkpt><trkpt lat="14.470370854591955" lon="120.9718687422889"><ele>7.000000000000001</ele><time>2026-04-06T04:49:02Z</time></trkpt><trkpt lat="14.470321994662639" lon="120.97179520007124"><ele>7.0</ele><time>2026-04-06T04:49:03Z</time></trkpt><trkpt lat="14.470281098127495" lon="120.97173364405852"><ele>7.000000000000001</ele><time>2026-04-06T04:49:04Z</time></trkpt><trkpt lat="14.470244834597095" lon="120.97167906149618"><ele>7.0</ele><time>2026-04-06T04:49:05Z</time></trkpt><trkpt lat="14.470171971170535" lon="120.97157153897271"><ele>7.0</ele><time>2026-04-06T04:49:07Z</time></trkpt><trkpt lat="14.47013302514125" lon="120.9715180748567"><ele>7.0</ele><time>2026-04-06T04:49:08Z</time></trkpt><trkpt lat="14.470091106780734" lon="120.97146023355737"><ele>7.000000000000001</ele><time>2026-04-06T04:49:09Z</time></trkpt><trkpt lat="14.47005258343912" lon="120.97140707688133"><ele>7.0</ele><time>2026-04-06T04:49:10Z</time></trkpt><trkpt lat="14.470003970547497" lon="120.97133999822915"><ele>7.000000000000001</ele><time>2026-04-06T04:49:11Z</time></trkpt><trkpt lat="14.469942222327077" lon="120.97126609864148"><ele>7.0</ele><time>2026-04-06T04:49:12Z</time></trkpt><trkpt lat="14.46987864571642" lon="120.9711869058488"><ele>7.0</ele><time>2026-04-06T04:49:13Z</time></trkpt><trkpt lat="14.469824604531665" lon="120.97111798699471"><ele>7.0</ele><time>2026-04-06T04:49:14Z</time></trkpt><trkpt lat="14.46977547388758" lon="120.97105533085161"><ele>7.000000000000001</ele><time>2026-04-06T04:49:15.001Z</time></trkpt><trkpt lat="14.469719786124983" lon="120.97099750220822"><ele>7.0</ele><time>2026-04-06T04:49:16.001Z</time></trkpt><trkpt lat="14.469640796325324" lon="120.97090668540972"><ele>7.166666666666667</ele><time>2026-04-06T04:49:18.001Z</time></trkpt><trkpt lat="14.469576591771846" lon="120.97083286759758"><ele>7.333333333333334</ele><time>2026-04-06T04:49:20.001Z</time></trkpt><trkpt lat="14.469526344915437" lon="120.97077509735603"><ele>7.5</ele><time>2026-04-06T04:49:22.001Z</time></trkpt><trkpt lat="14.469480145294218" lon="120.97072198035075"><ele>7.666666666666666</ele><time>2026-04-06T04:49:26.001Z</time></trkpt><trkpt lat="14.469428169471264" lon="120.970662222246"><ele>7.833333333333333</ele><time>2026-04-06T04:49:36.001Z</time></trkpt><trkpt lat="14.469367313207423" lon="120.97059225409606"><ele>8.0</ele><time>2026-04-06T04:49:39.001Z</time></trkpt><trkpt lat="14.469282006615222" lon="120.97049417466226"><ele>8.0</ele><time>2026-04-06T04:49:41.001Z</time></trkpt><trkpt lat="14.469222567786177" lon="120.97042597542631"><ele>8.0</ele><time>2026-04-06T04:49:42.001Z</time></trkpt><trkpt lat="14.469158546415075" lon="120.97035284010065"><ele>8.0</ele><time>2026-04-06T04:49:43.001Z</time></trkpt><trkpt lat="14.469065767601073" lon="120.97027687756649"><ele>8.0</ele><time>2026-04-06T04:49:44.001Z</time></trkpt><trkpt lat="14.468968269602358" lon="120.97019839151977"><ele>8.0</ele><time>2026-04-06T04:49:45.001Z</time></trkpt><trkpt lat="14.468859647660738" lon="120.97013841259333"><ele>8.0</ele><time>2026-04-06T04:49:46.001Z</time></trkpt><trkpt lat="14.468765683574873" lon="120.97009063237495"><ele>8.0</ele><time>2026-04-06T04:49:47.001Z</time></trkpt><trkpt lat="14.468651019255946" lon="120.97005330066136"><ele>8.0</ele><time>2026-04-06T04:49:48.001Z</time></trkpt><trkpt lat="14.468545145711808" lon="120.97001744304906"><ele>8.0</ele><time>2026-04-06T04:49:49.001Z</time></trkpt><trkpt lat="14.468431919055156" lon="120.96997274590908"><ele>7.800000000000001</ele><time>2026-04-06T04:49:50.001Z</time></trkpt><trkpt lat="14.468304541062425" lon="120.96996429545858"><ele>7.6000000000000005</ele><time>2026-04-06T04:49:51.001Z</time></trkpt><trkpt lat="14.468204060062154" lon="120.96991809123469"><ele>7.3999999999999995</ele><time>2026-04-06T04:49:52.001Z</time></trkpt><trkpt lat="14.468115063319496" lon="120.96987334507396"><ele>7.199999999999999</ele><time>2026-04-06T04:49:53.001Z</time></trkpt><trkpt lat="14.468015918500397" lon="120.96982312242157"><ele>7.0</ele><time>2026-04-06T04:49:54.001Z</time></trkpt><trkpt lat="14.467956263157287" lon="120.9697159472554"><ele>7.0</ele><time>2026-04-06T04:49:55.001Z</time></trkpt><trkpt lat="14.467878421213198" lon="120.969660125988"><ele>6.999999999999999</ele><time>2026-04-06T04:49:56.001Z</time></trkpt><trkpt lat="14.467799282815584" lon="120.96960212284758"><ele>6.999999999999999</ele><time>2026-04-06T04:49:57.001Z</time></trkpt><trkpt lat="14.467714340692103" lon="120.96953991239262"><ele>7.0</ele><time>2026-04-06T04:49:58.001Z</time></trkpt><trkpt lat="14.467634885142019" lon="120.96948175197457"><ele>7.0</ele><time>2026-04-06T04:49:59.001Z</time></trkpt><trkpt lat="14.467557275231446" lon="120.9694227217159"><ele>7.0</ele><time>2026-04-06T04:50:00.001Z</time></trkpt><trkpt lat="14.467444346813094" lon="120.96940247024853"><ele>7.0</ele><time>2026-04-06T04:50:01.001Z</time></trkpt><trkpt lat="14.467359932770638" lon="120.96933466271011"><ele>7.0</ele><time>2026-04-06T04:50:02.001Z</time></trkpt><trkpt lat="14.467269082497182" lon="120.96925767778052"><ele>7.0</ele><time>2026-04-06T04:50:03.001Z</time></trkpt><trkpt lat="14.467177417519684" lon="120.9691831894155"><ele>7.25</ele><time>2026-04-06T04:50:04.001Z</time></trkpt><trkpt lat="14.467085077317844" lon="120.96910694868863"><ele>7.5</ele><time>2026-04-06T04:50:05.001Z</time></trkpt><trkpt lat="14.466995785903368" lon="120.96904045502735"><ele>7.75</ele><time>2026-04-06T04:50:06.001Z</time></trkpt><trkpt lat="14.466908086832737" lon="120.96897260723807"><ele>8.0</ele><time>2026-04-06T04:50:07.001Z</time></trkpt><trkpt lat="14.46681627712701" lon="120.9689049021103"><ele>8.0</ele><time>2026-04-06T04:50:08.001Z</time></trkpt><trkpt lat="14.466763694254498" lon="120.96879892380933"><ele>8.0</ele><time>2026-04-06T04:50:09.001Z</time></trkpt><trkpt lat="14.466687408612596" lon="120.96873319125768"><ele>8.0</ele><time>2026-04-06T04:50:10.001Z</time></trkpt><trkpt lat="14.466615527838023" lon="120.96867729315991"><ele>8.0</ele><time>2026-04-06T04:50:11.001Z</time></trkpt><trkpt lat="14.46649966295157" lon="120.96861763026168"><ele>8.0</ele><time>2026-04-06T04:50:12.001Z</time></trkpt><trkpt lat="14.466435423281665" lon="120.96853801181851"><ele>7.999999999999999</ele><time>2026-04-06T04:50:13.001Z</time></trkpt><trkpt lat="14.466379025420578" lon="120.96846664795511"><ele>8.0</ele><time>2026-04-06T04:50:14.001Z</time></trkpt><trkpt lat="14.466322579343469" lon="120.96840611568393"><ele>8.0</ele><time>2026-04-06T04:50:15.001Z</time></trkpt><trkpt lat="14.466272953575093" lon="120.96835690465079"><ele>8.0</ele><time>2026-04-06T04:50:16.001Z</time></trkpt><trkpt lat="14.466192173322371" lon="120.96828737185672"><ele>7.999999999999999</ele><time>2026-04-06T04:50:18Z</time></trkpt><trkpt lat="14.466148838552758" lon="120.96823651693055"><ele>8.0</ele><time>2026-04-06T04:50:21Z</time></trkpt><trkpt lat="14.466075874674104" lon="120.96818856008855"><ele>7.800000000000001</ele><time>2026-04-06T04:51:22.001Z</time></trkpt><trkpt lat="14.466017341729488" lon="120.9681212923682"><ele>7.6000000000000005</ele><time>2026-04-06T04:51:24.001Z</time></trkpt><trkpt lat="14.465919942836415" lon="120.96807748879226"><ele>7.3999999999999995</ele><time>2026-04-06T04:51:26.001Z</time></trkpt><trkpt lat="14.465820083596592" lon="120.96799374259109"><ele>7.199999999999999</ele><time>2026-04-06T04:51:28.001Z</time></trkpt><trkpt lat="14.465753586997474" lon="120.96794402789361"><ele>7.0</ele><time>2026-04-06T04:51:29.001Z</time></trkpt><trkpt lat="14.465682427937763" lon="120.96789160789513"><ele>7.0</ele><time>2026-04-06T04:51:30.001Z</time></trkpt><trkpt lat="14.465595969411808" lon="120.9678239044076"><ele>7.0</ele><time>2026-04-06T04:51:31.001Z</time></trkpt><trkpt lat="14.465495015814644" lon="120.96774485019023"><ele>7.0</ele><time>2026-04-06T04:51:32.001Z</time></trkpt><trkpt lat="14.465385652869566" lon="120.96765921082759"><ele>7.0</ele><time>2026-04-06T04:51:33.001Z</time></trkpt><trkpt lat="14.465265611428078" lon="120.9675777708819"><ele>8.0</ele><time>2026-04-06T04:51:34.001Z</time></trkpt><trkpt lat="14.465152699612977" lon="120.96750619240095"><ele>9.0</ele><time>2026-04-06T04:51:35.001Z</time></trkpt><trkpt lat="14.465035320746678" lon="120.96744776034619"><ele>10.0</ele><time>2026-04-06T04:51:36.001Z</time></trkpt><trkpt lat="14.464926376381504" lon="120.96737017265752"><ele>11.0</ele><time>2026-04-06T04:51:37.001Z</time></trkpt><trkpt lat="14.464810285111081" lon="120.96729634530445"><ele>11.0</ele><time>2026-04-06T04:51:38.001Z</time></trkpt><trkpt lat="14.464704575703685" lon="120.96722621783698"><ele>11.0</ele><time>2026-04-06T04:51:39.001Z</time></trkpt><trkpt lat="14.464655349971114" lon="120.96710834023455"><ele>11.0</ele><time>2026-04-06T04:51:40.001Z</time></trkpt><trkpt lat="14.46458874894771" lon="120.96704521983199"><ele>11.0</ele><time>2026-04-06T04:51:41.001Z</time></trkpt><trkpt lat="14.464513081562417" lon="120.96693705293146"><ele>10.666666666666666</ele><time>2026-04-06T04:51:43.001Z</time></trkpt><trkpt lat="14.464467689477543" lon="120.96687575729065"><ele>10.333333333333332</ele><time>2026-04-06T04:51:44.001Z</time></trkpt><trkpt lat="14.464433428038896" lon="120.9668187893742"><ele>10.0</ele><time>2026-04-06T04:51:45.001Z</time></trkpt><trkpt lat="14.46439032168481" lon="120.96674642673133"><ele>9.666666666666666</ele><time>2026-04-06T04:51:46.001Z</time></trkpt><trkpt lat="14.464337406645665" lon="120.96665759823105"><ele>9.333333333333334</ele><time>2026-04-06T04:51:47.001Z</time></trkpt><trkpt lat="14.464282185366883" lon="120.96656489765684"><ele>9.0</ele><time>2026-04-06T04:51:48.001Z</time></trkpt><trkpt lat="14.464202855516664" lon="120.9664681923769"><ele>9.0</ele><time>2026-04-06T04:51:49.001Z</time></trkpt><trkpt lat="14.464155605370397" lon="120.96639956809348"><ele>9.0</ele><time>2026-04-06T04:51:50.001Z</time></trkpt><trkpt lat="14.464105574256498" lon="120.96632027167668"><ele>9.0</ele><time>2026-04-06T04:51:51.001Z</time></trkpt><trkpt lat="14.464053412661569" lon="120.9662371701207"><ele>9.0</ele><time>2026-04-06T04:51:52.001Z</time></trkpt><trkpt lat="14.464008806260788" lon="120.96616610515053"><ele>9.0</ele><time>2026-04-06T04:51:53.001Z</time></trkpt><trkpt lat="14.463960600163452" lon="120.96608998765502"><ele>9.0</ele><time>2026-04-06T04:51:54.001Z</time></trkpt><trkpt lat="14.463907273838926" lon="120.96600589465025"><ele>9.0</ele><time>2026-04-06T04:51:55.001Z</time></trkpt><trkpt lat="14.463847728520536" lon="120.96592240478776"><ele>9.0</ele><time>2026-04-06T04:51:56.001Z</time></trkpt><trkpt lat="14.46378813229557" lon="120.96583412916418"><ele>9.0</ele><time>2026-04-06T04:51:57.001Z</time></trkpt><trkpt lat="14.463730341649448" lon="120.96574852806461"><ele>9.0</ele><time>2026-04-06T04:51:58.001Z</time></trkpt><trkpt lat="14.463666238891646" lon="120.96565357731323"><ele>9.0</ele><time>2026-04-06T04:51:59.001Z</time></trkpt><trkpt lat="14.463609311555448" lon="120.96556925496725"><ele>9.0</ele><time>2026-04-06T04:52:00.001Z</time></trkpt><trkpt lat="14.463558791819752" lon="120.96549442369256"><ele>9.0</ele><time>2026-04-06T04:52:01.001Z</time></trkpt><trkpt lat="14.463517402816706" lon="120.9654331171178"><ele>9.0</ele><time>2026-04-06T04:52:02.001Z</time></trkpt><trkpt lat="14.463470945211133" lon="120.96536374367369"><ele>9.0</ele><time>2026-04-06T04:52:03.001Z</time></trkpt><trkpt lat="14.463423470234819" lon="120.96529120415133"><ele>9.0</ele><time>2026-04-06T04:52:04.001Z</time></trkpt><trkpt lat="14.463378352941083" lon="120.96522226701357"><ele>9.0</ele><time>2026-04-06T04:52:05.001Z</time></trkpt><trkpt lat="14.463331064896424" lon="120.9651500130363"><ele>9.0</ele><time>2026-04-06T04:52:06.001Z</time></trkpt><trkpt lat="14.46328171235364" lon="120.96507460243897"><ele>9.0</ele><time>2026-04-06T04:52:07.001Z</time></trkpt><trkpt lat="14.463231725392157" lon="120.96499821435303"><ele>9.0</ele><time>2026-04-06T04:52:08.001Z</time></trkpt><trkpt lat="14.46317257440684" lon="120.96490782218072"><ele>9.0</ele><time>2026-04-06T04:52:09.001Z</time></trkpt><trkpt lat="14.46310667456379" lon="120.96480710775467"><ele>9.0</ele><time>2026-04-06T04:52:10.001Z</time></trkpt><trkpt lat="14.463032075936892" lon="120.96469308442532"><ele>8.666666666666666</ele><time>2026-04-06T04:52:11.001Z</time></trkpt><trkpt lat="14.46295081772912" lon="120.96456940190444"><ele>8.333333333333332</ele><time>2026-04-06T04:52:12.001Z</time></trkpt><trkpt lat="14.462867311446887" lon="120.96443815268182"><ele>8.0</ele><time>2026-04-06T04:52:13.001Z</time></trkpt><trkpt lat="14.462782170934837" lon="120.96430351186788"><ele>8.25</ele><time>2026-04-06T04:52:14.001Z</time></trkpt><trkpt lat="14.462695172288772" lon="120.96416593261218"><ele>8.5</ele><time>2026-04-06T04:52:15.001Z</time></trkpt><trkpt lat="14.462614345203578" lon="120.9640409819041"><ele>8.75</ele><time>2026-04-06T04:52:16.001Z</time></trkpt><trkpt lat="14.462537255516528" lon="120.9639219662492"><ele>9.0</ele><time>2026-04-06T04:52:17.001Z</time></trkpt><trkpt lat="14.462467017168068" lon="120.9638135281"><ele>9.0</ele><time>2026-04-06T04:52:18.001Z</time></trkpt><trkpt lat="14.462402748745328" lon="120.96371113492893"><ele>9.0</ele><time>2026-04-06T04:52:19.001Z</time></trkpt><trkpt lat="14.46234139050815" lon="120.96361282601157"><ele>9.0</ele><time>2026-04-06T04:52:20.001Z</time></trkpt><trkpt lat="14.462281624290396" lon="120.96351706783197"><ele>9.0</ele><time>2026-04-06T04:52:21.001Z</time></trkpt><trkpt lat="14.462227852022913" lon="120.96343091327246"><ele>9.0</ele><time>2026-04-06T04:52:22.001Z</time></trkpt><trkpt lat="14.462177439810608" lon="120.96334945100624"><ele>9.2</ele><time>2026-04-06T04:52:23.001Z</time></trkpt><trkpt lat="14.462127935805027" lon="120.96326949859373"><ele>9.4</ele><time>2026-04-06T04:52:24Z</time></trkpt><trkpt lat="14.462068879623478" lon="120.96317411898613"><ele>9.6</ele><time>2026-04-06T04:52:26Z</time></trkpt><trkpt lat="14.462024832974775" lon="120.96310484318172"><ele>9.8</ele><time>2026-04-06T04:52:29Z</time></trkpt><trkpt lat="14.46194509750259" lon="120.96306438376436"><ele>10.0</ele><time>2026-04-06T04:53:52.001Z</time></trkpt><trkpt lat="14.461943551181633" lon="120.96297579794953"><ele>9.666666666666668</ele><time>2026-04-06T04:53:54.001Z</time></trkpt><trkpt lat="14.461892684911337" lon="120.9628950655485"><ele>9.333333333333334</ele><time>2026-04-06T04:53:56.001Z</time></trkpt><trkpt lat="14.4618431662137" lon="120.96281658478007"><ele>9.0</ele><time>2026-04-06T04:53:58.001Z</time></trkpt><trkpt lat="14.461803449817607" lon="120.96275380115686"><ele>8.666666666666666</ele><time>2026-04-06T04:54:00.001Z</time></trkpt><trkpt lat="14.461755653823975" lon="120.96267824621293"><ele>8.333333333333332</ele><time>2026-04-06T04:54:03.001Z</time></trkpt><trkpt lat="14.461701694098943" lon="120.96259407737497"><ele>8.0</ele><time>2026-04-06T04:54:06.001Z</time></trkpt><trkpt lat="14.461648762091441" lon="120.96251151161717"><ele>7.999999999999999</ele><time>2026-04-06T04:54:09.001Z</time></trkpt><trkpt lat="14.461606581734971" lon="120.96244571677539"><ele>8.0</ele><time>2026-04-06T04:54:11.001Z</time></trkpt><trkpt lat="14.461569265221046" lon="120.96238750877531"><ele>8.0</ele><time>2026-04-06T04:54:13.001Z</time></trkpt><trkpt lat="14.461519722181121" lon="120.96231022928781"><ele>8.0</ele><time>2026-04-06T04:54:15.001Z</time></trkpt><trkpt lat="14.46148320601312" lon="120.96225326970652"><ele>7.999999999999999</ele><time>2026-04-06T04:54:16.001Z</time></trkpt><trkpt lat="14.46143720364638" lon="120.96218151310642"><ele>8.0</ele><time>2026-04-06T04:54:17.001Z</time></trkpt><trkpt lat="14.461387095144682" lon="120.96210335159805"><ele>8.0</ele><time>2026-04-06T04:54:18.001Z</time></trkpt><trkpt lat="14.4613355836367" lon="120.96202300159806"><ele>8.0</ele><time>2026-04-06T04:54:19.001Z</time></trkpt><trkpt lat="14.46127653909986" lon="120.96193034109577"><ele>8.0</ele><time>2026-04-06T04:54:20.001Z</time></trkpt><trkpt lat="14.461214720439523" lon="120.9618330222089"><ele>8.0</ele><time>2026-04-06T04:54:21.001Z</time></trkpt><trkpt lat="14.461155484416187" lon="120.96173976903951"><ele>8.0</ele><time>2026-04-06T04:54:22.001Z</time></trkpt><trkpt lat="14.461114545954848" lon="120.9616753210904"><ele>7.999999999999999</ele><time>2026-04-06T04:54:23.001Z</time></trkpt><trkpt lat="14.46104667210314" lon="120.9615684697109"><ele>8.0</ele><time>2026-04-06T04:54:25.001Z</time></trkpt><trkpt lat="14.461010499499169" lon="120.96151152455155"><ele>8.0</ele><time>2026-04-06T04:54:26.001Z</time></trkpt><trkpt lat="14.460971137402177" lon="120.96145135552088"><ele>8.0</ele><time>2026-04-06T04:54:27.001Z</time></trkpt><trkpt lat="14.460929040304144" lon="120.96138706713121"><ele>7.999999999999999</ele><time>2026-04-06T04:54:28.001Z</time></trkpt><trkpt lat="14.460888595771959" lon="120.96132530244674"><ele>8.0</ele><time>2026-04-06T04:54:29.001Z</time></trkpt><trkpt lat="14.460839665913706" lon="120.96125158372489"><ele>7.999999999999999</ele><time>2026-04-06T04:54:30Z</time></trkpt><trkpt lat="14.460788441491909" lon="120.96117471139361"><ele>8.0</ele><time>2026-04-06T04:54:31Z</time></trkpt><trkpt lat="14.460730991013259" lon="120.96109205405493"><ele>8.0</ele><time>2026-04-06T04:54:32Z</time></trkpt><trkpt lat="14.460677853922842" lon="120.96101483121599"><ele>8.0</ele><time>2026-04-06T04:54:33Z</time></trkpt><trkpt lat="14.460630304216506" lon="120.96094572839897"><ele>7.999999999999999</ele><time>2026-04-06T04:54:34Z</time></trkpt><trkpt lat="14.460589409640294" lon="120.96088629731126"><ele>8.0</ele><time>2026-04-06T04:54:35Z</time></trkpt><trkpt lat="14.460527183259972" lon="120.96079586525599"><ele>7.999999999999999</ele><time>2026-04-06T04:54:37Z</time></trkpt><trkpt lat="14.460463582138775" lon="120.96070653485177"><ele>8.0</ele><time>2026-04-06T04:54:39Z</time></trkpt><trkpt lat="14.460391241397264" lon="120.9606132173788"><ele>8.0</ele><time>2026-04-06T04:54:41Z</time></trkpt><trkpt lat="14.460341487032608" lon="120.96055007826054"><ele>8.0</ele><time>2026-04-06T04:54:44Z</time></trkpt><trkpt lat="14.460293152588001" lon="120.96048876355356"><ele>7.999999999999999</ele><time>2026-04-06T04:54:48Z</time></trkpt><trkpt lat="14.460248006904962" lon="120.96043708213772"><ele>8.0</ele><time>2026-04-06T04:55:00Z</time></trkpt><trkpt lat="14.46019724231662" lon="120.96037896837507"><ele>8.4</ele><time>2026-04-06T04:57:03Z</time></trkpt><trkpt lat="14.460137101178715" lon="120.96031370601034"><ele>8.8</ele><time>2026-04-06T04:57:05Z</time></trkpt><trkpt lat="14.460076124698203" lon="120.96024994187717"><ele>9.2</ele><time>2026-04-06T04:57:07Z</time></trkpt><trkpt lat="14.459984687651659" lon="120.96015432459329"><ele>9.6</ele><time>2026-04-06T04:57:09Z</time></trkpt><trkpt lat="14.459932647259334" lon="120.96009990520089"><ele>10.0</ele><time>2026-04-06T04:57:10Z</time></trkpt><trkpt lat="14.459876948349798" lon="120.9600455643192"><ele>10.0</ele><time>2026-04-06T04:57:11Z</time></trkpt><trkpt lat="14.459819535673306" lon="120.95998876341332"><ele>10.0</ele><time>2026-04-06T04:57:12Z</time></trkpt><trkpt lat="14.459757465959296" lon="120.95992670753809"><ele>10.0</ele><time>2026-04-06T04:57:13Z</time></trkpt><trkpt lat="14.459687644559654" lon="120.9598568861723"><ele>10.0</ele><time>2026-04-06T04:57:14Z</time></trkpt><trkpt lat="14.459602255150998" lon="120.9597920057518"><ele>10.0</ele><time>2026-04-06T04:57:15Z</time></trkpt><trkpt lat="14.459539900659307" lon="120.95974445168352"><ele>10.0</ele><time>2026-04-06T04:57:16Z</time></trkpt><trkpt lat="14.459468769938082" lon="120.9596986868265"><ele>10.0</ele><time>2026-04-06T04:57:17Z</time></trkpt><trkpt lat="14.459406257432978" lon="120.95965769678686"><ele>10.0</ele><time>2026-04-06T04:57:18Z</time></trkpt><trkpt lat="14.459190031003487" lon="120.95978865952955"><ele>10.0</ele><time>2026-04-06T04:57:20Z</time></trkpt><trkpt lat="14.459123713368985" lon="120.95979926177469"><ele>10.0</ele><time>2026-04-06T04:57:21Z</time></trkpt><trkpt lat="14.459034570094225" lon="120.95982058705074"><ele>10.0</ele><time>2026-04-06T04:57:22Z</time></trkpt><trkpt lat="14.458965879703486" lon="120.95983847067265"><ele>10.0</ele><time>2026-04-06T04:57:23Z</time></trkpt><trkpt lat="14.458894832632621" lon="120.95985710476926"><ele>10.0</ele><time>2026-04-06T04:57:24Z</time></trkpt><trkpt lat="14.458827353330408" lon="120.959862754609"><ele>10.0</ele><time>2026-04-06T04:57:25Z</time></trkpt><trkpt lat="14.458752443230766" lon="120.95987552020821"><ele>10.0</ele><time>2026-04-06T04:57:26Z</time></trkpt><trkpt lat="14.458662376731947" lon="120.9598900427101"><ele>10.0</ele><time>2026-04-06T04:57:27Z</time></trkpt><trkpt lat="14.458551527760093" lon="120.9599137141919"><ele>8.75</ele><time>2026-04-06T04:57:28Z</time></trkpt><trkpt lat="14.458437648098815" lon="120.95994059717312"><ele>7.5</ele><time>2026-04-06T04:57:29Z</time></trkpt><trkpt lat="14.45831431407642" lon="120.95996101042797"><ele>6.25</ele><time>2026-04-06T04:57:30Z</time></trkpt><trkpt lat="14.458191126081708" lon="120.95997842167687"><ele>5.0</ele><time>2026-04-06T04:57:31Z</time></trkpt><trkpt lat="14.458055172715952" lon="120.96000225707537"><ele>4.666666666666667</ele><time>2026-04-06T04:57:32Z</time></trkpt><trkpt lat="14.45790971175281" lon="120.96002911688625"><ele>4.333333333333333</ele><time>2026-04-06T04:57:33Z</time></trkpt><trkpt lat="14.457755593290702" lon="120.96003876831308"><ele>4.0</ele><time>2026-04-06T04:57:34Z</time></trkpt><trkpt lat="14.457592035026849" lon="120.96008202444145"><ele>4.666666666666666</ele><time>2026-04-06T04:57:35Z</time></trkpt><trkpt lat="14.457425042486076" lon="120.96011464056387"><ele>5.333333333333333</ele><time>2026-04-06T04:57:36Z</time></trkpt><trkpt lat="14.457253146409135" lon="120.96015153636237"><ele>6.0</ele><time>2026-04-06T04:57:37Z</time></trkpt><trkpt lat="14.457075081645236" lon="120.96019972529687"><ele>6.333333333333334</ele><time>2026-04-06T04:57:38Z</time></trkpt><trkpt lat="14.456896531385732" lon="120.96025854148776"><ele>6.666666666666667</ele><time>2026-04-06T04:57:39Z</time></trkpt><trkpt lat="14.456711837769523" lon="120.96031843902638"><ele>7.0</ele><time>2026-04-06T04:57:40Z</time></trkpt><trkpt lat="14.456529189020957" lon="120.96037339161876"><ele>7.0</ele><time>2026-04-06T04:57:41Z</time></trkpt><trkpt lat="14.45633650587673" lon="120.96041643895133"><ele>7.0</ele><time>2026-04-06T04:57:42Z</time></trkpt><trkpt lat="14.456142138987953" lon="120.96044390469929"><ele>7.0</ele><time>2026-04-06T04:57:43Z</time></trkpt><trkpt lat="14.455940216788076" lon="120.96045959227749"><ele>7.0</ele><time>2026-04-06T04:57:44Z</time></trkpt><trkpt lat="14.455734436718581" lon="120.96046430612532"><ele>7.0</ele><time>2026-04-06T04:57:45Z</time></trkpt><trkpt lat="14.455527905874865" lon="120.96046652314966"><ele>7.0</ele><time>2026-04-06T04:57:46Z</time></trkpt><trkpt lat="14.455313000369788" lon="120.96047146998183"><ele>7.333333333333334</ele><time>2026-04-06T04:57:47.001Z</time></trkpt><trkpt lat="14.455103148305465" lon="120.96048027091827"><ele>7.666666666666666</ele><time>2026-04-06T04:57:48.001Z</time></trkpt><trkpt lat="14.454898350955386" lon="120.96048823673075"><ele>8.0</ele><time>2026-04-06T04:57:49.001Z</time></trkpt><trkpt lat="14.454691267317763" lon="120.96049379488595"><ele>7.333333333333333</ele><time>2026-04-06T04:57:50.001Z</time></trkpt><trkpt lat="14.454490906119515" lon="120.96050121606338"><ele>6.666666666666666</ele><time>2026-04-06T04:57:51.001Z</time></trkpt><trkpt lat="14.45428539318908" lon="120.96051362437416"><ele>6.0</ele><time>2026-04-06T04:57:52.001Z</time></trkpt><trkpt lat="14.454081998584819" lon="120.96053723304817"><ele>6.0</ele><time>2026-04-06T04:57:53.001Z</time></trkpt><trkpt lat="14.453870609278656" lon="120.96056574632611"><ele>6.0</ele><time>2026-04-06T04:57:54.001Z</time></trkpt><trkpt lat="14.453674029457963" lon="120.96059384597092"><ele>6.0</ele><time>2026-04-06T04:57:55.001Z</time></trkpt><trkpt lat="14.453494428758093" lon="120.96061714027633"><ele>6.333333333333334</ele><time>2026-04-06T04:57:56.001Z</time></trkpt><trkpt lat="14.453317914754084" lon="120.96063906925211"><ele>6.666666666666667</ele><time>2026-04-06T04:57:57.001Z</time></trkpt><trkpt lat="14.453157595202308" lon="120.96065910853993"><ele>7.0</ele><time>2026-04-06T04:57:58.001Z</time></trkpt><trkpt lat="14.45299623077394" lon="120.96068112633708"><ele>6.75</ele><time>2026-04-06T04:57:59.001Z</time></trkpt><trkpt lat="14.452841597898274" lon="120.96070273748528"><ele>6.5</ele><time>2026-04-06T04:58:00.001Z</time></trkpt><trkpt lat="14.452694811480525" lon="120.96072297769655"><ele>6.25</ele><time>2026-04-06T04:58:01.001Z</time></trkpt><trkpt lat="14.452556714242915" lon="120.96073894873213"><ele>6.0</ele><time>2026-04-06T04:58:02.001Z</time></trkpt><trkpt lat="14.452421959397988" lon="120.9607403682285"><ele>6.0</ele><time>2026-04-06T04:58:03.001Z</time></trkpt><trkpt lat="14.452283722181733" lon="120.9607365171461"><ele>6.0</ele><time>2026-04-06T04:58:04.001Z</time></trkpt><trkpt lat="14.452143475535975" lon="120.96072936729612"><ele>6.0</ele><time>2026-04-06T04:58:05.001Z</time></trkpt><trkpt lat="14.451997812740311" lon="120.96071786763312"><ele>6.0</ele><time>2026-04-06T04:58:06.001Z</time></trkpt><trkpt lat="14.45185434069183" lon="120.96070256498426"><ele>6.666666666666666</ele><time>2026-04-06T04:58:07.001Z</time></trkpt><trkpt lat="14.451709655777076" lon="120.96069297397626"><ele>7.333333333333333</ele><time>2026-04-06T04:58:08.001Z</time></trkpt><trkpt lat="14.451553876345677" lon="120.96069541483817"><ele>8.0</ele><time>2026-04-06T04:58:09.001Z</time></trkpt><trkpt lat="14.451396765940144" lon="120.96071545071695"><ele>8.333333333333332</ele><time>2026-04-06T04:58:10.001Z</time></trkpt><trkpt lat="14.451235433937002" lon="120.96075759967218"><ele>8.666666666666666</ele><time>2026-04-06T04:58:11.001Z</time></trkpt><trkpt lat="14.451072965048699" lon="120.96081262912098"><ele>9.0</ele><time>2026-04-06T04:58:12.001Z</time></trkpt><trkpt lat="14.450903548047297" lon="120.96087287202039"><ele>9.0</ele><time>2026-04-06T04:58:13.001Z</time></trkpt><trkpt lat="14.450731259359538" lon="120.960939621589"><ele>9.0</ele><time>2026-04-06T04:58:14.001Z</time></trkpt><trkpt lat="14.45056338970367" lon="120.96101508582524"><ele>9.0</ele><time>2026-04-06T04:58:15.001Z</time></trkpt><trkpt lat="14.450391556967787" lon="120.96110374497981"><ele>9.0</ele><time>2026-04-06T04:58:16.001Z</time></trkpt><trkpt lat="14.450219556822343" lon="120.96119690343846"><ele>9.0</ele><time>2026-04-06T04:58:17.001Z</time></trkpt><trkpt lat="14.45004731921736" lon="120.96128936107272"><ele>9.0</ele><time>2026-04-06T04:58:18.001Z</time></trkpt><trkpt lat="14.449873605183107" lon="120.96138082436266"><ele>9.0</ele><time>2026-04-06T04:58:19.001Z</time></trkpt><trkpt lat="14.44970469458924" lon="120.96147016825266"><ele>9.0</ele><time>2026-04-06T04:58:20.001Z</time></trkpt><trkpt lat="14.449549804499526" lon="120.96155451324898"><ele>9.0</ele><time>2026-04-06T04:58:21.001Z</time></trkpt><trkpt lat="14.449408081721906" lon="120.96163152523442"><ele>10.0</ele><time>2026-04-06T04:58:22.001Z</time></trkpt><trkpt lat="14.449269560568515" lon="120.96170745099603"><ele>11.0</ele><time>2026-04-06T04:58:23.001Z</time></trkpt><trkpt lat="14.449122982740425" lon="120.96179013530592"><ele>12.0</ele><time>2026-04-06T04:58:24.001Z</time></trkpt><trkpt lat="14.44897348092762" lon="120.96187062223935"><ele>12.0</ele><time>2026-04-06T04:58:25.001Z</time></trkpt><trkpt lat="14.448826055603716" lon="120.9619520393951"><ele>12.0</ele><time>2026-04-06T04:58:26.001Z</time></trkpt><trkpt lat="14.448673278495674" lon="120.96203931363542"><ele>12.0</ele><time>2026-04-06T04:58:27.001Z</time></trkpt><trkpt lat="14.448523374083553" lon="120.96212900679217"><ele>12.0</ele><time>2026-04-06T04:58:28.001Z</time></trkpt><trkpt lat="14.448374959517865" lon="120.96222706552697"><ele>12.0</ele><time>2026-04-06T04:58:29.001Z</time></trkpt><trkpt lat="14.448232768445628" lon="120.96233050034591"><ele>12.0</ele><time>2026-04-06T04:58:30.001Z</time></trkpt><trkpt lat="14.448092779465016" lon="120.96243760920136"><ele>11.333333333333334</ele><time>2026-04-06T04:58:31.001Z</time></trkpt><trkpt lat="14.447964683124061" lon="120.96254111452035"><ele>10.666666666666668</ele><time>2026-04-06T04:58:32.001Z</time></trkpt><trkpt lat="14.447844807024213" lon="120.96264314947058"><ele>10.0</ele><time>2026-04-06T04:58:33.001Z</time></trkpt><trkpt lat="14.44773726090084" lon="120.9627397443815"><ele>9.5</ele><time>2026-04-06T04:58:34.001Z</time></trkpt><trkpt lat="14.447636467329101" lon="120.96283196984751"><ele>9.0</ele><time>2026-04-06T04:58:35.001Z</time></trkpt><trkpt lat="14.447531654102319" lon="120.96292832266526"><ele>8.5</ele><time>2026-04-06T04:58:36.001Z</time></trkpt><trkpt lat="14.447428984026724" lon="120.96304151975133"><ele>8.0</ele><time>2026-04-06T04:58:37.001Z</time></trkpt><trkpt lat="14.447330893318815" lon="120.96316225364575"><ele>8.0</ele><time>2026-04-06T04:58:38.001Z</time></trkpt><trkpt lat="14.447240745356934" lon="120.96329233062565"><ele>8.0</ele><time>2026-04-06T04:58:39.001Z</time></trkpt><trkpt lat="14.447162636321265" lon="120.96342735153698"><ele>8.0</ele><time>2026-04-06T04:58:40.001Z</time></trkpt><trkpt lat="14.447085378015776" lon="120.96356841601036"><ele>10.0</ele><time>2026-04-06T04:58:41.001Z</time></trkpt><trkpt lat="14.4470140632389" lon="120.96370930297299"><ele>12.0</ele><time>2026-04-06T04:58:41.999Z</time></trkpt><trkpt lat="14.446944432535352" lon="120.9638548318392"><ele>14.0</ele><time>2026-04-06T04:58:42.999Z</time></trkpt><trkpt lat="14.446879585662245" lon="120.96399476072463"><ele>14.0</ele><time>2026-04-06T04:58:43.999Z</time></trkpt><trkpt lat="14.446840278195335" lon="120.96413432542774"><ele>14.0</ele><time>2026-04-06T04:58:44.999Z</time></trkpt><trkpt lat="14.446789581043973" lon="120.9642641314454"><ele>14.0</ele><time>2026-04-06T04:58:45.999Z</time></trkpt><trkpt lat="14.446734703881665" lon="120.96439855318981"><ele>14.0</ele><time>2026-04-06T04:58:46.999Z</time></trkpt><trkpt lat="14.446675524998787" lon="120.96454089429183"><ele>13.666666666666668</ele><time>2026-04-06T04:58:47.999Z</time></trkpt><trkpt lat="14.446597437323254" lon="120.96469131402563"><ele>13.333333333333332</ele><time>2026-04-06T04:58:48.999Z</time></trkpt><trkpt lat="14.446536444260937" lon="120.96483141580651"><ele>13.0</ele><time>2026-04-06T04:58:49.999Z</time></trkpt><trkpt lat="14.446471725257728" lon="120.96497376078939"><ele>12.333333333333332</ele><time>2026-04-06T04:58:50.999Z</time></trkpt><trkpt lat="14.446392149703321" lon="120.96511120419244"><ele>11.666666666666666</ele><time>2026-04-06T04:58:51.999Z</time></trkpt><trkpt lat="14.446294533428317" lon="120.96524646368647"><ele>11.0</ele><time>2026-04-06T04:58:52.999Z</time></trkpt><trkpt lat="14.446177482663337" lon="120.96536581714615"><ele>11.0</ele><time>2026-04-06T04:58:53.999Z</time></trkpt><trkpt lat="14.446051633507414" lon="120.96546781026683"><ele>11.0</ele><time>2026-04-06T04:58:54.999Z</time></trkpt><trkpt lat="14.445913550271396" lon="120.96555788817572"><ele>11.0</ele><time>2026-04-06T04:58:55.999Z</time></trkpt><trkpt lat="14.445767515719934" lon="120.96563370842532"><ele>11.0</ele><time>2026-04-06T04:58:56.999Z</time></trkpt><trkpt lat="14.445614567935444" lon="120.96570646551002"><ele>11.0</ele><time>2026-04-06T04:58:57.999Z</time></trkpt><trkpt lat="14.445458952948664" lon="120.96578239153709"><ele>11.0</ele><time>2026-04-06T04:58:58.999Z</time></trkpt><trkpt lat="14.445300496885258" lon="120.96586075157"><ele>10.666666666666666</ele><time>2026-04-06T04:58:59.999Z</time></trkpt><trkpt lat="14.445141356648877" lon="120.96593799611726"><ele>10.333333333333334</ele><time>2026-04-06T04:59:00.999Z</time></trkpt><trkpt lat="14.444981160383957" lon="120.9660152230014"><ele>10.0</ele><time>2026-04-06T04:59:02Z</time></trkpt><trkpt lat="14.444831242299301" lon="120.96609158171768"><ele>10.0</ele><time>2026-04-06T04:59:03Z</time></trkpt><trkpt lat="14.444685802660985" lon="120.96616287374755"><ele>10.0</ele><time>2026-04-06T04:59:04Z</time></trkpt><trkpt lat="14.444542584155357" lon="120.96622425957361"><ele>10.0</ele><time>2026-04-06T04:59:05Z</time></trkpt><trkpt lat="14.444402348289223" lon="120.96627682024497"><ele>10.0</ele><time>2026-04-06T04:59:06Z</time></trkpt><trkpt lat="14.44425921849932" lon="120.9663213510773"><ele>10.0</ele><time>2026-04-06T04:59:07Z</time></trkpt><trkpt lat="14.444114271184146" lon="120.9663447337672"><ele>10.0</ele><time>2026-04-06T04:59:08Z</time></trkpt><trkpt lat="14.443958153583207" lon="120.96634415715877"><ele>10.0</ele><time>2026-04-06T04:59:09Z</time></trkpt><trkpt lat="14.443803228552527" lon="120.96632228793159"><ele>10.0</ele><time>2026-04-06T04:59:10Z</time></trkpt><trkpt lat="14.443649246215154" lon="120.96630235970667"><ele>10.0</ele><time>2026-04-06T04:59:11Z</time></trkpt><trkpt lat="14.443496341461497" lon="120.96628950540921"><ele>10.0</ele><time>2026-04-06T04:59:12Z</time></trkpt><trkpt lat="14.44334702423997" lon="120.96627523873174"><ele>10.0</ele><time>2026-04-06T04:59:13Z</time></trkpt><trkpt lat="14.443201499053714" lon="120.96625484158693"><ele>10.0</ele><time>2026-04-06T04:59:14Z</time></trkpt><trkpt lat="14.443052955300418" lon="120.96623551060387"><ele>10.0</ele><time>2026-04-06T04:59:15Z</time></trkpt><trkpt lat="14.442898738997524" lon="120.96622192599364"><ele>10.0</ele><time>2026-04-06T04:59:16Z</time></trkpt><trkpt lat="14.442748629161818" lon="120.966223044478"><ele>10.0</ele><time>2026-04-06T04:59:17Z</time></trkpt><trkpt lat="14.442604543860073" lon="120.96624106714314"><ele>10.0</ele><time>2026-04-06T04:59:18Z</time></trkpt><trkpt lat="14.442480557170033" lon="120.96626640698834"><ele>10.0</ele><time>2026-04-06T04:59:19Z</time></trkpt><trkpt lat="14.442364798901055" lon="120.96629990939985"><ele>10.0</ele><time>2026-04-06T04:59:20Z</time></trkpt><trkpt lat="14.44226326261307" lon="120.9663367709069"><ele>10.0</ele><time>2026-04-06T04:59:21Z</time></trkpt><trkpt lat="14.442163143189044" lon="120.96638159320169"><ele>10.0</ele><time>2026-04-06T04:59:22Z</time></trkpt><trkpt lat="14.442056737035772" lon="120.9664317211949"><ele>10.0</ele><time>2026-04-06T04:59:23Z</time></trkpt><trkpt lat="14.441946926034774" lon="120.96647890118474"><ele>9.75</ele><time>2026-04-06T04:59:24Z</time></trkpt><trkpt lat="14.441825517853017" lon="120.96652716766013"><ele>9.5</ele><time>2026-04-06T04:59:25Z</time></trkpt><trkpt lat="14.44169935556156" lon="120.96657527030338"><ele>9.25</ele><time>2026-04-06T04:59:26Z</time></trkpt><trkpt lat="14.441570102970205" lon="120.96662636772741"><ele>9.0</ele><time>2026-04-06T04:59:27Z</time></trkpt><trkpt lat="14.441438129328619" lon="120.96668488782561"><ele>8.75</ele><time>2026-04-06T04:59:28Z</time></trkpt><trkpt lat="14.441304950451398" lon="120.96674458631985"><ele>8.5</ele><time>2026-04-06T04:59:29Z</time></trkpt><trkpt lat="14.441169109699604" lon="120.96680246867092"><ele>8.25</ele><time>2026-04-06T04:59:30Z</time></trkpt><trkpt lat="14.441029312349158" lon="120.96685788598467"><ele>8.0</ele><time>2026-04-06T04:59:31Z</time></trkpt><trkpt lat="14.440876721621061" lon="120.96691841883153"><ele>8.0</ele><time>2026-04-06T04:59:32Z</time></trkpt><trkpt lat="14.44072701717202" lon="120.96697854235039"><ele>8.0</ele><time>2026-04-06T04:59:33Z</time></trkpt><trkpt lat="14.440585768502059" lon="120.96703707922217"><ele>8.0</ele><time>2026-04-06T04:59:34Z</time></trkpt><trkpt lat="14.440454258479773" lon="120.96709509345067"><ele>8.5</ele><time>2026-04-06T04:59:35Z</time></trkpt><trkpt lat="14.440335223593102" lon="120.96714601567794"><ele>9.0</ele><time>2026-04-06T04:59:36Z</time></trkpt><trkpt lat="14.44022186404974" lon="120.96719797912077"><ele>9.5</ele><time>2026-04-06T04:59:37Z</time></trkpt><trkpt lat="14.440112418694525" lon="120.96724857098182"><ele>10.0</ele><time>2026-04-06T04:59:38Z</time></trkpt><trkpt lat="14.439993281698035" lon="120.96730440551859"><ele>10.0</ele><time>2026-04-06T04:59:39Z</time></trkpt><trkpt lat="14.43986225642135" lon="120.96736112531404"><ele>10.0</ele><time>2026-04-06T04:59:40Z</time></trkpt><trkpt lat="14.439722150104213" lon="120.96742333426518"><ele>10.0</ele><time>2026-04-06T04:59:41Z</time></trkpt><trkpt lat="14.439571841810949" lon="120.96748274663715"><ele>10.0</ele><time>2026-04-06T04:59:42Z</time></trkpt><trkpt lat="14.439412180016102" lon="120.9675371008474"><ele>10.0</ele><time>2026-04-06T04:59:43Z</time></trkpt><trkpt lat="14.439248332348768" lon="120.96759457433923"><ele>10.0</ele><time>2026-04-06T04:59:44Z</time></trkpt><trkpt lat="14.43907619423643" lon="120.96765350341073"><ele>10.0</ele><time>2026-04-06T04:59:45Z</time></trkpt><trkpt lat="14.438900859179078" lon="120.96770731104856"><ele>10.0</ele><time>2026-04-06T04:59:46Z</time></trkpt><trkpt lat="14.43872068237991" lon="120.96776077540008"><ele>10.0</ele><time>2026-04-06T04:59:47Z</time></trkpt><trkpt lat="14.438529761274392" lon="120.96781189788108"><ele>10.0</ele><time>2026-04-06T04:59:48Z</time></trkpt><trkpt lat="14.43834368797854" lon="120.9678608891426"><ele>10.0</ele><time>2026-04-06T04:59:49Z</time></trkpt><trkpt lat="14.438160220267308" lon="120.96790577499222"><ele>10.0</ele><time>2026-04-06T04:59:50Z</time></trkpt><trkpt lat="14.437972541346538" lon="120.96795554689304"><ele>9.666666666666668</ele><time>2026-04-06T04:59:51Z</time></trkpt><trkpt lat="14.437784520225408" lon="120.96800089297443"><ele>9.333333333333334</ele><time>2026-04-06T04:59:52Z</time></trkpt><trkpt lat="14.437605064653601" lon="120.9680435707608"><ele>9.0</ele><time>2026-04-06T04:59:53Z</time></trkpt><trkpt lat="14.437445064520864" lon="120.96808286446146"><ele>9.0</ele><time>2026-04-06T04:59:54Z</time></trkpt><trkpt lat="14.437290425069694" lon="120.9681215922726"><ele>9.0</ele><time>2026-04-06T04:59:55Z</time></trkpt><trkpt lat="14.43713848069544" lon="120.96816164054904"><ele>9.0</ele><time>2026-04-06T04:59:56Z</time></trkpt><trkpt lat="14.436988635560539" lon="120.96819925054774"><ele>9.333333333333334</ele><time>2026-04-06T04:59:57Z</time></trkpt><trkpt lat="14.436834780289786" lon="120.96823948508445"><ele>9.666666666666668</ele><time>2026-04-06T04:59:58Z</time></trkpt><trkpt lat="14.436687122438391" lon="120.96826236447633"><ele>10.0</ele><time>2026-04-06T04:59:59Z</time></trkpt><trkpt lat="14.436532371775337" lon="120.96827191093851"><ele>10.0</ele><time>2026-04-06T05:00:00Z</time></trkpt><trkpt lat="14.436396133555757" lon="120.96825941588516"><ele>10.0</ele><time>2026-04-06T05:00:01Z</time></trkpt><trkpt lat="14.436235163060989" lon="120.9682342968399"><ele>10.0</ele><time>2026-04-06T05:00:02.001Z</time></trkpt><trkpt lat="14.436086075047074" lon="120.96819052448352"><ele>10.666666666666668</ele><time>2026-04-06T05:00:03.001Z</time></trkpt><trkpt lat="14.435930417352075" lon="120.96813389904526"><ele>11.333333333333334</ele><time>2026-04-06T05:00:04.001Z</time></trkpt><trkpt lat="14.43577818240157" lon="120.9680677895458"><ele>12.0</ele><time>2026-04-06T05:00:05.001Z</time></trkpt><trkpt lat="14.435622602248019" lon="120.9679942293747"><ele>10.666666666666666</ele><time>2026-04-06T05:00:06.001Z</time></trkpt><trkpt lat="14.435465768897135" lon="120.96790910111763"><ele>9.333333333333332</ele><time>2026-04-06T05:00:07.001Z</time></trkpt><trkpt lat="14.43531442715208" lon="120.9678189956454"><ele>8.0</ele><time>2026-04-06T05:00:08.001Z</time></trkpt><trkpt lat="14.435157191933182" lon="120.96772463859833"><ele>8.0</ele><time>2026-04-06T05:00:09.001Z</time></trkpt><trkpt lat="14.435000629321777" lon="120.96763675181572"><ele>8.0</ele><time>2026-04-06T05:00:10.001Z</time></trkpt><trkpt lat="14.434833392516007" lon="120.96754217615457"><ele>8.0</ele><time>2026-04-06T05:00:11.001Z</time></trkpt><trkpt lat="14.43467055985433" lon="120.96744905552062"><ele>9.0</ele><time>2026-04-06T05:00:12.001Z</time></trkpt><trkpt lat="14.434498108589336" lon="120.96735099895311"><ele>10.0</ele><time>2026-04-06T05:00:13.001Z</time></trkpt><trkpt lat="14.434328320594522" lon="120.9672582774945"><ele>11.0</ele><time>2026-04-06T05:00:14.001Z</time></trkpt><trkpt lat="14.434154902971258" lon="120.96716233118643"><ele>11.0</ele><time>2026-04-06T05:00:15.001Z</time></trkpt><trkpt lat="14.43398967064051" lon="120.96707176305814"><ele>11.0</ele><time>2026-04-06T05:00:16.001Z</time></trkpt><trkpt lat="14.433814678069922" lon="120.96697488162292"><ele>11.0</ele><time>2026-04-06T05:00:17.001Z</time></trkpt><trkpt lat="14.433657306560349" lon="120.9668891529522"><ele>11.333333333333332</ele><time>2026-04-06T05:00:18.001Z</time></trkpt><trkpt lat="14.433509596597707" lon="120.96680694003443"><ele>11.666666666666666</ele><time>2026-04-06T05:00:19.001Z</time></trkpt><trkpt lat="14.433364884197099" lon="120.9667275322264"><ele>12.0</ele><time>2026-04-06T05:00:20.001Z</time></trkpt><trkpt lat="14.433231826606946" lon="120.96665395558334"><ele>12.75</ele><time>2026-04-06T05:00:21.001Z</time></trkpt><trkpt lat="14.433092806747869" lon="120.96657814582134"><ele>13.5</ele><time>2026-04-06T05:00:22.001Z</time></trkpt><trkpt lat="14.432965002499797" lon="120.9665072798234"><ele>14.25</ele><time>2026-04-06T05:00:23.001Z</time></trkpt><trkpt lat="14.43284326297406" lon="120.96643727573436"><ele>15.0</ele><time>2026-04-06T05:00:24.001Z</time></trkpt><trkpt lat="14.432726581575032" lon="120.96637231597082"><ele>15.0</ele><time>2026-04-06T05:00:25.001Z</time></trkpt><trkpt lat="14.432620188870967" lon="120.9663137106738"><ele>15.0</ele><time>2026-04-06T05:00:26.001Z</time></trkpt><trkpt lat="14.432516805166335" lon="120.9662589120572"><ele>15.0</ele><time>2026-04-06T05:00:27.001Z</time></trkpt><trkpt lat="14.432422405541875" lon="120.96621024226955"><ele>15.0</ele><time>2026-04-06T05:00:28.001Z</time></trkpt><trkpt lat="14.432344235414403" lon="120.9661649239945"><ele>15.0</ele><time>2026-04-06T05:00:29.001Z</time></trkpt><trkpt lat="14.432278849157338" lon="120.96612502173042"><ele>15.0</ele><time>2026-04-06T05:00:30.001Z</time></trkpt><trkpt lat="14.432191630170463" lon="120.96606181987116"><ele>15.0</ele><time>2026-04-06T05:00:32.001Z</time></trkpt><trkpt lat="14.432120972961766" lon="120.96601256187238"><ele>15.0</ele><time>2026-04-06T05:00:34.001Z</time></trkpt><trkpt lat="14.432092995390406" lon="120.96595354691458"><ele>15.0</ele><time>2026-04-06T05:00:37.001Z</time></trkpt><trkpt lat="14.43210698685554" lon="120.96585050965975"><ele>15.0</ele><time>2026-04-06T05:02:04Z</time></trkpt><trkpt lat="14.432219103449883" lon="120.96588141608524"><ele>15.0</ele><time>2026-04-06T05:03:00Z</time></trkpt><trkpt lat="14.432161137715815" lon="120.96584748515878"><ele>15.0</ele><time>2026-04-06T05:03:35Z</time></trkpt><trkpt lat="14.432075322023186" lon="120.96588602732572"><ele>15.0</ele><time>2026-04-06T05:04:39.001Z</time></trkpt><trkpt lat="14.432179209083198" lon="120.96584689728346"><ele>15.0</ele><time>2026-04-06T05:05:15Z</time></trkpt><trkpt lat="14.432197947347241" lon="120.96578381105847"><ele>15.0</ele><time>2026-04-06T05:05:26Z</time></trkpt><trkpt lat="14.432141326049832" lon="120.96602239231568"><ele>15.166666666666666</ele><time>2026-04-06T05:05:33Z</time></trkpt><trkpt lat="14.432131593482252" lon="120.96594026183233"><ele>15.333333333333332</ele><time>2026-04-06T05:05:45.001Z</time></trkpt><trkpt lat="14.432065844111277" lon="120.96585665189235"><ele>15.5</ele><time>2026-04-06T05:07:16.076Z</time></trkpt><trkpt lat="14.432057816727891" lon="120.96597611363931"><ele>15.666666666666666</ele><time>2026-04-06T05:07:22.002Z</time></trkpt><trkpt lat="14.432115059848497" lon="120.96594570237838"><ele>15.833333333333332</ele><time>2026-04-06T05:09:45.02Z</time></trkpt><trkpt lat="14.43212903191281" lon="120.9660202069376"><ele>16.0</ele><time>2026-04-06T05:09:55.03Z</time></trkpt><trkpt lat="14.432055895932969" lon="120.96594121601781"><ele>15.999999999999998</ele><time>2026-04-06T05:11:10.015Z</time></trkpt><trkpt lat="14.432147969518596" lon="120.9658856431637"><ele>16.0</ele><time>2026-04-06T05:57:03.035Z</time></trkpt><trkpt lat="14.432140104329662" lon="120.96578226861125"><ele>16.0</ele><time>2026-04-06T05:57:04.035Z</time></trkpt><trkpt lat="14.432146140710566" lon="120.96586000290237"><ele>16.0</ele><time>2026-04-06T06:08:30Z</time></trkpt><trkpt lat="14.432103660792837" lon="120.96590877052076"><ele>15.999999999999998</ele><time>2026-04-06T06:09:07Z</time></trkpt><trkpt lat="14.432082175471056" lon="120.9659822996448"><ele>16.0</ele><time>2026-04-06T06:09:12Z</time></trkpt><trkpt lat="14.432018918821576" lon="120.96598628257267"><ele>16.0</ele><time>2026-04-06T06:09:14Z</time></trkpt><trkpt lat="14.431948258759823" lon="120.96597716885702"><ele>15.999999999999998</ele><time>2026-04-06T06:09:16Z</time></trkpt><trkpt lat="14.431887851416478" lon="120.96595233250353"><ele>16.0</ele><time>2026-04-06T06:09:18Z</time></trkpt><trkpt lat="14.431835615640031" lon="120.96591245141633"><ele>16.0</ele><time>2026-04-06T06:09:22Z</time></trkpt><trkpt lat="14.431773116804328" lon="120.96589301564582"><ele>15.999999999999998</ele><time>2026-04-06T06:10:58Z</time></trkpt><trkpt lat="14.431702899858264" lon="120.9658504697242"><ele>16.0</ele><time>2026-04-06T06:11:02Z</time></trkpt><trkpt lat="14.43164202253666" lon="120.96581912188864"><ele>16.0</ele><time>2026-04-06T06:11:04Z</time></trkpt><trkpt lat="14.431564052217386" lon="120.96577368441596"><ele>16.0</ele><time>2026-04-06T06:11:06Z</time></trkpt><trkpt lat="14.431481236158701" lon="120.96573086741692"><ele>16.0</ele><time>2026-04-06T06:11:08Z</time></trkpt><trkpt lat="14.431388946714105" lon="120.96568168496599"><ele>16.0</ele><time>2026-04-06T06:11:10Z</time></trkpt><trkpt lat="14.43130717418132" lon="120.96563587266644"><ele>16.0</ele><time>2026-04-06T06:11:12Z</time></trkpt><trkpt lat="14.431226222615775" lon="120.96558880089279"><ele>16.0</ele><time>2026-04-06T06:11:14Z</time></trkpt><trkpt lat="14.43121107550621" lon="120.96567727575331"><ele>15.999999999999998</ele><time>2026-04-06T06:11:18Z</time></trkpt><trkpt lat="14.431265581962103" lon="120.96571849223595"><ele>16.0</ele><time>2026-04-06T06:11:19Z</time></trkpt><trkpt lat="14.43134596162258" lon="120.96573807570924"><ele>16.0</ele><time>2026-04-06T06:11:20Z</time></trkpt><trkpt lat="14.431421602863832" lon="120.96576596013934"><ele>16.0</ele><time>2026-04-06T06:11:21Z</time></trkpt><trkpt lat="14.43149765735156" lon="120.96580807875773"><ele>15.999999999999998</ele><time>2026-04-06T06:11:22Z</time></trkpt><trkpt lat="14.431587898799242" lon="120.96585966239233"><ele>16.0</ele><time>2026-04-06T06:11:23Z</time></trkpt><trkpt lat="14.43168115122247" lon="120.96590925522052"><ele>16.0</ele><time>2026-04-06T06:11:24Z</time></trkpt><trkpt lat="14.431783574729149" lon="120.9659639808069"><ele>16.0</ele><time>2026-04-06T06:11:25Z</time></trkpt><trkpt lat="14.431886168200277" lon="120.96601959099323"><ele>16.0</ele><time>2026-04-06T06:11:26Z</time></trkpt><trkpt lat="14.43200138121698" lon="120.96608103958397"><ele>16.0</ele><time>2026-04-06T06:11:27Z</time></trkpt><trkpt lat="14.432106021979182" lon="120.96614678905917"><ele>15.75</ele><time>2026-04-06T06:11:28Z</time></trkpt><trkpt lat="14.43223224938809" lon="120.96620915410192"><ele>15.5</ele><time>2026-04-06T06:11:29Z</time></trkpt><trkpt lat="14.432352903066318" lon="120.9662731757324"><ele>15.25</ele><time>2026-04-06T06:11:30Z</time></trkpt><trkpt lat="14.432485719944792" lon="120.96633927515806"><ele>15.0</ele><time>2026-04-06T06:11:31Z</time></trkpt><trkpt lat="14.43261555844013" lon="120.9664101434688"><ele>15.0</ele><time>2026-04-06T06:11:32Z</time></trkpt><trkpt lat="14.432742133130256" lon="120.96648342273846"><ele>15.0</ele><time>2026-04-06T06:11:33Z</time></trkpt><trkpt lat="14.43288722361695" lon="120.96655409840389"><ele>15.0</ele><time>2026-04-06T06:11:34Z</time></trkpt><trkpt lat="14.433021215761206" lon="120.96663000345288"><ele>14.0</ele><time>2026-04-06T06:11:35Z</time></trkpt><trkpt lat="14.433153861031633" lon="120.96670871150104"><ele>13.0</ele><time>2026-04-06T06:11:36Z</time></trkpt><trkpt lat="14.433304085148997" lon="120.96678848138596"><ele>12.0</ele><time>2026-04-06T06:11:37Z</time></trkpt><trkpt lat="14.433455267479614" lon="120.96686816962831"><ele>12.0</ele><time>2026-04-06T06:11:38Z</time></trkpt><trkpt lat="14.433605505279699" lon="120.96694864282794"><ele>12.0</ele><time>2026-04-06T06:11:39Z</time></trkpt><trkpt lat="14.433759231866507" lon="120.96703110681646"><ele>12.0</ele><time>2026-04-06T06:11:40Z</time></trkpt><trkpt lat="14.433911649252101" lon="120.96711786692059"><ele>11.666666666666666</ele><time>2026-04-06T06:11:41Z</time></trkpt><trkpt lat="14.434069042284976" lon="120.96720427747296"><ele>11.333333333333332</ele><time>2026-04-06T06:11:42Z</time></trkpt><trkpt lat="14.43422470039355" lon="120.96729133128795"><ele>11.0</ele><time>2026-04-06T06:11:43Z</time></trkpt><trkpt lat="14.43438314469133" lon="120.96737856493979"><ele>11.0</ele><time>2026-04-06T06:11:44Z</time></trkpt><trkpt lat="14.434546751094052" lon="120.96746744213256"><ele>11.0</ele><time>2026-04-06T06:11:45Z</time></trkpt><trkpt lat="14.43469657378749" lon="120.96756277397891"><ele>11.0</ele><time>2026-04-06T06:11:46Z</time></trkpt><trkpt lat="14.434866346224378" lon="120.96765025110955"><ele>10.0</ele><time>2026-04-06T06:11:47Z</time></trkpt><trkpt lat="14.435030058327413" lon="120.9677429362189"><ele>9.0</ele><time>2026-04-06T06:11:48Z</time></trkpt><trkpt lat="14.435191956864104" lon="120.9678282327391"><ele>8.0</ele><time>2026-04-06T06:11:49Z</time></trkpt><trkpt lat="14.435338719779505" lon="120.96790868939172"><ele>9.333333333333332</ele><time>2026-04-06T06:11:50Z</time></trkpt><trkpt lat="14.43548847972869" lon="120.9679854628979"><ele>10.666666666666666</ele><time>2026-04-06T06:11:51Z</time></trkpt><trkpt lat="14.4356257685283" lon="120.96806561558488"><ele>12.0</ele><time>2026-04-06T06:11:52Z</time></trkpt><trkpt lat="14.435770334333487" lon="120.96813953506441"><ele>12.0</ele><time>2026-04-06T06:11:53Z</time></trkpt><trkpt lat="14.435913395152443" lon="120.96820828130863"><ele>12.0</ele><time>2026-04-06T06:11:54Z</time></trkpt><trkpt lat="14.436049545693033" lon="120.9682614340113"><ele>12.0</ele><time>2026-04-06T06:11:55Z</time></trkpt><trkpt lat="14.43617859745575" lon="120.9683093816125"><ele>12.0</ele><time>2026-04-06T06:11:56Z</time></trkpt><trkpt lat="14.436315363836368" lon="120.96834299338502"><ele>11.5</ele><time>2026-04-06T06:11:57Z</time></trkpt><trkpt lat="14.436451486903827" lon="120.96836673454703"><ele>11.0</ele><time>2026-04-06T06:11:58Z</time></trkpt><trkpt lat="14.436596952467106" lon="120.96836967754916"><ele>10.5</ele><time>2026-04-06T06:11:59Z</time></trkpt><trkpt lat="14.436741094980329" lon="120.96836613033148"><ele>10.0</ele><time>2026-04-06T06:12:00Z</time></trkpt><trkpt lat="14.436886628769676" lon="120.96834749132563"><ele>10.0</ele><time>2026-04-06T06:12:01Z</time></trkpt><trkpt lat="14.437046483669317" lon="120.96831591226879"><ele>10.0</ele><time>2026-04-06T06:12:02Z</time></trkpt><trkpt lat="14.43719683281037" lon="120.96827833225613"><ele>10.0</ele><time>2026-04-06T06:12:03Z</time></trkpt><trkpt lat="14.437354389530519" lon="120.96823265654683"><ele>9.666666666666668</ele><time>2026-04-06T06:12:04Z</time></trkpt><trkpt lat="14.43751264430155" lon="120.968188660366"><ele>9.333333333333334</ele><time>2026-04-06T06:12:05Z</time></trkpt><trkpt lat="14.437674854540994" lon="120.96814874256796"><ele>9.0</ele><time>2026-04-06T06:12:06Z</time></trkpt><trkpt lat="14.437837528591361" lon="120.96810935008476"><ele>9.333333333333334</ele><time>2026-04-06T06:12:07Z</time></trkpt><trkpt lat="14.43800620592316" lon="120.9680665706017"><ele>9.666666666666668</ele><time>2026-04-06T06:12:08Z</time></trkpt><trkpt lat="14.43817426288145" lon="120.96802378778065"><ele>10.0</ele><time>2026-04-06T06:12:09Z</time></trkpt><trkpt lat="14.438353179319193" lon="120.96797747165854"><ele>10.0</ele><time>2026-04-06T06:12:10Z</time></trkpt><trkpt lat="14.438531356489797" lon="120.96793031220635"><ele>10.0</ele><time>2026-04-06T06:12:11Z</time></trkpt><trkpt lat="14.438705601119961" lon="120.96788127689446"><ele>10.0</ele><time>2026-04-06T06:12:12Z</time></trkpt><trkpt lat="14.438885939451698" lon="120.9678261067032"><ele>10.0</ele><time>2026-04-06T06:12:13Z</time></trkpt><trkpt lat="14.439063648086075" lon="120.96777427698059"><ele>10.0</ele><time>2026-04-06T06:12:14Z</time></trkpt><trkpt lat="14.439239963326619" lon="120.96772093334663"><ele>10.0</ele><time>2026-04-06T06:12:15Z</time></trkpt><trkpt lat="14.439412348389922" lon="120.96766511215051"><ele>10.0</ele><time>2026-04-06T06:12:16Z</time></trkpt><trkpt lat="14.43958393302974" lon="120.96760142097723"><ele>10.0</ele><time>2026-04-06T06:12:17Z</time></trkpt><trkpt lat="14.439749026580165" lon="120.96753860937241"><ele>10.0</ele><time>2026-04-06T06:12:18Z</time></trkpt><trkpt lat="14.43990683646674" lon="120.96747795265065"><ele>10.0</ele><time>2026-04-06T06:12:19Z</time></trkpt><trkpt lat="14.440063265144886" lon="120.96741617618784"><ele>10.0</ele><time>2026-04-06T06:12:20Z</time></trkpt><trkpt lat="14.440216784349463" lon="120.9673477359775"><ele>10.0</ele><time>2026-04-06T06:12:21Z</time></trkpt><trkpt lat="14.440362602027468" lon="120.96728110656842"><ele>9.5</ele><time>2026-04-06T06:12:22Z</time></trkpt><trkpt lat="14.440497167921832" lon="120.96722245936098"><ele>9.0</ele><time>2026-04-06T06:12:23Z</time></trkpt><trkpt lat="14.440627217725405" lon="120.96716609001997"><ele>8.5</ele><time>2026-04-06T06:12:24Z</time></trkpt><trkpt lat="14.440749984889347" lon="120.96711711812863"><ele>8.0</ele><time>2026-04-06T06:12:25Z</time></trkpt><trkpt lat="14.4408630036389" lon="120.96706924922333"><ele>8.0</ele><time>2026-04-06T06:12:26Z</time></trkpt><trkpt lat="14.440977568940427" lon="120.96702220040974"><ele>8.0</ele><time>2026-04-06T06:12:27Z</time></trkpt><trkpt lat="14.441076125727543" lon="120.96697624774758"><ele>8.0</ele><time>2026-04-06T06:12:28Z</time></trkpt><trkpt lat="14.441170408140223" lon="120.9669352588451"><ele>8.0</ele><time>2026-04-06T06:12:29Z</time></trkpt><trkpt lat="14.44126177759642" lon="120.96689585707068"><ele>8.0</ele><time>2026-04-06T06:12:30Z</time></trkpt><trkpt lat="14.441352681369947" lon="120.96686750412536"><ele>8.0</ele><time>2026-04-06T06:12:31Z</time></trkpt><trkpt lat="14.441473706240455" lon="120.9668030296496"><ele>8.0</ele><time>2026-04-06T06:12:32Z</time></trkpt><trkpt lat="14.44157569908726" lon="120.96675780789737"><ele>8.0</ele><time>2026-04-06T06:12:33Z</time></trkpt><trkpt lat="14.441679394613162" lon="120.9667100081801"><ele>8.0</ele><time>2026-04-06T06:12:34Z</time></trkpt><trkpt lat="14.441792681282603" lon="120.96665760108094"><ele>8.25</ele><time>2026-04-06T06:12:35Z</time></trkpt><trkpt lat="14.441897283278157" lon="120.9666108032076"><ele>8.5</ele><time>2026-04-06T06:12:36Z</time></trkpt><trkpt lat="14.44199773523327" lon="120.96656530564435"><ele>8.75</ele><time>2026-04-06T06:12:37Z</time></trkpt><trkpt lat="14.442100194344201" lon="120.96651835374695"><ele>9.0</ele><time>2026-04-06T06:12:38Z</time></trkpt><trkpt lat="14.44221140603207" lon="120.96647615508742"><ele>9.25</ele><time>2026-04-06T06:12:39Z</time></trkpt><trkpt lat="14.442330143263039" lon="120.9664380327154"><ele>9.5</ele><time>2026-04-06T06:12:40Z</time></trkpt><trkpt lat="14.44243372446728" lon="120.96640282021411"><ele>9.75</ele><time>2026-04-06T06:12:41Z</time></trkpt><trkpt lat="14.442541219532133" lon="120.9663738338348"><ele>10.0</ele><time>2026-04-06T06:12:42Z</time></trkpt><trkpt lat="14.442652215613213" lon="120.9663405029706"><ele>10.0</ele><time>2026-04-06T06:12:43Z</time></trkpt><trkpt lat="14.442770481402244" lon="120.96632506838168"><ele>10.0</ele><time>2026-04-06T06:12:44Z</time></trkpt><trkpt lat="14.442898133994312" lon="120.96631768099434"><ele>10.0</ele><time>2026-04-06T06:12:45Z</time></trkpt><trkpt lat="14.443030884391233" lon="120.96631675170401"><ele>10.0</ele><time>2026-04-06T06:12:46Z</time></trkpt><trkpt lat="14.44317023577187" lon="120.96633409661582"><ele>10.25</ele><time>2026-04-06T06:12:47Z</time></trkpt><trkpt lat="14.443309058541573" lon="120.96635296258404"><ele>10.5</ele><time>2026-04-06T06:12:48Z</time></trkpt><trkpt lat="14.443447403802391" lon="120.96636689362731"><ele>10.75</ele><time>2026-04-06T06:12:49Z</time></trkpt><trkpt lat="14.443590109626397" lon="120.96638248476714"><ele>11.0</ele><time>2026-04-06T06:12:50Z</time></trkpt><trkpt lat="14.443727089790716" lon="120.96639634033541"><ele>10.75</ele><time>2026-04-06T06:12:51Z</time></trkpt><trkpt lat="14.443868953467385" lon="120.96641573504327"><ele>10.5</ele><time>2026-04-06T06:12:52Z</time></trkpt><trkpt lat="14.444010708015027" lon="120.96643062729096"><ele>10.25</ele><time>2026-04-06T06:12:53Z</time></trkpt><trkpt lat="14.444134447126501" lon="120.96643451298691"><ele>10.0</ele><time>2026-04-06T06:12:54Z</time></trkpt><trkpt lat="14.444246764281996" lon="120.96643210746481"><ele>10.0</ele><time>2026-04-06T06:12:55Z</time></trkpt><trkpt lat="14.444354240803547" lon="120.96641867400629"><ele>10.0</ele><time>2026-04-06T06:12:56Z</time></trkpt><trkpt lat="14.44445744006018" lon="120.96638736102051"><ele>10.0</ele><time>2026-04-06T06:12:57Z</time></trkpt><trkpt lat="14.444548358973881" lon="120.96635037346361"><ele>10.0</ele><time>2026-04-06T06:12:58Z</time></trkpt><trkpt lat="14.444639263033338" lon="120.96631418181438"><ele>10.0</ele><time>2026-04-06T06:12:59Z</time></trkpt><trkpt lat="14.444715946755462" lon="120.96627802834237"><ele>10.0</ele><time>2026-04-06T06:13:00Z</time></trkpt><trkpt lat="14.444783120714026" lon="120.966250514692"><ele>10.0</ele><time>2026-04-06T06:13:01Z</time></trkpt><trkpt lat="14.44485610012934" lon="120.96623771411777"><ele>10.0</ele><time>2026-04-06T06:13:03Z</time></trkpt><trkpt lat="14.444884017543512" lon="120.96630918193951"><ele>10.0</ele><time>2026-04-06T06:13:07Z</time></trkpt><trkpt lat="14.444902525977744" lon="120.96637427239047"><ele>10.0</ele><time>2026-04-06T06:14:34Z</time></trkpt><trkpt lat="14.444863382159784" lon="120.96642844413849"><ele>10.0</ele><time>2026-04-06T06:14:41Z</time></trkpt><trkpt lat="14.44480892959086" lon="120.96651733592876"><ele>10.0</ele><time>2026-04-06T06:15:27.085Z</time></trkpt><trkpt lat="14.444858971917665" lon="120.96647337844453"><ele>10.0</ele><time>2026-04-06T06:15:34Z</time></trkpt><trkpt lat="14.44485046823551" lon="120.96640881754482"><ele>10.0</ele><time>2026-04-06T06:15:59Z</time></trkpt><trkpt lat="14.444810382052774" lon="120.96646245626253"><ele>10.0</ele><time>2026-04-06T06:16:04.999Z</time></trkpt><trkpt lat="14.444762849740565" lon="120.96651473216622"><ele>10.0</ele><time>2026-04-06T06:16:22.999Z</time></trkpt><trkpt lat="14.444729591057557" lon="120.96657269495469"><ele>10.0</ele><time>2026-04-06T06:16:31Z</time></trkpt><trkpt lat="14.44462597730377" lon="120.9665823718598"><ele>10.0</ele><time>2026-04-06T06:16:35Z</time></trkpt><trkpt lat="14.444704971390449" lon="120.96651623161219"><ele>10.0</ele><time>2026-04-06T06:17:51Z</time></trkpt><trkpt lat="14.44475718206792" lon="120.96647505391306"><ele>10.0</ele><time>2026-04-06T06:17:54Z</time></trkpt><trkpt lat="14.444812132873416" lon="120.96642865547712"><ele>10.0</ele><time>2026-04-06T06:20:53Z</time></trkpt><trkpt lat="14.444887881196719" lon="120.96641628853588"><ele>10.0</ele><time>2026-04-06T06:21:29Z</time></trkpt><trkpt lat="14.444814701652364" lon="120.96639481891519"><ele>10.0</ele><time>2026-04-06T06:22:28Z</time></trkpt><trkpt lat="14.444800852984702" lon="120.96647546910252"><ele>10.0</ele><time>2026-04-06T06:22:40Z</time></trkpt><trkpt lat="14.444737957811872" lon="120.96650216144802"><ele>10.0</ele><time>2026-04-06T06:22:56Z</time></trkpt><trkpt lat="14.444696417902035" lon="120.96645001348669"><ele>10.0</ele><time>2026-04-06T06:23:06Z</time></trkpt><trkpt lat="14.444865988293344" lon="120.96645050773883"><ele>10.0</ele><time>2026-04-06T06:23:32.001Z</time></trkpt><trkpt lat="14.444798120786135" lon="120.96649204031696"><ele>10.0</ele><time>2026-04-06T06:24:00.001Z</time></trkpt><trkpt lat="14.444692168707856" lon="120.96652773502383"><ele>10.0</ele><time>2026-04-06T06:24:31.001Z</time></trkpt><trkpt lat="14.444757867458616" lon="120.96649930255343"><ele>10.0</ele><time>2026-04-06T06:24:38.001Z</time></trkpt><trkpt lat="14.444786699440291" lon="120.96643648275827"><ele>10.0</ele><time>2026-04-06T06:25:00.001Z</time></trkpt><trkpt lat="14.444984586056075" lon="120.96639270398578"><ele>10.0</ele><time>2026-04-06T06:56:31Z</time></trkpt><trkpt lat="14.444920564362956" lon="120.96639108780279"><ele>10.0</ele><time>2026-04-06T06:56:44Z</time></trkpt><trkpt lat="14.444854623444556" lon="120.96637491424153"><ele>10.0</ele><time>2026-04-06T06:56:52Z</time></trkpt><trkpt lat="14.44486002654203" lon="120.96629139111158"><ele>10.0</ele><time>2026-04-06T06:58:46Z</time></trkpt><trkpt lat="14.444910114979042" lon="120.96624665218862"><ele>10.0</ele><time>2026-04-06T06:58:48Z</time></trkpt><trkpt lat="14.444966576203981" lon="120.96621169515223"><ele>10.0</ele><time>2026-04-06T06:58:50Z</time></trkpt><trkpt lat="14.445020370091145" lon="120.96617085025929"><ele>10.0</ele><time>2026-04-06T06:58:52Z</time></trkpt><trkpt lat="14.445063394646862" lon="120.96611879808825"><ele>10.0</ele><time>2026-04-06T06:58:55Z</time></trkpt><trkpt lat="14.445162400658958" lon="120.96602076528104"><ele>10.0</ele><time>2026-04-06T06:58:57Z</time></trkpt><trkpt lat="14.445236549096052" lon="120.96597430984177"><ele>10.0</ele><time>2026-04-06T06:58:58Z</time></trkpt><trkpt lat="14.445315940450906" lon="120.96595612807023"><ele>10.0</ele><time>2026-04-06T06:58:59Z</time></trkpt><trkpt lat="14.44538117276875" lon="120.96592304724922"><ele>10.0</ele><time>2026-04-06T06:59:00Z</time></trkpt><trkpt lat="14.445440470855148" lon="120.96589297580282"><ele>10.0</ele><time>2026-04-06T06:59:01Z</time></trkpt><trkpt lat="14.445500838458022" lon="120.96586236198466"><ele>10.0</ele><time>2026-04-06T06:59:02Z</time></trkpt><trkpt lat="14.445558498639418" lon="120.96583312116498"><ele>10.0</ele><time>2026-04-06T06:59:03Z</time></trkpt><trkpt lat="14.445633774368593" lon="120.96579494708773"><ele>10.0</ele><time>2026-04-06T06:59:05Z</time></trkpt><trkpt lat="14.44563434941852" lon="120.96565395616231"><ele>10.0</ele><time>2026-04-06T06:59:08Z</time></trkpt><trkpt lat="14.445439049523632" lon="120.96574967113446"><ele>10.0</ele><time>2026-04-06T06:59:10Z</time></trkpt><trkpt lat="14.445358147804207" lon="120.9657792551896"><ele>10.0</ele><time>2026-04-06T06:59:11Z</time></trkpt><trkpt lat="14.445275955891331" lon="120.96582492289052"><ele>10.0</ele><time>2026-04-06T06:59:12Z</time></trkpt><trkpt lat="14.445188699219171" lon="120.96586949137276"><ele>10.0</ele><time>2026-04-06T06:59:13Z</time></trkpt><trkpt lat="14.445095891563279" lon="120.96591771352489"><ele>10.0</ele><time>2026-04-06T06:59:14Z</time></trkpt><trkpt lat="14.445003590756338" lon="120.96596759480117"><ele>10.0</ele><time>2026-04-06T06:59:15Z</time></trkpt><trkpt lat="14.444896252764577" lon="120.9660246849805"><ele>10.0</ele><time>2026-04-06T06:59:16Z</time></trkpt><trkpt lat="14.444786265237916" lon="120.96608131341512"><ele>10.0</ele><time>2026-04-06T06:59:17Z</time></trkpt><trkpt lat="14.44467622992895" lon="120.96613637710661"><ele>10.0</ele><time>2026-04-06T06:59:18Z</time></trkpt><trkpt lat="14.44456416246704" lon="120.9661811634087"><ele>10.0</ele><time>2026-04-06T06:59:19Z</time></trkpt><trkpt lat="14.444446323535127" lon="120.96622488535274"><ele>10.0</ele><time>2026-04-06T06:59:20Z</time></trkpt><trkpt lat="14.444315269984198" lon="120.96626486729993"><ele>10.0</ele><time>2026-04-06T06:59:21Z</time></trkpt><trkpt lat="14.444183619242864" lon="120.96628706670538"><ele>10.0</ele><time>2026-04-06T06:59:22Z</time></trkpt><trkpt lat="14.444043095122064" lon="120.96629015313755"><ele>10.0</ele><time>2026-04-06T06:59:23Z</time></trkpt><trkpt lat="14.443901086628603" lon="120.96627921684576"><ele>10.0</ele><time>2026-04-06T06:59:24Z</time></trkpt><trkpt lat="14.443756596980979" lon="120.96625545044614"><ele>10.25</ele><time>2026-04-06T06:59:25Z</time></trkpt><trkpt lat="14.443612354439287" lon="120.96623571285724"><ele>10.5</ele><time>2026-04-06T06:59:26Z</time></trkpt><trkpt lat="14.443465138606005" lon="120.96621831485982"><ele>10.75</ele><time>2026-04-06T06:59:27Z</time></trkpt><trkpt lat="14.443318092185901" lon="120.96620436297079"><ele>11.0</ele><time>2026-04-06T06:59:28Z</time></trkpt><trkpt lat="14.443173438241363" lon="120.9661936948372"><ele>11.0</ele><time>2026-04-06T06:59:29Z</time></trkpt><trkpt lat="14.443037755052499" lon="120.966188413483"><ele>11.0</ele><time>2026-04-06T06:59:30Z</time></trkpt><trkpt lat="14.442899070015562" lon="120.96618744607058"><ele>11.0</ele><time>2026-04-06T06:59:31Z</time></trkpt><trkpt lat="14.442762211772385" lon="120.96619610063705"><ele>11.0</ele><time>2026-04-06T06:59:32Z</time></trkpt><trkpt lat="14.442624385301881" lon="120.96621678569586"><ele>10.75</ele><time>2026-04-06T06:59:33Z</time></trkpt><trkpt lat="14.44249074251829" lon="120.96625011278175"><ele>10.5</ele><time>2026-04-06T06:59:34Z</time></trkpt><trkpt lat="14.44235932652655" lon="120.96629609101035"><ele>10.25</ele><time>2026-04-06T06:59:35Z</time></trkpt><trkpt lat="14.442229612826365" lon="120.96634624535687"><ele>10.0</ele><time>2026-04-06T06:59:36Z</time></trkpt><trkpt lat="14.44209731821535" lon="120.96640604742781"><ele>9.75</ele><time>2026-04-06T06:59:37Z</time></trkpt><trkpt lat="14.441965522444784" lon="120.96646533974555"><ele>9.5</ele><time>2026-04-06T06:59:38Z</time></trkpt><trkpt lat="14.441827351958842" lon="120.96652673941043"><ele>9.25</ele><time>2026-04-06T06:59:39Z</time></trkpt><trkpt lat="14.441688654988232" lon="120.9665868603835"><ele>9.0</ele><time>2026-04-06T06:59:40Z</time></trkpt><trkpt lat="14.441540849144133" lon="120.96665162297158"><ele>8.666666666666666</ele><time>2026-04-06T06:59:41Z</time></trkpt><trkpt lat="14.441396357136748" lon="120.96671112398548"><ele>8.333333333333332</ele><time>2026-04-06T06:59:42Z</time></trkpt><trkpt lat="14.441244214468773" lon="120.96677460967803"><ele>8.0</ele><time>2026-04-06T06:59:43Z</time></trkpt><trkpt lat="14.441092355413167" lon="120.96683905316682"><ele>8.0</ele><time>2026-04-06T06:59:44Z</time></trkpt><trkpt lat="14.440934206358671" lon="120.96690872171719"><ele>8.0</ele><time>2026-04-06T06:59:45Z</time></trkpt><trkpt lat="14.440780810782398" lon="120.96698141273404"><ele>8.0</ele><time>2026-04-06T06:59:46Z</time></trkpt><trkpt lat="14.440621311998793" lon="120.96705656704813"><ele>8.666666666666666</ele><time>2026-04-06T06:59:47Z</time></trkpt><trkpt lat="14.440460877947055" lon="120.96713018356206"><ele>9.333333333333334</ele><time>2026-04-06T06:59:48Z</time></trkpt><trkpt lat="14.440298391929865" lon="120.9672057737355"><ele>10.0</ele><time>2026-04-06T06:59:49Z</time></trkpt><trkpt lat="14.440130522587754" lon="120.96727532881627"><ele>10.0</ele><time>2026-04-06T06:59:50Z</time></trkpt><trkpt lat="14.439959926275836" lon="120.96734559523034"><ele>10.0</ele><time>2026-04-06T06:59:51Z</time></trkpt><trkpt lat="14.439787322180463" lon="120.96741685513408"><ele>10.0</ele><time>2026-04-06T06:59:52Z</time></trkpt><trkpt lat="14.439616104854501" lon="120.96748401023964"><ele>10.0</ele><time>2026-04-06T06:59:53Z</time></trkpt><trkpt lat="14.439442448313425" lon="120.9675508911896"><ele>10.0</ele><time>2026-04-06T06:59:54Z</time></trkpt><trkpt lat="14.439266848257223" lon="120.96761667712266"><ele>10.0</ele><time>2026-04-06T06:59:55Z</time></trkpt><trkpt lat="14.439089436227091" lon="120.9676737772733"><ele>10.0</ele><time>2026-04-06T06:59:56Z</time></trkpt><trkpt lat="14.438910049556947" lon="120.967729220113"><ele>10.0</ele><time>2026-04-06T06:59:57Z</time></trkpt><trkpt lat="14.438726262504167" lon="120.96777983421863"><ele>10.0</ele><time>2026-04-06T06:59:58Z</time></trkpt><trkpt lat="14.438542578755682" lon="120.96782780544694"><ele>10.0</ele><time>2026-04-06T06:59:59Z</time></trkpt><trkpt lat="14.438357130261286" lon="120.96787192152225"><ele>10.0</ele><time>2026-04-06T07:00:00Z</time></trkpt><trkpt lat="14.438174260179842" lon="120.96791224229707"><ele>10.0</ele><time>2026-04-06T07:00:01Z</time></trkpt><trkpt lat="14.43799961688094" lon="120.96795000193868"><ele>9.666666666666668</ele><time>2026-04-06T07:00:02Z</time></trkpt><trkpt lat="14.437842467976758" lon="120.9679861597478"><ele>9.333333333333334</ele><time>2026-04-06T07:00:02.999Z</time></trkpt><trkpt lat="14.437694478099004" lon="120.96801566821642"><ele>9.0</ele><time>2026-04-06T07:00:03.999Z</time></trkpt><trkpt lat="14.437556444589244" lon="120.96804323747864"><ele>9.0</ele><time>2026-04-06T07:00:04.999Z</time></trkpt><trkpt lat="14.437429343786707" lon="120.96807089409485"><ele>9.0</ele><time>2026-04-06T07:00:05.999Z</time></trkpt><trkpt lat="14.437309360058185" lon="120.9680994045611"><ele>9.0</ele><time>2026-04-06T07:00:06.999Z</time></trkpt><trkpt lat="14.437212886533699" lon="120.96814059209028"><ele>9.0</ele><time>2026-04-06T07:00:07.999Z</time></trkpt><trkpt lat="14.437132615685423" lon="120.96816044707388"><ele>9.0</ele><time>2026-04-06T07:00:08.999Z</time></trkpt><trkpt lat="14.437025292475486" lon="120.9681869934468"><ele>9.166666666666666</ele><time>2026-04-06T07:00:10.999Z</time></trkpt><trkpt lat="14.436957462263713" lon="120.96820377123814"><ele>9.333333333333334</ele><time>2026-04-06T07:00:12.999Z</time></trkpt><trkpt lat="14.436879267358247" lon="120.9682200053397"><ele>9.5</ele><time>2026-04-06T07:00:28.999Z</time></trkpt><trkpt lat="14.43676092385762" lon="120.96824156310048"><ele>9.666666666666668</ele><time>2026-04-06T07:00:30.999Z</time></trkpt><trkpt lat="14.436684209863937" lon="120.96824764574654"><ele>9.833333333333334</ele><time>2026-04-06T07:00:31.999Z</time></trkpt><trkpt lat="14.436618842761918" lon="120.96825079218218"><ele>10.0</ele><time>2026-04-06T07:00:32.999Z</time></trkpt><trkpt lat="14.436529147845414" lon="120.96825048540138"><ele>10.0</ele><time>2026-04-06T07:00:33.999Z</time></trkpt><trkpt lat="14.436457932341476" lon="120.9682305307922"><ele>10.0</ele><time>2026-04-06T07:00:34.999Z</time></trkpt><trkpt lat="14.436367347160953" lon="120.9682275064315"><ele>10.0</ele><time>2026-04-06T07:00:35.999Z</time></trkpt><trkpt lat="14.436260735711075" lon="120.96820776839691"><ele>10.0</ele><time>2026-04-06T07:00:36.999Z</time></trkpt><trkpt lat="14.436142510271262" lon="120.96817829590061"><ele>10.0</ele><time>2026-04-06T07:00:37.999Z</time></trkpt><trkpt lat="14.436025445866706" lon="120.96813836974991"><ele>10.5</ele><time>2026-04-06T07:00:38.999Z</time></trkpt><trkpt lat="14.435899293309332" lon="120.96808373749957"><ele>11.0</ele><time>2026-04-06T07:00:39.999Z</time></trkpt><trkpt lat="14.435768670561364" lon="120.96802282019152"><ele>11.5</ele><time>2026-04-06T07:00:40.999Z</time></trkpt><trkpt lat="14.43563756201047" lon="120.96795633645802"><ele>12.0</ele><time>2026-04-06T07:00:41.999Z</time></trkpt><trkpt lat="14.435499648187058" lon="120.96787627919325"><ele>10.666666666666666</ele><time>2026-04-06T07:00:42.999Z</time></trkpt><trkpt lat="14.435363227147041" lon="120.96779444045585"><ele>9.333333333333332</ele><time>2026-04-06T07:00:43.999Z</time></trkpt><trkpt lat="14.435219440327762" lon="120.96771642892715"><ele>8.0</ele><time>2026-04-06T07:00:44.999Z</time></trkpt><trkpt lat="14.435068108903046" lon="120.96763773041154"><ele>8.0</ele><time>2026-04-06T07:00:45.999Z</time></trkpt><trkpt lat="14.434914572353593" lon="120.96755768890475"><ele>8.0</ele><time>2026-04-06T07:00:46.999Z</time></trkpt><trkpt lat="14.434761341672322" lon="120.96747391500773"><ele>8.0</ele><time>2026-04-06T07:00:47.999Z</time></trkpt><trkpt lat="14.43460682272273" lon="120.96738706482562"><ele>9.0</ele><time>2026-04-06T07:00:48.999Z</time></trkpt><trkpt lat="14.434444715101877" lon="120.96729646095375"><ele>10.0</ele><time>2026-04-06T07:00:49.999Z</time></trkpt><trkpt lat="14.434287387404547" lon="120.9672054961763"><ele>11.0</ele><time>2026-04-06T07:00:50.999Z</time></trkpt><trkpt lat="14.434127662250994" lon="120.96711250952902"><ele>11.0</ele><time>2026-04-06T07:00:51.999Z</time></trkpt><trkpt lat="14.433963191754833" lon="120.96702097916649"><ele>11.0</ele><time>2026-04-06T07:00:52.999Z</time></trkpt><trkpt lat="14.433796616723502" lon="120.96693014668286"><ele>11.0</ele><time>2026-04-06T07:00:53.999Z</time></trkpt><trkpt lat="14.433631463390007" lon="120.96683975932743"><ele>11.333333333333332</ele><time>2026-04-06T07:00:54.999Z</time></trkpt><trkpt lat="14.433463490643726" lon="120.96674987052074"><ele>11.666666666666666</ele><time>2026-04-06T07:00:55.999Z</time></trkpt><trkpt lat="14.433303642845704" lon="120.96665937268315"><ele>12.0</ele><time>2026-04-06T07:00:56.999Z</time></trkpt><trkpt lat="14.433140050258633" lon="120.96656801570596"><ele>13.0</ele><time>2026-04-06T07:00:57.999Z</time></trkpt><trkpt lat="14.432982528957668" lon="120.96647925481966"><ele>14.0</ele><time>2026-04-06T07:00:58.999Z</time></trkpt><trkpt lat="14.432835911877785" lon="120.96639607172185"><ele>15.0</ele><time>2026-04-06T07:00:59.999Z</time></trkpt><trkpt lat="14.43269168348603" lon="120.96631572977213"><ele>15.0</ele><time>2026-04-06T07:01:00.999Z</time></trkpt><trkpt lat="14.432559645647276" lon="120.96624291226968"><ele>15.0</ele><time>2026-04-06T07:01:01.999Z</time></trkpt><trkpt lat="14.432430148711562" lon="120.96617316051861"><ele>15.0</ele><time>2026-04-06T07:01:02.999Z</time></trkpt><trkpt lat="14.432304079304755" lon="120.96610178279347"><ele>15.0</ele><time>2026-04-06T07:01:03.999Z</time></trkpt><trkpt lat="14.432182773620976" lon="120.96603257928668"><ele>15.2</ele><time>2026-04-06T07:01:04.999Z</time></trkpt><trkpt lat="14.432073363475656" lon="120.9659686153291"><ele>15.4</ele><time>2026-04-06T07:01:05.999Z</time></trkpt><trkpt lat="14.431976250672374" lon="120.96591478782368"><ele>15.600000000000001</ele><time>2026-04-06T07:01:06.999Z</time></trkpt><trkpt lat="14.431891528160063" lon="120.9658682858125"><ele>15.8</ele><time>2026-04-06T07:01:07.999Z</time></trkpt><trkpt lat="14.43182553081089" lon="120.96583210120811"><ele>16.0</ele><time>2026-04-06T07:01:08.999Z</time></trkpt><trkpt lat="14.431765078696381" lon="120.96579849722399"><ele>15.999999999999998</ele><time>2026-04-06T07:01:09.999Z</time></trkpt><trkpt lat="14.431711640736687" lon="120.96576278659514"><ele>16.0</ele><time>2026-04-06T07:01:11.999Z</time></trkpt><trkpt lat="14.431651665449706" lon="120.96571429055909"><ele>16.0</ele><time>2026-04-06T07:01:14.999Z</time></trkpt><trkpt lat="14.431585044822826" lon="120.96567807187397"><ele>16.0</ele><time>2026-04-06T07:01:16.999Z</time></trkpt><trkpt lat="14.431519604591417" lon="120.96564180610893"><ele>15.999999999999998</ele><time>2026-04-06T07:01:19.999Z</time></trkpt><trkpt lat="14.431439985308264" lon="120.9655915773932"><ele>16.0</ele><time>2026-04-06T07:01:23.999Z</time></trkpt><trkpt lat="14.431372715256009" lon="120.9655469680402"><ele>15.999999999999998</ele><time>2026-04-06T07:01:26.999Z</time></trkpt><trkpt lat="14.43137261087048" lon="120.9654693236101"><ele>16.0</ele><time>2026-04-06T07:01:28.999Z</time></trkpt><trkpt lat="14.431366805884963" lon="120.96539240155717"><ele>16.0</ele><time>2026-04-06T07:01:30.999Z</time></trkpt><trkpt lat="14.43138859137337" lon="120.96530770435149"><ele>16.0</ele><time>2026-04-06T07:01:32.999Z</time></trkpt><trkpt lat="14.431404728204155" lon="120.96520372180146"><ele>15.999999999999998</ele><time>2026-04-06T07:01:34.999Z</time></trkpt><trkpt lat="14.431423260888781" lon="120.96511144748335"><ele>16.0</ele><time>2026-04-06T07:01:36.999Z</time></trkpt><trkpt lat="14.431439015186648" lon="120.96503623993539"><ele>16.333333333333332</ele><time>2026-04-06T07:01:38.999Z</time></trkpt><trkpt lat="14.43146177419541" lon="120.96496808014659"><ele>16.666666666666664</ele><time>2026-04-06T07:01:47.999Z</time></trkpt><trkpt lat="14.431489979669108" lon="120.96488058599333"><ele>17.0</ele><time>2026-04-06T07:01:50.999Z</time></trkpt><trkpt lat="14.431494043441184" lon="120.96480508290156"><ele>17.333333333333332</ele><time>2026-04-06T07:01:51.999Z</time></trkpt><trkpt lat="14.43151803319251" lon="120.96471799290867"><ele>17.666666666666668</ele><time>2026-04-06T07:01:52.999Z</time></trkpt><trkpt lat="14.43153298785772" lon="120.96460352636542"><ele>18.0</ele><time>2026-04-06T07:01:53.999Z</time></trkpt><trkpt lat="14.431534977374813" lon="120.96448081771838"><ele>18.0</ele><time>2026-04-06T07:01:54.999Z</time></trkpt><trkpt lat="14.431535874074179" lon="120.96435591488284"><ele>18.0</ele><time>2026-04-06T07:01:55.999Z</time></trkpt><trkpt lat="14.431549210334463" lon="120.96422771738239"><ele>18.0</ele><time>2026-04-06T07:01:56.999Z</time></trkpt><trkpt lat="14.431534679981796" lon="120.9640909364377"><ele>18.0</ele><time>2026-04-06T07:01:57.999Z</time></trkpt><trkpt lat="14.431512057393084" lon="120.96394301085228"><ele>18.666666666666668</ele><time>2026-04-06T07:01:58.999Z</time></trkpt><trkpt lat="14.43148181218718" lon="120.96378262765536"><ele>19.333333333333336</ele><time>2026-04-06T07:01:59.999Z</time></trkpt><trkpt lat="14.431448209355253" lon="120.96362856406387"><ele>20.0</ele><time>2026-04-06T07:02:00.999Z</time></trkpt><trkpt lat="14.431412676198244" lon="120.96346565009436"><ele>19.0</ele><time>2026-04-06T07:02:01.999Z</time></trkpt><trkpt lat="14.43137431630167" lon="120.96329463751883"><ele>18.0</ele><time>2026-04-06T07:02:02.999Z</time></trkpt><trkpt lat="14.431315021173402" lon="120.96313425165368"><ele>17.0</ele><time>2026-04-06T07:02:03.999Z</time></trkpt><trkpt lat="14.431279281637108" lon="120.96294847398644"><ele>17.0</ele><time>2026-04-06T07:02:04.999Z</time></trkpt><trkpt lat="14.431266423186173" lon="120.96277404851294"><ele>17.0</ele><time>2026-04-06T07:02:05.999Z</time></trkpt><trkpt lat="14.431259629495113" lon="120.9625893468296"><ele>17.0</ele><time>2026-04-06T07:02:06.999Z</time></trkpt><trkpt lat="14.431273385852478" lon="120.96240905452096"><ele>16.333333333333336</ele><time>2026-04-06T07:02:07.999Z</time></trkpt><trkpt lat="14.431295780351707" lon="120.96222200255133"><ele>15.666666666666668</ele><time>2026-04-06T07:02:08.998Z</time></trkpt><trkpt lat="14.431344048461291" lon="120.96204736408315"><ele>15.0</ele><time>2026-04-06T07:02:09.998Z</time></trkpt><trkpt lat="14.43139441823751" lon="120.96185312605104"><ele>14.333333333333332</ele><time>2026-04-06T07:02:10.998Z</time></trkpt><trkpt lat="14.431438852367092" lon="120.9616705611688"><ele>13.666666666666666</ele><time>2026-04-06T07:02:11.998Z</time></trkpt><trkpt lat="14.431466133931762" lon="120.96149983383923"><ele>13.0</ele><time>2026-04-06T07:02:12.998Z</time></trkpt><trkpt lat="14.431513506406507" lon="120.96130469020272"><ele>13.0</ele><time>2026-04-06T07:02:13.998Z</time></trkpt><trkpt lat="14.431536332865473" lon="120.96112799623782"><ele>13.0</ele><time>2026-04-06T07:02:14.998Z</time></trkpt><trkpt lat="14.431559681594914" lon="120.96094648148727"><ele>13.0</ele><time>2026-04-06T07:02:15.998Z</time></trkpt><trkpt lat="14.431538387373456" lon="120.96076304058154"><ele>13.0</ele><time>2026-04-06T07:02:16.998Z</time></trkpt><trkpt lat="14.431517272794679" lon="120.96058306692596"><ele>13.0</ele><time>2026-04-06T07:02:17.998Z</time></trkpt><trkpt lat="14.431495523872922" lon="120.9603869810584"><ele>13.0</ele><time>2026-04-06T07:02:18.998Z</time></trkpt><trkpt lat="14.431499140434047" lon="120.96021102286205"><ele>14.0</ele><time>2026-04-06T07:02:19.999Z</time></trkpt><trkpt lat="14.431501619025765" lon="120.96002152957809"><ele>15.0</ele><time>2026-04-06T07:02:20.999Z</time></trkpt><trkpt lat="14.431507696974947" lon="120.95983253366475"><ele>16.0</ele><time>2026-04-06T07:02:21.999Z</time></trkpt><trkpt lat="14.431513149928207" lon="120.9596591451627"><ele>16.0</ele><time>2026-04-06T07:02:22.999Z</time></trkpt><trkpt lat="14.431519784913862" lon="120.95946393929326"><ele>16.0</ele><time>2026-04-06T07:02:23.999Z</time></trkpt><trkpt lat="14.43152604285547" lon="120.95926732224378"><ele>16.0</ele><time>2026-04-06T07:02:24.999Z</time></trkpt><trkpt lat="14.431531986703993" lon="120.9590778106916"><ele>15.333333333333332</ele><time>2026-04-06T07:02:25.999Z</time></trkpt><trkpt lat="14.431537436618378" lon="120.95888664441695"><ele>14.666666666666668</ele><time>2026-04-06T07:02:26.999Z</time></trkpt><trkpt lat="14.431543469568373" lon="120.95869073144452"><ele>14.0</ele><time>2026-04-06T07:02:27.999Z</time></trkpt><trkpt lat="14.43153721886263" lon="120.95849288917003"><ele>13.666666666666668</ele><time>2026-04-06T07:02:28.999Z</time></trkpt><trkpt lat="14.431553914945386" lon="120.95830177909983"><ele>13.333333333333332</ele><time>2026-04-06T07:02:29.999Z</time></trkpt><trkpt lat="14.431601084600812" lon="120.95811477732143"><ele>13.0</ele><time>2026-04-06T07:02:30.999Z</time></trkpt><trkpt lat="14.431656606288369" lon="120.95793872128971"><ele>13.0</ele><time>2026-04-06T07:02:31.999Z</time></trkpt><trkpt lat="14.431724863967368" lon="120.95777137239942"><ele>13.0</ele><time>2026-04-06T07:02:32.999Z</time></trkpt><trkpt lat="14.431793891984668" lon="120.95759860019464"><ele>13.0</ele><time>2026-04-06T07:02:33.999Z</time></trkpt><trkpt lat="14.43185735701032" lon="120.95743601551682"><ele>13.333333333333332</ele><time>2026-04-06T07:02:34.999Z</time></trkpt><trkpt lat="14.431910689238169" lon="120.95728277632772"><ele>13.666666666666668</ele><time>2026-04-06T07:02:35.999Z</time></trkpt><trkpt lat="14.431970756242492" lon="120.9571424160216"><ele>14.0</ele><time>2026-04-06T07:02:36.999Z</time></trkpt><trkpt lat="14.432008923588263" lon="120.95699687227072"><ele>14.0</ele><time>2026-04-06T07:02:37.999Z</time></trkpt><trkpt lat="14.432023426188595" lon="120.9568384060161"><ele>14.0</ele><time>2026-04-06T07:02:38.999Z</time></trkpt><trkpt lat="14.432013835958628" lon="120.95667352807354"><ele>14.0</ele><time>2026-04-06T07:02:39.999Z</time></trkpt><trkpt lat="14.43200428117901" lon="120.95650570110642"><ele>15.0</ele><time>2026-04-06T07:02:40.999Z</time></trkpt><trkpt lat="14.431997202925556" lon="120.95633772750425"><ele>16.0</ele><time>2026-04-06T07:02:41.999Z</time></trkpt><trkpt lat="14.431995198968727" lon="120.95616670544219"><ele>17.0</ele><time>2026-04-06T07:02:42.999Z</time></trkpt><trkpt lat="14.43199342228799" lon="120.95599367546441"><ele>15.666666666666668</ele><time>2026-04-06T07:02:43.999Z</time></trkpt><trkpt lat="14.431997419278547" lon="120.9558193283373"><ele>14.333333333333332</ele><time>2026-04-06T07:02:44.999Z</time></trkpt><trkpt lat="14.431997002129627" lon="120.95565232159346"><ele>13.0</ele><time>2026-04-06T07:02:45.999Z</time></trkpt><trkpt lat="14.431996786474672" lon="120.95548877881963"><ele>13.0</ele><time>2026-04-06T07:02:46.999Z</time></trkpt><trkpt lat="14.432011755897323" lon="120.9553332171267"><ele>13.0</ele><time>2026-04-06T07:02:47.999Z</time></trkpt><trkpt lat="14.43204488592419" lon="120.95518907369312"><ele>13.0</ele><time>2026-04-06T07:02:48.999Z</time></trkpt><trkpt lat="14.432091464458738" lon="120.95503577700885"><ele>12.25</ele><time>2026-04-06T07:02:49.999Z</time></trkpt><trkpt lat="14.432157611712654" lon="120.95492353398704"><ele>11.5</ele><time>2026-04-06T07:02:50.999Z</time></trkpt><trkpt lat="14.432240332071665" lon="120.95480625966428"><ele>10.75</ele><time>2026-04-06T07:02:51.999Z</time></trkpt><trkpt lat="14.432330138516528" lon="120.95468626454344"><ele>10.0</ele><time>2026-04-06T07:02:52.999Z</time></trkpt><trkpt lat="14.432412179554692" lon="120.95457141791056"><ele>10.0</ele><time>2026-04-06T07:02:53.999Z</time></trkpt><trkpt lat="14.432495295995396" lon="120.95444084279043"><ele>10.0</ele><time>2026-04-06T07:02:54.999Z</time></trkpt><trkpt lat="14.432567723791886" lon="120.95430211788153"><ele>10.0</ele><time>2026-04-06T07:02:55.999Z</time></trkpt><trkpt lat="14.432616068051761" lon="120.95417009805139"><ele>10.0</ele><time>2026-04-06T07:02:56.999Z</time></trkpt><trkpt lat="14.432657739289596" lon="120.95402513025374"><ele>10.25</ele><time>2026-04-06T07:02:57.999Z</time></trkpt><trkpt lat="14.43269459150805" lon="120.9538758063898"><ele>10.5</ele><time>2026-04-06T07:02:58.999Z</time></trkpt><trkpt lat="14.432719521647357" lon="120.95373465386542"><ele>10.75</ele><time>2026-04-06T07:02:59.999Z</time></trkpt><trkpt lat="14.432714403467193" lon="120.95362157438673"><ele>11.0</ele><time>2026-04-06T07:03:00.999Z</time></trkpt><trkpt lat="14.432668369590834" lon="120.95349928547668"><ele>11.0</ele><time>2026-04-06T07:03:01.999Z</time></trkpt><trkpt lat="14.432650777332304" lon="120.95337957613808"><ele>11.0</ele><time>2026-04-06T07:03:02.999Z</time></trkpt><trkpt lat="14.432625893740552" lon="120.95327631630607"><ele>11.0</ele><time>2026-04-06T07:03:03.999Z</time></trkpt><trkpt lat="14.43261426553345" lon="120.95317151011658"><ele>11.0</ele><time>2026-04-06T07:03:04.999Z</time></trkpt><trkpt lat="14.432607903609798" lon="120.95305251696753"><ele>11.0</ele><time>2026-04-06T07:03:05.999Z</time></trkpt><trkpt lat="14.432631659581068" lon="120.95294879214937"><ele>11.0</ele><time>2026-04-06T07:03:06.999Z</time></trkpt><trkpt lat="14.432650127485855" lon="120.95283841307358"><ele>11.0</ele><time>2026-04-06T07:03:07.999Z</time></trkpt><trkpt lat="14.432672611453848" lon="120.95274162576271"><ele>11.0</ele><time>2026-04-06T07:03:08.999Z</time></trkpt><trkpt lat="14.432633515145467" lon="120.95258410226414"><ele>11.0</ele><time>2026-04-06T07:03:09.999Z</time></trkpt><trkpt lat="14.432607144468022" lon="120.95245843104654"><ele>11.0</ele><time>2026-04-06T07:03:10.999Z</time></trkpt><trkpt lat="14.432589224511963" lon="120.95233285420329"><ele>11.0</ele><time>2026-04-06T07:03:11.999Z</time></trkpt><trkpt lat="14.43257224784668" lon="120.9522064798435"><ele>11.0</ele><time>2026-04-06T07:03:12.999Z</time></trkpt><trkpt lat="14.43255868399347" lon="120.95206914548538"><ele>11.0</ele><time>2026-04-06T07:03:13.999Z</time></trkpt><trkpt lat="14.432572879933852" lon="120.95192787134039"><ele>11.0</ele><time>2026-04-06T07:03:14.999Z</time></trkpt><trkpt lat="14.432577617901531" lon="120.95177703735341"><ele>11.0</ele><time>2026-04-06T07:03:15.999Z</time></trkpt><trkpt lat="14.43258545123612" lon="120.95163617408654"><ele>11.0</ele><time>2026-04-06T07:03:16.999Z</time></trkpt><trkpt lat="14.432596746062472" lon="120.95148081392338"><ele>11.0</ele><time>2026-04-06T07:03:17.999Z</time></trkpt><trkpt lat="14.432607674005084" lon="120.95133050025863"><ele>11.0</ele><time>2026-04-06T07:03:18.999Z</time></trkpt><trkpt lat="14.432614104596261" lon="120.9511817457007"><ele>11.0</ele><time>2026-04-06T07:03:19.999Z</time></trkpt><trkpt lat="14.432598592963371" lon="120.95104029116963"><ele>11.0</ele><time>2026-04-06T07:03:20.999Z</time></trkpt><trkpt lat="14.43259546790554" lon="120.95089588706658"><ele>11.0</ele><time>2026-04-06T07:03:21.999Z</time></trkpt><trkpt lat="14.432585888891879" lon="120.95074975865357"><ele>11.0</ele><time>2026-04-06T07:03:22.999Z</time></trkpt><trkpt lat="14.432591434491973" lon="120.95059916922976"><ele>11.0</ele><time>2026-04-06T07:03:23.999Z</time></trkpt><trkpt lat="14.43255873945779" lon="120.95045621862502"><ele>11.0</ele><time>2026-04-06T07:03:24.999Z</time></trkpt><trkpt lat="14.432554343203863" lon="120.95031307654732"><ele>11.0</ele><time>2026-04-06T07:03:25.999Z</time></trkpt><trkpt lat="14.432533846553834" lon="120.95017388738826"><ele>11.25</ele><time>2026-04-06T07:03:26.999Z</time></trkpt><trkpt lat="14.432506981346789" lon="120.95003157483399"><ele>11.5</ele><time>2026-04-06T07:03:27.999Z</time></trkpt><trkpt lat="14.43247736973984" lon="120.9498760104025"><ele>11.75</ele><time>2026-04-06T07:03:28.999Z</time></trkpt><trkpt lat="14.432429783799057" lon="120.94973065367348"><ele>12.0</ele><time>2026-04-06T07:03:29.999Z</time></trkpt><trkpt lat="14.432394448287512" lon="120.94958753750683"><ele>12.0</ele><time>2026-04-06T07:03:30.999Z</time></trkpt><trkpt lat="14.432384524352221" lon="120.94944599953955"><ele>12.0</ele><time>2026-04-06T07:03:31.999Z</time></trkpt><trkpt lat="14.432352585434405" lon="120.94931303546788"><ele>12.0</ele><time>2026-04-06T07:03:32.999Z</time></trkpt><trkpt lat="14.432351026493901" lon="120.94918767871611"><ele>12.0</ele><time>2026-04-06T07:03:33.999Z</time></trkpt><trkpt lat="14.43235732068162" lon="120.94904143218594"><ele>12.0</ele><time>2026-04-06T07:03:34.999Z</time></trkpt><trkpt lat="14.432360992727432" lon="120.94890418558452"><ele>12.0</ele><time>2026-04-06T07:03:35.999Z</time></trkpt><trkpt lat="14.432361224297074" lon="120.94879070494304"><ele>12.0</ele><time>2026-04-06T07:03:36.999Z</time></trkpt><trkpt lat="14.432350377744198" lon="120.94868659101846"><ele>12.0</ele><time>2026-04-06T07:03:37.999Z</time></trkpt><trkpt lat="14.43233881091441" lon="120.94857998233903"><ele>12.0</ele><time>2026-04-06T07:03:38.999Z</time></trkpt><trkpt lat="14.432329818927995" lon="120.94847026157899"><ele>11.5</ele><time>2026-04-06T07:03:39.999Z</time></trkpt><trkpt lat="14.432315492546639" lon="120.94837293122484"><ele>11.0</ele><time>2026-04-06T07:03:40.999Z</time></trkpt><trkpt lat="14.432306280831545" lon="120.94825182174202"><ele>10.5</ele><time>2026-04-06T07:03:41.999Z</time></trkpt><trkpt lat="14.432298810907533" lon="120.94813036611166"><ele>10.0</ele><time>2026-04-06T07:03:42.999Z</time></trkpt><trkpt lat="14.432291553248206" lon="120.94798955446024"><ele>10.0</ele><time>2026-04-06T07:03:43.999Z</time></trkpt><trkpt lat="14.432277395045325" lon="120.94783510614324"><ele>10.0</ele><time>2026-04-06T07:03:44.999Z</time></trkpt><trkpt lat="14.432261789070187" lon="120.94767598865573"><ele>10.0</ele><time>2026-04-06T07:03:45.999Z</time></trkpt><trkpt lat="14.432254793985614" lon="120.94753065386226"><ele>10.0</ele><time>2026-04-06T07:03:46.999Z</time></trkpt><trkpt lat="14.432257537270761" lon="120.9474105583814"><ele>11.0</ele><time>2026-04-06T07:03:47.999Z</time></trkpt><trkpt lat="14.432256061156416" lon="120.9472831695969"><ele>12.0</ele><time>2026-04-06T07:03:48.999Z</time></trkpt><trkpt lat="14.432257409775149" lon="120.9471669398181"><ele>13.0</ele><time>2026-04-06T07:03:49.999Z</time></trkpt><trkpt lat="14.432248394695387" lon="120.94707949209226"><ele>14.0</ele><time>2026-04-06T07:03:50.999Z</time></trkpt><trkpt lat="14.432238448947027" lon="120.94700068050123"><ele>15.0</ele><time>2026-04-06T07:03:51.999Z</time></trkpt><trkpt lat="14.432230618396229" lon="120.94689180454309"><ele>15.0</ele><time>2026-04-06T07:03:53.999Z</time></trkpt><trkpt lat="14.43224895716045" lon="120.94680509609171"><ele>15.0</ele><time>2026-04-06T07:03:56.999Z</time></trkpt><trkpt lat="14.432242470355511" lon="120.94672968479858"><ele>15.0</ele><time>2026-04-06T07:04:04.999Z</time></trkpt><trkpt lat="14.432191855443032" lon="120.94668367544098"><ele>15.0</ele><time>2026-04-06T07:04:06.999Z</time></trkpt><trkpt lat="14.432127233223568" lon="120.94664119280999"><ele>15.0</ele><time>2026-04-06T07:04:07.999Z</time></trkpt><trkpt lat="14.432060674460473" lon="120.94662436525753"><ele>15.0</ele><time>2026-04-06T07:04:08.999Z</time></trkpt><trkpt lat="14.43198651798999" lon="120.9465866781376"><ele>14.166666666666666</ele><time>2026-04-06T07:04:09.999Z</time></trkpt><trkpt lat="14.431908648827392" lon="120.94654943303274"><ele>13.333333333333334</ele><time>2026-04-06T07:04:10.999Z</time></trkpt><trkpt lat="14.431836275559041" lon="120.94650853684526"><ele>12.5</ele><time>2026-04-06T07:04:11.999Z</time></trkpt><trkpt lat="14.431769397230704" lon="120.94647203354822"><ele>11.666666666666668</ele><time>2026-04-06T07:04:12.999Z</time></trkpt><trkpt lat="14.43170969016071" lon="120.94644086164688"><ele>10.833333333333334</ele><time>2026-04-06T07:04:13.999Z</time></trkpt><trkpt lat="14.431616280895954" lon="120.94638880927573"><ele>10.0</ele><time>2026-04-06T07:04:15.998Z</time></trkpt><trkpt lat="14.431504612597362" lon="120.94634123217628"><ele>10.0</ele><time>2026-04-06T07:04:17.998Z</time></trkpt><trkpt lat="14.431441100445463" lon="120.94630645177197"><ele>10.0</ele><time>2026-04-06T07:04:18.998Z</time></trkpt><trkpt lat="14.431379904534756" lon="120.94627287682252"><ele>10.0</ele><time>2026-04-06T07:04:19.998Z</time></trkpt><trkpt lat="14.431298167603392" lon="120.94622295101173"><ele>10.0</ele><time>2026-04-06T07:04:21.998Z</time></trkpt><trkpt lat="14.431212400855387" lon="120.94617029878727"><ele>10.0</ele><time>2026-04-06T07:04:23.998Z</time></trkpt><trkpt lat="14.431133334423214" lon="120.94612145082318"><ele>10.0</ele><time>2026-04-06T07:04:25.998Z</time></trkpt><trkpt lat="14.431175383162445" lon="120.94597878768266"><ele>10.333333333333334</ele><time>2026-04-06T07:04:31.998Z</time></trkpt><trkpt lat="14.431176967158702" lon="120.94587678002925"><ele>10.666666666666668</ele><time>2026-04-06T07:04:33.999Z</time></trkpt><trkpt lat="14.431162064255057" lon="120.94577212007306"><ele>11.0</ele><time>2026-04-06T07:04:35.999Z</time></trkpt><trkpt lat="14.431152626992084" lon="120.94569423026071"><ele>11.333333333333334</ele><time>2026-04-06T07:04:39.999Z</time></trkpt><trkpt lat="14.431143189111918" lon="120.9456194337061"><ele>11.666666666666666</ele><time>2026-04-06T07:04:41.999Z</time></trkpt><trkpt lat="14.431132529561182" lon="120.94553405628857"><ele>12.0</ele><time>2026-04-06T07:04:43.999Z</time></trkpt><trkpt lat="14.431120660476394" lon="120.94543899110973"><ele>12.0</ele><time>2026-04-06T07:04:47.999Z</time></trkpt><trkpt lat="14.431108327750964" lon="120.9453402123853"><ele>12.0</ele><time>2026-04-06T07:04:49.999Z</time></trkpt><trkpt lat="14.431099594400457" lon="120.94527026283254"><ele>12.0</ele><time>2026-04-06T07:04:53.999Z</time></trkpt><trkpt lat="14.431087110139009" lon="120.94517027042124"><ele>12.0</ele><time>2026-04-06T07:04:55.999Z</time></trkpt><trkpt lat="14.431072999545533" lon="120.94505725192245"><ele>12.0</ele><time>2026-04-06T07:04:57.999Z</time></trkpt><trkpt lat="14.431126324455665" lon="120.94497965770205"><ele>12.0</ele><time>2026-04-06T07:04:59.999Z</time></trkpt><trkpt lat="14.43116657398196" lon="120.94492561719731"><ele>12.0</ele><time>2026-04-06T07:05:00.999Z</time></trkpt><trkpt lat="14.431237977459277" lon="120.9448605222456"><ele>12.0</ele><time>2026-04-06T07:05:02.999Z</time></trkpt><trkpt lat="14.431340153600472" lon="120.94481295405018"><ele>12.0</ele><time>2026-04-06T07:05:04.999Z</time></trkpt><trkpt lat="14.431419716691702" lon="120.9447903505088"><ele>12.0</ele><time>2026-04-06T07:05:06.999Z</time></trkpt><trkpt lat="14.431518693145575" lon="120.94477270768014"><ele>12.0</ele><time>2026-04-06T07:05:10.999Z</time></trkpt><trkpt lat="14.431640914675366" lon="120.94475092135703"><ele>12.0</ele><time>2026-04-06T07:05:12.999Z</time></trkpt><trkpt lat="14.431738552684653" lon="120.94473351711167"><ele>12.0</ele><time>2026-04-06T07:05:14.999Z</time></trkpt><trkpt lat="14.431843610048428" lon="120.94471479035009"><ele>12.0</ele><time>2026-04-06T07:05:16.999Z</time></trkpt><trkpt lat="14.4319537004794" lon="120.94469511781286"><ele>12.0</ele><time>2026-04-06T07:05:18.999Z</time></trkpt><trkpt lat="14.432073434091977" lon="120.94467372016804"><ele>12.0</ele><time>2026-04-06T07:05:20.999Z</time></trkpt><trkpt lat="14.432137117381833" lon="120.94466233930126"><ele>12.0</ele><time>2026-04-06T07:05:22.999Z</time></trkpt><trkpt lat="14.432199235846328" lon="120.94449182025072"><ele>12.0</ele><time>2026-04-06T07:05:27.999Z</time></trkpt><trkpt lat="14.432187892715806" lon="120.94441940598865"><ele>12.0</ele><time>2026-04-06T07:05:28.999Z</time></trkpt><trkpt lat="14.43217703929518" lon="120.94435011824572"><ele>12.0</ele><time>2026-04-06T07:05:29.999Z</time></trkpt><trkpt lat="14.432164900595774" lon="120.9442726252972"><ele>12.0</ele><time>2026-04-06T07:05:30.999Z</time></trkpt><trkpt lat="14.432151194595638" lon="120.94418512676793"><ele>12.0</ele><time>2026-04-06T07:05:31.999Z</time></trkpt><trkpt lat="14.43213723734517" lon="120.94409602427766"><ele>12.0</ele><time>2026-04-06T07:05:32.999Z</time></trkpt><trkpt lat="14.432121979234745" lon="120.94399789264052"><ele>12.0</ele><time>2026-04-06T07:05:33.999Z</time></trkpt><trkpt lat="14.43210672188193" lon="120.94389845597676"><ele>12.0</ele><time>2026-04-06T07:05:34.999Z</time></trkpt><trkpt lat="14.43209252354941" lon="120.94380592128512"><ele>11.833333333333334</ele><time>2026-04-06T07:05:35.999Z</time></trkpt><trkpt lat="14.432076998676152" lon="120.94370474108439"><ele>11.666666666666666</ele><time>2026-04-06T07:05:36.999Z</time></trkpt><trkpt lat="14.432063004923446" lon="120.94361353951123"><ele>11.5</ele><time>2026-04-06T07:05:37.999Z</time></trkpt><trkpt lat="14.432049629990221" lon="120.94352815823305"><ele>11.333333333333332</ele><time>2026-04-06T07:05:38.999Z</time></trkpt><trkpt lat="14.432036891618612" lon="120.94344674340665"><ele>11.166666666666666</ele><time>2026-04-06T07:05:39.999Z</time></trkpt><trkpt lat="14.432026724388923" lon="120.94338176152341"><ele>11.0</ele><time>2026-04-06T07:05:40.999Z</time></trkpt><trkpt lat="14.432009968299262" lon="120.9432746682385"><ele>11.0</ele><time>2026-04-06T07:05:42.999Z</time></trkpt><trkpt lat="14.43208719172998" lon="120.94323942458692"><ele>11.0</ele><time>2026-04-06T07:05:48.999Z</time></trkpt><trkpt lat="14.432191998137474" lon="120.9432212629947"><ele>11.0</ele><time>2026-04-06T07:05:50.999Z</time></trkpt><trkpt lat="14.432293423190334" lon="120.94320275430908"><ele>11.0</ele><time>2026-04-06T07:05:52.999Z</time></trkpt><trkpt lat="14.432377931268157" lon="120.94318733455196"><ele>11.0</ele><time>2026-04-06T07:05:54.999Z</time></trkpt><trkpt lat="14.432443827542752" lon="120.94317594022846"><ele>11.0</ele><time>2026-04-06T07:05:57.999Z</time></trkpt><trkpt lat="14.432458130538487" lon="120.94310633707101"><ele>11.166666666666666</ele><time>2026-04-06T07:05:58.999Z</time></trkpt><trkpt lat="14.43245787991594" lon="120.94301414587923"><ele>11.333333333333332</ele><time>2026-04-06T07:06:00.999Z</time></trkpt><trkpt lat="14.4324862808892" lon="120.9429184659511"><ele>11.5</ele><time>2026-04-06T07:06:02.999Z</time></trkpt><trkpt lat="14.432469565853637" lon="120.9427979960367"><ele>11.666666666666666</ele><time>2026-04-06T07:06:04.999Z</time></trkpt><trkpt lat="14.43246002249935" lon="120.94272910232306"><ele>11.833333333333334</ele><time>2026-04-06T07:06:05.999Z</time></trkpt><trkpt lat="14.432449838764844" lon="120.94265579923989"><ele>12.0</ele><time>2026-04-06T07:06:06.999Z</time></trkpt><trkpt lat="14.432440046265707" lon="120.94258520887105"><ele>12.0</ele><time>2026-04-06T07:06:07.999Z</time></trkpt><trkpt lat="14.432421351772613" lon="120.94246173685559"><ele>12.0</ele><time>2026-04-06T07:06:09.999Z</time></trkpt><trkpt lat="14.432405074540185" lon="120.94239384484892"><ele>12.0</ele><time>2026-04-06T07:06:10.999Z</time></trkpt><trkpt lat="14.432371550165666" lon="120.94226496640485"><ele>12.0</ele><time>2026-04-06T07:06:12.999Z</time></trkpt><trkpt lat="14.432353966001198" lon="120.94219763127464"><ele>12.0</ele><time>2026-04-06T07:06:13.999Z</time></trkpt><trkpt lat="14.43232595965457" lon="120.94209038613324"><ele>12.0</ele><time>2026-04-06T07:06:15.999Z</time></trkpt><trkpt lat="14.432305949989063" lon="120.94200697366435"><ele>12.0</ele><time>2026-04-06T07:06:18Z</time></trkpt><trkpt lat="14.432289551277295" lon="120.94194144731344"><ele>12.0</ele><time>2026-04-06T07:06:20.998Z</time></trkpt><trkpt lat="14.432269446465318" lon="120.94186217402785"><ele>12.0</ele><time>2026-04-06T07:06:23.998Z</time></trkpt><trkpt lat="14.4322503426028" lon="120.94178684749286"><ele>12.0</ele><time>2026-04-06T07:06:28.998Z</time></trkpt><trkpt lat="14.432224304208832" lon="120.94168417812168"><ele>12.0</ele><time>2026-04-06T07:06:30.998Z</time></trkpt><trkpt lat="14.432192203420476" lon="120.94155760435562"><ele>11.833333333333334</ele><time>2026-04-06T07:06:32.998Z</time></trkpt><trkpt lat="14.432171699255033" lon="120.941480468358"><ele>11.666666666666666</ele><time>2026-04-06T07:06:33.999Z</time></trkpt><trkpt lat="14.43215069935787" lon="120.94140430095196"><ele>11.5</ele><time>2026-04-06T07:06:34.999Z</time></trkpt><trkpt lat="14.432132153301756" lon="120.94133703302722"><ele>11.333333333333332</ele><time>2026-04-06T07:06:35.999Z</time></trkpt><trkpt lat="14.432100346981946" lon="120.9412258444994"><ele>11.166666666666666</ele><time>2026-04-06T07:06:37.999Z</time></trkpt><trkpt lat="14.43207729194571" lon="120.94114119015414"><ele>11.0</ele><time>2026-04-06T07:06:39.999Z</time></trkpt><trkpt lat="14.43205193250885" lon="120.9410452330294"><ele>11.0</ele><time>2026-04-06T07:06:43.999Z</time></trkpt><trkpt lat="14.432033886459333" lon="120.9409762372852"><ele>11.0</ele><time>2026-04-06T07:06:44.999Z</time></trkpt><trkpt lat="14.432015237772733" lon="120.94091340550807"><ele>11.0</ele><time>2026-04-06T07:06:45.999Z</time></trkpt><trkpt lat="14.431994063873654" lon="120.940842065729"><ele>11.0</ele><time>2026-04-06T07:06:46.999Z</time></trkpt><trkpt lat="14.4319729013038" lon="120.94077076410697"><ele>11.0</ele><time>2026-04-06T07:06:47.999Z</time></trkpt><trkpt lat="14.431939369636478" lon="120.94065708099312"><ele>11.0</ele><time>2026-04-06T07:06:49.999Z</time></trkpt><trkpt lat="14.431906551797816" lon="120.94054583208893"><ele>11.0</ele><time>2026-04-06T07:06:51.999Z</time></trkpt><trkpt lat="14.43188785302099" lon="120.94048243976584"><ele>11.0</ele><time>2026-04-06T07:06:52.999Z</time></trkpt><trkpt lat="14.431864525651772" lon="120.94040331431955"><ele>11.0</ele><time>2026-04-06T07:06:53.999Z</time></trkpt><trkpt lat="14.431828059393844" lon="120.9402796220605"><ele>11.0</ele><time>2026-04-06T07:06:55.999Z</time></trkpt><trkpt lat="14.431808707552321" lon="120.9402139806412"><ele>11.0</ele><time>2026-04-06T07:06:56.999Z</time></trkpt><trkpt lat="14.431785275357774" lon="120.94015254453383"><ele>11.0</ele><time>2026-04-06T07:06:57.999Z</time></trkpt><trkpt lat="14.431754776522528" lon="120.94006504365824"><ele>11.0</ele><time>2026-04-06T07:06:59.999Z</time></trkpt><trkpt lat="14.431723461784845" lon="120.94000604206647"><ele>11.0</ele><time>2026-04-06T07:07:03.999Z</time></trkpt><trkpt lat="14.431591834940033" lon="120.94005828297192"><ele>11.0</ele><time>2026-04-06T07:07:04.999Z</time></trkpt><trkpt lat="14.431500763854562" lon="120.9400977772953"><ele>11.0</ele><time>2026-04-06T07:07:06.999Z</time></trkpt><trkpt lat="14.431406858036722" lon="120.94012763778106"><ele>11.0</ele><time>2026-04-06T07:07:08.999Z</time></trkpt><trkpt lat="14.431301904549578" lon="120.94015927464262"><ele>11.0</ele><time>2026-04-06T07:07:10.999Z</time></trkpt><trkpt lat="14.431204951469182" lon="120.94018776981554"><ele>11.0</ele><time>2026-04-06T07:07:12.999Z</time></trkpt><trkpt lat="14.431103151771756" lon="120.94021060331815"><ele>11.0</ele><time>2026-04-06T07:07:14.999Z</time></trkpt><trkpt lat="14.431009088586308" lon="120.94023545595597"><ele>11.0</ele><time>2026-04-06T07:07:16.999Z</time></trkpt><trkpt lat="14.430926310615037" lon="120.94025714257626"><ele>11.0</ele><time>2026-04-06T07:07:18.999Z</time></trkpt><trkpt lat="14.430853863887114" lon="120.94025697031549"><ele>11.0</ele><time>2026-04-06T07:07:21.999Z</time></trkpt><trkpt lat="14.430761497012341" lon="120.94027918904031"><ele>11.0</ele><time>2026-04-06T07:07:25.999Z</time></trkpt><trkpt lat="14.430658354425775" lon="120.9402877919459"><ele>11.0</ele><time>2026-04-06T07:07:27.999Z</time></trkpt><trkpt lat="14.430538416620347" lon="120.94027713502216"><ele>11.0</ele><time>2026-04-06T07:07:30Z</time></trkpt><trkpt lat="14.430423056902445" lon="120.94025505612949"><ele>11.0</ele><time>2026-04-06T07:07:32Z</time></trkpt><trkpt lat="14.430332758488609" lon="120.94024767388537"><ele>10.8</ele><time>2026-04-06T07:07:34Z</time></trkpt><trkpt lat="14.430233988542966" lon="120.94023995195455"><ele>10.600000000000001</ele><time>2026-04-06T07:07:36Z</time></trkpt><trkpt lat="14.430137998975516" lon="120.94023155704187"><ele>10.4</ele><time>2026-04-06T07:07:38Z</time></trkpt><trkpt lat="14.430051099437565" lon="120.940222725317"><ele>10.2</ele><time>2026-04-06T07:07:40Z</time></trkpt><trkpt lat="14.429976511136491" lon="120.9401948479389"><ele>10.0</ele><time>2026-04-06T07:07:42Z</time></trkpt><trkpt lat="14.429915514684067" lon="120.94012392157184"><ele>10.166666666666668</ele><time>2026-04-06T07:07:44Z</time></trkpt><trkpt lat="14.429879893264285" lon="120.94003548290023"><ele>10.333333333333334</ele><time>2026-04-06T07:07:46Z</time></trkpt><trkpt lat="14.429855940909851" lon="120.93996920985435"><ele>10.5</ele><time>2026-04-06T07:07:48Z</time></trkpt><trkpt lat="14.429830657767186" lon="120.93989702800431"><ele>10.666666666666666</ele><time>2026-04-06T07:07:52Z</time></trkpt><trkpt lat="14.429843913655876" lon="120.93980633396802"><ele>10.833333333333332</ele><time>2026-04-06T07:07:55Z</time></trkpt><trkpt lat="14.429939354670283" lon="120.93973755570396"><ele>11.0</ele><time>2026-04-06T07:07:57Z</time></trkpt><trkpt lat="14.430004013714742" lon="120.93969159882144"><ele>11.0</ele><time>2026-04-06T07:07:58Z</time></trkpt><trkpt lat="14.430076666184272" lon="120.939637317671"><ele>11.0</ele><time>2026-04-06T07:07:59Z</time></trkpt><trkpt lat="14.430157013766452" lon="120.93957645854027"><ele>11.0</ele><time>2026-04-06T07:08:00Z</time></trkpt><trkpt lat="14.430222800319306" lon="120.9395284223601"><ele>11.0</ele><time>2026-04-06T07:08:01Z</time></trkpt><trkpt lat="14.430281158002733" lon="120.93948733452393"><ele>11.0</ele><time>2026-04-06T07:08:02Z</time></trkpt><trkpt lat="14.430362307209748" lon="120.93942647397202"><ele>11.0</ele><time>2026-04-06T07:08:04Z</time></trkpt><trkpt lat="14.430413027920922" lon="120.93936935881733"><ele>11.0</ele><time>2026-04-06T07:08:07Z</time></trkpt><trkpt lat="14.430382578752965" lon="120.93925671139566"><ele>11.0</ele><time>2026-04-06T07:08:10Z</time></trkpt><trkpt lat="14.430340540596719" lon="120.93919185487742"><ele>11.0</ele><time>2026-04-06T07:08:11Z</time></trkpt><trkpt lat="14.430304360985586" lon="120.93911044695766"><ele>11.0</ele><time>2026-04-06T07:08:12Z</time></trkpt><trkpt lat="14.430262206257881" lon="120.93901475158566"><ele>11.0</ele><time>2026-04-06T07:08:13Z</time></trkpt><trkpt lat="14.4302216685165" lon="120.93891485878635"><ele>10.75</ele><time>2026-04-06T07:08:14Z</time></trkpt><trkpt lat="14.430178315204643" lon="120.9388093934682"><ele>10.5</ele><time>2026-04-06T07:08:15Z</time></trkpt><trkpt lat="14.430125937333829" lon="120.93868912955658"><ele>10.25</ele><time>2026-04-06T07:08:16Z</time></trkpt><trkpt lat="14.430072263319465" lon="120.9385723283692"><ele>10.0</ele><time>2026-04-06T07:08:17Z</time></trkpt><trkpt lat="14.430014589646046" lon="120.93844858597942"><ele>10.166666666666668</ele><time>2026-04-06T07:08:18Z</time></trkpt><trkpt lat="14.429976316798134" lon="120.9383415624748"><ele>10.333333333333334</ele><time>2026-04-06T07:08:20Z</time></trkpt><trkpt lat="14.429948386501238" lon="120.93826494402259"><ele>10.5</ele><time>2026-04-06T07:08:21Z</time></trkpt><trkpt lat="14.429923891732562" lon="120.93819844055533"><ele>10.666666666666666</ele><time>2026-04-06T07:08:22Z</time></trkpt><trkpt lat="14.429897118774834" lon="120.93813492566206"><ele>10.833333333333332</ele><time>2026-04-06T07:08:23Z</time></trkpt><trkpt lat="14.42986183872052" lon="120.93806126717888"><ele>11.0</ele><time>2026-04-06T07:08:24Z</time></trkpt><trkpt lat="14.429822936730172" lon="120.9379797990883"><ele>11.0</ele><time>2026-04-06T07:08:25Z</time></trkpt><trkpt lat="14.429780097279375" lon="120.93788703184339"><ele>11.0</ele><time>2026-04-06T07:08:26Z</time></trkpt><trkpt lat="14.429731005124882" lon="120.93778816430202"><ele>11.0</ele><time>2026-04-06T07:08:26.999Z</time></trkpt><trkpt lat="14.429683227109459" lon="120.93768427141659"><ele>11.0</ele><time>2026-04-06T07:08:27.999Z</time></trkpt><trkpt lat="14.42964057767953" lon="120.93757740341267"><ele>11.0</ele><time>2026-04-06T07:08:28.999Z</time></trkpt><trkpt lat="14.429590178957147" lon="120.93746995702325"><ele>10.8</ele><time>2026-04-06T07:08:29.999Z</time></trkpt><trkpt lat="14.429547625187798" lon="120.93736184353298"><ele>10.600000000000001</ele><time>2026-04-06T07:08:30.999Z</time></trkpt><trkpt lat="14.429502096773538" lon="120.93725854586309"><ele>10.4</ele><time>2026-04-06T07:08:31.999Z</time></trkpt><trkpt lat="14.429462998344293" lon="120.93716669613202"><ele>10.2</ele><time>2026-04-06T07:08:32.999Z</time></trkpt><trkpt lat="14.429432329713148" lon="120.9370843564194"><ele>10.0</ele><time>2026-04-06T07:08:33.999Z</time></trkpt><trkpt lat="14.42940569921783" lon="120.9370164076566"><ele>10.0</ele><time>2026-04-06T07:08:34.999Z</time></trkpt><trkpt lat="14.429380495445088" lon="120.93693074112207"><ele>10.0</ele><time>2026-04-06T07:08:36.999Z</time></trkpt><trkpt lat="14.429344450207259" lon="120.93684273117358"><ele>10.0</ele><time>2026-04-06T07:08:38.999Z</time></trkpt><trkpt lat="14.42931221619084" lon="120.93678015448268"><ele>10.0</ele><time>2026-04-06T07:08:39.999Z</time></trkpt><trkpt lat="14.429273634291427" lon="120.93670574914633"><ele>10.0</ele><time>2026-04-06T07:08:40.999Z</time></trkpt><trkpt lat="14.429242856964972" lon="120.93663002636053"><ele>10.0</ele><time>2026-04-06T07:08:41.999Z</time></trkpt><trkpt lat="14.429203785671024" lon="120.93654871030394"><ele>10.166666666666668</ele><time>2026-04-06T07:08:42.999Z</time></trkpt><trkpt lat="14.429163423189026" lon="120.93646166951301"><ele>10.333333333333334</ele><time>2026-04-06T07:08:43.999Z</time></trkpt><trkpt lat="14.429136273990599" lon="120.93638568328217"><ele>10.5</ele><time>2026-04-06T07:08:44.999Z</time></trkpt><trkpt lat="14.429111488718679" lon="120.9363138247327"><ele>10.666666666666666</ele><time>2026-04-06T07:08:45.999Z</time></trkpt><trkpt lat="14.429090673050714" lon="120.93625178290449"><ele>10.833333333333332</ele><time>2026-04-06T07:08:46.999Z</time></trkpt><trkpt lat="14.42904759888277" lon="120.93612926124673"><ele>11.0</ele><time>2026-04-06T07:08:48.999Z</time></trkpt><trkpt lat="14.429020990951106" lon="120.9360680118948"><ele>11.0</ele><time>2026-04-06T07:08:49.999Z</time></trkpt><trkpt lat="14.428988931371585" lon="120.9359943102666"><ele>11.0</ele><time>2026-04-06T07:08:50.999Z</time></trkpt><trkpt lat="14.428954323949467" lon="120.93591786080071"><ele>11.0</ele><time>2026-04-06T07:08:51.999Z</time></trkpt><trkpt lat="14.428919421320932" lon="120.93583444964588"><ele>11.0</ele><time>2026-04-06T07:08:52.999Z</time></trkpt><trkpt lat="14.428883079922839" lon="120.93575167582637"><ele>11.0</ele><time>2026-04-06T07:08:53.999Z</time></trkpt><trkpt lat="14.42885424222608" lon="120.93568212259729"><ele>11.0</ele><time>2026-04-06T07:08:54.999Z</time></trkpt><trkpt lat="14.428825887621349" lon="120.93561071581885"><ele>11.0</ele><time>2026-04-06T07:08:55.999Z</time></trkpt><trkpt lat="14.428799978796615" lon="120.93554140564731"><ele>11.0</ele><time>2026-04-06T07:08:56.999Z</time></trkpt><trkpt lat="14.428770312691684" lon="120.93547273228454"><ele>11.0</ele><time>2026-04-06T07:08:57.999Z</time></trkpt><trkpt lat="14.428740372255108" lon="120.93540482265622"><ele>11.0</ele><time>2026-04-06T07:08:58.999Z</time></trkpt><trkpt lat="14.428721533598392" lon="120.93534237007337"><ele>11.0</ele><time>2026-04-06T07:08:59.999Z</time></trkpt><trkpt lat="14.428682371144" lon="120.93526749585979"><ele>11.0</ele><time>2026-04-06T07:09:00.999Z</time></trkpt><trkpt lat="14.4286508599624" lon="120.93519751548267"><ele>11.0</ele><time>2026-04-06T07:09:01.999Z</time></trkpt><trkpt lat="14.428615575423526" lon="120.9351139879325"><ele>11.0</ele><time>2026-04-06T07:09:02.999Z</time></trkpt><trkpt lat="14.428586460487253" lon="120.9350344719808"><ele>11.0</ele><time>2026-04-06T07:09:03.999Z</time></trkpt><trkpt lat="14.428548382503623" lon="120.9349485942853"><ele>11.0</ele><time>2026-04-06T07:09:04.999Z</time></trkpt><trkpt lat="14.428518611578736" lon="120.93487610730485"><ele>11.0</ele><time>2026-04-06T07:09:05.999Z</time></trkpt><trkpt lat="14.428489886881268" lon="120.93480212156872"><ele>11.0</ele><time>2026-04-06T07:09:06.999Z</time></trkpt><trkpt lat="14.42846404458209" lon="120.93474259676181"><ele>11.0</ele><time>2026-04-06T07:09:07.999Z</time></trkpt><trkpt lat="14.428439573083013" lon="120.93467947267423"><ele>11.0</ele><time>2026-04-06T07:09:08.999Z</time></trkpt><trkpt lat="14.428399679829262" lon="120.93457887624876"><ele>11.0</ele><time>2026-04-06T07:09:11Z</time></trkpt><trkpt lat="14.42835716587731" lon="120.93448634270139"><ele>11.0</ele><time>2026-04-06T07:09:13Z</time></trkpt><trkpt lat="14.428317388139508" lon="120.9343918274044"><ele>11.0</ele><time>2026-04-06T07:09:15Z</time></trkpt><trkpt lat="14.428285095252697" lon="120.93431882441529"><ele>11.0</ele><time>2026-04-06T07:09:17Z</time></trkpt><trkpt lat="14.428244283182911" lon="120.93421618525508"><ele>11.200000000000001</ele><time>2026-04-06T07:09:19Z</time></trkpt><trkpt lat="14.428211363753219" lon="120.93413260131427"><ele>11.4</ele><time>2026-04-06T07:09:21Z</time></trkpt><trkpt lat="14.428178360774744" lon="120.93404641405728"><ele>11.6</ele><time>2026-04-06T07:09:23Z</time></trkpt><trkpt lat="14.428143675111158" lon="120.93396094426708"><ele>11.8</ele><time>2026-04-06T07:09:25Z</time></trkpt><trkpt lat="14.428112526835765" lon="120.93388004448586"><ele>12.0</ele><time>2026-04-06T07:09:27Z</time></trkpt><trkpt lat="14.428054885960877" lon="120.93375435708677"><ele>12.0</ele><time>2026-04-06T07:09:29Z</time></trkpt><trkpt lat="14.428023352824555" lon="120.93367749505781"><ele>12.0</ele><time>2026-04-06T07:09:30Z</time></trkpt><trkpt lat="14.427992799577515" lon="120.9335934427974"><ele>12.0</ele><time>2026-04-06T07:09:31Z</time></trkpt><trkpt lat="14.427970943260732" lon="120.93351195587293"><ele>12.0</ele><time>2026-04-06T07:09:32Z</time></trkpt><trkpt lat="14.427949480510568" lon="120.93344447656288"><ele>12.0</ele><time>2026-04-06T07:09:33Z</time></trkpt><trkpt lat="14.427902990665084" lon="120.9333295320828"><ele>12.0</ele><time>2026-04-06T07:09:35Z</time></trkpt><trkpt lat="14.427877568920588" lon="120.93322720447381"><ele>12.0</ele><time>2026-04-06T07:09:37Z</time></trkpt><trkpt lat="14.427915663698034" lon="120.93312160524609"><ele>12.0</ele><time>2026-04-06T07:09:39Z</time></trkpt><trkpt lat="14.42800313355482" lon="120.93303737792466"><ele>12.0</ele><time>2026-04-06T07:09:41Z</time></trkpt><trkpt lat="14.428105000707635" lon="120.93296526446"><ele>12.0</ele><time>2026-04-06T07:09:43Z</time></trkpt><trkpt lat="14.428208630971332" lon="120.93289678445187"><ele>12.399999999999999</ele><time>2026-04-06T07:09:45Z</time></trkpt><trkpt lat="14.4283122848752" lon="120.93282386191969"><ele>12.799999999999999</ele><time>2026-04-06T07:09:47Z</time></trkpt><trkpt lat="14.428367544398855" lon="120.93279229159937"><ele>13.2</ele><time>2026-04-06T07:09:48Z</time></trkpt><trkpt lat="14.428470875458038" lon="120.93273182016233"><ele>13.6</ele><time>2026-04-06T07:09:50Z</time></trkpt><trkpt lat="14.428549830193692" lon="120.9326867001344"><ele>14.0</ele><time>2026-04-06T07:09:52Z</time></trkpt><trkpt lat="14.428620631071993" lon="120.93264484539488"><ele>14.0</ele><time>2026-04-06T07:09:54Z</time></trkpt><trkpt lat="14.428708756126621" lon="120.93259168179571"><ele>13.999999999999998</ele><time>2026-04-06T07:09:56Z</time></trkpt><trkpt lat="14.42881360610026" lon="120.93253549981544"><ele>13.999999999999998</ele><time>2026-04-06T07:09:58Z</time></trkpt><trkpt lat="14.428881449944068" lon="120.93249424569699"><ele>14.0</ele><time>2026-04-06T07:10:00Z</time></trkpt><trkpt lat="14.42894931563332" lon="120.93245277480791"><ele>14.0</ele><time>2026-04-06T07:10:03Z</time></trkpt><trkpt lat="14.429031559197762" lon="120.9324103397281"><ele>13.666666666666668</ele><time>2026-04-06T07:10:05Z</time></trkpt><trkpt lat="14.42911535530563" lon="120.93236336585082"><ele>13.333333333333334</ele><time>2026-04-06T07:10:07Z</time></trkpt><trkpt lat="14.429182993070214" lon="120.93232532366838"><ele>13.0</ele><time>2026-04-06T07:10:09Z</time></trkpt><trkpt lat="14.429251164436065" lon="120.93228173249675"><ele>12.666666666666668</ele><time>2026-04-06T07:10:12Z</time></trkpt><trkpt lat="14.429265921023832" lon="120.9321919017936"><ele>12.333333333333334</ele><time>2026-04-06T07:10:15Z</time></trkpt><trkpt lat="14.429237026425032" lon="120.93212716675917"><ele>12.0</ele><time>2026-04-06T07:10:16Z</time></trkpt><trkpt lat="14.429223566913395" lon="120.93206082311652"><ele>12.0</ele><time>2026-04-06T07:10:17Z</time></trkpt><trkpt lat="14.429218671778436" lon="120.93194746783273"><ele>12.0</ele><time>2026-04-06T07:10:19Z</time></trkpt><trkpt lat="14.429211387521747" lon="120.9318344009932"><ele>12.0</ele><time>2026-04-06T07:10:21Z</time></trkpt><trkpt lat="14.429206639188845" lon="120.9317695538077"><ele>12.0</ele><time>2026-04-06T07:10:22Z</time></trkpt><trkpt lat="14.42920161395096" lon="120.93169925891527"><ele>12.0</ele><time>2026-04-06T07:10:23Z</time></trkpt><trkpt lat="14.429194412621039" lon="120.93158818822441"><ele>12.2</ele><time>2026-04-06T07:10:25Z</time></trkpt><trkpt lat="14.429187791990723" lon="120.93148109799921"><ele>12.399999999999999</ele><time>2026-04-06T07:10:27Z</time></trkpt><trkpt lat="14.429179703778624" lon="120.9313887479805"><ele>12.600000000000001</ele><time>2026-04-06T07:10:29Z</time></trkpt><trkpt lat="14.4291733195434" lon="120.93129801581041"><ele>12.8</ele><time>2026-04-06T07:10:31Z</time></trkpt><trkpt lat="14.429165842311212" lon="120.93119376323017"><ele>13.0</ele><time>2026-04-06T07:10:32.999Z</time></trkpt><trkpt lat="14.429157020466993" lon="120.93110045083596"><ele>13.0</ele><time>2026-04-06T07:10:34.999Z</time></trkpt><trkpt lat="14.42914366318107" lon="120.93099381927459"><ele>13.0</ele><time>2026-04-06T07:10:36.999Z</time></trkpt><trkpt lat="14.429131073609064" lon="120.9308605812622"><ele>13.0</ele><time>2026-04-06T07:10:38.999Z</time></trkpt><trkpt lat="14.429122145602324" lon="120.93074106031219"><ele>13.0</ele><time>2026-04-06T07:10:40.999Z</time></trkpt><trkpt lat="14.42910592929979" lon="120.93061803581618"><ele>13.0</ele><time>2026-04-06T07:10:42.999Z</time></trkpt><trkpt lat="14.42909384745104" lon="120.93051735024072"><ele>13.0</ele><time>2026-04-06T07:10:44.999Z</time></trkpt><trkpt lat="14.429069432131028" lon="120.93038535562174"><ele>13.0</ele><time>2026-04-06T07:10:46.999Z</time></trkpt><trkpt lat="14.429058110623556" lon="120.93028364020095"><ele>13.0</ele><time>2026-04-06T07:10:47.999Z</time></trkpt><trkpt lat="14.429059918852012" lon="120.93020621342409"><ele>13.0</ele><time>2026-04-06T07:10:48.999Z</time></trkpt><trkpt lat="14.42905256364612" lon="120.93012873723146"><ele>12.499999999999998</ele><time>2026-04-06T07:10:49.999Z</time></trkpt><trkpt lat="14.429048874999113" lon="120.93005653655848"><ele>12.0</ele><time>2026-04-06T07:10:50.999Z</time></trkpt><trkpt lat="14.4290426530133" lon="120.92998943544222"><ele>11.5</ele><time>2026-04-06T07:10:51.999Z</time></trkpt><trkpt lat="14.429027966711558" lon="120.92985942349425"><ele>11.0</ele><time>2026-04-06T07:10:53.999Z</time></trkpt><trkpt lat="14.42902201027429" lon="120.9297835407767"><ele>10.5</ele><time>2026-04-06T07:10:54.999Z</time></trkpt><trkpt lat="14.429013292235028" lon="120.92970801277127"><ele>10.0</ele><time>2026-04-06T07:10:55.999Z</time></trkpt><trkpt lat="14.429006088842383" lon="120.92963463010719"><ele>10.0</ele><time>2026-04-06T07:10:56.999Z</time></trkpt><trkpt lat="14.42899580050379" lon="120.92956594133722"><ele>10.0</ele><time>2026-04-06T07:10:57.999Z</time></trkpt><trkpt lat="14.42898568721579" lon="120.92949986947049"><ele>10.0</ele><time>2026-04-06T07:10:58.999Z</time></trkpt><trkpt lat="14.428974986881117" lon="120.9293786601144"><ele>10.0</ele><time>2026-04-06T07:11:00.999Z</time></trkpt><trkpt lat="14.428967202286117" lon="120.92925647393261"><ele>10.0</ele><time>2026-04-06T07:11:02.999Z</time></trkpt><trkpt lat="14.428958734454506" lon="120.92917956881419"><ele>10.0</ele><time>2026-04-06T07:11:03.999Z</time></trkpt><trkpt lat="14.428950288563852" lon="120.9291011111358"><ele>10.0</ele><time>2026-04-06T07:11:04.999Z</time></trkpt><trkpt lat="14.428946385134633" lon="120.92903301968288"><ele>10.0</ele><time>2026-04-06T07:11:05.999Z</time></trkpt><trkpt lat="14.42893933189476" lon="120.92894283127558"><ele>10.0</ele><time>2026-04-06T07:11:06.999Z</time></trkpt><trkpt lat="14.428928248724224" lon="120.92886677867799"><ele>10.0</ele><time>2026-04-06T07:11:07.999Z</time></trkpt><trkpt lat="14.4289184861286" lon="120.9287930452999"><ele>10.0</ele><time>2026-04-06T07:11:09Z</time></trkpt><trkpt lat="14.428911048062972" lon="120.92872127275983"><ele>10.0</ele><time>2026-04-06T07:11:10Z</time></trkpt><trkpt lat="14.428900056941337" lon="120.92859094589858"><ele>10.0</ele><time>2026-04-06T07:11:12Z</time></trkpt><trkpt lat="14.428895971627972" lon="120.9285214266357"><ele>10.0</ele><time>2026-04-06T07:11:13Z</time></trkpt><trkpt lat="14.428890946429915" lon="120.92844977931962"><ele>10.0</ele><time>2026-04-06T07:11:14Z</time></trkpt><trkpt lat="14.428880631508529" lon="120.92837837599646"><ele>10.0</ele><time>2026-04-06T07:11:15Z</time></trkpt><trkpt lat="14.428875630529888" lon="120.92831208499065"><ele>10.0</ele><time>2026-04-06T07:11:16Z</time></trkpt><trkpt lat="14.428866732616013" lon="120.92824097163907"><ele>10.0</ele><time>2026-04-06T07:11:17Z</time></trkpt><trkpt lat="14.428857528997261" lon="120.9281650691846"><ele>10.0</ele><time>2026-04-06T07:11:18Z</time></trkpt><trkpt lat="14.428855690334192" lon="120.9280414686795"><ele>10.0</ele><time>2026-04-06T07:11:20Z</time></trkpt><trkpt lat="14.428848162022467" lon="120.92796616565083"><ele>10.0</ele><time>2026-04-06T07:11:23Z</time></trkpt><trkpt lat="14.428832847452233" lon="120.9278938135281"><ele>10.0</ele><time>2026-04-06T07:11:26Z</time></trkpt><trkpt lat="14.428829324731128" lon="120.9278128853127"><ele>10.0</ele><time>2026-04-06T07:11:28Z</time></trkpt><trkpt lat="14.428827506532599" lon="120.9277420298111"><ele>10.0</ele><time>2026-04-06T07:11:30Z</time></trkpt><trkpt lat="14.428819071131704" lon="120.92766732839772"><ele>10.0</ele><time>2026-04-06T07:11:33Z</time></trkpt><trkpt lat="14.428800293659325" lon="120.92754803047076"><ele>10.0</ele><time>2026-04-06T07:11:35Z</time></trkpt><trkpt lat="14.428797000965583" lon="120.92744898542568"><ele>10.0</ele><time>2026-04-06T07:11:37Z</time></trkpt><trkpt lat="14.428792311379551" lon="120.92737768298551"><ele>10.0</ele><time>2026-04-06T07:11:38Z</time></trkpt><trkpt lat="14.428774404659906" lon="120.92729656732457"><ele>10.0</ele><time>2026-04-06T07:11:39Z</time></trkpt><trkpt lat="14.428758297489349" lon="120.92720403446583"><ele>10.0</ele><time>2026-04-06T07:11:40Z</time></trkpt><trkpt lat="14.428755640866932" lon="120.92709338600321"><ele>10.0</ele><time>2026-04-06T07:11:41Z</time></trkpt><trkpt lat="14.428754439635373" lon="120.92697576010882"><ele>10.0</ele><time>2026-04-06T07:11:42Z</time></trkpt><trkpt lat="14.428751594020236" lon="120.92685405390888"><ele>10.0</ele><time>2026-04-06T07:11:43Z</time></trkpt><trkpt lat="14.428741572323018" lon="120.92672712850487"><ele>10.0</ele><time>2026-04-06T07:11:44Z</time></trkpt><trkpt lat="14.42872790840282" lon="120.92660439255927"><ele>10.0</ele><time>2026-04-06T07:11:45Z</time></trkpt><trkpt lat="14.428712509975242" lon="120.9264684685795"><ele>10.25</ele><time>2026-04-06T07:11:46Z</time></trkpt><trkpt lat="14.42870431536054" lon="120.92633816490199"><ele>10.5</ele><time>2026-04-06T07:11:47Z</time></trkpt><trkpt lat="14.428691927779761" lon="120.92620366370572"><ele>10.75</ele><time>2026-04-06T07:11:48Z</time></trkpt><trkpt lat="14.42867996238919" lon="120.9260711535327"><ele>11.0</ele><time>2026-04-06T07:11:49Z</time></trkpt><trkpt lat="14.4286711732408" lon="120.92595064450249"><ele>10.8</ele><time>2026-04-06T07:11:50Z</time></trkpt><trkpt lat="14.428664552689284" lon="120.92583331353681"><ele>10.600000000000001</ele><time>2026-04-06T07:11:51Z</time></trkpt><trkpt lat="14.428662518480321" lon="120.92572534965988"><ele>10.4</ele><time>2026-04-06T07:11:52Z</time></trkpt><trkpt lat="14.428657380900042" lon="120.92563510726406"><ele>10.2</ele><time>2026-04-06T07:11:53Z</time></trkpt><trkpt lat="14.428651600622986" lon="120.92554277092"><ele>10.0</ele><time>2026-04-06T07:11:54Z</time></trkpt><trkpt lat="14.428646975170217" lon="120.92546139949846"><ele>10.0</ele><time>2026-04-06T07:11:55Z</time></trkpt><trkpt lat="14.428641643060608" lon="120.92537887879575"><ele>10.0</ele><time>2026-04-06T07:11:56Z</time></trkpt><trkpt lat="14.428633939975343" lon="120.92528970329612"><ele>10.0</ele><time>2026-04-06T07:11:57Z</time></trkpt><trkpt lat="14.428626617342173" lon="120.92520599612442"><ele>10.0</ele><time>2026-04-06T07:11:58Z</time></trkpt><trkpt lat="14.428623381432578" lon="120.92513434519189"><ele>10.0</ele><time>2026-04-06T07:11:59Z</time></trkpt><trkpt lat="14.428620729025159" lon="120.92506044856148"><ele>10.0</ele><time>2026-04-06T07:12:00Z</time></trkpt><trkpt lat="14.428609607896437" lon="120.92497998616577"><ele>10.0</ele><time>2026-04-06T07:12:01Z</time></trkpt><trkpt lat="14.428604699437088" lon="120.92490642199475"><ele>10.0</ele><time>2026-04-06T07:12:02Z</time></trkpt><trkpt lat="14.428600495288128" lon="120.92483934341509"><ele>10.0</ele><time>2026-04-06T07:12:03Z</time></trkpt><trkpt lat="14.428579439056854" lon="120.92471775314185"><ele>10.0</ele><time>2026-04-06T07:12:05Z</time></trkpt><trkpt lat="14.428575008214509" lon="120.92465199592459"><ele>10.0</ele><time>2026-04-06T07:12:06Z</time></trkpt><trkpt lat="14.428566373326051" lon="120.92458117258998"><ele>10.0</ele><time>2026-04-06T07:12:07Z</time></trkpt><trkpt lat="14.428559098235866" lon="120.92451498915754"><ele>10.0</ele><time>2026-04-06T07:12:08Z</time></trkpt><trkpt lat="14.428558758979591" lon="120.9244486946376"><ele>10.0</ele><time>2026-04-06T07:12:09Z</time></trkpt><trkpt lat="14.428556826965469" lon="120.92436940599937"><ele>10.0</ele><time>2026-04-06T07:12:11Z</time></trkpt><trkpt lat="14.42855809826398" lon="120.924277979101"><ele>10.0</ele><time>2026-04-06T07:12:14Z</time></trkpt><trkpt lat="14.428557819177973" lon="120.92419486112506"><ele>10.0</ele><time>2026-04-06T07:12:16Z</time></trkpt><trkpt lat="14.42855391572831" lon="120.92408758115674"><ele>10.0</ele><time>2026-04-06T07:12:18Z</time></trkpt><trkpt lat="14.428548000325746" lon="120.92396191328302"><ele>10.0</ele><time>2026-04-06T07:12:20Z</time></trkpt><trkpt lat="14.428549706832952" lon="120.92388174828899"><ele>10.0</ele><time>2026-04-06T07:12:21Z</time></trkpt><trkpt lat="14.428551261806463" lon="120.92380885371288"><ele>10.0</ele><time>2026-04-06T07:12:22Z</time></trkpt><trkpt lat="14.428553539811695" lon="120.92374194675868"><ele>10.0</ele><time>2026-04-06T07:12:23Z</time></trkpt><trkpt lat="14.428555812565666" lon="120.92367691609421"><ele>10.0</ele><time>2026-04-06T07:12:24Z</time></trkpt><trkpt lat="14.428553208599388" lon="120.92360532805206"><ele>10.0</ele><time>2026-04-06T07:12:25Z</time></trkpt><trkpt lat="14.428551800414246" lon="120.92352762695762"><ele>10.0</ele><time>2026-04-06T07:12:26Z</time></trkpt><trkpt lat="14.428550790608886" lon="120.9234255241896"><ele>10.4</ele><time>2026-04-06T07:12:27.001Z</time></trkpt><trkpt lat="14.428562411374113" lon="120.92332329661224"><ele>10.8</ele><time>2026-04-06T07:12:28.001Z</time></trkpt><trkpt lat="14.428570602850833" lon="120.92321057946825"><ele>11.2</ele><time>2026-04-06T07:12:29.001Z</time></trkpt><trkpt lat="14.428577557171792" lon="120.92310717459065"><ele>11.6</ele><time>2026-04-06T07:12:30.001Z</time></trkpt><trkpt lat="14.428583025959192" lon="120.92301124522793"><ele>12.0</ele><time>2026-04-06T07:12:31.001Z</time></trkpt><trkpt lat="14.428589677918055" lon="120.9229298137289"><ele>12.0</ele><time>2026-04-06T07:12:32.001Z</time></trkpt><trkpt lat="14.42859244177146" lon="120.92285614473033"><ele>12.0</ele><time>2026-04-06T07:12:33.001Z</time></trkpt><trkpt lat="14.428593611083286" lon="120.92278914567568"><ele>12.0</ele><time>2026-04-06T07:12:34.001Z</time></trkpt><trkpt lat="14.428598936718666" lon="120.92270026119708"><ele>12.0</ele><time>2026-04-06T07:12:35.001Z</time></trkpt><trkpt lat="14.428596582649748" lon="120.92260416497234"><ele>12.0</ele><time>2026-04-06T07:12:36.001Z</time></trkpt><trkpt lat="14.42860371161557" lon="120.92251534359785"><ele>12.0</ele><time>2026-04-06T07:12:37.001Z</time></trkpt><trkpt lat="14.428604842790785" lon="120.92239845500754"><ele>11.666666666666666</ele><time>2026-04-06T07:12:38.999Z</time></trkpt><trkpt lat="14.428619363250196" lon="120.92232447325685"><ele>11.333333333333334</ele><time>2026-04-06T07:12:40.999Z</time></trkpt><trkpt lat="14.428571948528942" lon="120.92225996931114"><ele>11.0</ele><time>2026-04-06T07:12:56.999Z</time></trkpt><trkpt lat="14.428468762234564" lon="120.92223353915598"><ele>10.666666666666668</ele><time>2026-04-06T07:12:58.999Z</time></trkpt><trkpt lat="14.428389745255801" lon="120.92222892245657"><ele>10.333333333333334</ele><time>2026-04-06T07:12:59.999Z</time></trkpt><trkpt lat="14.428322699914304" lon="120.92222666795377"><ele>10.0</ele><time>2026-04-06T07:13:00.999Z</time></trkpt><trkpt lat="14.428250152905209" lon="120.9222333411992"><ele>10.0</ele><time>2026-04-06T07:13:01.999Z</time></trkpt><trkpt lat="14.428181616419879" lon="120.92225287663683"><ele>10.0</ele><time>2026-04-06T07:13:02.999Z</time></trkpt><trkpt lat="14.428103323520947" lon="120.92228789235604"><ele>10.0</ele><time>2026-04-06T07:13:03.999Z</time></trkpt><trkpt lat="14.428026236532675" lon="120.92233382697427"><ele>10.0</ele><time>2026-04-06T07:13:05Z</time></trkpt><trkpt lat="14.427972111795333" lon="120.9223800330525"><ele>10.0</ele><time>2026-04-06T07:13:06Z</time></trkpt><trkpt lat="14.427876879904048" lon="120.9224351694089"><ele>10.0</ele><time>2026-04-06T07:13:07Z</time></trkpt><trkpt lat="14.427791396064181" lon="120.92249076059755"><ele>10.0</ele><time>2026-04-06T07:13:08Z</time></trkpt><trkpt lat="14.42770050049484" lon="120.92254656706034"><ele>10.0</ele><time>2026-04-06T07:13:09Z</time></trkpt><trkpt lat="14.427608956949161" lon="120.92261012843336"><ele>10.0</ele><time>2026-04-06T07:13:10Z</time></trkpt><trkpt lat="14.427505898427135" lon="120.92266785448066"><ele>10.0</ele><time>2026-04-06T07:13:11Z</time></trkpt><trkpt lat="14.427408521710518" lon="120.92273016350025"><ele>10.0</ele><time>2026-04-06T07:13:12Z</time></trkpt><trkpt lat="14.427307326832308" lon="120.92279366999352"><ele>10.0</ele><time>2026-04-06T07:13:13Z</time></trkpt><trkpt lat="14.427209221738053" lon="120.9228548487385"><ele>10.0</ele><time>2026-04-06T07:13:14Z</time></trkpt><trkpt lat="14.427113794696057" lon="120.92291742627684"><ele>10.0</ele><time>2026-04-06T07:13:15Z</time></trkpt><trkpt lat="14.427028485058234" lon="120.9229756818083"><ele>10.0</ele><time>2026-04-06T07:13:16Z</time></trkpt><trkpt lat="14.42694716287762" lon="120.92302364444896"><ele>10.0</ele><time>2026-04-06T07:13:17Z</time></trkpt><trkpt lat="14.426874700741486" lon="120.92306575522011"><ele>10.0</ele><time>2026-04-06T07:13:18Z</time></trkpt><trkpt lat="14.426795890252164" lon="120.92311268505566"><ele>10.0</ele><time>2026-04-06T07:13:19Z</time></trkpt><trkpt lat="14.42670917316624" lon="120.92314965961488"><ele>10.0</ele><time>2026-04-06T07:13:20Z</time></trkpt><trkpt lat="14.426622083633065" lon="120.92317668337026"><ele>10.0</ele><time>2026-04-06T07:13:21Z</time></trkpt><trkpt lat="14.42654121788931" lon="120.92318996586403"><ele>10.0</ele><time>2026-04-06T07:13:22Z</time></trkpt><trkpt lat="14.426472400928528" lon="120.92319054879535"><ele>10.0</ele><time>2026-04-06T07:13:23Z</time></trkpt><trkpt lat="14.42640419566152" lon="120.92318449023284"><ele>10.0</ele><time>2026-04-06T07:13:24Z</time></trkpt><trkpt lat="14.426325752372545" lon="120.92318733355751"><ele>10.0</ele><time>2026-04-06T07:13:25Z</time></trkpt><trkpt lat="14.426239859485356" lon="120.92318099721213"><ele>10.0</ele><time>2026-04-06T07:13:26Z</time></trkpt><trkpt lat="14.426146875888119" lon="120.92318280364121"><ele>10.0</ele><time>2026-04-06T07:13:27Z</time></trkpt><trkpt lat="14.426048538398707" lon="120.92318222206696"><ele>10.0</ele><time>2026-04-06T07:13:28Z</time></trkpt><trkpt lat="14.425945740025877" lon="120.92318350563812"><ele>10.0</ele><time>2026-04-06T07:13:29Z</time></trkpt><trkpt lat="14.425839220408957" lon="120.92317609430879"><ele>10.0</ele><time>2026-04-06T07:13:30Z</time></trkpt><trkpt lat="14.425733870598707" lon="120.92317302420877"><ele>10.0</ele><time>2026-04-06T07:13:31Z</time></trkpt><trkpt lat="14.425632246712642" lon="120.92317406954818"><ele>10.0</ele><time>2026-04-06T07:13:32Z</time></trkpt><trkpt lat="14.425524513331284" lon="120.923180008046"><ele>10.0</ele><time>2026-04-06T07:13:33Z</time></trkpt><trkpt lat="14.425425928411372" lon="120.92318665698988"><ele>10.4</ele><time>2026-04-06T07:13:34Z</time></trkpt><trkpt lat="14.425325915124084" lon="120.92319002835248"><ele>10.8</ele><time>2026-04-06T07:13:35Z</time></trkpt><trkpt lat="14.425213435849736" lon="120.92319683544206"><ele>11.2</ele><time>2026-04-06T07:13:36Z</time></trkpt><trkpt lat="14.425112283225323" lon="120.92318152486455"><ele>11.6</ele><time>2026-04-06T07:13:37Z</time></trkpt><trkpt lat="14.424998233708749" lon="120.92318231072132"><ele>12.0</ele><time>2026-04-06T07:13:38Z</time></trkpt><trkpt lat="14.424881853412007" lon="120.92317877097891"><ele>12.0</ele><time>2026-04-06T07:13:39Z</time></trkpt><trkpt lat="14.424767110793942" lon="120.92317608866828"><ele>12.0</ele><time>2026-04-06T07:13:40Z</time></trkpt><trkpt lat="14.424650193173271" lon="120.92317258044724"><ele>12.0</ele><time>2026-04-06T07:13:41Z</time></trkpt><trkpt lat="14.424535232693108" lon="120.92317183765778"><ele>12.0</ele><time>2026-04-06T07:13:42Z</time></trkpt><trkpt lat="14.424408873076548" lon="120.92317955591875"><ele>12.0</ele><time>2026-04-06T07:13:43Z</time></trkpt><trkpt lat="14.42428309468791" lon="120.92318037451379"><ele>12.0</ele><time>2026-04-06T07:13:44Z</time></trkpt><trkpt lat="14.424159894937018" lon="120.92317913522857"><ele>12.0</ele><time>2026-04-06T07:13:45Z</time></trkpt><trkpt lat="14.424030327629456" lon="120.92319728290424"><ele>12.0</ele><time>2026-04-06T07:13:46Z</time></trkpt><trkpt lat="14.423909683476815" lon="120.92320082298045"><ele>11.8</ele><time>2026-04-06T07:13:47Z</time></trkpt><trkpt lat="14.423789242001323" lon="120.92319624014654"><ele>11.6</ele><time>2026-04-06T07:13:48Z</time></trkpt><trkpt lat="14.423670758615993" lon="120.92321703653622"><ele>11.4</ele><time>2026-04-06T07:13:49Z</time></trkpt><trkpt lat="14.423563629239581" lon="120.92321705541323"><ele>11.200000000000001</ele><time>2026-04-06T07:13:50Z</time></trkpt><trkpt lat="14.423468635814498" lon="120.9232268605849"><ele>11.0</ele><time>2026-04-06T07:13:51Z</time></trkpt><trkpt lat="14.423386843863739" lon="120.92324141217149"><ele>11.0</ele><time>2026-04-06T07:13:52Z</time></trkpt><trkpt lat="14.423322522317356" lon="120.92325143822552"><ele>11.0</ele><time>2026-04-06T07:13:53Z</time></trkpt><trkpt lat="14.423252499959586" lon="120.9232618174353"><ele>11.0</ele><time>2026-04-06T07:13:55Z</time></trkpt><trkpt lat="14.423212477363034" lon="120.92331899822834"><ele>11.0</ele><time>2026-04-06T07:14:02Z</time></trkpt><trkpt lat="14.423236986460255" lon="120.92339828850812"><ele>11.0</ele><time>2026-04-06T07:14:06Z</time></trkpt><trkpt lat="14.423256565220557" lon="120.9234805193309"><ele>11.0</ele><time>2026-04-06T07:14:10Z</time></trkpt><trkpt lat="14.423254320959968" lon="120.92356572729389"><ele>11.0</ele><time>2026-04-06T07:14:16.001Z</time></trkpt><trkpt lat="14.4232615957505" lon="120.92364699766765"><ele>11.0</ele><time>2026-04-06T07:14:20.001Z</time></trkpt><trkpt lat="14.42328165064202" lon="120.92371136435386"><ele>11.0</ele><time>2026-04-06T07:14:24.001Z</time></trkpt><trkpt lat="14.423270879905845" lon="120.92364421848802"><ele>11.0</ele><time>2026-04-06T07:15:08Z</time></trkpt><trkpt lat="14.42325861526124" lon="120.92357949845876"><ele>11.0</ele><time>2026-04-06T07:15:10Z</time></trkpt><trkpt lat="14.423267488063674" lon="120.9235069606721"><ele>11.0</ele><time>2026-04-06T07:15:12Z</time></trkpt><trkpt lat="14.423260849679215" lon="120.92342731241948"><ele>11.0</ele><time>2026-04-06T07:15:14Z</time></trkpt><trkpt lat="14.423243894509051" lon="120.9233497021309"><ele>11.0</ele><time>2026-04-06T07:15:19Z</time></trkpt><trkpt lat="14.423190775923889" lon="120.92331445924073"><ele>11.0</ele><time>2026-04-06T07:15:26Z</time></trkpt><trkpt lat="14.423132475039615" lon="120.92325496978397"><ele>11.0</ele><time>2026-04-06T07:15:29Z</time></trkpt><trkpt lat="14.423142005663255" lon="120.92332336143905"><ele>11.0</ele><time>2026-04-06T07:17:31Z</time></trkpt><trkpt lat="14.423120634560476" lon="120.9234248870664"><ele>11.0</ele><time>2026-04-06T07:39:56Z</time></trkpt><trkpt lat="14.423094141725633" lon="120.9233585619281"><ele>11.0</ele><time>2026-04-06T07:42:09Z</time></trkpt><trkpt lat="14.423087835710467" lon="120.9232899959616"><ele>11.0</ele><time>2026-04-06T07:42:16Z</time></trkpt><trkpt lat="14.423188427009826" lon="120.9233191509931"><ele>11.0</ele><time>2026-04-06T07:44:48Z</time></trkpt><trkpt lat="14.42330873970604" lon="120.92331502828438"><ele>11.0</ele><time>2026-04-06T07:44:50Z</time></trkpt><trkpt lat="14.423387336978651" lon="120.92331162986247"><ele>11.0</ele><time>2026-04-06T07:44:51Z</time></trkpt><trkpt lat="14.423459297798386" lon="120.92330181738012"><ele>11.0</ele><time>2026-04-06T07:44:52Z</time></trkpt><trkpt lat="14.42353954303518" lon="120.92329417012661"><ele>11.0</ele><time>2026-04-06T07:44:53Z</time></trkpt><trkpt lat="14.423612238479127" lon="120.92329152655205"><ele>11.0</ele><time>2026-04-06T07:44:54Z</time></trkpt><trkpt lat="14.423690069639951" lon="120.92328825962879"><ele>11.0</ele><time>2026-04-06T07:44:55Z</time></trkpt><trkpt lat="14.423756597718475" lon="120.9232787949689"><ele>11.0</ele><time>2026-04-06T07:44:56Z</time></trkpt><trkpt lat="14.42382807348744" lon="120.92327197879808"><ele>11.0</ele><time>2026-04-06T07:44:57Z</time></trkpt><trkpt lat="14.423909858347256" lon="120.92326688689889"><ele>11.0</ele><time>2026-04-06T07:44:58Z</time></trkpt><trkpt lat="14.423978493311617" lon="120.92326324157332"><ele>11.0</ele><time>2026-04-06T07:44:59Z</time></trkpt><trkpt lat="14.42406152048429" lon="120.92325628846433"><ele>11.0</ele><time>2026-04-06T07:45:00Z</time></trkpt><trkpt lat="14.424184784358328" lon="120.92325323193121"><ele>11.200000000000001</ele><time>2026-04-06T07:45:02Z</time></trkpt><trkpt lat="14.42429529440975" lon="120.92325136348086"><ele>11.4</ele><time>2026-04-06T07:45:04Z</time></trkpt><trkpt lat="14.424392681233767" lon="120.92324761006276"><ele>11.6</ele><time>2026-04-06T07:45:06Z</time></trkpt><trkpt lat="14.424491825060066" lon="120.9232453849773"><ele>11.8</ele><time>2026-04-06T07:45:08Z</time></trkpt><trkpt lat="14.424619891581228" lon="120.9232449655639"><ele>12.0</ele><time>2026-04-06T07:45:10Z</time></trkpt><trkpt lat="14.424694667640043" lon="120.92324416860582"><ele>12.0</ele><time>2026-04-06T07:45:11Z</time></trkpt><trkpt lat="14.424769718253781" lon="120.92323976238221"><ele>12.0</ele><time>2026-04-06T07:45:12Z</time></trkpt><trkpt lat="14.424837729028065" lon="120.92323790316208"><ele>12.0</ele><time>2026-04-06T07:45:13Z</time></trkpt><trkpt lat="14.424909377256029" lon="120.92323662912378"><ele>12.0</ele><time>2026-04-06T07:45:14Z</time></trkpt><trkpt lat="14.424976248394168" lon="120.92324199437228"><ele>12.0</ele><time>2026-04-06T07:45:15Z</time></trkpt><trkpt lat="14.425041221622049" lon="120.92324242647936"><ele>12.0</ele><time>2026-04-06T07:45:16Z</time></trkpt><trkpt lat="14.425170935467644" lon="120.92324338314968"><ele>12.0</ele><time>2026-04-06T07:45:18Z</time></trkpt><trkpt lat="14.425299967016002" lon="120.92324658455294"><ele>12.0</ele><time>2026-04-06T07:45:20Z</time></trkpt><trkpt lat="14.425368864431247" lon="120.92324654623856"><ele>12.0</ele><time>2026-04-06T07:45:21Z</time></trkpt><trkpt lat="14.425432019331316" lon="120.9232517713058"><ele>12.0</ele><time>2026-04-06T07:45:22Z</time></trkpt><trkpt lat="14.425516111426491" lon="120.92324590577692"><ele>12.0</ele><time>2026-04-06T07:45:23Z</time></trkpt><trkpt lat="14.425587268939507" lon="120.92324654833384"><ele>12.0</ele><time>2026-04-06T07:45:24Z</time></trkpt><trkpt lat="14.425668165302813" lon="120.92324207774189"><ele>11.714285714285714</ele><time>2026-04-06T07:45:25Z</time></trkpt><trkpt lat="14.42574333214545" lon="120.92325924574062"><ele>11.428571428571429</ele><time>2026-04-06T07:45:26Z</time></trkpt><trkpt lat="14.425805994403767" lon="120.92324403673311"><ele>11.142857142857142</ele><time>2026-04-06T07:45:27Z</time></trkpt><trkpt lat="14.425878901008264" lon="120.92326077401222"><ele>10.857142857142858</ele><time>2026-04-06T07:45:28Z</time></trkpt><trkpt lat="14.425954669529862" lon="120.92326162816735"><ele>10.571428571428571</ele><time>2026-04-06T07:45:29Z</time></trkpt><trkpt lat="14.426025437318353" lon="120.9232437209614"><ele>10.285714285714285</ele><time>2026-04-06T07:45:30Z</time></trkpt><trkpt lat="14.426105785371771" lon="120.9232418829444"><ele>10.0</ele><time>2026-04-06T07:45:31Z</time></trkpt><trkpt lat="14.426185262467559" lon="120.9232465528893"><ele>10.0</ele><time>2026-04-06T07:45:32Z</time></trkpt><trkpt lat="14.426258269778844" lon="120.92324538317541"><ele>10.0</ele><time>2026-04-06T07:45:33Z</time></trkpt><trkpt lat="14.426332291799394" lon="120.9232393383017"><ele>10.0</ele><time>2026-04-06T07:45:34Z</time></trkpt><trkpt lat="14.426397618110729" lon="120.92324326998366"><ele>10.0</ele><time>2026-04-06T07:45:35Z</time></trkpt><trkpt lat="14.426467110463348" lon="120.92323934571178"><ele>10.0</ele><time>2026-04-06T07:45:36Z</time></trkpt><trkpt lat="14.426535800973475" lon="120.92323828651273"><ele>10.0</ele><time>2026-04-06T07:45:37Z</time></trkpt><trkpt lat="14.426611957174153" lon="120.92325141490811"><ele>10.0</ele><time>2026-04-06T07:45:38Z</time></trkpt><trkpt lat="14.426727048703754" lon="120.92319401669154"><ele>10.0</ele><time>2026-04-06T07:45:40Z</time></trkpt><trkpt lat="14.426799475154363" lon="120.92316283595477"><ele>10.0</ele><time>2026-04-06T07:45:41Z</time></trkpt><trkpt lat="14.426875119003576" lon="120.92312934111582"><ele>10.0</ele><time>2026-04-06T07:45:42Z</time></trkpt><trkpt lat="14.426937368464767" lon="120.92307608798518"><ele>10.0</ele><time>2026-04-06T07:45:43Z</time></trkpt><trkpt lat="14.42702137963814" lon="120.92302419798641"><ele>10.0</ele><time>2026-04-06T07:45:44Z</time></trkpt><trkpt lat="14.427096644857796" lon="120.9229787025428"><ele>10.0</ele><time>2026-04-06T07:45:45Z</time></trkpt><trkpt lat="14.427171054462868" lon="120.92293317032777"><ele>10.2</ele><time>2026-04-06T07:45:46Z</time></trkpt><trkpt lat="14.427249705148814" lon="120.92288504292873"><ele>10.4</ele><time>2026-04-06T07:45:47Z</time></trkpt><trkpt lat="14.427330941182868" lon="120.92283533353248"><ele>10.600000000000001</ele><time>2026-04-06T07:45:48Z</time></trkpt><trkpt lat="14.427414144628704" lon="120.9227844202555"><ele>10.8</ele><time>2026-04-06T07:45:49Z</time></trkpt><trkpt lat="14.427491167597875" lon="120.92273728891062"><ele>11.0</ele><time>2026-04-06T07:45:50Z</time></trkpt><trkpt lat="14.427565024695225" lon="120.92269209479102"><ele>11.0</ele><time>2026-04-06T07:45:51Z</time></trkpt><trkpt lat="14.42763643594579" lon="120.92264839733224"><ele>11.0</ele><time>2026-04-06T07:45:52Z</time></trkpt><trkpt lat="14.427722703552865" lon="120.92259635140448"><ele>11.0</ele><time>2026-04-06T07:45:53Z</time></trkpt><trkpt lat="14.427799509476218" lon="120.92255107700755"><ele>11.0</ele><time>2026-04-06T07:45:54Z</time></trkpt><trkpt lat="14.427873279988379" lon="120.92250777129982"><ele>11.0</ele><time>2026-04-06T07:45:55Z</time></trkpt><trkpt lat="14.427945389032685" lon="120.9224843885566"><ele>11.0</ele><time>2026-04-06T07:45:56Z</time></trkpt><trkpt lat="14.428012487171863" lon="120.922440982801"><ele>10.833333333333332</ele><time>2026-04-06T07:45:57Z</time></trkpt><trkpt lat="14.428090886874745" lon="120.92239312247133"><ele>10.666666666666666</ele><time>2026-04-06T07:45:58Z</time></trkpt><trkpt lat="14.428155823122209" lon="120.92235553997898"><ele>10.5</ele><time>2026-04-06T07:45:59Z</time></trkpt><trkpt lat="14.42821586984633" lon="120.92232046665116"><ele>10.333333333333334</ele><time>2026-04-06T07:46:00Z</time></trkpt><trkpt lat="14.428276361849942" lon="120.92228989984001"><ele>10.166666666666668</ele><time>2026-04-06T07:46:01Z</time></trkpt><trkpt lat="14.42839771051615" lon="120.92227600488575"><ele>10.0</ele><time>2026-04-06T07:46:03Z</time></trkpt><trkpt lat="14.428497049161876" lon="120.92230791356576"><ele>10.0</ele><time>2026-04-06T07:46:05Z</time></trkpt><trkpt lat="14.428581564828491" lon="120.92233552761158"><ele>10.0</ele><time>2026-04-06T07:46:07Z</time></trkpt><trkpt lat="14.428579439263503" lon="120.92243972700483"><ele>10.0</ele><time>2026-04-06T07:46:11Z</time></trkpt><trkpt lat="14.428580226183156" lon="120.92251353627574"><ele>10.0</ele><time>2026-04-06T07:46:12.999Z</time></trkpt><trkpt lat="14.428575402033921" lon="120.92261049100584"><ele>10.0</ele><time>2026-04-06T07:46:15.999Z</time></trkpt><trkpt lat="14.428569872241816" lon="120.92269451338058"><ele>10.0</ele><time>2026-04-06T07:46:17.999Z</time></trkpt><trkpt lat="14.42856668077529" lon="120.9227728581088"><ele>10.333333333333334</ele><time>2026-04-06T07:46:19.999Z</time></trkpt><trkpt lat="14.428564225555316" lon="120.92283818471012"><ele>10.666666666666668</ele><time>2026-04-06T07:46:22Z</time></trkpt><trkpt lat="14.428559793514998" lon="120.92292403212574"><ele>11.0</ele><time>2026-04-06T07:46:24Z</time></trkpt><trkpt lat="14.428553882972455" lon="120.92300097432783"><ele>11.333333333333334</ele><time>2026-04-06T07:46:26Z</time></trkpt><trkpt lat="14.42855185075443" lon="120.92309718755506"><ele>11.666666666666666</ele><time>2026-04-06T07:46:29Z</time></trkpt><trkpt lat="14.428550938577759" lon="120.92317557313363"><ele>12.0</ele><time>2026-04-06T07:46:31Z</time></trkpt><trkpt lat="14.428541751257212" lon="120.9232785531124"><ele>12.0</ele><time>2026-04-06T07:46:33Z</time></trkpt><trkpt lat="14.428542271147531" lon="120.92334426867883"><ele>12.0</ele><time>2026-04-06T07:46:34Z</time></trkpt><trkpt lat="14.428537356912388" lon="120.92344803505725"><ele>12.0</ele><time>2026-04-06T07:46:36Z</time></trkpt><trkpt lat="14.428532901266554" lon="120.9235376032329"><ele>12.0</ele><time>2026-04-06T07:46:38Z</time></trkpt><trkpt lat="14.42852771404933" lon="120.92363285576624"><ele>12.0</ele><time>2026-04-06T07:46:40Z</time></trkpt><trkpt lat="14.428527803484101" lon="120.92374221531665"><ele>12.0</ele><time>2026-04-06T07:46:42Z</time></trkpt><trkpt lat="14.428523893974877" lon="120.92383461719778"><ele>11.666666666666666</ele><time>2026-04-06T07:46:44Z</time></trkpt><trkpt lat="14.428522108137484" lon="120.92392246096554"><ele>11.333333333333334</ele><time>2026-04-06T07:46:46Z</time></trkpt><trkpt lat="14.428523829676568" lon="120.92399852246785"><ele>11.0</ele><time>2026-04-06T07:46:48Z</time></trkpt><trkpt lat="14.428525374761266" lon="120.92408481871497"><ele>10.666666666666668</ele><time>2026-04-06T07:46:51Z</time></trkpt><trkpt lat="14.428526502286434" lon="120.9241869467751"><ele>10.333333333333334</ele><time>2026-04-06T07:46:54Z</time></trkpt><trkpt lat="14.428528063623624" lon="120.92428707930384"><ele>10.0</ele><time>2026-04-06T07:46:56Z</time></trkpt><trkpt lat="14.428529684433425" lon="120.92440727162578"><ele>10.0</ele><time>2026-04-06T07:46:58Z</time></trkpt><trkpt lat="14.428532984206953" lon="120.92447617486158"><ele>10.0</ele><time>2026-04-06T07:46:59Z</time></trkpt><trkpt lat="14.428541595237991" lon="120.9245696633808"><ele>10.0</ele><time>2026-04-06T07:47:01Z</time></trkpt><trkpt lat="14.428548810349456" lon="120.92465336296692"><ele>10.0</ele><time>2026-04-06T07:47:03Z</time></trkpt><trkpt lat="14.428556614239596" lon="120.92473368638954"><ele>10.0</ele><time>2026-04-06T07:47:05Z</time></trkpt><trkpt lat="14.428568746938613" lon="120.92484639338537"><ele>10.0</ele><time>2026-04-06T07:47:07Z</time></trkpt><trkpt lat="14.428579048130207" lon="120.9249746510078"><ele>10.0</ele><time>2026-04-06T07:47:09Z</time></trkpt><trkpt lat="14.428587062698409" lon="120.92503948985154"><ele>10.0</ele><time>2026-04-06T07:47:10Z</time></trkpt><trkpt lat="14.428595622615303" lon="120.9251678759053"><ele>10.0</ele><time>2026-04-06T07:47:12Z</time></trkpt><trkpt lat="14.428599913621733" lon="120.92523562563683"><ele>10.0</ele><time>2026-04-06T07:47:13Z</time></trkpt><trkpt lat="14.428602792663169" lon="120.92530765709377"><ele>10.0</ele><time>2026-04-06T07:47:14Z</time></trkpt><trkpt lat="14.428610202075788" lon="120.92537407979917"><ele>10.0</ele><time>2026-04-06T07:47:15Z</time></trkpt><trkpt lat="14.428606426871722" lon="120.92548686174605"><ele>10.0</ele><time>2026-04-06T07:47:17Z</time></trkpt><trkpt lat="14.428613256154463" lon="120.9256103759667"><ele>10.0</ele><time>2026-04-06T07:47:19Z</time></trkpt><trkpt lat="14.428617057049795" lon="120.92567911854508"><ele>10.0</ele><time>2026-04-06T07:47:20Z</time></trkpt><trkpt lat="14.428637839751186" lon="120.92574886882899"><ele>10.0</ele><time>2026-04-06T07:47:21Z</time></trkpt><trkpt lat="14.428641828738032" lon="120.92582359459213"><ele>10.0</ele><time>2026-04-06T07:47:22Z</time></trkpt><trkpt lat="14.428629532193579" lon="120.92589986031862"><ele>10.0</ele><time>2026-04-06T07:47:23Z</time></trkpt><trkpt lat="14.428635210772667" lon="120.92597281892377"><ele>10.166666666666668</ele><time>2026-04-06T07:47:24Z</time></trkpt><trkpt lat="14.428662455661948" lon="120.92609879349611"><ele>10.333333333333334</ele><time>2026-04-06T07:47:26Z</time></trkpt><trkpt lat="14.428670139480733" lon="120.92616613202019"><ele>10.5</ele><time>2026-04-06T07:47:27Z</time></trkpt><trkpt lat="14.428673549536445" lon="120.92623808227515"><ele>10.666666666666666</ele><time>2026-04-06T07:47:28Z</time></trkpt><trkpt lat="14.428678699738901" lon="120.92631372237906"><ele>10.833333333333332</ele><time>2026-04-06T07:47:29Z</time></trkpt><trkpt lat="14.428688076092413" lon="120.92638257322295"><ele>11.0</ele><time>2026-04-06T07:47:30Z</time></trkpt><trkpt lat="14.42869279027915" lon="120.92645341920095"><ele>11.0</ele><time>2026-04-06T07:47:31Z</time></trkpt><trkpt lat="14.42869455699134" lon="120.92652829018742"><ele>11.0</ele><time>2026-04-06T07:47:32Z</time></trkpt><trkpt lat="14.428705745262492" lon="120.92659438671843"><ele>11.0</ele><time>2026-04-06T07:47:33Z</time></trkpt><trkpt lat="14.428709699337253" lon="120.92667263497428"><ele>11.0</ele><time>2026-04-06T07:47:34Z</time></trkpt><trkpt lat="14.428711349599526" lon="120.92674692579051"><ele>11.0</ele><time>2026-04-06T07:47:35Z</time></trkpt><trkpt lat="14.428706829972663" lon="120.9268252106631"><ele>11.0</ele><time>2026-04-06T07:47:36Z</time></trkpt><trkpt lat="14.42871393154557" lon="120.9269067783776"><ele>11.0</ele><time>2026-04-06T07:47:37Z</time></trkpt><trkpt lat="14.428736371699067" lon="120.92699007695491"><ele>10.833333333333332</ele><time>2026-04-06T07:47:38Z</time></trkpt><trkpt lat="14.428741836777677" lon="120.92708188537823"><ele>10.666666666666666</ele><time>2026-04-06T07:47:39Z</time></trkpt><trkpt lat="14.428746989337728" lon="120.92717191242099"><ele>10.5</ele><time>2026-04-06T07:47:40Z</time></trkpt><trkpt lat="14.42875424282798" lon="120.92725918532084"><ele>10.333333333333334</ele><time>2026-04-06T07:47:41Z</time></trkpt><trkpt lat="14.428763333774583" lon="120.9273261475643"><ele>10.166666666666668</ele><time>2026-04-06T07:47:42Z</time></trkpt><trkpt lat="14.428770890736734" lon="120.92739496659388"><ele>10.0</ele><time>2026-04-06T07:47:43Z</time></trkpt><trkpt lat="14.428782031035457" lon="120.92750520406035"><ele>10.333333333333334</ele><time>2026-04-06T07:47:45Z</time></trkpt><trkpt lat="14.428789296082773" lon="120.9276118448152"><ele>10.666666666666668</ele><time>2026-04-06T07:47:47Z</time></trkpt><trkpt lat="14.428802388285135" lon="120.9277144846039"><ele>11.0</ele><time>2026-04-06T07:47:49Z</time></trkpt><trkpt lat="14.428806741927385" lon="120.92778073374419"><ele>11.333333333333334</ele><time>2026-04-06T07:47:52Z</time></trkpt><trkpt lat="14.4288099795752" lon="120.92785026590143"><ele>11.666666666666666</ele><time>2026-04-06T07:47:55Z</time></trkpt><trkpt lat="14.428817684684581" lon="120.92793416236671"><ele>12.0</ele><time>2026-04-06T07:47:57Z</time></trkpt><trkpt lat="14.428823732382925" lon="120.92800442834488"><ele>12.0</ele><time>2026-04-06T07:48:00Z</time></trkpt><trkpt lat="14.428836984633255" lon="120.92812181036427"><ele>12.0</ele><time>2026-04-06T07:48:03Z</time></trkpt><trkpt lat="14.42884963010782" lon="120.92824207803677"><ele>12.0</ele><time>2026-04-06T07:48:05Z</time></trkpt><trkpt lat="14.428854319403008" lon="120.92830834400687"><ele>12.0</ele><time>2026-04-06T07:48:06Z</time></trkpt><trkpt lat="14.428864500442906" lon="120.92840940949118"><ele>12.0</ele><time>2026-04-06T07:48:08Z</time></trkpt><trkpt lat="14.428877018255205" lon="120.92851066027917"><ele>11.6</ele><time>2026-04-06T07:48:10Z</time></trkpt><trkpt lat="14.428892305695838" lon="120.92864088406688"><ele>11.2</ele><time>2026-04-06T07:48:12Z</time></trkpt><trkpt lat="14.428899076316615" lon="120.92871359081799"><ele>10.8</ele><time>2026-04-06T07:48:13Z</time></trkpt><trkpt lat="14.428905180576521" lon="120.92878644953201"><ele>10.4</ele><time>2026-04-06T07:48:14Z</time></trkpt><trkpt lat="14.428910261852337" lon="120.92886043314408"><ele>10.0</ele><time>2026-04-06T07:48:15Z</time></trkpt><trkpt lat="14.428918338563385" lon="120.92897694476632"><ele>10.0</ele><time>2026-04-06T07:48:17Z</time></trkpt><trkpt lat="14.428929547505982" lon="120.92910081485545"><ele>10.0</ele><time>2026-04-06T07:48:18.999Z</time></trkpt><trkpt lat="14.428934597976205" lon="120.92916856151938"><ele>10.0</ele><time>2026-04-06T07:48:19.999Z</time></trkpt><trkpt lat="14.428943018441364" lon="120.92925091218191"><ele>10.0</ele><time>2026-04-06T07:48:20.999Z</time></trkpt><trkpt lat="14.428950448928548" lon="120.92932224648372"><ele>10.0</ele><time>2026-04-06T07:48:21.999Z</time></trkpt><trkpt lat="14.428960890916438" lon="120.92939756336642"><ele>10.0</ele><time>2026-04-06T07:48:22.999Z</time></trkpt><trkpt lat="14.428969224964233" lon="120.9294716027483"><ele>10.0</ele><time>2026-04-06T07:48:23.999Z</time></trkpt><trkpt lat="14.428975659229547" lon="120.92954127029502"><ele>10.0</ele><time>2026-04-06T07:48:24.999Z</time></trkpt><trkpt lat="14.428981465584307" lon="120.92961048521994"><ele>10.0</ele><time>2026-04-06T07:48:25.999Z</time></trkpt><trkpt lat="14.428993472839656" lon="120.92974009969059"><ele>10.0</ele><time>2026-04-06T07:48:27.999Z</time></trkpt><trkpt lat="14.429000019990331" lon="120.92980619717824"><ele>10.0</ele><time>2026-04-06T07:48:28.999Z</time></trkpt><trkpt lat="14.429008659067106" lon="120.92987526120353"><ele>10.0</ele><time>2026-04-06T07:48:29.999Z</time></trkpt><trkpt lat="14.429015876108917" lon="120.92994988819719"><ele>10.0</ele><time>2026-04-06T07:48:30.999Z</time></trkpt><trkpt lat="14.429018928184918" lon="120.93001913196909"><ele>10.0</ele><time>2026-04-06T07:48:31.999Z</time></trkpt><trkpt lat="14.42902963714246" lon="120.93009598716604"><ele>10.0</ele><time>2026-04-06T07:48:32.999Z</time></trkpt><trkpt lat="14.429034278377266" lon="120.93016146729876"><ele>10.0</ele><time>2026-04-06T07:48:33.999Z</time></trkpt><trkpt lat="14.429041776031449" lon="120.930227601267"><ele>10.0</ele><time>2026-04-06T07:48:34.999Z</time></trkpt><trkpt lat="14.429051967569418" lon="120.93034749883343"><ele>10.0</ele><time>2026-04-06T07:48:37Z</time></trkpt><trkpt lat="14.429059282999" lon="120.93041792541003"><ele>10.5</ele><time>2026-04-06T07:48:38Z</time></trkpt><trkpt lat="14.429066363162905" lon="120.9304833643859"><ele>11.0</ele><time>2026-04-06T07:48:39Z</time></trkpt><trkpt lat="14.429078375008098" lon="120.93056284968279"><ele>11.5</ele><time>2026-04-06T07:48:40Z</time></trkpt><trkpt lat="14.429088653897052" lon="120.93064390142828"><ele>12.0</ele><time>2026-04-06T07:48:41Z</time></trkpt><trkpt lat="14.429098649151756" lon="120.93072851054973"><ele>12.499999999999998</ele><time>2026-04-06T07:48:42Z</time></trkpt><trkpt lat="14.42910603976713" lon="120.93080751647574"><ele>13.0</ele><time>2026-04-06T07:48:43Z</time></trkpt><trkpt lat="14.429115490018836" lon="120.93088767825846"><ele>13.0</ele><time>2026-04-06T07:48:44Z</time></trkpt><trkpt lat="14.429121467990146" lon="120.93096124389169"><ele>13.0</ele><time>2026-04-06T07:48:45Z</time></trkpt><trkpt lat="14.429128063335448" lon="120.93103048143432"><ele>13.0</ele><time>2026-04-06T07:48:46Z</time></trkpt><trkpt lat="14.429134691329708" lon="120.9311013906177"><ele>13.0</ele><time>2026-04-06T07:48:47Z</time></trkpt><trkpt lat="14.429141406089363" lon="120.9311739691981"><ele>13.0</ele><time>2026-04-06T07:48:48Z</time></trkpt><trkpt lat="14.429147288132716" lon="120.93125268788746"><ele>13.0</ele><time>2026-04-06T07:48:49Z</time></trkpt><trkpt lat="14.429153717576668" lon="120.93132986068346"><ele>13.0</ele><time>2026-04-06T07:48:50Z</time></trkpt><trkpt lat="14.429159484576676" lon="120.93145324931785"><ele>13.0</ele><time>2026-04-06T07:48:52Z</time></trkpt><trkpt lat="14.429165468368058" lon="120.93157890608073"><ele>13.0</ele><time>2026-04-06T07:48:54Z</time></trkpt><trkpt lat="14.429177746691003" lon="120.93171031531394"><ele>13.0</ele><time>2026-04-06T07:48:56Z</time></trkpt><trkpt lat="14.42918129559711" lon="120.93178118195422"><ele>13.0</ele><time>2026-04-06T07:48:57Z</time></trkpt><trkpt lat="14.429186896769904" lon="120.93188310714835"><ele>13.0</ele><time>2026-04-06T07:48:59Z</time></trkpt><trkpt lat="14.429193668541334" lon="120.93196366964348"><ele>12.833333333333332</ele><time>2026-04-06T07:49:01Z</time></trkpt><trkpt lat="14.429199221060754" lon="120.93204429978339"><ele>12.666666666666666</ele><time>2026-04-06T07:49:03Z</time></trkpt><trkpt lat="14.429208074512006" lon="120.93211323322325"><ele>12.5</ele><time>2026-04-06T07:49:05Z</time></trkpt><trkpt lat="14.429222335789225" lon="120.93220816500678"><ele>12.333333333333332</ele><time>2026-04-06T07:49:08Z</time></trkpt><trkpt lat="14.429233529089428" lon="120.93227704978143"><ele>12.166666666666666</ele><time>2026-04-06T07:49:13Z</time></trkpt><trkpt lat="14.42917414112753" lon="120.93234360773162"><ele>12.0</ele><time>2026-04-06T07:49:16Z</time></trkpt><trkpt lat="14.42911340793228" lon="120.93238238982408"><ele>12.0</ele><time>2026-04-06T07:49:17Z</time></trkpt><trkpt lat="14.429030810862445" lon="120.93243001536277"><ele>12.0</ele><time>2026-04-06T07:49:18Z</time></trkpt><trkpt lat="14.428953861387905" lon="120.93248361980116"><ele>12.0</ele><time>2026-04-06T07:49:19Z</time></trkpt><trkpt lat="14.428853222842037" lon="120.93252869633197"><ele>12.0</ele><time>2026-04-06T07:49:22Z</time></trkpt><trkpt lat="14.428798808929509" lon="120.93256311421526"><ele>12.0</ele><time>2026-04-06T07:49:23Z</time></trkpt><trkpt lat="14.428734618206951" lon="120.93259792460009"><ele>12.0</ele><time>2026-04-06T07:49:24Z</time></trkpt><trkpt lat="14.428637970312355" lon="120.93265016145473"><ele>12.399999999999999</ele><time>2026-04-06T07:49:26Z</time></trkpt><trkpt lat="14.428561869846769" lon="120.93269621919272"><ele>12.799999999999999</ele><time>2026-04-06T07:49:28Z</time></trkpt><trkpt lat="14.428479990202527" lon="120.93274388659623"><ele>13.2</ele><time>2026-04-06T07:49:30Z</time></trkpt><trkpt lat="14.4283851344675" lon="120.93279693577178"><ele>13.6</ele><time>2026-04-06T07:49:32Z</time></trkpt><trkpt lat="14.428278012769672" lon="120.93284623306498"><ele>14.0</ele><time>2026-04-06T07:49:34Z</time></trkpt><trkpt lat="14.42817401917993" lon="120.93291469008997"><ele>14.000000000000002</ele><time>2026-04-06T07:49:36Z</time></trkpt><trkpt lat="14.428092644569503" lon="120.93297483371265"><ele>14.0</ele><time>2026-04-06T07:49:38Z</time></trkpt><trkpt lat="14.428019649789771" lon="120.93303132873163"><ele>14.0</ele><time>2026-04-06T07:49:40Z</time></trkpt><trkpt lat="14.427956538755003" lon="120.93307652424758"><ele>14.0</ele><time>2026-04-06T07:49:43Z</time></trkpt><trkpt lat="14.427881247968791" lon="120.93312453067168"><ele>14.000000000000002</ele><time>2026-04-06T07:49:46Z</time></trkpt><trkpt lat="14.427809731436456" lon="120.93317480817552"><ele>14.0</ele><time>2026-04-06T07:49:48Z</time></trkpt><trkpt lat="14.427738152693887" lon="120.93321524867592"><ele>13.6</ele><time>2026-04-06T07:49:50Z</time></trkpt><trkpt lat="14.427665384590586" lon="120.93326185221846"><ele>13.2</ele><time>2026-04-06T07:49:52Z</time></trkpt><trkpt lat="14.427569563676158" lon="120.93332160011195"><ele>12.799999999999999</ele><time>2026-04-06T07:49:54Z</time></trkpt><trkpt lat="14.427481117850371" lon="120.93337423906547"><ele>12.399999999999999</ele><time>2026-04-06T07:49:56Z</time></trkpt><trkpt lat="14.427388038835943" lon="120.93343116546069"><ele>12.0</ele><time>2026-04-06T07:49:58Z</time></trkpt><trkpt lat="14.427334875612507" lon="120.93346672670567"><ele>11.857142857142856</ele><time>2026-04-06T07:49:59Z</time></trkpt><trkpt lat="14.427281496154036" lon="120.93350213889319"><ele>11.714285714285714</ele><time>2026-04-06T07:50:00Z</time></trkpt><trkpt lat="14.427224149464084" lon="120.93354084330979"><ele>11.571428571428571</ele><time>2026-04-06T07:50:01Z</time></trkpt><trkpt lat="14.427167884324748" lon="120.93357971775026"><ele>11.428571428571427</ele><time>2026-04-06T07:50:02Z</time></trkpt><trkpt lat="14.427106553211594" lon="120.93361307070833"><ele>11.285714285714285</ele><time>2026-04-06T07:50:03Z</time></trkpt><trkpt lat="14.427048605429283" lon="120.93364515695843"><ele>11.142857142857142</ele><time>2026-04-06T07:50:04Z</time></trkpt><trkpt lat="14.426989185596163" lon="120.93367953022813"><ele>11.0</ele><time>2026-04-06T07:50:05Z</time></trkpt><trkpt lat="14.426890509203979" lon="120.93373555117867"><ele>11.0</ele><time>2026-04-06T07:50:07Z</time></trkpt><trkpt lat="14.426831892025815" lon="120.93377432485485"><ele>11.0</ele><time>2026-04-06T07:50:08Z</time></trkpt><trkpt lat="14.426777361365046" lon="120.93380981220635"><ele>11.0</ele><time>2026-04-06T07:50:09Z</time></trkpt><trkpt lat="14.426707129897657" lon="120.93385519911395"><ele>11.0</ele><time>2026-04-06T07:50:10Z</time></trkpt><trkpt lat="14.426640914949951" lon="120.93389892320272"><ele>11.0</ele><time>2026-04-06T07:50:11Z</time></trkpt><trkpt lat="14.426560794499332" lon="120.93395061287575"><ele>11.0</ele><time>2026-04-06T07:50:12Z</time></trkpt><trkpt lat="14.426487185130714" lon="120.9339973890742"><ele>11.0</ele><time>2026-04-06T07:50:13Z</time></trkpt><trkpt lat="14.42640643307027" lon="120.93405076011302"><ele>11.0</ele><time>2026-04-06T07:50:14Z</time></trkpt><trkpt lat="14.426332882817277" lon="120.93410069811623"><ele>11.0</ele><time>2026-04-06T07:50:15Z</time></trkpt><trkpt lat="14.426262893209636" lon="120.93414729166872"><ele>11.0</ele><time>2026-04-06T07:50:16Z</time></trkpt><trkpt lat="14.426189675958064" lon="120.93419153926965"><ele>11.0</ele><time>2026-04-06T07:50:17Z</time></trkpt><trkpt lat="14.426119549497509" lon="120.93423561707961"><ele>11.0</ele><time>2026-04-06T07:50:18Z</time></trkpt><trkpt lat="14.426056579769918" lon="120.93427315273075"><ele>11.333333333333332</ele><time>2026-04-06T07:50:19Z</time></trkpt><trkpt lat="14.425997026900207" lon="120.93430653048677"><ele>11.666666666666666</ele><time>2026-04-06T07:50:20Z</time></trkpt><trkpt lat="14.425943162033674" lon="120.93434361434511"><ele>12.0</ele><time>2026-04-06T07:50:21Z</time></trkpt><trkpt lat="14.425838623179986" lon="120.93440979547992"><ele>12.333333333333332</ele><time>2026-04-06T07:50:23Z</time></trkpt><trkpt lat="14.42575069683726" lon="120.93445707232945"><ele>12.666666666666666</ele><time>2026-04-06T07:50:24.999Z</time></trkpt><trkpt lat="14.425674540227437" lon="120.93450114928633"><ele>13.0</ele><time>2026-04-06T07:50:26.999Z</time></trkpt><trkpt lat="14.425614791937866" lon="120.93453100143358"><ele>12.999999999999998</ele><time>2026-04-06T07:50:29.999Z</time></trkpt><trkpt lat="14.42554471287406" lon="120.93456166122571"><ele>13.0</ele><time>2026-04-06T07:50:32.999Z</time></trkpt><trkpt lat="14.425568508958719" lon="120.93463574476323"><ele>13.0</ele><time>2026-04-06T07:51:36Z</time></trkpt><trkpt lat="14.425601057530455" lon="120.9346983684879"><ele>13.0</ele><time>2026-04-06T07:51:38Z</time></trkpt><trkpt lat="14.425654430727855" lon="120.93476246184194"><ele>12.999999999999998</ele><time>2026-04-06T07:51:41Z</time></trkpt><trkpt lat="14.425709288220302" lon="120.93483522122918"><ele>13.0</ele><time>2026-04-06T07:51:44Z</time></trkpt><trkpt lat="14.425753715508547" lon="120.93489164403313"><ele>13.0</ele><time>2026-04-06T07:51:46Z</time></trkpt><trkpt lat="14.425804480118028" lon="120.93495155757309"><ele>13.0</ele><time>2026-04-06T07:51:48Z</time></trkpt><trkpt lat="14.425862993610103" lon="120.9350293980924"><ele>13.0</ele><time>2026-04-06T07:51:50Z</time></trkpt><trkpt lat="14.425923002387965" lon="120.9351033378798"><ele>13.0</ele><time>2026-04-06T07:51:52Z</time></trkpt><trkpt lat="14.425992145772007" lon="120.93519552968262"><ele>13.0</ele><time>2026-04-06T07:51:54Z</time></trkpt><trkpt lat="14.426065958903294" lon="120.93528751453032"><ele>13.2</ele><time>2026-04-06T07:51:56Z</time></trkpt><trkpt lat="14.426143664506597" lon="120.93538030092326"><ele>13.4</ele><time>2026-04-06T07:51:58Z</time></trkpt><trkpt lat="14.426216354484497" lon="120.93547191784255"><ele>13.599999999999998</ele><time>2026-04-06T07:52:00Z</time></trkpt><trkpt lat="14.426283704919435" lon="120.93555240805917"><ele>13.799999999999999</ele><time>2026-04-06T07:52:02Z</time></trkpt><trkpt lat="14.426351636456683" lon="120.93564051378395"><ele>14.0</ele><time>2026-04-06T07:52:04Z</time></trkpt><trkpt lat="14.426415741092866" lon="120.93572950194091"><ele>13.666666666666668</ele><time>2026-04-06T07:52:06Z</time></trkpt><trkpt lat="14.42649013977495" lon="120.93582153318643"><ele>13.333333333333334</ele><time>2026-04-06T07:52:08Z</time></trkpt><trkpt lat="14.426532215435788" lon="120.93587055333272"><ele>13.0</ele><time>2026-04-06T07:52:09Z</time></trkpt><trkpt lat="14.426579335823652" lon="120.9359232225035"><ele>12.666666666666668</ele><time>2026-04-06T07:52:10Z</time></trkpt><trkpt lat="14.426631371145794" lon="120.93598673875094"><ele>12.333333333333334</ele><time>2026-04-06T07:52:11Z</time></trkpt><trkpt lat="14.426683440624195" lon="120.93605489306513"><ele>12.0</ele><time>2026-04-06T07:52:12Z</time></trkpt><trkpt lat="14.426726442681463" lon="120.93611177842531"><ele>12.0</ele><time>2026-04-06T07:52:13Z</time></trkpt><trkpt lat="14.42677247165602" lon="120.93616940817074"><ele>12.0</ele><time>2026-04-06T07:52:14Z</time></trkpt><trkpt lat="14.426823048935004" lon="120.93622945945849"><ele>12.0</ele><time>2026-04-06T07:52:15Z</time></trkpt><trkpt lat="14.426867625374337" lon="120.93628376627638"><ele>12.0</ele><time>2026-04-06T07:52:16Z</time></trkpt><trkpt lat="14.426909471507516" lon="120.93633465603929"><ele>12.0</ele><time>2026-04-06T07:52:17Z</time></trkpt><trkpt lat="14.426952079249698" lon="120.9363857804104"><ele>12.0</ele><time>2026-04-06T07:52:18Z</time></trkpt><trkpt lat="14.427022446376682" lon="120.93647465040591"><ele>12.0</ele><time>2026-04-06T07:52:20Z</time></trkpt><trkpt lat="14.427091277666454" lon="120.9365535657696"><ele>12.0</ele><time>2026-04-06T07:52:22Z</time></trkpt><trkpt lat="14.427158413718633" lon="120.93662980524512"><ele>12.0</ele><time>2026-04-06T07:52:24Z</time></trkpt><trkpt lat="14.427235503161885" lon="120.93671194308567"><ele>12.0</ele><time>2026-04-06T07:52:26Z</time></trkpt><trkpt lat="14.427297955102329" lon="120.9367885881118"><ele>12.0</ele><time>2026-04-06T07:52:28Z</time></trkpt><trkpt lat="14.427357097830217" lon="120.93685440567697"><ele>12.0</ele><time>2026-04-06T07:52:30Z</time></trkpt><trkpt lat="14.427403005403026" lon="120.93691095545917"><ele>12.0</ele><time>2026-04-06T07:52:31.999Z</time></trkpt><trkpt lat="14.427442308406421" lon="120.93696379824453"><ele>12.0</ele><time>2026-04-06T07:52:33.999Z</time></trkpt><trkpt lat="14.427484575740879" lon="120.93701677611124"><ele>12.0</ele><time>2026-04-06T07:52:35.999Z</time></trkpt><trkpt lat="14.427543606703427" lon="120.93708018291527"><ele>12.0</ele><time>2026-04-06T07:52:37.999Z</time></trkpt><trkpt lat="14.427594773512883" lon="120.93713747810006"><ele>12.0</ele><time>2026-04-06T07:52:39.999Z</time></trkpt><trkpt lat="14.427663669345266" lon="120.93719833921821"><ele>12.0</ele><time>2026-04-06T07:52:41.999Z</time></trkpt><trkpt lat="14.427740916923646" lon="120.93721833850903"><ele>12.0</ele><time>2026-04-06T07:52:44.999Z</time></trkpt><trkpt lat="14.42779065379037" lon="120.9371721492516"><ele>12.0</ele><time>2026-04-06T07:52:46.999Z</time></trkpt><trkpt lat="14.427844849482002" lon="120.93711148260198"><ele>12.0</ele><time>2026-04-06T07:53:05Z</time></trkpt><trkpt lat="14.427896807287372" lon="120.93707346322925"><ele>12.0</ele><time>2026-04-06T07:53:06Z</time></trkpt><trkpt lat="14.428000405621146" lon="120.93700343849532"><ele>12.0</ele><time>2026-04-06T07:53:08Z</time></trkpt><trkpt lat="14.428081492919013" lon="120.93695406958206"><ele>11.666666666666666</ele><time>2026-04-06T07:53:10Z</time></trkpt><trkpt lat="14.428159111283627" lon="120.93690441992864"><ele>11.333333333333334</ele><time>2026-04-06T07:53:12Z</time></trkpt><trkpt lat="14.428257071612554" lon="120.93685076699386"><ele>11.0</ele><time>2026-04-06T07:53:14Z</time></trkpt><trkpt lat="14.4283402572259" lon="120.93680823442462"><ele>10.666666666666668</ele><time>2026-04-06T07:53:16Z</time></trkpt><trkpt lat="14.428411885101939" lon="120.93677350714435"><ele>10.333333333333334</ele><time>2026-04-06T07:53:18Z</time></trkpt><trkpt lat="14.42847064417538" lon="120.9367311377178"><ele>10.0</ele><time>2026-04-06T07:53:22Z</time></trkpt><trkpt lat="14.428533029416009" lon="120.93671994297934"><ele>10.0</ele><time>2026-04-06T07:54:30Z</time></trkpt><trkpt lat="14.42858787152856" lon="120.93668129251647"><ele>10.0</ele><time>2026-04-06T07:54:53.999Z</time></trkpt><trkpt lat="14.428679581649108" lon="120.93663516569885"><ele>10.0</ele><time>2026-04-06T07:54:55.999Z</time></trkpt><trkpt lat="14.42874790815407" lon="120.93659984782124"><ele>10.0</ele><time>2026-04-06T07:54:59.999Z</time></trkpt><trkpt lat="14.428818935836588" lon="120.93659353447804"><ele>10.0</ele><time>2026-04-06T07:55:02.999Z</time></trkpt><trkpt lat="14.428861489192544" lon="120.93665873215794"><ele>10.0</ele><time>2026-04-06T07:55:04.999Z</time></trkpt><trkpt lat="14.428882273237155" lon="120.93672041648301"><ele>10.0</ele><time>2026-04-06T07:55:05.999Z</time></trkpt><trkpt lat="14.428902389852507" lon="120.93678332104362"><ele>10.0</ele><time>2026-04-06T07:55:06.999Z</time></trkpt><trkpt lat="14.428950183401454" lon="120.93689284598061"><ele>10.0</ele><time>2026-04-06T07:55:08.999Z</time></trkpt><trkpt lat="14.428995296234818" lon="120.93698553800792"><ele>10.0</ele><time>2026-04-06T07:55:10.999Z</time></trkpt><trkpt lat="14.429037757170738" lon="120.9370570568261"><ele>10.0</ele><time>2026-04-06T07:55:12.999Z</time></trkpt><trkpt lat="14.429071879122505" lon="120.93712570415694"><ele>10.0</ele><time>2026-04-06T07:55:16.999Z</time></trkpt><trkpt lat="14.42904049219593" lon="120.93718516010321"><ele>10.0</ele><time>2026-04-06T07:55:32.999Z</time></trkpt><trkpt lat="14.429092364044575" lon="120.93714282563391"><ele>10.0</ele><time>2026-04-06T07:56:55.999Z</time></trkpt><trkpt lat="14.429103800236309" lon="120.9370763351963"><ele>10.0</ele><time>2026-04-06T07:57:03.999Z</time></trkpt><trkpt lat="14.429148838797527" lon="120.937022740238"><ele>10.0</ele><time>2026-04-06T07:57:09.999Z</time></trkpt><trkpt lat="14.429151305381783" lon="120.93694372256883"><ele>10.0</ele><time>2026-04-06T07:58:04Z</time></trkpt><trkpt lat="14.429196598423893" lon="120.9370414482055"><ele>10.0</ele><time>2026-04-06T07:58:37Z</time></trkpt><trkpt lat="14.429227274441624" lon="120.93710733162744"><ele>10.0</ele><time>2026-04-06T07:58:42.001Z</time></trkpt><trkpt lat="14.429155245172737" lon="120.93709555634209"><ele>10.0</ele><time>2026-04-06T07:58:44.001Z</time></trkpt><trkpt lat="14.429252308959477" lon="120.9371942006496"><ele>10.0</ele><time>2026-04-06T07:58:46.001Z</time></trkpt><trkpt lat="14.429281722715182" lon="120.93706493569863"><ele>10.0</ele><time>2026-04-06T07:59:24.043Z</time></trkpt><trkpt lat="14.429266587337725" lon="120.93712987171928"><ele>10.0</ele><time>2026-04-06T07:59:26.036Z</time></trkpt><trkpt lat="14.4292936844145" lon="120.93719151119355"><ele>10.0</ele><time>2026-04-06T07:59:29.036Z</time></trkpt><trkpt lat="14.42941937190021" lon="120.93723345034552"><ele>10.0</ele><time>2026-04-06T07:59:30.035Z</time></trkpt><trkpt lat="14.429654608832314" lon="120.93713520657164"><ele>10.0</ele><time>2026-04-06T07:59:32.033Z</time></trkpt><trkpt lat="14.429822233449725" lon="120.93713701589907"><ele>10.0</ele><time>2026-04-06T07:59:48.026Z</time></trkpt><trkpt lat="14.429879543230774" lon="120.93733419941213"><ele>10.0</ele><time>2026-04-06T07:59:49.026Z</time></trkpt><trkpt lat="14.429937138960655" lon="120.93754861757597"><ele>10.0</ele><time>2026-04-06T07:59:50.024Z</time></trkpt><trkpt lat="14.429868775531972" lon="120.93763546277093"><ele>10.0</ele><time>2026-04-06T07:59:59.021Z</time></trkpt><trkpt lat="14.429824513040982" lon="120.9375384067612"><ele>10.0</ele><time>2026-04-06T08:00:03.015Z</time></trkpt><trkpt lat="14.429800651358919" lon="120.93746980433124"><ele>10.0</ele><time>2026-04-06T08:00:09.013Z</time></trkpt><trkpt lat="14.429424673407624" lon="120.93752340881528"><ele>10.0</ele><time>2026-04-06T08:00:11.013Z</time></trkpt><trkpt lat="14.42935208824503" lon="120.93747188828924"><ele>10.0</ele><time>2026-04-06T08:00:12.014Z</time></trkpt><trkpt lat="14.429224248725555" lon="120.937253439586"><ele>10.0</ele><time>2026-04-06T08:00:14.013Z</time></trkpt><trkpt lat="14.429163486577842" lon="120.93709105442403"><ele>10.0</ele><time>2026-04-06T08:00:16.012Z</time></trkpt><trkpt lat="14.42912174692045" lon="120.93700528461656"><ele>10.0</ele><time>2026-04-06T08:00:18.021Z</time></trkpt><trkpt lat="14.429105156826925" lon="120.93712925758473"><ele>10.0</ele><time>2026-04-06T08:00:25.013Z</time></trkpt><trkpt lat="14.429104796088302" lon="120.93697265612329"><ele>10.0</ele><time>2026-04-06T08:02:05.015Z</time></trkpt><trkpt lat="14.429176535828752" lon="120.93719166414552"><ele>10.0</ele><time>2026-04-06T08:05:36.999Z</time></trkpt><trkpt lat="14.429163063698505" lon="120.93709694792048"><ele>10.0</ele><time>2026-04-06T08:13:53.002Z</time></trkpt><trkpt lat="14.429101684879482" lon="120.9370582511679"><ele>10.0</ele><time>2026-04-06T08:39:56.001Z</time></trkpt><trkpt lat="14.429147396021516" lon="120.93695093339872"><ele>10.0</ele><time>2026-04-06T08:40:09.001Z</time></trkpt><trkpt lat="14.429184790479404" lon="120.93689611235055"><ele>10.0</ele><time>2026-04-06T08:40:26.001Z</time></trkpt><trkpt lat="14.429194636579721" lon="120.93682874389862"><ele>10.0</ele><time>2026-04-06T08:40:41.001Z</time></trkpt><trkpt lat="14.429152876451834" lon="120.93677653612976"><ele>10.142857142857142</ele><time>2026-04-06T08:40:49.001Z</time></trkpt><trkpt lat="14.429109889022474" lon="120.93668502693126"><ele>10.285714285714286</ele><time>2026-04-06T08:41:11Z</time></trkpt><trkpt lat="14.429074866644129" lon="120.93662193277191"><ele>10.428571428571429</ele><time>2026-04-06T08:41:30Z</time></trkpt><trkpt lat="14.429042184422103" lon="120.93655974508862"><ele>10.571428571428571</ele><time>2026-04-06T08:41:37Z</time></trkpt><trkpt lat="14.428994533339461" lon="120.93651468692225"><ele>10.714285714285714</ele><time>2026-04-06T08:41:45Z</time></trkpt><trkpt lat="14.428926597232397" lon="120.93650479514157"><ele>10.857142857142858</ele><time>2026-04-06T08:41:52Z</time></trkpt><trkpt lat="14.428865279260934" lon="120.93648461930343"><ele>11.0</ele><time>2026-04-06T08:42:00.001Z</time></trkpt><trkpt lat="14.428874292677444" lon="120.93641762467826"><ele>11.0</ele><time>2026-04-06T08:42:43.001Z</time></trkpt><trkpt lat="14.428838471813698" lon="120.93636175900438"><ele>11.0</ele><time>2026-04-06T08:42:51.001Z</time></trkpt><trkpt lat="14.428892131280268" lon="120.93632769224801"><ele>11.0</ele><time>2026-04-06T08:43:10.001Z</time></trkpt><trkpt lat="14.42891058667351" lon="120.93625285987964"><ele>11.0</ele><time>2026-04-06T08:43:20Z</time></trkpt><trkpt lat="14.428893133874924" lon="120.93617716481228"><ele>11.0</ele><time>2026-04-06T08:43:35Z</time></trkpt><trkpt lat="14.42895312432302" lon="120.9361538387933"><ele>11.0</ele><time>2026-04-06T08:43:58Z</time></trkpt><trkpt lat="14.429019027155611" lon="120.93613812680533"><ele>11.0</ele><time>2026-04-06T08:44:05.001Z</time></trkpt><trkpt lat="14.429086364186455" lon="120.9361156265719"><ele>11.0</ele><time>2026-04-06T08:44:13.001Z</time></trkpt><trkpt lat="14.429146947950274" lon="120.93608277681226"><ele>11.0</ele><time>2026-04-06T08:44:19.001Z</time></trkpt><trkpt lat="14.429210802927313" lon="120.93609655637368"><ele>11.0</ele><time>2026-04-06T08:44:25.001Z</time></trkpt><trkpt lat="14.429270225107693" lon="120.93612041646209"><ele>11.0</ele><time>2026-04-06T08:44:31.001Z</time></trkpt><trkpt lat="14.429339424606532" lon="120.9360865016999"><ele>11.0</ele><time>2026-04-06T08:44:39.001Z</time></trkpt><trkpt lat="14.429404785192013" lon="120.93609104960657"><ele>11.0</ele><time>2026-04-06T08:44:45.001Z</time></trkpt><trkpt lat="14.429471201508004" lon="120.93608089288013"><ele>11.0</ele><time>2026-04-06T08:45:02.001Z</time></trkpt><trkpt lat="14.42939883622212" lon="120.93606460409092"><ele>11.0</ele><time>2026-04-06T08:45:10.001Z</time></trkpt><trkpt lat="14.429325375094624" lon="120.93603852622358"><ele>11.0</ele><time>2026-04-06T08:45:13.001Z</time></trkpt><trkpt lat="14.42925932174859" lon="120.93599760677274"><ele>11.0</ele><time>2026-04-06T08:45:17.001Z</time></trkpt><trkpt lat="14.42918871467437" lon="120.9359401637118"><ele>11.0</ele><time>2026-04-06T08:45:21.001Z</time></trkpt><trkpt lat="14.429130896787516" lon="120.93589996772712"><ele>11.0</ele><time>2026-04-06T08:45:25.094Z</time></trkpt><trkpt lat="14.429125035380856" lon="120.93598944456785"><ele>11.0</ele><time>2026-04-06T08:45:27.088Z</time></trkpt><trkpt lat="14.429295428186853" lon="120.9361137832487"><ele>11.0</ele><time>2026-04-06T08:45:30Z</time></trkpt><trkpt lat="14.429364128319527" lon="120.93618327071137"><ele>11.0</ele><time>2026-04-06T08:45:34Z</time></trkpt><trkpt lat="14.429501232838811" lon="120.93618359483409"><ele>11.0</ele><time>2026-04-06T08:45:44Z</time></trkpt><trkpt lat="14.429477406186251" lon="120.93610574898074"><ele>11.0</ele><time>2026-04-06T08:45:53Z</time></trkpt><trkpt lat="14.42951182320879" lon="120.93616770647284"><ele>11.0</ele><time>2026-04-06T08:46:01Z</time></trkpt><trkpt lat="14.429497626372955" lon="120.93623163228175"><ele>11.0</ele><time>2026-04-06T08:46:08Z</time></trkpt><trkpt lat="14.429486552400775" lon="120.93630587086763"><ele>11.0</ele><time>2026-04-06T08:46:15Z</time></trkpt><trkpt lat="14.429483310276579" lon="120.93637642479202"><ele>11.0</ele><time>2026-04-06T08:46:39Z</time></trkpt><trkpt lat="14.429431424610451" lon="120.93632720032849"><ele>11.0</ele><time>2026-04-06T08:46:55.001Z</time></trkpt><trkpt lat="14.42936352114084" lon="120.93632799886784"><ele>11.0</ele><time>2026-04-06T08:47:46.999Z</time></trkpt><trkpt lat="14.429266295186537" lon="120.93625139556283"><ele>11.0</ele><time>2026-04-06T08:48:01.999Z</time></trkpt><trkpt lat="14.429222406468233" lon="120.93619472668588"><ele>11.0</ele><time>2026-04-06T08:48:11Z</time></trkpt><trkpt lat="14.42917357035015" lon="120.93614535108404"><ele>11.0</ele><time>2026-04-06T08:48:20Z</time></trkpt><trkpt lat="14.429114951544134" lon="120.93617264625232"><ele>11.0</ele><time>2026-04-06T08:48:32Z</time></trkpt><trkpt lat="14.429115221723052" lon="120.93624576552673"><ele>11.0</ele><time>2026-04-06T08:48:43Z</time></trkpt><trkpt lat="14.429144068489745" lon="120.93630807395829"><ele>11.0</ele><time>2026-04-06T08:48:50Z</time></trkpt><trkpt lat="14.429168800906382" lon="120.93637588017128"><ele>11.0</ele><time>2026-04-06T08:48:57Z</time></trkpt><trkpt lat="14.429205905008958" lon="120.9364337863908"><ele>11.0</ele><time>2026-04-06T08:49:04Z</time></trkpt><trkpt lat="14.429236382461456" lon="120.9364982440876"><ele>11.0</ele><time>2026-04-06T08:49:12Z</time></trkpt><trkpt lat="14.429256348544914" lon="120.93655994880056"><ele>11.0</ele><time>2026-04-06T08:49:18Z</time></trkpt><trkpt lat="14.42928941950475" lon="120.93661659125874"><ele>11.0</ele><time>2026-04-06T08:49:24Z</time></trkpt><trkpt lat="14.429314376524905" lon="120.93668311881176"><ele>11.0</ele><time>2026-04-06T08:49:31.001Z</time></trkpt><trkpt lat="14.429301137549146" lon="120.93675071059195"><ele>11.0</ele><time>2026-04-06T08:49:37.998Z</time></trkpt><trkpt lat="14.429246300857796" lon="120.93679825887239"><ele>11.0</ele><time>2026-04-06T08:49:48.999Z</time></trkpt><trkpt lat="14.429218538478619" lon="120.93686016509928"><ele>11.0</ele><time>2026-04-06T08:49:54.999Z</time></trkpt><trkpt lat="14.42921391469975" lon="120.93694280486613"><ele>11.0</ele><time>2026-04-06T08:50:09Z</time></trkpt><trkpt lat="14.429171057248217" lon="120.93699553845818"><ele>10.857142857142858</ele><time>2026-04-06T08:50:17Z</time></trkpt><trkpt lat="14.429139970905414" lon="120.93706825938504"><ele>10.714285714285714</ele><time>2026-04-06T08:50:26Z</time></trkpt><trkpt lat="14.42911716423955" lon="120.93713781801242"><ele>10.571428571428571</ele><time>2026-04-06T08:50:37Z</time></trkpt><trkpt lat="14.429053377918045" lon="120.93719578919234"><ele>10.428571428571429</ele><time>2026-04-06T08:53:06.001Z</time></trkpt><trkpt lat="14.42908492944118" lon="120.93713916489033"><ele>10.285714285714286</ele><time>2026-04-06T08:53:15.001Z</time></trkpt><trkpt lat="14.429074580892149" lon="120.93707139005491"><ele>10.142857142857142</ele><time>2026-04-06T08:53:19.001Z</time></trkpt><trkpt lat="14.429141980602612" lon="120.93702775930113"><ele>10.0</ele><time>2026-04-06T08:53:21.001Z</time></trkpt><trkpt lat="14.42922027563627" lon="120.9369912874188"><ele>10.0</ele><time>2026-04-06T08:53:23.001Z</time></trkpt><trkpt lat="14.429298031661478" lon="120.9369651419692"><ele>10.0</ele><time>2026-04-06T08:53:25.001Z</time></trkpt><trkpt lat="14.429355795087636" lon="120.93700571348441"><ele>10.0</ele><time>2026-04-06T08:53:28.001Z</time></trkpt><trkpt lat="14.429365188917336" lon="120.93707094261478"><ele>10.0</ele><time>2026-04-06T08:53:30.002Z</time></trkpt><trkpt lat="14.429433653646141" lon="120.93712534652681"><ele>10.0</ele><time>2026-04-06T08:53:38.002Z</time></trkpt><trkpt lat="14.429472354059078" lon="120.93720651866384"><ele>10.0</ele><time>2026-04-06T08:53:39.002Z</time></trkpt><trkpt lat="14.429506535967777" lon="120.9372818299794"><ele>10.0</ele><time>2026-04-06T08:53:40.002Z</time></trkpt><trkpt lat="14.429541413386161" lon="120.93735983413352"><ele>10.0</ele><time>2026-04-06T08:53:41.002Z</time></trkpt><trkpt lat="14.429572748537778" lon="120.9374293481318"><ele>10.0</ele><time>2026-04-06T08:53:42.002Z</time></trkpt><trkpt lat="14.429615505672" lon="120.93751941092394"><ele>10.0</ele><time>2026-04-06T08:53:44.002Z</time></trkpt><trkpt lat="14.429628275117611" lon="120.93760037048318"><ele>10.0</ele><time>2026-04-06T08:53:48.001Z</time></trkpt><trkpt lat="14.429568317278244" lon="120.93763761198923"><ele>10.0</ele><time>2026-04-06T08:53:51.001Z</time></trkpt><trkpt lat="14.42950892235035" lon="120.9376737197902"><ele>10.0</ele><time>2026-04-06T08:53:53.001Z</time></trkpt><trkpt lat="14.429436716138103" lon="120.93771826976533"><ele>10.0</ele><time>2026-04-06T08:53:55.001Z</time></trkpt><trkpt lat="14.429378908685486" lon="120.93775100483205"><ele>10.0</ele><time>2026-04-06T08:53:57.001Z</time></trkpt><trkpt lat="14.429325764867404" lon="120.93779130785897"><ele>10.0</ele><time>2026-04-06T08:54:00.001Z</time></trkpt><trkpt lat="14.429268960163576" lon="120.93782784049378"><ele>10.0</ele><time>2026-04-06T08:54:03.001Z</time></trkpt><trkpt lat="14.429206321205305" lon="120.93786789596396"><ele>10.0</ele><time>2026-04-06T08:54:07.001Z</time></trkpt><trkpt lat="14.429135223914344" lon="120.93790653255974"><ele>10.0</ele><time>2026-04-06T08:54:18.001Z</time></trkpt><trkpt lat="14.42907503147293" lon="120.93793700534617"><ele>10.0</ele><time>2026-04-06T08:54:21.001Z</time></trkpt><trkpt lat="14.428992920683253" lon="120.93798112516268"><ele>10.0</ele><time>2026-04-06T08:54:24.001Z</time></trkpt><trkpt lat="14.428910644123217" lon="120.93804315948404"><ele>10.0</ele><time>2026-04-06T08:54:26.001Z</time></trkpt><trkpt lat="14.428848908878853" lon="120.93807230216895"><ele>10.0</ele><time>2026-04-06T08:54:29.001Z</time></trkpt><trkpt lat="14.428766530400573" lon="120.9381253768308"><ele>10.0</ele><time>2026-04-06T08:54:32.001Z</time></trkpt><trkpt lat="14.428693866905231" lon="120.93818201511618"><ele>10.166666666666668</ele><time>2026-04-06T08:54:34.001Z</time></trkpt><trkpt lat="14.42863539348861" lon="120.93821130040268"><ele>10.333333333333334</ele><time>2026-04-06T08:54:36.001Z</time></trkpt><trkpt lat="14.428566244439937" lon="120.93825028130529"><ele>10.5</ele><time>2026-04-06T08:54:38.001Z</time></trkpt><trkpt lat="14.428537774633787" lon="120.93832382962796"><ele>10.666666666666666</ele><time>2026-04-06T08:54:44.001Z</time></trkpt><trkpt lat="14.428599607426746" lon="120.93840230066947"><ele>10.833333333333332</ele><time>2026-04-06T08:54:46.001Z</time></trkpt><trkpt lat="14.428655483620892" lon="120.9384625876561"><ele>11.0</ele><time>2026-04-06T08:54:48.001Z</time></trkpt><trkpt lat="14.428693937655463" lon="120.9385181000186"><ele>11.0</ele><time>2026-04-06T08:54:51.001Z</time></trkpt><trkpt lat="14.428741878138123" lon="120.93857036397462"><ele>11.0</ele><time>2026-04-06T08:54:54.001Z</time></trkpt><trkpt lat="14.428805713408565" lon="120.9386423240814"><ele>11.0</ele><time>2026-04-06T08:54:57.001Z</time></trkpt><trkpt lat="14.428860439748613" lon="120.9386972243425"><ele>11.0</ele><time>2026-04-06T08:55:00.001Z</time></trkpt><trkpt lat="14.428921512300628" lon="120.93875098483008"><ele>11.0</ele><time>2026-04-06T08:55:03.001Z</time></trkpt><trkpt lat="14.428958605516682" lon="120.93882959014715"><ele>11.0</ele><time>2026-04-06T08:55:06.001Z</time></trkpt><trkpt lat="14.42900638763189" lon="120.93889508037134"><ele>11.0</ele><time>2026-04-06T08:55:09.001Z</time></trkpt><trkpt lat="14.42904992514195" lon="120.93895829146899"><ele>11.0</ele><time>2026-04-06T08:55:12.001Z</time></trkpt><trkpt lat="14.429093802239208" lon="120.93900800830222"><ele>11.0</ele><time>2026-04-06T08:55:14.001Z</time></trkpt><trkpt lat="14.429144211992098" lon="120.9390649391564"><ele>11.0</ele><time>2026-04-06T08:55:16.002Z</time></trkpt><trkpt lat="14.429204197365037" lon="120.93913838929359"><ele>11.0</ele><time>2026-04-06T08:55:19.002Z</time></trkpt><trkpt lat="14.429259288821065" lon="120.93920910559117"><ele>11.0</ele><time>2026-04-06T08:55:22.002Z</time></trkpt><trkpt lat="14.429300236582193" lon="120.93925922137552"><ele>11.200000000000001</ele><time>2026-04-06T08:55:24.002Z</time></trkpt><trkpt lat="14.429344689576997" lon="120.93932673994085"><ele>11.4</ele><time>2026-04-06T08:55:26.002Z</time></trkpt><trkpt lat="14.429409934145452" lon="120.93941025350351"><ele>11.6</ele><time>2026-04-06T08:55:28.002Z</time></trkpt><trkpt lat="14.429484853242927" lon="120.93950396344395"><ele>11.8</ele><time>2026-04-06T08:55:30.002Z</time></trkpt><trkpt lat="14.42955172507624" lon="120.93959079634223"><ele>12.0</ele><time>2026-04-06T08:55:32.002Z</time></trkpt><trkpt lat="14.429618739558508" lon="120.93967436241132"><ele>11.833333333333334</ele><time>2026-04-06T08:55:34.002Z</time></trkpt><trkpt lat="14.429685057795279" lon="120.93975857856938"><ele>11.666666666666666</ele><time>2026-04-06T08:55:36.002Z</time></trkpt><trkpt lat="14.429729575485117" lon="120.93982807734658"><ele>11.5</ele><time>2026-04-06T08:55:38.002Z</time></trkpt><trkpt lat="14.429782393217414" lon="120.93989692113989"><ele>11.333333333333332</ele><time>2026-04-06T08:55:41.002Z</time></trkpt><trkpt lat="14.429810924757353" lon="120.93995506618654"><ele>11.166666666666666</ele><time>2026-04-06T08:55:43.002Z</time></trkpt><trkpt lat="14.429834354387744" lon="120.94001778050009"><ele>11.0</ele><time>2026-04-06T08:55:45.002Z</time></trkpt><trkpt lat="14.429857831648247" lon="120.94007911965608"><ele>10.857142857142858</ele><time>2026-04-06T08:55:47.002Z</time></trkpt><trkpt lat="14.429891477821318" lon="120.94015007995519"><ele>10.714285714285714</ele><time>2026-04-06T08:55:50.002Z</time></trkpt><trkpt lat="14.429927601407927" lon="120.9402219437531"><ele>10.571428571428571</ele><time>2026-04-06T08:55:53.001Z</time></trkpt><trkpt lat="14.429978345247298" lon="120.94026988951283"><ele>10.428571428571429</ele><time>2026-04-06T08:55:58.001Z</time></trkpt><trkpt lat="14.430049186622487" lon="120.94027141563419"><ele>10.285714285714286</ele><time>2026-04-06T08:56:17.001Z</time></trkpt><trkpt lat="14.430116601926812" lon="120.94027685728892"><ele>10.142857142857142</ele><time>2026-04-06T08:56:20.001Z</time></trkpt><trkpt lat="14.430180670000198" lon="120.94028008314919"><ele>10.0</ele><time>2026-04-06T08:56:23.001Z</time></trkpt><trkpt lat="14.430243594897311" lon="120.94028224655192"><ele>10.0</ele><time>2026-04-06T08:56:26.001Z</time></trkpt><trkpt lat="14.430322050240598" lon="120.94029121413847"><ele>10.0</ele><time>2026-04-06T08:56:29.001Z</time></trkpt><trkpt lat="14.430389587342862" lon="120.94031270409313"><ele>10.0</ele><time>2026-04-06T08:56:32.001Z</time></trkpt><trkpt lat="14.430318262466013" lon="120.94031168650868"><ele>10.0</ele><time>2026-04-06T08:57:13.001Z</time></trkpt><trkpt lat="14.430279742237584" lon="120.94025889387582"><ele>10.0</ele><time>2026-04-06T08:57:17.001Z</time></trkpt><trkpt lat="14.430216701012608" lon="120.94023486523714"><ele>10.0</ele><time>2026-04-06T08:57:23.002Z</time></trkpt><trkpt lat="14.430285980646008" lon="120.9402334932571"><ele>10.0</ele><time>2026-04-06T09:01:28.001Z</time></trkpt><trkpt lat="14.430351564970866" lon="120.94023699640748"><ele>10.0</ele><time>2026-04-06T09:01:34.001Z</time></trkpt><trkpt lat="14.43043816806733" lon="120.94029523895105"><ele>10.0</ele><time>2026-04-06T09:03:40.001Z</time></trkpt><trkpt lat="14.43052239498703" lon="120.94026688272814"><ele>10.0</ele><time>2026-04-06T09:03:47.001Z</time></trkpt><trkpt lat="14.430639330276506" lon="120.94028701547695"><ele>10.0</ele><time>2026-04-06T09:03:49.001Z</time></trkpt><trkpt lat="14.430734946830523" lon="120.94030027036035"><ele>10.0</ele><time>2026-04-06T09:03:51.001Z</time></trkpt><trkpt lat="14.430831769432823" lon="120.94029794356122"><ele>10.2</ele><time>2026-04-06T09:03:53.001Z</time></trkpt><trkpt lat="14.430936076342794" lon="120.94027585842977"><ele>10.4</ele><time>2026-04-06T09:03:55.001Z</time></trkpt><trkpt lat="14.430998977182282" lon="120.9402592564831"><ele>10.600000000000001</ele><time>2026-04-06T09:03:56.001Z</time></trkpt><trkpt lat="14.431064633549331" lon="120.94024139967529"><ele>10.8</ele><time>2026-04-06T09:03:57.002Z</time></trkpt><trkpt lat="14.431186244778358" lon="120.94020778060408"><ele>11.0</ele><time>2026-04-06T09:03:59.002Z</time></trkpt><trkpt lat="14.431315941256573" lon="120.94016712554749"><ele>11.0</ele><time>2026-04-06T09:04:01.002Z</time></trkpt><trkpt lat="14.431378536375783" lon="120.94014883414067"><ele>11.0</ele><time>2026-04-06T09:04:02.002Z</time></trkpt><trkpt lat="14.431440601274993" lon="120.94013183843357"><ele>11.0</ele><time>2026-04-06T09:04:03.002Z</time></trkpt><trkpt lat="14.43150552260725" lon="120.94011513376587"><ele>11.0</ele><time>2026-04-06T09:04:04.002Z</time></trkpt><trkpt lat="14.431565959466683" lon="120.94009500298351"><ele>11.0</ele><time>2026-04-06T09:04:05.002Z</time></trkpt><trkpt lat="14.431653000776068" lon="120.94005500358715"><ele>11.0</ele><time>2026-04-06T09:04:07.002Z</time></trkpt><trkpt lat="14.431720137499813" lon="120.94005320127549"><ele>11.0</ele><time>2026-04-06T09:04:09.002Z</time></trkpt><trkpt lat="14.431751165237579" lon="120.94011851516161"><ele>11.0</ele><time>2026-04-06T09:04:11.002Z</time></trkpt><trkpt lat="14.431775246792066" lon="120.94022182024729"><ele>11.0</ele><time>2026-04-06T09:04:13.002Z</time></trkpt><trkpt lat="14.431798206072571" lon="120.94028615789546"><ele>11.0</ele><time>2026-04-06T09:04:14.002Z</time></trkpt><trkpt lat="14.431832297868159" lon="120.94040913382749"><ele>11.0</ele><time>2026-04-06T09:04:16.001Z</time></trkpt><trkpt lat="14.431873482690225" lon="120.94053776021063"><ele>11.0</ele><time>2026-04-06T09:04:18.001Z</time></trkpt><trkpt lat="14.431914950496067" lon="120.94067697289418"><ele>11.0</ele><time>2026-04-06T09:04:20Z</time></trkpt><trkpt lat="14.43192910899926" lon="120.9407429151713"><ele>11.0</ele><time>2026-04-06T09:04:21Z</time></trkpt><trkpt lat="14.43195418086075" lon="120.94081795872705"><ele>11.0</ele><time>2026-04-06T09:04:22Z</time></trkpt><trkpt lat="14.43197446836929" lon="120.94088388675398"><ele>11.0</ele><time>2026-04-06T09:04:23Z</time></trkpt><trkpt lat="14.431997900966149" lon="120.94098193782595"><ele>11.0</ele><time>2026-04-06T09:04:25Z</time></trkpt><trkpt lat="14.432021163699817" lon="120.9410658661941"><ele>11.0</ele><time>2026-04-06T09:04:27Z</time></trkpt><trkpt lat="14.432041352266154" lon="120.94112860820576"><ele>11.0</ele><time>2026-04-06T09:04:29Z</time></trkpt><trkpt lat="14.432074817940268" lon="120.94122922249629"><ele>11.0</ele><time>2026-04-06T09:04:33Z</time></trkpt><trkpt lat="14.432105136569668" lon="120.94135030240959"><ele>11.0</ele><time>2026-04-06T09:04:35Z</time></trkpt><trkpt lat="14.432139090060883" lon="120.941476611876"><ele>11.0</ele><time>2026-04-06T09:04:37Z</time></trkpt><trkpt lat="14.432156622425257" lon="120.9415430912574"><ele>11.0</ele><time>2026-04-06T09:04:38Z</time></trkpt><trkpt lat="14.43217560990466" lon="120.94160963406435"><ele>11.166666666666666</ele><time>2026-04-06T09:04:39Z</time></trkpt><trkpt lat="14.432203682178509" lon="120.94172594011508"><ele>11.333333333333332</ele><time>2026-04-06T09:04:41Z</time></trkpt><trkpt lat="14.432219739524758" lon="120.94178918314482"><ele>11.5</ele><time>2026-04-06T09:04:42Z</time></trkpt><trkpt lat="14.432250097641099" lon="120.94190718544554"><ele>11.666666666666666</ele><time>2026-04-06T09:04:44Z</time></trkpt><trkpt lat="14.432264922860725" lon="120.9419713449145"><ele>11.833333333333334</ele><time>2026-04-06T09:04:47.001Z</time></trkpt><trkpt lat="14.432289765027328" lon="120.94204369020484"><ele>12.0</ele><time>2026-04-06T09:04:51.001Z</time></trkpt><trkpt lat="14.43230020714171" lon="120.9421100905418"><ele>12.0</ele><time>2026-04-06T09:04:53.001Z</time></trkpt><trkpt lat="14.432327121900256" lon="120.94222043358903"><ele>12.0</ele><time>2026-04-06T09:04:55.001Z</time></trkpt><trkpt lat="14.43235593257916" lon="120.94231143128684"><ele>12.0</ele><time>2026-04-06T09:04:57.001Z</time></trkpt><trkpt lat="14.432377285677395" lon="120.94240558014349"><ele>12.0</ele><time>2026-04-06T09:05:00.001Z</time></trkpt><trkpt lat="14.432396461982966" lon="120.94247754686648"><ele>12.0</ele><time>2026-04-06T09:05:02.001Z</time></trkpt><trkpt lat="14.432411313960294" lon="120.94257189440724"><ele>12.0</ele><time>2026-04-06T09:05:04.001Z</time></trkpt><trkpt lat="14.432424737220249" lon="120.94266399029048"><ele>12.0</ele><time>2026-04-06T09:05:06.001Z</time></trkpt><trkpt lat="14.432433008235083" lon="120.94273881311041"><ele>12.0</ele><time>2026-04-06T09:05:08.001Z</time></trkpt><trkpt lat="14.432434434814596" lon="120.94280427742184"><ele>12.0</ele><time>2026-04-06T09:05:10.001Z</time></trkpt><trkpt lat="14.432445817764801" lon="120.94287386160791"><ele>12.0</ele><time>2026-04-06T09:05:12.001Z</time></trkpt><trkpt lat="14.432463199118205" lon="120.94296042008258"><ele>12.0</ele><time>2026-04-06T09:05:14.001Z</time></trkpt><trkpt lat="14.432465206012212" lon="120.94303459031374"><ele>12.0</ele><time>2026-04-06T09:05:16.001Z</time></trkpt><trkpt lat="14.432458424761133" lon="120.94311209948411"><ele>12.0</ele><time>2026-04-06T09:05:19.001Z</time></trkpt><trkpt lat="14.432402926107962" lon="120.94316138797475"><ele>12.0</ele><time>2026-04-06T09:05:23.001Z</time></trkpt><trkpt lat="14.432341983590963" lon="120.9431790382993"><ele>12.0</ele><time>2026-04-06T09:05:27.001Z</time></trkpt><trkpt lat="14.432340354631897" lon="120.94326096216436"><ele>12.0</ele><time>2026-04-06T09:05:31.001Z</time></trkpt><trkpt lat="14.43236335586708" lon="120.94334663809813"><ele>12.0</ele><time>2026-04-06T09:05:34.001Z</time></trkpt><trkpt lat="14.432391998952893" lon="120.94346240860745"><ele>11.999999999999998</ele><time>2026-04-06T09:05:36.001Z</time></trkpt><trkpt lat="14.432404294637621" lon="120.94353419400568"><ele>12.0</ele><time>2026-04-06T09:05:38.001Z</time></trkpt><trkpt lat="14.432419809554736" lon="120.94363224278652"><ele>12.0</ele><time>2026-04-06T09:05:42.001Z</time></trkpt><trkpt lat="14.432425878272147" lon="120.94369734370919"><ele>12.0</ele><time>2026-04-06T09:05:43.001Z</time></trkpt><trkpt lat="14.432439351498788" lon="120.94376627705292"><ele>12.0</ele><time>2026-04-06T09:05:44.001Z</time></trkpt><trkpt lat="14.432442035628213" lon="120.9438397974585"><ele>11.999999999999998</ele><time>2026-04-06T09:05:45.001Z</time></trkpt><trkpt lat="14.432448689018617" lon="120.94390462766842"><ele>12.0</ele><time>2026-04-06T09:05:46.001Z</time></trkpt><trkpt lat="14.432468273463487" lon="120.94398946392815"><ele>12.0</ele><time>2026-04-06T09:05:48.001Z</time></trkpt><trkpt lat="14.432486398720213" lon="120.94408489842614"><ele>12.0</ele><time>2026-04-06T09:05:53.001Z</time></trkpt><trkpt lat="14.432509531557287" lon="120.94420658640014"><ele>12.0</ele><time>2026-04-06T09:05:55.001Z</time></trkpt><trkpt lat="14.432524478439708" lon="120.94430243319391"><ele>12.0</ele><time>2026-04-06T09:05:57.001Z</time></trkpt><trkpt lat="14.432532613255274" lon="120.94438381531737"><ele>12.0</ele><time>2026-04-06T09:05:59.001Z</time></trkpt><trkpt lat="14.432554527487417" lon="120.94447763929033"><ele>12.0</ele><time>2026-04-06T09:06:01.001Z</time></trkpt><trkpt lat="14.432572891473178" lon="120.9445403410697"><ele>12.0</ele><time>2026-04-06T09:06:06.001Z</time></trkpt><trkpt lat="14.432676272313422" lon="120.94457732021452"><ele>12.0</ele><time>2026-04-06T09:06:10.001Z</time></trkpt><trkpt lat="14.432749717736918" lon="120.94454434078133"><ele>12.0</ele><time>2026-04-06T09:06:11.001Z</time></trkpt><trkpt lat="14.43283342991515" lon="120.94452676864304"><ele>12.0</ele><time>2026-04-06T09:06:13.001Z</time></trkpt><trkpt lat="14.432903545941002" lon="120.94455853912592"><ele>12.0</ele><time>2026-04-06T09:06:15.001Z</time></trkpt><trkpt lat="14.432917336440685" lon="120.94465268109035"><ele>12.0</ele><time>2026-04-06T09:06:17.001Z</time></trkpt><trkpt lat="14.432926593435084" lon="120.9447404722604"><ele>12.0</ele><time>2026-04-06T09:06:19.002Z</time></trkpt><trkpt lat="14.432945874168972" lon="120.94483910974907"><ele>12.0</ele><time>2026-04-06T09:06:22Z</time></trkpt><trkpt lat="14.432975822647018" lon="120.94493696121022"><ele>12.0</ele><time>2026-04-06T09:06:24Z</time></trkpt><trkpt lat="14.43299134991978" lon="120.94503790718346"><ele>12.0</ele><time>2026-04-06T09:06:28Z</time></trkpt><trkpt lat="14.433002412429879" lon="120.94513276490473"><ele>11.5</ele><time>2026-04-06T09:06:32Z</time></trkpt><trkpt lat="14.433014128998735" lon="120.94521427718533"><ele>11.0</ele><time>2026-04-06T09:06:34Z</time></trkpt><trkpt lat="14.433044278064067" lon="120.94528507357988"><ele>10.5</ele><time>2026-04-06T09:06:36Z</time></trkpt><trkpt lat="14.43305145378356" lon="120.94536120050623"><ele>10.0</ele><time>2026-04-06T09:06:40Z</time></trkpt><trkpt lat="14.433068243173166" lon="120.94544842990607"><ele>9.5</ele><time>2026-04-06T09:06:42Z</time></trkpt><trkpt lat="14.43306896971889" lon="120.945538812583"><ele>9.0</ele><time>2026-04-06T09:06:44Z</time></trkpt><trkpt lat="14.433074994471209" lon="120.94560798996582"><ele>9.0</ele><time>2026-04-06T09:06:47Z</time></trkpt><trkpt lat="14.433098285418337" lon="120.9457085541246"><ele>9.0</ele><time>2026-04-06T09:06:49.001Z</time></trkpt><trkpt lat="14.433107645998787" lon="120.94581781331331"><ele>9.0</ele><time>2026-04-06T09:06:51.001Z</time></trkpt><trkpt lat="14.433117275651316" lon="120.94589193941825"><ele>9.0</ele><time>2026-04-06T09:06:55.001Z</time></trkpt><trkpt lat="14.43313421689474" lon="120.94598120469868"><ele>9.0</ele><time>2026-04-06T09:06:57.001Z</time></trkpt><trkpt lat="14.433147939477388" lon="120.9460519699076"><ele>9.0</ele><time>2026-04-06T09:06:59.001Z</time></trkpt><trkpt lat="14.433152931808317" lon="120.94612295102907"><ele>9.0</ele><time>2026-04-06T09:07:02.001Z</time></trkpt><trkpt lat="14.43316513705859" lon="120.94621796831152"><ele>9.0</ele><time>2026-04-06T09:07:04.001Z</time></trkpt><trkpt lat="14.433168157393286" lon="120.9463113678968"><ele>9.0</ele><time>2026-04-06T09:07:06.001Z</time></trkpt><trkpt lat="14.433181255076043" lon="120.9463806944324"><ele>9.0</ele><time>2026-04-06T09:07:07.001Z</time></trkpt><trkpt lat="14.433205292858949" lon="120.94647632157422"><ele>9.0</ele><time>2026-04-06T09:07:09.001Z</time></trkpt><trkpt lat="14.43322496143205" lon="120.94655320856016"><ele>9.0</ele><time>2026-04-06T09:07:12.001Z</time></trkpt><trkpt lat="14.43324025607209" lon="120.94663667045977"><ele>9.285714285714286</ele><time>2026-04-06T09:07:14.001Z</time></trkpt><trkpt lat="14.433254376143749" lon="120.94671187314947"><ele>9.571428571428571</ele><time>2026-04-06T09:07:16.001Z</time></trkpt><trkpt lat="14.4332681411843" lon="120.94677803833311"><ele>9.857142857142858</ele><time>2026-04-06T09:07:18.001Z</time></trkpt><trkpt lat="14.433262549859757" lon="120.94686447798213"><ele>10.142857142857142</ele><time>2026-04-06T09:07:22.001Z</time></trkpt><trkpt lat="14.433237352228248" lon="120.94693893021837"><ele>10.428571428571429</ele><time>2026-04-06T09:07:25.001Z</time></trkpt><trkpt lat="14.433201512639505" lon="120.94700142824404"><ele>10.714285714285715</ele><time>2026-04-06T09:07:28.001Z</time></trkpt><trkpt lat="14.433176479313172" lon="120.94706390882816"><ele>11.0</ele><time>2026-04-06T09:07:30.001Z</time></trkpt><trkpt lat="14.433131799889265" lon="120.94711834656249"><ele>11.0</ele><time>2026-04-06T09:07:32.001Z</time></trkpt><trkpt lat="14.433167318513389" lon="120.94717276338605"><ele>11.0</ele><time>2026-04-06T09:07:34.001Z</time></trkpt><trkpt lat="14.433286871298113" lon="120.94723373486414"><ele>11.0</ele><time>2026-04-06T09:07:36.001Z</time></trkpt><trkpt lat="14.433362979093042" lon="120.94727810917662"><ele>11.0</ele><time>2026-04-06T09:07:37.001Z</time></trkpt><trkpt lat="14.433451755311754" lon="120.94732592904472"><ele>11.0</ele><time>2026-04-06T09:07:38.001Z</time></trkpt><trkpt lat="14.433553785631066" lon="120.94737744187985"><ele>11.0</ele><time>2026-04-06T09:07:39.001Z</time></trkpt><trkpt lat="14.433658316244522" lon="120.9474210178475"><ele>11.0</ele><time>2026-04-06T09:07:40.001Z</time></trkpt><trkpt lat="14.433772343269853" lon="120.94746915149155"><ele>11.0</ele><time>2026-04-06T09:07:41.001Z</time></trkpt><trkpt lat="14.433886304641506" lon="120.94752638643143"><ele>11.0</ele><time>2026-04-06T09:07:42.001Z</time></trkpt><trkpt lat="14.434005116266485" lon="120.94758931463926"><ele>11.0</ele><time>2026-04-06T09:07:43.001Z</time></trkpt><trkpt lat="14.434134111183054" lon="120.94764823850315"><ele>11.0</ele><time>2026-04-06T09:07:44.001Z</time></trkpt><trkpt lat="14.43426590578102" lon="120.94770900588851"><ele>11.0</ele><time>2026-04-06T09:07:45.001Z</time></trkpt><trkpt lat="14.434399551008086" lon="120.94776927697359"><ele>11.0</ele><time>2026-04-06T09:07:46.001Z</time></trkpt><trkpt lat="14.434533337591168" lon="120.94783222203164"><ele>11.0</ele><time>2026-04-06T09:07:47.001Z</time></trkpt><trkpt lat="14.434669813171007" lon="120.94790054547573"><ele>11.0</ele><time>2026-04-06T09:07:48.001Z</time></trkpt><trkpt lat="14.434811228890233" lon="120.94796615485109"><ele>11.0</ele><time>2026-04-06T09:07:49.001Z</time></trkpt><trkpt lat="14.434954872987143" lon="120.94803649184513"><ele>11.0</ele><time>2026-04-06T09:07:50.001Z</time></trkpt><trkpt lat="14.435101246931444" lon="120.94810527972079"><ele>11.0</ele><time>2026-04-06T09:07:51.001Z</time></trkpt><trkpt lat="14.435249614921057" lon="120.94817366657817"><ele>11.0</ele><time>2026-04-06T09:07:52.001Z</time></trkpt><trkpt lat="14.435395413524578" lon="120.94824318003174"><ele>10.333333333333332</ele><time>2026-04-06T09:07:53.001Z</time></trkpt><trkpt lat="14.435541441866228" lon="120.9483125332618"><ele>9.666666666666666</ele><time>2026-04-06T09:07:54.001Z</time></trkpt><trkpt lat="14.435689575003755" lon="120.9483789584395"><ele>9.0</ele><time>2026-04-06T09:07:55.001Z</time></trkpt><trkpt lat="14.435835195089517" lon="120.948440266351"><ele>9.0</ele><time>2026-04-06T09:07:56.001Z</time></trkpt><trkpt lat="14.435965526418581" lon="120.94850011040376"><ele>9.0</ele><time>2026-04-06T09:07:57.001Z</time></trkpt><trkpt lat="14.436085414576052" lon="120.94856068117485"><ele>9.0</ele><time>2026-04-06T09:07:58.001Z</time></trkpt><trkpt lat="14.436194793325553" lon="120.94861460070793"><ele>9.0</ele><time>2026-04-06T09:07:59.001Z</time></trkpt><trkpt lat="14.436312830068559" lon="120.94867207984416"><ele>9.0</ele><time>2026-04-06T09:08:00.001Z</time></trkpt><trkpt lat="14.436430405640609" lon="120.94872797613789"><ele>9.0</ele><time>2026-04-06T09:08:01.001Z</time></trkpt><trkpt lat="14.43654938684436" lon="120.94877526163283"><ele>9.0</ele><time>2026-04-06T09:08:02.001Z</time></trkpt><trkpt lat="14.436650590757429" lon="120.9488244347943"><ele>9.0</ele><time>2026-04-06T09:08:03.001Z</time></trkpt><trkpt lat="14.436733205031796" lon="120.94886945586232"><ele>9.0</ele><time>2026-04-06T09:08:04.001Z</time></trkpt><trkpt lat="14.436811685550486" lon="120.94890830612734"><ele>9.0</ele><time>2026-04-06T09:08:05.001Z</time></trkpt><trkpt lat="14.436891593146475" lon="120.94893992656584"><ele>9.0</ele><time>2026-04-06T09:08:06.001Z</time></trkpt><trkpt lat="14.436973421955445" lon="120.94898255451315"><ele>9.0</ele><time>2026-04-06T09:08:07.001Z</time></trkpt><trkpt lat="14.437062525738243" lon="120.94902986736015"><ele>9.0</ele><time>2026-04-06T09:08:08.001Z</time></trkpt><trkpt lat="14.437165178048472" lon="120.94907528038716"><ele>9.0</ele><time>2026-04-06T09:08:09.001Z</time></trkpt><trkpt lat="14.437263009981846" lon="120.94911786629672"><ele>9.0</ele><time>2026-04-06T09:08:10.001Z</time></trkpt><trkpt lat="14.437356216286531" lon="120.9491579162883"><ele>9.0</ele><time>2026-04-06T09:08:11.001Z</time></trkpt><trkpt lat="14.43744505109052" lon="120.94919154522881"><ele>9.0</ele><time>2026-04-06T09:08:12.001Z</time></trkpt><trkpt lat="14.437543628885416" lon="120.94923026163532"><ele>9.0</ele><time>2026-04-06T09:08:13.001Z</time></trkpt><trkpt lat="14.437644783750976" lon="120.949280523256"><ele>9.0</ele><time>2026-04-06T09:08:14.001Z</time></trkpt><trkpt lat="14.437746979314142" lon="120.9493339481262"><ele>9.0</ele><time>2026-04-06T09:08:15.001Z</time></trkpt><trkpt lat="14.437853784740566" lon="120.94938611814891"><ele>9.0</ele><time>2026-04-06T09:08:16.001Z</time></trkpt><trkpt lat="14.437955308797632" lon="120.94943811933477"><ele>9.0</ele><time>2026-04-06T09:08:17.001Z</time></trkpt><trkpt lat="14.438041755534176" lon="120.9494798077915"><ele>9.0</ele><time>2026-04-06T09:08:18.001Z</time></trkpt><trkpt lat="14.438111244434925" lon="120.94951182453082"><ele>9.2</ele><time>2026-04-06T09:08:19.001Z</time></trkpt><trkpt lat="14.438171292045315" lon="120.94953878463649"><ele>9.4</ele><time>2026-04-06T09:08:20.001Z</time></trkpt><trkpt lat="14.438287598387147" lon="120.94959641545265"><ele>9.6</ele><time>2026-04-06T09:08:22.001Z</time></trkpt><trkpt lat="14.438364480514862" lon="120.94963025873608"><ele>9.8</ele><time>2026-04-06T09:08:23.001Z</time></trkpt><trkpt lat="14.438450727383891" lon="120.94966783771375"><ele>10.0</ele><time>2026-04-06T09:08:24.001Z</time></trkpt><trkpt lat="14.438542980119012" lon="120.949709745209"><ele>10.0</ele><time>2026-04-06T09:08:25.001Z</time></trkpt><trkpt lat="14.438640811911805" lon="120.94975293902841"><ele>10.0</ele><time>2026-04-06T09:08:26.001Z</time></trkpt><trkpt lat="14.438727453588267" lon="120.94979583431294"><ele>10.0</ele><time>2026-04-06T09:08:27.001Z</time></trkpt><trkpt lat="14.438821787834895" lon="120.94984279119628"><ele>10.0</ele><time>2026-04-06T09:08:28Z</time></trkpt><trkpt lat="14.438910120567428" lon="120.94988812208506"><ele>10.0</ele><time>2026-04-06T09:08:29Z</time></trkpt><trkpt lat="14.439013213604003" lon="120.94994104510795"><ele>10.0</ele><time>2026-04-06T09:08:30Z</time></trkpt><trkpt lat="14.43911806147754" lon="120.94999067567497"><ele>10.0</ele><time>2026-04-06T09:08:31Z</time></trkpt><trkpt lat="14.439221260806734" lon="120.95003649484616"><ele>10.0</ele><time>2026-04-06T09:08:32Z</time></trkpt><trkpt lat="14.439319736262382" lon="120.95008159797212"><ele>10.0</ele><time>2026-04-06T09:08:33Z</time></trkpt><trkpt lat="14.439415319340013" lon="120.95012498423272"><ele>10.0</ele><time>2026-04-06T09:08:34Z</time></trkpt><trkpt lat="14.439505052709428" lon="120.95016421501565"><ele>9.8</ele><time>2026-04-06T09:08:35Z</time></trkpt><trkpt lat="14.439590990587899" lon="120.95020686553654"><ele>9.6</ele><time>2026-04-06T09:08:36Z</time></trkpt><trkpt lat="14.439679638513681" lon="120.95025066836105"><ele>9.4</ele><time>2026-04-06T09:08:37Z</time></trkpt><trkpt lat="14.43976877514567" lon="120.95029314307644"><ele>9.2</ele><time>2026-04-06T09:08:38Z</time></trkpt><trkpt lat="14.439866596367803" lon="120.95033717878485"><ele>9.0</ele><time>2026-04-06T09:08:39Z</time></trkpt><trkpt lat="14.439968345281493" lon="120.95038427541911"><ele>8.75</ele><time>2026-04-06T09:08:40Z</time></trkpt><trkpt lat="14.440075480156231" lon="120.95043355320293"><ele>8.5</ele><time>2026-04-06T09:08:41Z</time></trkpt><trkpt lat="14.44019192308957" lon="120.95048620456843"><ele>8.25</ele><time>2026-04-06T09:08:42Z</time></trkpt><trkpt lat="14.440294934556723" lon="120.95053193474787"><ele>8.0</ele><time>2026-04-06T09:08:43Z</time></trkpt><trkpt lat="14.440413651351651" lon="120.95058520855457"><ele>8.25</ele><time>2026-04-06T09:08:44Z</time></trkpt><trkpt lat="14.44052087269567" lon="120.9506340740268"><ele>8.5</ele><time>2026-04-06T09:08:45Z</time></trkpt><trkpt lat="14.440639290409756" lon="120.95068462990129"><ele>8.75</ele><time>2026-04-06T09:08:46Z</time></trkpt><trkpt lat="14.440758834728271" lon="120.95073752701246"><ele>9.0</ele><time>2026-04-06T09:08:47Z</time></trkpt><trkpt lat="14.44087920249553" lon="120.95079520739621"><ele>9.0</ele><time>2026-04-06T09:08:48Z</time></trkpt><trkpt lat="14.440978262272315" lon="120.95084567109082"><ele>9.0</ele><time>2026-04-06T09:08:49Z</time></trkpt><trkpt lat="14.441078712850857" lon="120.95089435674957"><ele>9.0</ele><time>2026-04-06T09:08:50Z</time></trkpt><trkpt lat="14.44118559199175" lon="120.95094747482163"><ele>9.0</ele><time>2026-04-06T09:08:51Z</time></trkpt><trkpt lat="14.44129466056115" lon="120.9510047450956"><ele>8.75</ele><time>2026-04-06T09:08:52Z</time></trkpt><trkpt lat="14.441398001657735" lon="120.95105673168585"><ele>8.5</ele><time>2026-04-06T09:08:53Z</time></trkpt><trkpt lat="14.44151326217161" lon="120.9511152999422"><ele>8.25</ele><time>2026-04-06T09:08:54Z</time></trkpt><trkpt lat="14.441630074541871" lon="120.95117159042174"><ele>8.0</ele><time>2026-04-06T09:08:55Z</time></trkpt><trkpt lat="14.441748251482053" lon="120.95122668701956"><ele>8.0</ele><time>2026-04-06T09:08:56Z</time></trkpt><trkpt lat="14.44186668190254" lon="120.95127830563771"><ele>8.0</ele><time>2026-04-06T09:08:57Z</time></trkpt><trkpt lat="14.441992281953244" lon="120.95133518238008"><ele>8.0</ele><time>2026-04-06T09:08:58Z</time></trkpt><trkpt lat="14.442117823631945" lon="120.95139076069314"><ele>8.0</ele><time>2026-04-06T09:08:59Z</time></trkpt><trkpt lat="14.442240347842702" lon="120.95144678695372"><ele>8.25</ele><time>2026-04-06T09:09:00Z</time></trkpt><trkpt lat="14.442368031603682" lon="120.95150627519287"><ele>8.5</ele><time>2026-04-06T09:09:01Z</time></trkpt><trkpt lat="14.442488046575399" lon="120.9515661242464"><ele>8.75</ele><time>2026-04-06T09:09:02Z</time></trkpt><trkpt lat="14.442602142919815" lon="120.95162518535285"><ele>9.0</ele><time>2026-04-06T09:09:03Z</time></trkpt><trkpt lat="14.442709930280529" lon="120.95167929904893"><ele>9.0</ele><time>2026-04-06T09:09:04Z</time></trkpt><trkpt lat="14.442815866849775" lon="120.95173258678736"><ele>9.0</ele><time>2026-04-06T09:09:05Z</time></trkpt><trkpt lat="14.442933228153581" lon="120.95178748673835"><ele>9.0</ele><time>2026-04-06T09:09:06Z</time></trkpt><trkpt lat="14.44304702939669" lon="120.95183732101152"><ele>9.0</ele><time>2026-04-06T09:09:07Z</time></trkpt><trkpt lat="14.44316208045516" lon="120.95188984058409"><ele>9.0</ele><time>2026-04-06T09:09:08.001Z</time></trkpt><trkpt lat="14.443272402401439" lon="120.95193963898801"><ele>9.0</ele><time>2026-04-06T09:09:09.001Z</time></trkpt><trkpt lat="14.44336743849492" lon="120.95198425536064"><ele>9.0</ele><time>2026-04-06T09:09:10.001Z</time></trkpt><trkpt lat="14.443445276289001" lon="120.95202061377543"><ele>9.0</ele><time>2026-04-06T09:09:11.001Z</time></trkpt><trkpt lat="14.443504686059779" lon="120.95204963442714"><ele>9.0</ele><time>2026-04-06T09:09:12.001Z</time></trkpt><trkpt lat="14.443580947361347" lon="120.95208605365465"><ele>9.0</ele><time>2026-04-06T09:09:14.001Z</time></trkpt><trkpt lat="14.443660537301275" lon="120.95213802444763"><ele>9.0</ele><time>2026-04-06T09:09:16.001Z</time></trkpt><trkpt lat="14.44373905606787" lon="120.95219004508664"><ele>9.0</ele><time>2026-04-06T09:09:18.001Z</time></trkpt><trkpt lat="14.443824878432755" lon="120.95222482009055"><ele>9.0</ele><time>2026-04-06T09:09:20.001Z</time></trkpt><trkpt lat="14.443899849181674" lon="120.95225754352683"><ele>9.0</ele><time>2026-04-06T09:09:22.001Z</time></trkpt><trkpt lat="14.443961605039025" lon="120.95228542360657"><ele>9.0</ele><time>2026-04-06T09:09:24.001Z</time></trkpt><trkpt lat="14.444039839089728" lon="120.95230997831527"><ele>9.0</ele><time>2026-04-06T09:09:28.001Z</time></trkpt><trkpt lat="14.444117120117687" lon="120.9523473044687"><ele>9.0</ele><time>2026-04-06T09:09:30.001Z</time></trkpt><trkpt lat="14.444225048419897" lon="120.95240738474473"><ele>9.0</ele><time>2026-04-06T09:09:32.001Z</time></trkpt><trkpt lat="14.444285898040748" lon="120.95243510180606"><ele>9.0</ele><time>2026-04-06T09:09:33.001Z</time></trkpt><trkpt lat="14.444342808751449" lon="120.95246342607041"><ele>9.0</ele><time>2026-04-06T09:09:34.001Z</time></trkpt><trkpt lat="14.444447729375865" lon="120.95251416079915"><ele>9.166666666666666</ele><time>2026-04-06T09:09:36.001Z</time></trkpt><trkpt lat="14.444540895404323" lon="120.95255803678052"><ele>9.333333333333334</ele><time>2026-04-06T09:09:38.001Z</time></trkpt><trkpt lat="14.44461593717644" lon="120.95259520242698"><ele>9.5</ele><time>2026-04-06T09:09:40.001Z</time></trkpt><trkpt lat="14.444677723752452" lon="120.95261934301215"><ele>9.666666666666668</ele><time>2026-04-06T09:09:42.001Z</time></trkpt><trkpt lat="14.444750207022752" lon="120.9526560553042"><ele>9.833333333333334</ele><time>2026-04-06T09:10:04.001Z</time></trkpt><trkpt lat="14.444820429763723" lon="120.95269034017501"><ele>10.0</ele><time>2026-04-06T09:10:06.001Z</time></trkpt><trkpt lat="14.444907708096986" lon="120.9527303329706"><ele>10.0</ele><time>2026-04-06T09:10:08.001Z</time></trkpt><trkpt lat="14.445002507249354" lon="120.95277879488815"><ele>10.0</ele><time>2026-04-06T09:10:10.001Z</time></trkpt><trkpt lat="14.445115183846886" lon="120.95283596795223"><ele>10.0</ele><time>2026-04-06T09:10:12.001Z</time></trkpt><trkpt lat="14.445182185719133" lon="120.95286609883469"><ele>10.0</ele><time>2026-04-06T09:10:13.001Z</time></trkpt><trkpt lat="14.445254972323779" lon="120.95289604964704"><ele>10.0</ele><time>2026-04-06T09:10:14.001Z</time></trkpt><trkpt lat="14.445332513029053" lon="120.95292571103185"><ele>10.0</ele><time>2026-04-06T09:10:15.001Z</time></trkpt><trkpt lat="14.445404930313776" lon="120.9529548321217"><ele>10.0</ele><time>2026-04-06T09:10:16.001Z</time></trkpt><trkpt lat="14.445469697539579" lon="120.95297526603026"><ele>10.0</ele><time>2026-04-06T09:10:17.001Z</time></trkpt><trkpt lat="14.445581670505822" lon="120.95300803587205"><ele>10.0</ele><time>2026-04-06T09:10:19.001Z</time></trkpt><trkpt lat="14.44571906108159" lon="120.95306987861544"><ele>10.0</ele><time>2026-04-06T09:10:21.001Z</time></trkpt><trkpt lat="14.445803175335064" lon="120.9531055410482"><ele>9.6</ele><time>2026-04-06T09:10:22.001Z</time></trkpt><trkpt lat="14.445896532152172" lon="120.95314933875174"><ele>9.2</ele><time>2026-04-06T09:10:23.001Z</time></trkpt><trkpt lat="14.445977796006082" lon="120.95319206700114"><ele>8.8</ele><time>2026-04-06T09:10:24.001Z</time></trkpt><trkpt lat="14.446061802733627" lon="120.95323558206769"><ele>8.4</ele><time>2026-04-06T09:10:25.001Z</time></trkpt><trkpt lat="14.4461466748857" lon="120.95327319478609"><ele>8.0</ele><time>2026-04-06T09:10:26.001Z</time></trkpt><trkpt lat="14.446219119787314" lon="120.95330943835108"><ele>7.999999999999999</ele><time>2026-04-06T09:10:27.001Z</time></trkpt><trkpt lat="14.44628505292298" lon="120.95334289700138"><ele>8.0</ele><time>2026-04-06T09:10:28.001Z</time></trkpt><trkpt lat="14.446347304488542" lon="120.95337007724811"><ele>8.0</ele><time>2026-04-06T09:10:29.001Z</time></trkpt><trkpt lat="14.446439276391393" lon="120.95341168740617"><ele>8.0</ele><time>2026-04-06T09:10:31.001Z</time></trkpt><trkpt lat="14.446514820087872" lon="120.95344241898076"><ele>7.999999999999999</ele><time>2026-04-06T09:10:33.001Z</time></trkpt><trkpt lat="14.446607944440148" lon="120.95347971442793"><ele>8.0</ele><time>2026-04-06T09:10:35Z</time></trkpt><trkpt lat="14.446721815254772" lon="120.95353333745146"><ele>7.999999999999999</ele><time>2026-04-06T09:10:37Z</time></trkpt><trkpt lat="14.446794577665623" lon="120.95357075986401"><ele>8.0</ele><time>2026-04-06T09:10:38Z</time></trkpt><trkpt lat="14.446864474174125" lon="120.95360644818035"><ele>8.0</ele><time>2026-04-06T09:10:39Z</time></trkpt><trkpt lat="14.446948272510216" lon="120.9536442257698"><ele>8.0</ele><time>2026-04-06T09:10:40Z</time></trkpt><trkpt lat="14.447026597049966" lon="120.95368198748659"><ele>7.999999999999999</ele><time>2026-04-06T09:10:41Z</time></trkpt><trkpt lat="14.447108977516683" lon="120.95372343944432"><ele>8.0</ele><time>2026-04-06T09:10:42Z</time></trkpt><trkpt lat="14.447189319932635" lon="120.953762436288"><ele>7.499999999999999</ele><time>2026-04-06T09:10:43Z</time></trkpt><trkpt lat="14.44725287090555" lon="120.95379240739426"><ele>7.0</ele><time>2026-04-06T09:10:44Z</time></trkpt><trkpt lat="14.447351438398702" lon="120.95383529550402"><ele>6.5</ele><time>2026-04-06T09:10:46Z</time></trkpt><trkpt lat="14.447422490707934" lon="120.95386421029382"><ele>6.0</ele><time>2026-04-06T09:10:48Z</time></trkpt><trkpt lat="14.447490140156539" lon="120.95389430344534"><ele>5.5</ele><time>2026-04-06T09:10:50Z</time></trkpt><trkpt lat="14.44757553872355" lon="120.95393660038256"><ele>5.0</ele><time>2026-04-06T09:10:52Z</time></trkpt><trkpt lat="14.447677437864131" lon="120.95398989983852"><ele>5.0</ele><time>2026-04-06T09:10:54Z</time></trkpt><trkpt lat="14.447783107703623" lon="120.95404113875209"><ele>5.0</ele><time>2026-04-06T09:10:56Z</time></trkpt><trkpt lat="14.447841192787921" lon="120.95406800775072"><ele>5.0</ele><time>2026-04-06T09:10:57Z</time></trkpt><trkpt lat="14.447951726855933" lon="120.95411878897143"><ele>5.0</ele><time>2026-04-06T09:10:59Z</time></trkpt><trkpt lat="14.44804130225052" lon="120.95416041168893"><ele>5.0</ele><time>2026-04-06T09:11:01Z</time></trkpt><trkpt lat="14.448172298134082" lon="120.95422974365944"><ele>5.5</ele><time>2026-04-06T09:11:03Z</time></trkpt><trkpt lat="14.448272316235373" lon="120.95428173710677"><ele>6.0</ele><time>2026-04-06T09:11:04Z</time></trkpt><trkpt lat="14.448385862760874" lon="120.95433436152275"><ele>6.5</ele><time>2026-04-06T09:11:05Z</time></trkpt><trkpt lat="14.44851549933701" lon="120.95438350000532"><ele>7.0</ele><time>2026-04-06T09:11:06Z</time></trkpt><trkpt lat="14.44863601673963" lon="120.95444018246921"><ele>7.0</ele><time>2026-04-06T09:11:07Z</time></trkpt><trkpt lat="14.448750319451914" lon="120.95449891888032"><ele>7.0</ele><time>2026-04-06T09:11:08Z</time></trkpt><trkpt lat="14.44887428153372" lon="120.95455757021823"><ele>7.0</ele><time>2026-04-06T09:11:09Z</time></trkpt><trkpt lat="14.44900238864979" lon="120.95461810775936"><ele>7.0</ele><time>2026-04-06T09:11:10Z</time></trkpt><trkpt lat="14.449129507871394" lon="120.95467644076653"><ele>7.0</ele><time>2026-04-06T09:11:11Z</time></trkpt><trkpt lat="14.449267566516262" lon="120.95474090301413"><ele>7.0</ele><time>2026-04-06T09:11:12Z</time></trkpt><trkpt lat="14.449407835291431" lon="120.95480854153202"><ele>7.0</ele><time>2026-04-06T09:11:13Z</time></trkpt><trkpt lat="14.449548109317774" lon="120.95487290208335"><ele>6.666666666666667</ele><time>2026-04-06T09:11:14Z</time></trkpt><trkpt lat="14.449691836936958" lon="120.95494175657785"><ele>6.333333333333334</ele><time>2026-04-06T09:11:15.001Z</time></trkpt><trkpt lat="14.449830259608076" lon="120.9550073871333"><ele>6.0</ele><time>2026-04-06T09:11:16.001Z</time></trkpt><trkpt lat="14.449966064372815" lon="120.95507033498282"><ele>6.0</ele><time>2026-04-06T09:11:17.001Z</time></trkpt><trkpt lat="14.45009024855429" lon="120.95512759783492"><ele>6.0</ele><time>2026-04-06T09:11:18.001Z</time></trkpt><trkpt lat="14.450213417519413" lon="120.95518395665395"><ele>6.0</ele><time>2026-04-06T09:11:19.001Z</time></trkpt><trkpt lat="14.450337282243362" lon="120.95524255561543"><ele>6.0</ele><time>2026-04-06T09:11:20.001Z</time></trkpt><trkpt lat="14.450465486368318" lon="120.95530619087894"><ele>6.25</ele><time>2026-04-06T09:11:21.001Z</time></trkpt><trkpt lat="14.450586253810398" lon="120.95536541872323"><ele>6.5</ele><time>2026-04-06T09:11:22.001Z</time></trkpt><trkpt lat="14.450697223761773" lon="120.95541797026513"><ele>6.75</ele><time>2026-04-06T09:11:23.001Z</time></trkpt><trkpt lat="14.450799915927147" lon="120.95546651148861"><ele>7.0</ele><time>2026-04-06T09:11:24.001Z</time></trkpt><trkpt lat="14.450888971419321" lon="120.95551007064581"><ele>7.000000000000001</ele><time>2026-04-06T09:11:25.001Z</time></trkpt><trkpt lat="14.45095874862913" lon="120.95554334555337"><ele>7.0</ele><time>2026-04-06T09:11:26.001Z</time></trkpt><trkpt lat="14.451024679054479" lon="120.95557736208656"><ele>7.0</ele><time>2026-04-06T09:11:27.001Z</time></trkpt><trkpt lat="14.451109997808214" lon="120.95562714817542"><ele>7.0</ele><time>2026-04-06T09:11:29.001Z</time></trkpt><trkpt lat="14.451171621033756" lon="120.95565744038267"><ele>7.000000000000001</ele><time>2026-04-06T09:11:32.001Z</time></trkpt><trkpt lat="14.451254354568539" lon="120.95570106086785"><ele>7.0</ele><time>2026-04-06T09:11:38.001Z</time></trkpt><trkpt lat="14.451314674032709" lon="120.95572091210212"><ele>7.0</ele><time>2026-04-06T09:11:39.001Z</time></trkpt><trkpt lat="14.451394964085496" lon="120.95574667884961"><ele>6.999999999999999</ele><time>2026-04-06T09:11:40.001Z</time></trkpt><trkpt lat="14.45147872864005" lon="120.95578725243728"><ele>6.999999999999999</ele><time>2026-04-06T09:11:41.001Z</time></trkpt><trkpt lat="14.45158027802822" lon="120.9558384947328"><ele>7.0</ele><time>2026-04-06T09:11:42.001Z</time></trkpt><trkpt lat="14.45168228363157" lon="120.95588912102228"><ele>7.0</ele><time>2026-04-06T09:11:43.001Z</time></trkpt><trkpt lat="14.45180044964576" lon="120.95594037277245"><ele>7.0</ele><time>2026-04-06T09:11:44.001Z</time></trkpt><trkpt lat="14.45192718443528" lon="120.95600073986343"><ele>7.0</ele><time>2026-04-06T09:11:45.001Z</time></trkpt><trkpt lat="14.452053074807182" lon="120.95605942850763"><ele>7.0</ele><time>2026-04-06T09:11:46.001Z</time></trkpt><trkpt lat="14.452182440170038" lon="120.95612447761184"><ele>7.0</ele><time>2026-04-06T09:11:47.001Z</time></trkpt><trkpt lat="14.452299655078885" lon="120.95618056795836"><ele>6.25</ele><time>2026-04-06T09:11:48.001Z</time></trkpt><trkpt lat="14.452412331200373" lon="120.95623321042424"><ele>5.5</ele><time>2026-04-06T09:11:49.001Z</time></trkpt><trkpt lat="14.452531775994661" lon="120.95628801682804"><ele>4.75</ele><time>2026-04-06T09:11:50.001Z</time></trkpt><trkpt lat="14.452645303838922" lon="120.95634048878155"><ele>4.0</ele><time>2026-04-06T09:11:51.001Z</time></trkpt><trkpt lat="14.452754665452638" lon="120.95639813072687"><ele>4.0</ele><time>2026-04-06T09:11:52.001Z</time></trkpt><trkpt lat="14.452852699649284" lon="120.9564465536601"><ele>4.0</ele><time>2026-04-06T09:11:53.001Z</time></trkpt><trkpt lat="14.452938693799096" lon="120.95649125289725"><ele>4.0</ele><time>2026-04-06T09:11:54.001Z</time></trkpt><trkpt lat="14.453015443610665" lon="120.95653243680293"><ele>4.0</ele><time>2026-04-06T09:11:55.001Z</time></trkpt><trkpt lat="14.453088356738554" lon="120.95657044429609"><ele>4.0</ele><time>2026-04-06T09:11:56.001Z</time></trkpt><trkpt lat="14.453177403840652" lon="120.9566169588645"><ele>4.0</ele><time>2026-04-06T09:11:57.001Z</time></trkpt><trkpt lat="14.453261498020222" lon="120.95665892187708"><ele>4.0</ele><time>2026-04-06T09:11:58.001Z</time></trkpt><trkpt lat="14.453359810529836" lon="120.95670701314702"><ele>4.0</ele><time>2026-04-06T09:11:59.001Z</time></trkpt><trkpt lat="14.453457344434282" lon="120.95675441788157"><ele>4.0</ele><time>2026-04-06T09:12:00.001Z</time></trkpt><trkpt lat="14.453559112569216" lon="120.95680086164923"><ele>4.0</ele><time>2026-04-06T09:12:01.001Z</time></trkpt><trkpt lat="14.453653623224817" lon="120.95684607333662"><ele>4.0</ele><time>2026-04-06T09:12:02.001Z</time></trkpt><trkpt lat="14.4537525279151" lon="120.95689336299537"><ele>4.0</ele><time>2026-04-06T09:12:03.001Z</time></trkpt><trkpt lat="14.453861873813816" lon="120.95694283187079"><ele>4.0</ele><time>2026-04-06T09:12:04.001Z</time></trkpt><trkpt lat="14.453968094288998" lon="120.9569923511315"><ele>4.0</ele><time>2026-04-06T09:12:05.001Z</time></trkpt><trkpt lat="14.454083301762722" lon="120.95704467500342"><ele>4.0</ele><time>2026-04-06T09:12:06.001Z</time></trkpt><trkpt lat="14.454196670273438" lon="120.9570900706347"><ele>4.0</ele><time>2026-04-06T09:12:07.001Z</time></trkpt><trkpt lat="14.454304639002341" lon="120.9571295172217"><ele>4.0</ele><time>2026-04-06T09:12:08.001Z</time></trkpt><trkpt lat="14.454401110362687" lon="120.95716510869995"><ele>4.0</ele><time>2026-04-06T09:12:09.001Z</time></trkpt><trkpt lat="14.454502545402809" lon="120.95721110922487"><ele>4.0</ele><time>2026-04-06T09:12:10.001Z</time></trkpt><trkpt lat="14.454599133824338" lon="120.95726028083027"><ele>4.4</ele><time>2026-04-06T09:12:11.001Z</time></trkpt><trkpt lat="14.454696131646827" lon="120.95730971698265"><ele>4.800000000000001</ele><time>2026-04-06T09:12:12.001Z</time></trkpt><trkpt lat="14.454788793766998" lon="120.95735717209436"><ele>5.199999999999999</ele><time>2026-04-06T09:12:13.001Z</time></trkpt><trkpt lat="14.45486880408616" lon="120.95739771975158"><ele>5.6</ele><time>2026-04-06T09:12:14.001Z</time></trkpt><trkpt lat="14.454944256133741" lon="120.95743266396242"><ele>6.0</ele><time>2026-04-06T09:12:15.001Z</time></trkpt><trkpt lat="14.455015107572397" lon="120.957465966397"><ele>6.0</ele><time>2026-04-06T09:12:16.001Z</time></trkpt><trkpt lat="14.455088255039819" lon="120.95750108684382"><ele>6.0</ele><time>2026-04-06T09:12:17.001Z</time></trkpt><trkpt lat="14.455175963943123" lon="120.95754612755292"><ele>6.0</ele><time>2026-04-06T09:12:19.001Z</time></trkpt><trkpt lat="14.455268684551152" lon="120.95760401044754"><ele>6.0</ele><time>2026-04-06T09:12:27.001Z</time></trkpt><trkpt lat="14.455391666521948" lon="120.95765492198656"><ele>6.0</ele><time>2026-04-06T09:12:29.001Z</time></trkpt><trkpt lat="14.455477123898337" lon="120.95769025657438"><ele>6.75</ele><time>2026-04-06T09:12:30.001Z</time></trkpt><trkpt lat="14.45558231785795" lon="120.9577366373716"><ele>7.5</ele><time>2026-04-06T09:12:31.001Z</time></trkpt><trkpt lat="14.455691332653677" lon="120.95778592247989"><ele>8.25</ele><time>2026-04-06T09:12:32.001Z</time></trkpt><trkpt lat="14.455812771319522" lon="120.95783871973734"><ele>9.0</ele><time>2026-04-06T09:12:33.001Z</time></trkpt><trkpt lat="14.455891675698581" lon="120.9578986237958"><ele>9.0</ele><time>2026-04-06T09:12:34.001Z</time></trkpt><trkpt lat="14.456018538826614" lon="120.95795392077069"><ele>9.0</ele><time>2026-04-06T09:12:35.001Z</time></trkpt><trkpt lat="14.45614320896197" lon="120.95800924271006"><ele>9.0</ele><time>2026-04-06T09:12:36.001Z</time></trkpt><trkpt lat="14.456268801586388" lon="120.95806789095812"><ele>9.0</ele><time>2026-04-06T09:12:37.001Z</time></trkpt><trkpt lat="14.456394933178682" lon="120.95812898204977"><ele>8.5</ele><time>2026-04-06T09:12:38.001Z</time></trkpt><trkpt lat="14.456520914537663" lon="120.95819386681283"><ele>8.0</ele><time>2026-04-06T09:12:39.001Z</time></trkpt><trkpt lat="14.456636897407545" lon="120.95825324096678"><ele>7.5</ele><time>2026-04-06T09:12:40Z</time></trkpt><trkpt lat="14.456747477026754" lon="120.95830154896805"><ele>7.0</ele><time>2026-04-06T09:12:41Z</time></trkpt><trkpt lat="14.45685010941696" lon="120.9583427374263"><ele>6.6</ele><time>2026-04-06T09:12:42Z</time></trkpt><trkpt lat="14.4569443916596" lon="120.95838172102206"><ele>6.199999999999999</ele><time>2026-04-06T09:12:43Z</time></trkpt><trkpt lat="14.45703975694129" lon="120.95842338419862"><ele>5.8</ele><time>2026-04-06T09:12:44Z</time></trkpt><trkpt lat="14.4571485735957" lon="120.95847108585988"><ele>5.4</ele><time>2026-04-06T09:12:45Z</time></trkpt><trkpt lat="14.457261338052461" lon="120.95852589624724"><ele>5.0</ele><time>2026-04-06T09:12:46Z</time></trkpt><trkpt lat="14.457375568651555" lon="120.95858066740936"><ele>5.0</ele><time>2026-04-06T09:12:47Z</time></trkpt><trkpt lat="14.457490695368334" lon="120.9586423999143"><ele>5.0</ele><time>2026-04-06T09:12:48Z</time></trkpt><trkpt lat="14.457602109575019" lon="120.9587003444091"><ele>5.0</ele><time>2026-04-06T09:12:49Z</time></trkpt><trkpt lat="14.457707419880766" lon="120.9587537866736"><ele>5.0</ele><time>2026-04-06T09:12:50Z</time></trkpt><trkpt lat="14.45781110597758" lon="120.9588014730071"><ele>5.0</ele><time>2026-04-06T09:12:51Z</time></trkpt><trkpt lat="14.457913436363688" lon="120.95884822094432"><ele>5.0</ele><time>2026-04-06T09:12:52Z</time></trkpt><trkpt lat="14.458014494606237" lon="120.95889186057309"><ele>5.0</ele><time>2026-04-06T09:12:53Z</time></trkpt><trkpt lat="14.458107146695664" lon="120.95893343849558"><ele>5.0</ele><time>2026-04-06T09:12:54Z</time></trkpt><trkpt lat="14.458194216390412" lon="120.95897014915084"><ele>5.0</ele><time>2026-04-06T09:12:55Z</time></trkpt><trkpt lat="14.458264382018717" lon="120.95900228192862"><ele>5.0</ele><time>2026-04-06T09:12:56Z</time></trkpt><trkpt lat="14.45836471063085" lon="120.95904058054332"><ele>5.0</ele><time>2026-04-06T09:12:58Z</time></trkpt><trkpt lat="14.458449768940053" lon="120.95908991569739"><ele>5.0</ele><time>2026-04-06T09:13:00Z</time></trkpt><trkpt lat="14.4585355650246" lon="120.95913607423465"><ele>5.0</ele><time>2026-04-06T09:13:02Z</time></trkpt><trkpt lat="14.45861179491098" lon="120.95917920982473"><ele>5.0</ele><time>2026-04-06T09:13:04Z</time></trkpt><trkpt lat="14.458692731215885" lon="120.95921593171768"><ele>6.0</ele><time>2026-04-06T09:13:06Z</time></trkpt><trkpt lat="14.458801876961603" lon="120.95928316105207"><ele>7.0</ele><time>2026-04-06T09:13:08Z</time></trkpt><trkpt lat="14.458887829042933" lon="120.9593212789479"><ele>8.0</ele><time>2026-04-06T09:13:10Z</time></trkpt><trkpt lat="14.458953316111591" lon="120.95937432228027"><ele>9.0</ele><time>2026-04-06T09:13:12Z</time></trkpt><trkpt lat="14.459025188504244" lon="120.95942735860406"><ele>10.0</ele><time>2026-04-06T09:13:14Z</time></trkpt><trkpt lat="14.459087636982332" lon="120.95947414479271"><ele>10.0</ele><time>2026-04-06T09:13:15Z</time></trkpt><trkpt lat="14.45914710395813" lon="120.95951437439253"><ele>10.0</ele><time>2026-04-06T09:13:16Z</time></trkpt><trkpt lat="14.459223810973826" lon="120.95956418189711"><ele>10.0</ele><time>2026-04-06T09:13:17Z</time></trkpt><trkpt lat="14.459312049263694" lon="120.95961979175705"><ele>10.0</ele><time>2026-04-06T09:13:18Z</time></trkpt><trkpt lat="14.45939956652882" lon="120.95967341289494"><ele>10.0</ele><time>2026-04-06T09:13:19Z</time></trkpt><trkpt lat="14.45951492352352" lon="120.95974656824171"><ele>10.0</ele><time>2026-04-06T09:13:20Z</time></trkpt><trkpt lat="14.459620986406446" lon="120.95982428071646"><ele>10.0</ele><time>2026-04-06T09:13:21Z</time></trkpt><trkpt lat="14.459705440490668" lon="120.9598981660641"><ele>10.0</ele><time>2026-04-06T09:13:22.001Z</time></trkpt><trkpt lat="14.459753699852534" lon="120.95995087519248"><ele>10.0</ele><time>2026-04-06T09:13:23.001Z</time></trkpt><trkpt lat="14.459800013895505" lon="120.96000662939913"><ele>10.0</ele><time>2026-04-06T09:13:25.001Z</time></trkpt><trkpt lat="14.459865799486016" lon="120.96008105856693"><ele>10.0</ele><time>2026-04-06T09:13:28.001Z</time></trkpt><trkpt lat="14.45991987538187" lon="120.96014258195694"><ele>10.0</ele><time>2026-04-06T09:13:30.001Z</time></trkpt><trkpt lat="14.459982319262561" lon="120.96020255106943"><ele>10.0</ele><time>2026-04-06T09:13:32.001Z</time></trkpt><trkpt lat="14.460041455567504" lon="120.96026144483767"><ele>10.0</ele><time>2026-04-06T09:13:34.001Z</time></trkpt><trkpt lat="14.460105830484762" lon="120.96032944152418"><ele>10.0</ele><time>2026-04-06T09:13:36.001Z</time></trkpt><trkpt lat="14.46016892814276" lon="120.96040525864476"><ele>10.0</ele><time>2026-04-06T09:13:38.001Z</time></trkpt><trkpt lat="14.460250234205738" lon="120.9605013631898"><ele>10.0</ele><time>2026-04-06T09:13:40.001Z</time></trkpt><trkpt lat="14.460295013337344" lon="120.96055478886062"><ele>10.0</ele><time>2026-04-06T09:13:41.001Z</time></trkpt><trkpt lat="14.460337271574092" lon="120.96060705967516"><ele>10.0</ele><time>2026-04-06T09:13:42.001Z</time></trkpt><trkpt lat="14.46042561125996" lon="120.96070653359375"><ele>10.0</ele><time>2026-04-06T09:13:44.001Z</time></trkpt><trkpt lat="14.460474094922521" lon="120.960758817584"><ele>10.0</ele><time>2026-04-06T09:13:45.001Z</time></trkpt><trkpt lat="14.460519746321372" lon="120.9608189257719"><ele>10.0</ele><time>2026-04-06T09:13:46.001Z</time></trkpt><trkpt lat="14.46056710295399" lon="120.96088512306446"><ele>9.666666666666668</ele><time>2026-04-06T09:13:47.001Z</time></trkpt><trkpt lat="14.460602918627611" lon="120.96094047101528"><ele>9.333333333333334</ele><time>2026-04-06T09:13:48.001Z</time></trkpt><trkpt lat="14.460675067354506" lon="120.96104113637367"><ele>9.0</ele><time>2026-04-06T09:13:50.001Z</time></trkpt><trkpt lat="14.460753165734339" lon="120.96114500038023"><ele>8.666666666666666</ele><time>2026-04-06T09:13:52.001Z</time></trkpt><trkpt lat="14.460793726524411" lon="120.9612000535331"><ele>8.333333333333332</ele><time>2026-04-06T09:13:53.001Z</time></trkpt><trkpt lat="14.460833288898922" lon="120.96125755677079"><ele>8.0</ele><time>2026-04-06T09:13:54.001Z</time></trkpt><trkpt lat="14.460875832368899" lon="120.96131595880303"><ele>8.0</ele><time>2026-04-06T09:13:55.001Z</time></trkpt><trkpt lat="14.46092547368459" lon="120.96138771362087"><ele>8.0</ele><time>2026-04-06T09:13:56.001Z</time></trkpt><trkpt lat="14.460963049410974" lon="120.96144440770435"><ele>8.0</ele><time>2026-04-06T09:13:57.001Z</time></trkpt><trkpt lat="14.461040898008815" lon="120.96156192855912"><ele>8.0</ele><time>2026-04-06T09:13:59.001Z</time></trkpt><trkpt lat="14.461085596268449" lon="120.96163247231927"><ele>8.0</ele><time>2026-04-06T09:14:00.001Z</time></trkpt><trkpt lat="14.461140475908282" lon="120.96170859837368"><ele>7.999999999999999</ele><time>2026-04-06T09:14:01.001Z</time></trkpt><trkpt lat="14.461193367760812" lon="120.9617926383968"><ele>8.0</ele><time>2026-04-06T09:14:02.001Z</time></trkpt><trkpt lat="14.461239492372263" lon="120.96187254653194"><ele>8.0</ele><time>2026-04-06T09:14:03.001Z</time></trkpt><trkpt lat="14.461282036350921" lon="120.96194068544762"><ele>8.0</ele><time>2026-04-06T09:14:04.001Z</time></trkpt><trkpt lat="14.461321353075279" lon="120.96200159536822"><ele>7.999999999999999</ele><time>2026-04-06T09:14:05.001Z</time></trkpt><trkpt lat="14.46136478771084" lon="120.96206915794265"><ele>8.0</ele><time>2026-04-06T09:14:06.001Z</time></trkpt><trkpt lat="14.461402429527466" lon="120.96213198991455"><ele>7.999999999999999</ele><time>2026-04-06T09:14:07.001Z</time></trkpt><trkpt lat="14.461446474535368" lon="120.96219784287953"><ele>8.0</ele><time>2026-04-06T09:14:08.001Z</time></trkpt><trkpt lat="14.46148198625081" lon="120.96225574334372"><ele>8.0</ele><time>2026-04-06T09:14:09.001Z</time></trkpt><trkpt lat="14.461539158411608" lon="120.96234385193296"><ele>8.0</ele><time>2026-04-06T09:14:11.001Z</time></trkpt><trkpt lat="14.461586123922674" lon="120.9624127638206"><ele>7.999999999999999</ele><time>2026-04-06T09:14:13.001Z</time></trkpt><trkpt lat="14.461641311597639" lon="120.96248709051072"><ele>8.0</ele><time>2026-04-06T09:14:15.001Z</time></trkpt><trkpt lat="14.461684664104142" lon="120.96254240750224"><ele>8.0</ele><time>2026-04-06T09:14:16.001Z</time></trkpt><trkpt lat="14.461727889439906" lon="120.96261400834722"><ele>8.0</ele><time>2026-04-06T09:14:17.001Z</time></trkpt><trkpt lat="14.461767337994171" lon="120.96268350136938"><ele>8.0</ele><time>2026-04-06T09:14:18.001Z</time></trkpt><trkpt lat="14.461828758846979" lon="120.96278255866473"><ele>8.0</ele><time>2026-04-06T09:14:20.001Z</time></trkpt><trkpt lat="14.46188902171282" lon="120.96288619535453"><ele>8.0</ele><time>2026-04-06T09:14:22.001Z</time></trkpt><trkpt lat="14.461921571407146" lon="120.96295287531125"><ele>7.999999999999999</ele><time>2026-04-06T09:14:26.001Z</time></trkpt><trkpt lat="14.461959311807265" lon="120.96301724671565"><ele>8.0</ele><time>2026-04-06T09:14:30.001Z</time></trkpt><trkpt lat="14.461995373503418" lon="120.96308120631706"><ele>8.0</ele><time>2026-04-06T09:14:37.001Z</time></trkpt><trkpt lat="14.462034768431552" lon="120.96314241557913"><ele>8.0</ele><time>2026-04-06T09:14:46Z</time></trkpt><trkpt lat="14.462081481241377" lon="120.96321637535083"><ele>7.999999999999999</ele><time>2026-04-06T09:14:52Z</time></trkpt><trkpt lat="14.462115371757088" lon="120.96327969264293"><ele>8.0</ele><time>2026-04-06T09:14:55Z</time></trkpt><trkpt lat="14.462161302187695" lon="120.96335546601082"><ele>8.166666666666666</ele><time>2026-04-06T09:14:57Z</time></trkpt><trkpt lat="14.462203779264273" lon="120.96343020235575"><ele>8.333333333333332</ele><time>2026-04-06T09:15:00Z</time></trkpt><trkpt lat="14.462249583979862" lon="120.96350287403853"><ele>8.5</ele><time>2026-04-06T09:15:03Z</time></trkpt><trkpt lat="14.462289069543212" lon="120.96356361678922"><ele>8.666666666666666</ele><time>2026-04-06T09:15:05Z</time></trkpt><trkpt lat="14.46233562219595" lon="120.96363958121661"><ele>8.833333333333334</ele><time>2026-04-06T09:15:09Z</time></trkpt><trkpt lat="14.4624052062153" lon="120.96373429282468"><ele>9.0</ele><time>2026-04-06T09:15:11Z</time></trkpt><trkpt lat="14.462444313722493" lon="120.9637922287808"><ele>9.0</ele><time>2026-04-06T09:15:12Z</time></trkpt><trkpt lat="14.462501735541954" lon="120.96387861383265"><ele>9.0</ele><time>2026-04-06T09:15:14Z</time></trkpt><trkpt lat="14.462555879436831" lon="120.96395305338125"><ele>9.0</ele><time>2026-04-06T09:15:16Z</time></trkpt><trkpt lat="14.462602214531918" lon="120.96403091969243"><ele>9.0</ele><time>2026-04-06T09:15:18Z</time></trkpt><trkpt lat="14.4626364222852" lon="120.96409466483856"><ele>9.0</ele><time>2026-04-06T09:15:21Z</time></trkpt><trkpt lat="14.46267395668252" lon="120.96414831490875"><ele>9.0</ele><time>2026-04-06T09:15:25Z</time></trkpt><trkpt lat="14.462722954958268" lon="120.96422605082888"><ele>8.833333333333334</ele><time>2026-04-06T09:15:29.001Z</time></trkpt><trkpt lat="14.462760418410898" lon="120.96429083312502"><ele>8.666666666666666</ele><time>2026-04-06T09:15:31.001Z</time></trkpt><trkpt lat="14.462799399705924" lon="120.9643602591394"><ele>8.5</ele><time>2026-04-06T09:15:34.001Z</time></trkpt><trkpt lat="14.462840913867574" lon="120.96442346764415"><ele>8.333333333333332</ele><time>2026-04-06T09:15:37.001Z</time></trkpt><trkpt lat="14.462875974204994" lon="120.96448171233351"><ele>8.166666666666666</ele><time>2026-04-06T09:15:42.001Z</time></trkpt><trkpt lat="14.462925491503661" lon="120.96456767011051"><ele>8.0</ele><time>2026-04-06T09:15:46.001Z</time></trkpt><trkpt lat="14.462968688766901" lon="120.96461885883973"><ele>7.999999999999999</ele><time>2026-04-06T09:15:47.001Z</time></trkpt><trkpt lat="14.463012382391154" lon="120.96467448341465"><ele>8.0</ele><time>2026-04-06T09:15:48.001Z</time></trkpt><trkpt lat="14.463054312337444" lon="120.96474108190989"><ele>8.0</ele><time>2026-04-06T09:15:49.001Z</time></trkpt><trkpt lat="14.463093917454987" lon="120.96480392941127"><ele>8.0</ele><time>2026-04-06T09:15:50.001Z</time></trkpt><trkpt lat="14.463166225517774" lon="120.96490751399521"><ele>7.999999999999999</ele><time>2026-04-06T09:15:52.001Z</time></trkpt><trkpt lat="14.463223262590452" lon="120.96498466659754"><ele>8.0</ele><time>2026-04-06T09:15:54.001Z</time></trkpt><trkpt lat="14.463258178060444" lon="120.96504336432373"><ele>8.200000000000001</ele><time>2026-04-06T09:15:57.001Z</time></trkpt><trkpt lat="14.463303240687999" lon="120.96511061965165"><ele>8.4</ele><time>2026-04-06T09:15:59.001Z</time></trkpt><trkpt lat="14.463365921681156" lon="120.96520509805895"><ele>8.600000000000001</ele><time>2026-04-06T09:16:01.001Z</time></trkpt><trkpt lat="14.46342690027898" lon="120.96529888900423"><ele>8.8</ele><time>2026-04-06T09:16:03.001Z</time></trkpt><trkpt lat="14.463463721419053" lon="120.96535213571488"><ele>9.0</ele><time>2026-04-06T09:16:04.001Z</time></trkpt><trkpt lat="14.463537908404012" lon="120.96546138629668"><ele>9.0</ele><time>2026-04-06T09:16:06.001Z</time></trkpt><trkpt lat="14.463579585420375" lon="120.96552331163585"><ele>9.0</ele><time>2026-04-06T09:16:07.001Z</time></trkpt><trkpt lat="14.463636571581507" lon="120.96561032300164"><ele>9.0</ele><time>2026-04-06T09:16:09.001Z</time></trkpt><trkpt lat="14.463686883834658" lon="120.96565333739446"><ele>9.0</ele><time>2026-04-06T09:16:12.001Z</time></trkpt><trkpt lat="14.463723978449016" lon="120.96572418949147"><ele>9.0</ele><time>2026-04-06T09:16:14.001Z</time></trkpt><trkpt lat="14.463778854905199" lon="120.96580245268143"><ele>9.0</ele><time>2026-04-06T09:16:16.001Z</time></trkpt><trkpt lat="14.46383616963002" lon="120.96587920894109"><ele>9.0</ele><time>2026-04-06T09:16:18.001Z</time></trkpt><trkpt lat="14.463873705798429" lon="120.96593395144714"><ele>9.0</ele><time>2026-04-06T09:16:19.001Z</time></trkpt><trkpt lat="14.463908885853206" lon="120.96599950041923"><ele>9.0</ele><time>2026-04-06T09:16:20.001Z</time></trkpt><trkpt lat="14.46394691777208" lon="120.96607204329709"><ele>9.0</ele><time>2026-04-06T09:16:21.001Z</time></trkpt><trkpt lat="14.463996811493727" lon="120.96615099945801"><ele>9.0</ele><time>2026-04-06T09:16:22.001Z</time></trkpt><trkpt lat="14.4640455026025" lon="120.96623285385962"><ele>9.0</ele><time>2026-04-06T09:16:23.001Z</time></trkpt><trkpt lat="14.464089206222473" lon="120.96630743258514"><ele>9.000000000000002</ele><time>2026-04-06T09:16:24.001Z</time></trkpt><trkpt lat="14.464131700837177" lon="120.96637628979569"><ele>9.0</ele><time>2026-04-06T09:16:25.001Z</time></trkpt><trkpt lat="14.46416929589372" lon="120.96644249324389"><ele>9.0</ele><time>2026-04-06T09:16:26.001Z</time></trkpt><trkpt lat="14.46420784675935" lon="120.96650618046901"><ele>9.0</ele><time>2026-04-06T09:16:27.001Z</time></trkpt><trkpt lat="14.464249449641814" lon="120.96657654684766"><ele>9.0</ele><time>2026-04-06T09:16:28.001Z</time></trkpt><trkpt lat="14.464288805121782" lon="120.96664178685259"><ele>9.000000000000002</ele><time>2026-04-06T09:16:29.001Z</time></trkpt><trkpt lat="14.464321092598052" lon="120.96670065941342"><ele>9.0</ele><time>2026-04-06T09:16:30.001Z</time></trkpt><trkpt lat="14.464350201031966" lon="120.96675927534903"><ele>8.8</ele><time>2026-04-06T09:16:31.001Z</time></trkpt><trkpt lat="14.464413347333338" lon="120.96686339734977"><ele>8.600000000000001</ele><time>2026-04-06T09:16:33.001Z</time></trkpt><trkpt lat="14.464485633025085" lon="120.96696914744007"><ele>8.4</ele><time>2026-04-06T09:16:35.001Z</time></trkpt><trkpt lat="14.464528522395248" lon="120.96702279212761"><ele>8.200000000000001</ele><time>2026-04-06T09:16:36.001Z</time></trkpt><trkpt lat="14.464575035730675" lon="120.96707657011578"><ele>8.0</ele><time>2026-04-06T09:16:37.001Z</time></trkpt><trkpt lat="14.464630883579494" lon="120.96713800252837"><ele>8.5</ele><time>2026-04-06T09:16:38.001Z</time></trkpt><trkpt lat="14.464690843650093" lon="120.96719066809128"><ele>9.0</ele><time>2026-04-06T09:16:39.001Z</time></trkpt><trkpt lat="14.46476146710385" lon="120.96724606782651"><ele>9.5</ele><time>2026-04-06T09:16:40.001Z</time></trkpt><trkpt lat="14.46483418229023" lon="120.9673001378146"><ele>10.0</ele><time>2026-04-06T09:16:41.001Z</time></trkpt><trkpt lat="14.464910596221056" lon="120.96736114946994"><ele>10.5</ele><time>2026-04-06T09:16:42.001Z</time></trkpt><trkpt lat="14.464978820738617" lon="120.96741530692061"><ele>11.0</ele><time>2026-04-06T09:16:43.001Z</time></trkpt><trkpt lat="14.465055680961141" lon="120.9674762897279"><ele>10.8</ele><time>2026-04-06T09:16:44.001Z</time></trkpt><trkpt lat="14.46512233273912" lon="120.96752827792382"><ele>10.600000000000001</ele><time>2026-04-06T09:16:45.001Z</time></trkpt><trkpt lat="14.465187096746476" lon="120.96757305037953"><ele>10.4</ele><time>2026-04-06T09:16:46.001Z</time></trkpt><trkpt lat="14.465248876013423" lon="120.96761285061599"><ele>10.2</ele><time>2026-04-06T09:16:47.001Z</time></trkpt><trkpt lat="14.465358170890354" lon="120.96766939930356"><ele>10.0</ele><time>2026-04-06T09:16:49.001Z</time></trkpt><trkpt lat="14.465450823141316" lon="120.96772844120986"><ele>9.5</ele><time>2026-04-06T09:16:51.001Z</time></trkpt><trkpt lat="14.465509174793517" lon="120.96777425340537"><ele>9.0</ele><time>2026-04-06T09:16:53Z</time></trkpt><trkpt lat="14.465564031538168" lon="120.96781202650286"><ele>8.5</ele><time>2026-04-06T09:16:56Z</time></trkpt><trkpt lat="14.465614667586948" lon="120.96786148000592"><ele>8.0</ele><time>2026-04-06T09:18:08.001Z</time></trkpt><trkpt lat="14.465685936207343" lon="120.9679195881159"><ele>7.500000000000001</ele><time>2026-04-06T09:18:10.001Z</time></trkpt><trkpt lat="14.465747033403018" lon="120.9679640177122"><ele>7.0</ele><time>2026-04-06T09:18:11.001Z</time></trkpt><trkpt lat="14.465816216426173" lon="120.96801721619296"><ele>7.0</ele><time>2026-04-06T09:18:12.001Z</time></trkpt><trkpt lat="14.46589113988532" lon="120.96808228606423"><ele>7.0</ele><time>2026-04-06T09:18:13.001Z</time></trkpt><trkpt lat="14.465995846022578" lon="120.96814977755763"><ele>7.0</ele><time>2026-04-06T09:18:14.001Z</time></trkpt><trkpt lat="14.466104043882648" lon="120.9682232992978"><ele>7.0</ele><time>2026-04-06T09:18:15.001Z</time></trkpt><trkpt lat="14.46620770714753" lon="120.968349334925"><ele>7.25</ele><time>2026-04-06T09:18:17.001Z</time></trkpt><trkpt lat="14.46630083510118" lon="120.96842652682794"><ele>7.5</ele><time>2026-04-06T09:18:18.001Z</time></trkpt><trkpt lat="14.466401230120315" lon="120.96850835976487"><ele>7.75</ele><time>2026-04-06T09:18:19.001Z</time></trkpt><trkpt lat="14.466499608806133" lon="120.96858986359568"><ele>8.0</ele><time>2026-04-06T09:18:20.001Z</time></trkpt><trkpt lat="14.466590778470575" lon="120.96866266273817"><ele>8.0</ele><time>2026-04-06T09:18:21.001Z</time></trkpt><trkpt lat="14.466672579626362" lon="120.9687325826406"><ele>8.0</ele><time>2026-04-06T09:18:22.001Z</time></trkpt><trkpt lat="14.466747109820782" lon="120.96879635471518"><ele>8.0</ele><time>2026-04-06T09:18:23.001Z</time></trkpt><trkpt lat="14.466814079201995" lon="120.96885489624373"><ele>8.0</ele><time>2026-04-06T09:18:24.001Z</time></trkpt><trkpt lat="14.466879262504479" lon="120.96890157044862"><ele>8.0</ele><time>2026-04-06T09:18:25.001Z</time></trkpt><trkpt lat="14.466945398914707" lon="120.96894969580786"><ele>7.999999999999999</ele><time>2026-04-06T09:18:26.001Z</time></trkpt><trkpt lat="14.467012949279423" lon="120.9690025000104"><ele>8.0</ele><time>2026-04-06T09:18:27.001Z</time></trkpt><trkpt lat="14.467082189507277" lon="120.9690603076014"><ele>8.0</ele><time>2026-04-06T09:18:28.001Z</time></trkpt><trkpt lat="14.467145170954591" lon="120.96910851421212"><ele>8.0</ele><time>2026-04-06T09:18:29.001Z</time></trkpt><trkpt lat="14.467203069405212" lon="120.96915609770552"><ele>7.999999999999999</ele><time>2026-04-06T09:18:30.001Z</time></trkpt><trkpt lat="14.467262819916169" lon="120.96920205022259"><ele>8.0</ele><time>2026-04-06T09:18:31.001Z</time></trkpt><trkpt lat="14.467312745606964" lon="120.96924466931364"><ele>7.800000000000001</ele><time>2026-04-06T09:18:32.001Z</time></trkpt><trkpt lat="14.467409904892602" lon="120.9693302577185"><ele>7.6000000000000005</ele><time>2026-04-06T09:18:34.001Z</time></trkpt><trkpt lat="14.467467222607416" lon="120.96937343830605"><ele>7.3999999999999995</ele><time>2026-04-06T09:18:35.001Z</time></trkpt><trkpt lat="14.467533108394532" lon="120.96941834302274"><ele>7.199999999999999</ele><time>2026-04-06T09:18:36.001Z</time></trkpt><trkpt lat="14.467607079329099" lon="120.96946925497909"><ele>7.0</ele><time>2026-04-06T09:18:37.001Z</time></trkpt><trkpt lat="14.4676810529835" lon="120.96953257478798"><ele>7.0</ele><time>2026-04-06T09:18:38.001Z</time></trkpt><trkpt lat="14.46775751305926" lon="120.96959356217054"><ele>6.999999999999999</ele><time>2026-04-06T09:18:39.001Z</time></trkpt><trkpt lat="14.467836355444183" lon="120.96965656179806"><ele>6.999999999999999</ele><time>2026-04-06T09:18:40.001Z</time></trkpt><trkpt lat="14.46791544266705" lon="120.96971635222951"><ele>7.0</ele><time>2026-04-06T09:18:41.001Z</time></trkpt><trkpt lat="14.467994245609544" lon="120.96976648697394"><ele>7.0</ele><time>2026-04-06T09:18:42.001Z</time></trkpt><trkpt lat="14.468063175379777" lon="120.96980924865925"><ele>7.000000000000001</ele><time>2026-04-06T09:18:43.001Z</time></trkpt><trkpt lat="14.46813418976188" lon="120.96984880197736"><ele>7.0</ele><time>2026-04-06T09:18:44.001Z</time></trkpt><trkpt lat="14.468195941597672" lon="120.96988373305379"><ele>7.0</ele><time>2026-04-06T09:18:45.001Z</time></trkpt><trkpt lat="14.468254438537269" lon="120.96991298918229"><ele>7.0</ele><time>2026-04-06T09:18:46.001Z</time></trkpt><trkpt lat="14.468368601703034" lon="120.96996409151895"><ele>7.000000000000001</ele><time>2026-04-06T09:18:48.001Z</time></trkpt><trkpt lat="14.468427390541752" lon="120.96998984361738"><ele>7.0</ele><time>2026-04-06T09:18:49.001Z</time></trkpt><trkpt lat="14.468488935527597" lon="120.97001260724858"><ele>7.166666666666667</ele><time>2026-04-06T09:18:50.001Z</time></trkpt><trkpt lat="14.468553691258336" lon="120.97003428218504"><ele>7.333333333333334</ele><time>2026-04-06T09:18:51.001Z</time></trkpt><trkpt lat="14.468628544757882" lon="120.97005869514813"><ele>7.5</ele><time>2026-04-06T09:18:52.001Z</time></trkpt><trkpt lat="14.46870748406295" lon="120.9700859208185"><ele>7.666666666666666</ele><time>2026-04-06T09:18:53.001Z</time></trkpt><trkpt lat="14.468777020685957" lon="120.97011885670932"><ele>7.833333333333333</ele><time>2026-04-06T09:18:54.001Z</time></trkpt><trkpt lat="14.46884853443666" lon="120.9701555180614"><ele>8.0</ele><time>2026-04-06T09:18:55.001Z</time></trkpt><trkpt lat="14.468916069779594" lon="120.97019927879651"><ele>7.999999999999999</ele><time>2026-04-06T09:18:56.001Z</time></trkpt><trkpt lat="14.468969632702578" lon="120.9702431943396"><ele>8.0</ele><time>2026-04-06T09:18:57.001Z</time></trkpt><trkpt lat="14.469057495535377" lon="120.97032204164637"><ele>8.0</ele><time>2026-04-06T09:18:59Z</time></trkpt><trkpt lat="14.469109847159906" lon="120.970373867796"><ele>8.0</ele><time>2026-04-06T09:19:00Z</time></trkpt><trkpt lat="14.469159413718272" lon="120.97042730455462"><ele>7.999999999999999</ele><time>2026-04-06T09:19:01Z</time></trkpt><trkpt lat="14.469196601740963" lon="120.97048221963728"><ele>8.0</ele><time>2026-04-06T09:19:02Z</time></trkpt><trkpt lat="14.469250314660561" lon="120.97054123260288"><ele>8.0</ele><time>2026-04-06T09:19:03Z</time></trkpt><trkpt lat="14.469303694759056" lon="120.97059384776034"><ele>8.0</ele><time>2026-04-06T09:19:04Z</time></trkpt><trkpt lat="14.469362956664297" lon="120.97065556721071"><ele>8.0</ele><time>2026-04-06T09:19:05Z</time></trkpt><trkpt lat="14.469425411296257" lon="120.97072603485596"><ele>8.0</ele><time>2026-04-06T09:19:06Z</time></trkpt><trkpt lat="14.469502104275696" lon="120.97080632350311"><ele>8.0</ele><time>2026-04-06T09:19:07Z</time></trkpt><trkpt lat="14.4695742604336" lon="120.97088240199454"><ele>7.833333333333333</ele><time>2026-04-06T09:19:08Z</time></trkpt><trkpt lat="14.46964327925135" lon="120.97095309061068"><ele>7.666666666666666</ele><time>2026-04-06T09:19:09Z</time></trkpt><trkpt lat="14.469697047913174" lon="120.9710170859967"><ele>7.5</ele><time>2026-04-06T09:19:10Z</time></trkpt><trkpt lat="14.46975833909879" lon="120.97108513705093"><ele>7.333333333333334</ele><time>2026-04-06T09:19:11Z</time></trkpt><trkpt lat="14.469807813668632" lon="120.97114464272728"><ele>7.166666666666667</ele><time>2026-04-06T09:19:12Z</time></trkpt><trkpt lat="14.469852288844239" lon="120.97120039349427"><ele>7.0</ele><time>2026-04-06T09:19:13Z</time></trkpt><trkpt lat="14.469899181666676" lon="120.97125954914928"><ele>7.000000000000001</ele><time>2026-04-06T09:19:14Z</time></trkpt><trkpt lat="14.469942412924324" lon="120.97131066799332"><ele>7.0</ele><time>2026-04-06T09:19:15Z</time></trkpt><trkpt lat="14.469985645879248" lon="120.97136477157522"><ele>7.0</ele><time>2026-04-06T09:19:16Z</time></trkpt><trkpt lat="14.470034985394802" lon="120.971429454035"><ele>7.0</ele><time>2026-04-06T09:19:17Z</time></trkpt><trkpt lat="14.470075066777559" lon="120.97149179903253"><ele>7.000000000000001</ele><time>2026-04-06T09:19:18Z</time></trkpt><trkpt lat="14.470130837758735" lon="120.97156771908519"><ele>7.0</ele><time>2026-04-06T09:19:19Z</time></trkpt><trkpt lat="14.47017152941434" lon="120.97163743803792"><ele>7.000000000000001</ele><time>2026-04-06T09:19:20Z</time></trkpt><trkpt lat="14.470225803524812" lon="120.97171528765416"><ele>7.0</ele><time>2026-04-06T09:19:21Z</time></trkpt><trkpt lat="14.470268936752856" lon="120.97178792537541"><ele>7.0</ele><time>2026-04-06T09:19:22Z</time></trkpt><trkpt lat="14.470323448534675" lon="120.97185778895246"><ele>7.0</ele><time>2026-04-06T09:19:23Z</time></trkpt><trkpt lat="14.470377424670541" lon="120.97193144183473"><ele>7.000000000000001</ele><time>2026-04-06T09:19:24Z</time></trkpt><trkpt lat="14.47042561806468" lon="120.97200470910947"><ele>7.0</ele><time>2026-04-06T09:19:25Z</time></trkpt><trkpt lat="14.470474392935303" lon="120.9720757585356"><ele>7.000000000000001</ele><time>2026-04-06T09:19:26Z</time></trkpt><trkpt lat="14.470513807160032" lon="120.97213680957265"><ele>7.0</ele><time>2026-04-06T09:19:27Z</time></trkpt><trkpt lat="14.47055984164634" lon="120.97220726907685"><ele>7.0</ele><time>2026-04-06T09:19:28Z</time></trkpt><trkpt lat="14.470597797141435" lon="120.97226670818138"><ele>7.0</ele><time>2026-04-06T09:19:29Z</time></trkpt><trkpt lat="14.470650036326276" lon="120.97234005246332"><ele>7.000000000000001</ele><time>2026-04-06T09:19:30Z</time></trkpt><trkpt lat="14.470685844182107" lon="120.97240816490022"><ele>7.0</ele><time>2026-04-06T09:19:31Z</time></trkpt><trkpt lat="14.470718981841118" lon="120.97246929539709"><ele>7.000000000000001</ele><time>2026-04-06T09:19:32Z</time></trkpt><trkpt lat="14.470750460754779" lon="120.9725282078753"><ele>7.0</ele><time>2026-04-06T09:19:33Z</time></trkpt><trkpt lat="14.470783404631568" lon="120.9725922860625"><ele>7.0</ele><time>2026-04-06T09:19:34Z</time></trkpt><trkpt lat="14.470817031730506" lon="120.97266278205394"><ele>7.0</ele><time>2026-04-06T09:19:35Z</time></trkpt><trkpt lat="14.470857651717457" lon="120.97274191004827"><ele>7.000000000000001</ele><time>2026-04-06T09:19:36Z</time></trkpt><trkpt lat="14.470902836914227" lon="120.97281789509871"><ele>7.0</ele><time>2026-04-06T09:19:37Z</time></trkpt><trkpt lat="14.470955868111238" lon="120.97289458173366"><ele>7.0</ele><time>2026-04-06T09:19:38Z</time></trkpt><trkpt lat="14.470989762186798" lon="120.97295413982307"><ele>6.999999999999999</ele><time>2026-04-06T09:19:39Z</time></trkpt><trkpt lat="14.471033072608746" lon="120.97303948120626"><ele>6.999999999999999</ele><time>2026-04-06T09:19:41Z</time></trkpt><trkpt lat="14.471072309282693" lon="120.97312249585183"><ele>7.0</ele><time>2026-04-06T09:19:43Z</time></trkpt><trkpt lat="14.471109641150159" lon="120.97319972286626"><ele>7.0</ele><time>2026-04-06T09:19:45.001Z</time></trkpt><trkpt lat="14.471167235253514" lon="120.97331203590905"><ele>6.857142857142857</ele><time>2026-04-06T09:19:47.001Z</time></trkpt><trkpt lat="14.471205611750422" lon="120.97338415882854"><ele>6.714285714285714</ele><time>2026-04-06T09:19:48.001Z</time></trkpt><trkpt lat="14.47123901961138" lon="120.97345101471252"><ele>6.571428571428571</ele><time>2026-04-06T09:19:49.001Z</time></trkpt><trkpt lat="14.471276353001533" lon="120.97352456789672"><ele>6.428571428571429</ele><time>2026-04-06T09:19:50.001Z</time></trkpt><trkpt lat="14.471315602630371" lon="120.97359641441969"><ele>6.285714285714286</ele><time>2026-04-06T09:19:51.001Z</time></trkpt><trkpt lat="14.471345079468895" lon="120.97365387221132"><ele>6.142857142857142</ele><time>2026-04-06T09:19:52.001Z</time></trkpt><trkpt lat="14.471375617344199" lon="120.97371782410464"><ele>6.0</ele><time>2026-04-06T09:19:53.001Z</time></trkpt><trkpt lat="14.471406054672268" lon="120.9737845316366"><ele>6.0</ele><time>2026-04-06T09:19:54.001Z</time></trkpt><trkpt lat="14.471454575300532" lon="120.97387054772146"><ele>6.0</ele><time>2026-04-06T09:19:56.001Z</time></trkpt><trkpt lat="14.471490816596917" lon="120.97395097099198"><ele>6.0</ele><time>2026-04-06T09:19:59.001Z</time></trkpt><trkpt lat="14.471525081621776" lon="120.97402271125694"><ele>6.0</ele><time>2026-04-06T09:20:01.001Z</time></trkpt><trkpt lat="14.471551721485508" lon="120.97408171894277"><ele>6.0</ele><time>2026-04-06T09:20:03.001Z</time></trkpt><trkpt lat="14.471588932512324" lon="120.97415449489331"><ele>6.0</ele><time>2026-04-06T09:20:08.001Z</time></trkpt><trkpt lat="14.471619286008325" lon="120.9742170722772"><ele>6.199999999999999</ele><time>2026-04-06T09:20:11.001Z</time></trkpt><trkpt lat="14.471657223003783" lon="120.97428684901223"><ele>6.3999999999999995</ele><time>2026-04-06T09:20:13.001Z</time></trkpt><trkpt lat="14.471711472548419" lon="120.97440329253212"><ele>6.6</ele><time>2026-04-06T09:20:15.001Z</time></trkpt><trkpt lat="14.471746155251957" lon="120.97447353069279"><ele>6.8</ele><time>2026-04-06T09:20:16.001Z</time></trkpt><trkpt lat="14.471787943344165" lon="120.97455198931816"><ele>7.0</ele><time>2026-04-06T09:20:17.001Z</time></trkpt><trkpt lat="14.471829538654589" lon="120.97463503477691"><ele>7.0</ele><time>2026-04-06T09:20:18.001Z</time></trkpt><trkpt lat="14.471873521019354" lon="120.97471847842617"><ele>6.999999999999999</ele><time>2026-04-06T09:20:19.001Z</time></trkpt><trkpt lat="14.4719271689036" lon="120.97480773376834"><ele>6.999999999999999</ele><time>2026-04-06T09:20:20.001Z</time></trkpt><trkpt lat="14.471978102258348" lon="120.9748943791285"><ele>7.0</ele><time>2026-04-06T09:20:21.001Z</time></trkpt><trkpt lat="14.472023279921162" lon="120.97497844220088"><ele>7.0</ele><time>2026-04-06T09:20:22.001Z</time></trkpt><trkpt lat="14.472076039035503" lon="120.97505776571104"><ele>7.000000000000001</ele><time>2026-04-06T09:20:23.001Z</time></trkpt><trkpt lat="14.472127087001828" lon="120.97513805039746"><ele>7.0</ele><time>2026-04-06T09:20:24.001Z</time></trkpt><trkpt lat="14.472172638276694" lon="120.97520868348954"><ele>7.0</ele><time>2026-04-06T09:20:25.001Z</time></trkpt><trkpt lat="14.472218351338283" lon="120.97527905650631"><ele>7.0</ele><time>2026-04-06T09:20:26.001Z</time></trkpt><trkpt lat="14.472260646523912" lon="120.97534537095669"><ele>7.000000000000001</ele><time>2026-04-06T09:20:27.001Z</time></trkpt><trkpt lat="14.472297222310953" lon="120.97540135290907"><ele>7.0</ele><time>2026-04-06T09:20:28.001Z</time></trkpt><trkpt lat="14.47235788983315" lon="120.97549584682754"><ele>7.000000000000001</ele><time>2026-04-06T09:20:30.001Z</time></trkpt><trkpt lat="14.472398683259435" lon="120.97554825115617"><ele>7.0</ele><time>2026-04-06T09:20:31.001Z</time></trkpt><trkpt lat="14.472439690279352" lon="120.97559975134239"><ele>7.0</ele><time>2026-04-06T09:20:32.001Z</time></trkpt><trkpt lat="14.472525002433226" lon="120.97569581929056"><ele>7.0</ele><time>2026-04-06T09:20:34.001Z</time></trkpt><trkpt lat="14.472569528983197" lon="120.97574384646846"><ele>7.000000000000001</ele><time>2026-04-06T09:20:35.001Z</time></trkpt><trkpt lat="14.472640509105872" lon="120.97581732158261"><ele>7.0</ele><time>2026-04-06T09:20:37.001Z</time></trkpt><trkpt lat="14.472702966813253" lon="120.97588698586583"><ele>7.000000000000001</ele><time>2026-04-06T09:20:39.001Z</time></trkpt><trkpt lat="14.472762470588416" lon="120.9759531733465"><ele>7.0</ele><time>2026-04-06T09:20:41.001Z</time></trkpt><trkpt lat="14.47282287284956" lon="120.97602844022512"><ele>7.0</ele><time>2026-04-06T09:20:43.001Z</time></trkpt><trkpt lat="14.472881586702735" lon="120.97610198200196"><ele>7.0</ele><time>2026-04-06T09:20:45.001Z</time></trkpt><trkpt lat="14.472928554459852" lon="120.97616084229847"><ele>7.000000000000001</ele><time>2026-04-06T09:20:47.001Z</time></trkpt><trkpt lat="14.472975399963586" lon="120.97621794489484"><ele>7.0</ele><time>2026-04-06T09:20:50.001Z</time></trkpt><trkpt lat="14.473026834431746" lon="120.97629405732289"><ele>7.000000000000001</ele><time>2026-04-06T09:20:53.001Z</time></trkpt><trkpt lat="14.473061346835074" lon="120.97635766481196"><ele>7.0</ele><time>2026-04-06T09:20:56.001Z</time></trkpt><trkpt lat="14.473103902693502" lon="120.97641372616117"><ele>7.0</ele><time>2026-04-06T09:21:01.001Z</time></trkpt><trkpt lat="14.47315257242312" lon="120.97648409757898"><ele>7.0</ele><time>2026-04-06T09:21:04Z</time></trkpt><trkpt lat="14.473202326303813" lon="120.97654851378087"><ele>7.000000000000001</ele><time>2026-04-06T09:21:07Z</time></trkpt><trkpt lat="14.473259530956113" lon="120.97660848636929"><ele>7.0</ele><time>2026-04-06T09:21:09Z</time></trkpt><trkpt lat="14.473295518815757" lon="120.97669285763382"><ele>6.833333333333334</ele><time>2026-04-06T09:21:11Z</time></trkpt><trkpt lat="14.473355440610773" lon="120.97679549137688"><ele>6.666666666666667</ele><time>2026-04-06T09:21:13Z</time></trkpt><trkpt lat="14.473388453547068" lon="120.97685563127432"><ele>6.5</ele><time>2026-04-06T09:21:14Z</time></trkpt><trkpt lat="14.473431723514485" lon="120.97692399007795"><ele>6.333333333333334</ele><time>2026-04-06T09:21:15Z</time></trkpt><trkpt lat="14.473474409226888" lon="120.97699865334005"><ele>6.166666666666667</ele><time>2026-04-06T09:21:16Z</time></trkpt><trkpt lat="14.473526564258503" lon="120.97707428052274"><ele>6.0</ele><time>2026-04-06T09:21:17Z</time></trkpt><trkpt lat="14.473566986182984" lon="120.97714459131493"><ele>6.0</ele><time>2026-04-06T09:21:18Z</time></trkpt><trkpt lat="14.47360733817721" lon="120.97720160936602"><ele>6.0</ele><time>2026-04-06T09:21:19Z</time></trkpt><trkpt lat="14.473670121554841" lon="120.97729778749039"><ele>6.0</ele><time>2026-04-06T09:21:21Z</time></trkpt><trkpt lat="14.473717693068364" lon="120.97738056826392"><ele>6.0</ele><time>2026-04-06T09:21:23Z</time></trkpt><trkpt lat="14.473755654699424" lon="120.97745879461287"><ele>6.0</ele><time>2026-04-06T09:21:25Z</time></trkpt><trkpt lat="14.473799399771844" lon="120.97753763580221"><ele>6.0</ele><time>2026-04-06T09:21:27Z</time></trkpt><trkpt lat="14.473843454194775" lon="120.97760659486035"><ele>6.0</ele><time>2026-04-06T09:21:29Z</time></trkpt><trkpt lat="14.473889258101389" lon="120.97767388143996"><ele>6.0</ele><time>2026-04-06T09:21:31Z</time></trkpt><trkpt lat="14.473945947849515" lon="120.97778627018921"><ele>6.0</ele><time>2026-04-06T09:21:33Z</time></trkpt><trkpt lat="14.473973410271316" lon="120.97786964819942"><ele>6.0</ele><time>2026-04-06T09:21:35Z</time></trkpt><trkpt lat="14.47398743625455" lon="120.97793428930608"><ele>6.0</ele><time>2026-04-06T09:21:36Z</time></trkpt><trkpt lat="14.473977825396934" lon="120.9780524009772"><ele>6.0</ele><time>2026-04-06T09:21:38Z</time></trkpt><trkpt lat="14.473921868704428" lon="120.97816987456441"><ele>6.0</ele><time>2026-04-06T09:21:40Z</time></trkpt><trkpt lat="14.473894893234046" lon="120.97823521055152"><ele>6.0</ele><time>2026-04-06T09:21:41Z</time></trkpt><trkpt lat="14.473872702466135" lon="120.9783021053899"><ele>6.0</ele><time>2026-04-06T09:21:42.001Z</time></trkpt><trkpt lat="14.473846847770636" lon="120.97836203981308"><ele>6.0</ele><time>2026-04-06T09:21:43.001Z</time></trkpt><trkpt lat="14.473809758940451" lon="120.97846726903333"><ele>6.0</ele><time>2026-04-06T09:21:45.001Z</time></trkpt><trkpt lat="14.473771808356386" lon="120.97853430483188"><ele>6.6</ele><time>2026-04-06T09:21:47.001Z</time></trkpt><trkpt lat="14.473742506929318" lon="120.97859352545963"><ele>7.199999999999999</ele><time>2026-04-06T09:21:49.001Z</time></trkpt><trkpt lat="14.473714377323457" lon="120.97872972944393"><ele>7.800000000000001</ele><time>2026-04-06T09:21:51.001Z</time></trkpt><trkpt lat="14.473705822687085" lon="120.97880030450874"><ele>8.4</ele><time>2026-04-06T09:21:52.001Z</time></trkpt><trkpt lat="14.473694466553766" lon="120.97888958804162"><ele>9.0</ele><time>2026-04-06T09:21:53.001Z</time></trkpt><trkpt lat="14.473713142467826" lon="120.97902341440621"><ele>9.0</ele><time>2026-04-06T09:21:54.001Z</time></trkpt><trkpt lat="14.473731119154008" lon="120.97915031780319"><ele>9.0</ele><time>2026-04-06T09:21:55.001Z</time></trkpt><trkpt lat="14.47375013472977" lon="120.97928638663073"><ele>9.0</ele><time>2026-04-06T09:21:56.001Z</time></trkpt><trkpt lat="14.473767466664345" lon="120.97942434825737"><ele>9.0</ele><time>2026-04-06T09:21:57.001Z</time></trkpt><trkpt lat="14.47378497454142" lon="120.97957037056428"><ele>8.25</ele><time>2026-04-06T09:21:58.001Z</time></trkpt><trkpt lat="14.473803010064538" lon="120.97971446273849"><ele>7.5</ele><time>2026-04-06T09:21:59.001Z</time></trkpt><trkpt lat="14.473820815773257" lon="120.9798515435208"><ele>6.75</ele><time>2026-04-06T09:22:00.001Z</time></trkpt><trkpt lat="14.473836237770126" lon="120.97997149900836"><ele>6.0</ele><time>2026-04-06T09:22:01.001Z</time></trkpt><trkpt lat="14.473858945551424" lon="120.98008953474404"><ele>5.8</ele><time>2026-04-06T09:22:02.001Z</time></trkpt><trkpt lat="14.473892546197096" lon="120.9801904170315"><ele>5.6</ele><time>2026-04-06T09:22:03.001Z</time></trkpt><trkpt lat="14.473932066132752" lon="120.98028703238"><ele>5.4</ele><time>2026-04-06T09:22:04.001Z</time></trkpt><trkpt lat="14.473990961926829" lon="120.98038870517611"><ele>5.2</ele><time>2026-04-06T09:22:05.001Z</time></trkpt><trkpt lat="14.474054275808294" lon="120.98048890773838"><ele>5.0</ele><time>2026-04-06T09:22:06.001Z</time></trkpt><trkpt lat="14.474113208404777" lon="120.98058525972274"><ele>5.0</ele><time>2026-04-06T09:22:07.001Z</time></trkpt><trkpt lat="14.474171108838474" lon="120.98068799762378"><ele>5.0</ele><time>2026-04-06T09:22:08.001Z</time></trkpt><trkpt lat="14.474243628804292" lon="120.98079721473428"><ele>5.0</ele><time>2026-04-06T09:22:09.001Z</time></trkpt><trkpt lat="14.474319855250071" lon="120.98090640577202"><ele>5.0</ele><time>2026-04-06T09:22:10.001Z</time></trkpt><trkpt lat="14.47440368760382" lon="120.98102671674452"><ele>6.0</ele><time>2026-04-06T09:22:11.001Z</time></trkpt><trkpt lat="14.474488387486348" lon="120.98115209550858"><ele>7.0</ele><time>2026-04-06T09:22:12.001Z</time></trkpt><trkpt lat="14.47457922690688" lon="120.98127925382842"><ele>8.0</ele><time>2026-04-06T09:22:13.001Z</time></trkpt><trkpt lat="14.474686654071508" lon="120.98140698708201"><ele>8.0</ele><time>2026-04-06T09:22:14.001Z</time></trkpt><trkpt lat="14.474800451746459" lon="120.98152737586955"><ele>8.0</ele><time>2026-04-06T09:22:15.001Z</time></trkpt><trkpt lat="14.47492116242754" lon="120.98164626902569"><ele>8.0</ele><time>2026-04-06T09:22:16.001Z</time></trkpt><trkpt lat="14.475042095459449" lon="120.981768594231"><ele>8.0</ele><time>2026-04-06T09:22:17.001Z</time></trkpt><trkpt lat="14.475163985685628" lon="120.9818930312544"><ele>8.0</ele><time>2026-04-06T09:22:18.001Z</time></trkpt><trkpt lat="14.475285859932677" lon="120.98201732830104"><ele>8.0</ele><time>2026-04-06T09:22:19.001Z</time></trkpt><trkpt lat="14.47540892227549" lon="120.98214249889034"><ele>8.0</ele><time>2026-04-06T09:22:20.001Z</time></trkpt><trkpt lat="14.475528869862016" lon="120.98226618133384"><ele>8.0</ele><time>2026-04-06T09:22:21.001Z</time></trkpt><trkpt lat="14.475651615420471" lon="120.98239278027505"><ele>8.0</ele><time>2026-04-06T09:22:22.001Z</time></trkpt><trkpt lat="14.475776448566405" lon="120.98252038351374"><ele>7.333333333333333</ele><time>2026-04-06T09:22:23.001Z</time></trkpt><trkpt lat="14.475902905500055" lon="120.98264884591998"><ele>6.666666666666666</ele><time>2026-04-06T09:22:24.001Z</time></trkpt><trkpt lat="14.476026726781765" lon="120.98277534260012"><ele>6.0</ele><time>2026-04-06T09:22:25.001Z</time></trkpt><trkpt lat="14.476145989494057" lon="120.98289991306795"><ele>6.0</ele><time>2026-04-06T09:22:26.001Z</time></trkpt><trkpt lat="14.476263456939073" lon="120.98302103156026"><ele>6.0</ele><time>2026-04-06T09:22:27.001Z</time></trkpt><trkpt lat="14.476382439412538" lon="120.983140352562"><ele>6.0</ele><time>2026-04-06T09:22:28.001Z</time></trkpt><trkpt lat="14.476500447001586" lon="120.98325849234061"><ele>7.0</ele><time>2026-04-06T09:22:29.001Z</time></trkpt><trkpt lat="14.476616428428144" lon="120.98338021295166"><ele>8.0</ele><time>2026-04-06T09:22:30.001Z</time></trkpt><trkpt lat="14.47672979006201" lon="120.98350023291421"><ele>9.0</ele><time>2026-04-06T09:22:31.001Z</time></trkpt><trkpt lat="14.476843924835316" lon="120.98362145859976"><ele>9.0</ele><time>2026-04-06T09:22:32.001Z</time></trkpt><trkpt lat="14.476954533955153" lon="120.98373329823715"><ele>9.0</ele><time>2026-04-06T09:22:33.001Z</time></trkpt><trkpt lat="14.477058485441962" lon="120.98383783925735"><ele>9.0</ele><time>2026-04-06T09:22:34.001Z</time></trkpt><trkpt lat="14.477156116791313" lon="120.98393888119584"><ele>9.0</ele><time>2026-04-06T09:22:35.001Z</time></trkpt><trkpt lat="14.477252402678062" lon="120.98404123790586"><ele>7.25</ele><time>2026-04-06T09:22:36.001Z</time></trkpt><trkpt lat="14.477350831976283" lon="120.98414588954212"><ele>5.5</ele><time>2026-04-06T09:22:37.001Z</time></trkpt><trkpt lat="14.477453461334235" lon="120.98425000793853"><ele>3.75</ele><time>2026-04-06T09:22:38.001Z</time></trkpt><trkpt lat="14.477556877547544" lon="120.98435654630505"><ele>2.0</ele><time>2026-04-06T09:22:39.001Z</time></trkpt><trkpt lat="14.477657483739343" lon="120.98445576276985"><ele>2.0</ele><time>2026-04-06T09:22:40.001Z</time></trkpt><trkpt lat="14.477759837112115" lon="120.98454832578706"><ele>2.0</ele><time>2026-04-06T09:22:41.001Z</time></trkpt><trkpt lat="14.477866675569349" lon="120.98464357603447"><ele>2.0</ele><time>2026-04-06T09:22:42.001Z</time></trkpt><trkpt lat="14.477969262392511" lon="120.98474952746496"><ele>2.0</ele><time>2026-04-06T09:22:43.001Z</time></trkpt><trkpt lat="14.47807942738615" lon="120.98486276886086"><ele>3.25</ele><time>2026-04-06T09:22:44.001Z</time></trkpt><trkpt lat="14.478185145837108" lon="120.98497751385611"><ele>4.5</ele><time>2026-04-06T09:22:45.001Z</time></trkpt><trkpt lat="14.478284973651746" lon="120.9850818032118"><ele>5.75</ele><time>2026-04-06T09:22:46.001Z</time></trkpt><trkpt lat="14.478364580562987" lon="120.98516213276568"><ele>7.0</ele><time>2026-04-06T09:22:47.001Z</time></trkpt><trkpt lat="14.478424113040637" lon="120.985223572449"><ele>7.666666666666667</ele><time>2026-04-06T09:22:48.001Z</time></trkpt><trkpt lat="14.47848364599458" lon="120.98528636888359"><ele>8.333333333333334</ele><time>2026-04-06T09:22:49.001Z</time></trkpt><trkpt lat="14.478548013508037" lon="120.98535410537237"><ele>9.0</ele><time>2026-04-06T09:22:50.001Z</time></trkpt><trkpt lat="14.478608792050169" lon="120.98541882923038"><ele>9.666666666666666</ele><time>2026-04-06T09:22:51.001Z</time></trkpt><trkpt lat="14.478670392912385" lon="120.98548171768212"><ele>10.333333333333332</ele><time>2026-04-06T09:22:52.001Z</time></trkpt><trkpt lat="14.478723593700455" lon="120.98553691197664"><ele>11.0</ele><time>2026-04-06T09:22:53.001Z</time></trkpt><trkpt lat="14.478773889268163" lon="120.98558888431263"><ele>9.4</ele><time>2026-04-06T09:22:54.001Z</time></trkpt><trkpt lat="14.478852989053799" lon="120.98567730875178"><ele>7.800000000000001</ele><time>2026-04-06T09:22:56.001Z</time></trkpt><trkpt lat="14.478906650468124" lon="120.98573180434167"><ele>6.2</ele><time>2026-04-06T09:22:57.001Z</time></trkpt><trkpt lat="14.478965351784224" lon="120.98578908268526"><ele>4.6</ele><time>2026-04-06T09:22:58.001Z</time></trkpt><trkpt lat="14.479039180695025" lon="120.98586015943746"><ele>3.0</ele><time>2026-04-06T09:22:59.001Z</time></trkpt><trkpt lat="14.479110406399151" lon="120.98593441139214"><ele>2.75</ele><time>2026-04-06T09:23:00.001Z</time></trkpt><trkpt lat="14.479189409602943" lon="120.98600968922284"><ele>2.5</ele><time>2026-04-06T09:23:01.001Z</time></trkpt><trkpt lat="14.479270285711015" lon="120.98608974567517"><ele>2.25</ele><time>2026-04-06T09:23:02.001Z</time></trkpt><trkpt lat="14.479354039174764" lon="120.98617457118512"><ele>2.0</ele><time>2026-04-06T09:23:03.001Z</time></trkpt><trkpt lat="14.479439171064882" lon="120.98625952690985"><ele>2.0</ele><time>2026-04-06T09:23:04.001Z</time></trkpt><trkpt lat="14.479524063162824" lon="120.98635043633544"><ele>2.0</ele><time>2026-04-06T09:23:05.001Z</time></trkpt><trkpt lat="14.479615788571795" lon="120.98644696388348"><ele>2.0</ele><time>2026-04-06T09:23:06.001Z</time></trkpt><trkpt lat="14.479718909023552" lon="120.98654836470908"><ele>2.0</ele><time>2026-04-06T09:23:07.001Z</time></trkpt><trkpt lat="14.479830440544998" lon="120.98666080430633"><ele>2.6666666666666665</ele><time>2026-04-06T09:23:08.001Z</time></trkpt><trkpt lat="14.479943102130328" lon="120.98678185928335"><ele>3.333333333333333</ele><time>2026-04-06T09:23:09.001Z</time></trkpt><trkpt lat="14.48005084039014" lon="120.98689844626122"><ele>4.0</ele><time>2026-04-06T09:23:10.001Z</time></trkpt><trkpt lat="14.480150029152231" lon="120.9870055652815"><ele>4.0</ele><time>2026-04-06T09:23:11.001Z</time></trkpt><trkpt lat="14.480241548689067" lon="120.98710126186178"><ele>4.0</ele><time>2026-04-06T09:23:12.001Z</time></trkpt><trkpt lat="14.480329572536053" lon="120.98718487090062"><ele>4.0</ele><time>2026-04-06T09:23:13.001Z</time></trkpt><trkpt lat="14.48041976692865" lon="120.98726121254897"><ele>4.0</ele><time>2026-04-06T09:23:14.001Z</time></trkpt><trkpt lat="14.480513325587069" lon="120.98732915154002"><ele>3.75</ele><time>2026-04-06T09:23:15.001Z</time></trkpt><trkpt lat="14.480620933887918" lon="120.9874012344261"><ele>3.5</ele><time>2026-04-06T09:23:16.001Z</time></trkpt><trkpt lat="14.48074264838162" lon="120.98747836774635"><ele>3.25</ele><time>2026-04-06T09:23:17.001Z</time></trkpt><trkpt lat="14.48087465696404" lon="120.98755208105938"><ele>3.0</ele><time>2026-04-06T09:23:18.001Z</time></trkpt><trkpt lat="14.481022868601473" lon="120.98762146995406"><ele>3.0</ele><time>2026-04-06T09:23:19.001Z</time></trkpt><trkpt lat="14.481176867469728" lon="120.98769124517567"><ele>3.0</ele><time>2026-04-06T09:23:20.001Z</time></trkpt><trkpt lat="14.481336227021107" lon="120.98776383103791"><ele>3.0</ele><time>2026-04-06T09:23:21.001Z</time></trkpt><trkpt lat="14.481493812374095" lon="120.98783469124535"><ele>0.6666666666666667</ele><time>2026-04-06T09:23:22.001Z</time></trkpt><trkpt lat="14.481651303405137" lon="120.98790559201959"><ele>-1.6666666666666665</ele><time>2026-04-06T09:23:23.001Z</time></trkpt><trkpt lat="14.481802943451832" lon="120.98797814182839"><ele>-4.0</ele><time>2026-04-06T09:23:24.001Z</time></trkpt><trkpt lat="14.481947009397452" lon="120.9880474358375"><ele>-4.0</ele><time>2026-04-06T09:23:25.001Z</time></trkpt><trkpt lat="14.482076340952462" lon="120.98811594600836"><ele>-4.0</ele><time>2026-04-06T09:23:26.001Z</time></trkpt><trkpt lat="14.482210514861828" lon="120.98819377964726"><ele>-4.0</ele><time>2026-04-06T09:23:27.001Z</time></trkpt><trkpt lat="14.482354587918785" lon="120.98827459497598"><ele>-1.6666666666666665</ele><time>2026-04-06T09:23:28.001Z</time></trkpt><trkpt lat="14.48250847565004" lon="120.98835102460035"><ele>0.6666666666666667</ele><time>2026-04-06T09:23:29.001Z</time></trkpt><trkpt lat="14.482653355773843" lon="120.98842918923606"><ele>3.0</ele><time>2026-04-06T09:23:30.001Z</time></trkpt><trkpt lat="14.482764629983963" lon="120.98851753009501"><ele>3.0</ele><time>2026-04-06T09:23:31.001Z</time></trkpt><trkpt lat="14.482857045148863" lon="120.98861473646974"><ele>3.0</ele><time>2026-04-06T09:23:32.001Z</time></trkpt><trkpt lat="14.482943847589159" lon="120.98872952721378"><ele>3.0</ele><time>2026-04-06T09:23:33.001Z</time></trkpt><trkpt lat="14.483030468135642" lon="120.98885769267966"><ele>3.0</ele><time>2026-04-06T09:23:34.001Z</time></trkpt><trkpt lat="14.483066449689876" lon="120.98896402117087"><ele>3.0</ele><time>2026-04-06T09:23:35.001Z</time></trkpt><trkpt lat="14.483121235096172" lon="120.98906584374228"><ele>3.0</ele><time>2026-04-06T09:23:36.001Z</time></trkpt><trkpt lat="14.483177802132005" lon="120.98917491069211"><ele>3.0</ele><time>2026-04-06T09:23:37.001Z</time></trkpt><trkpt lat="14.483254697366702" lon="120.98929827353521"><ele>3.0</ele><time>2026-04-06T09:23:38.001Z</time></trkpt><trkpt lat="14.483310229188929" lon="120.989412055359"><ele>3.0</ele><time>2026-04-06T09:23:39.001Z</time></trkpt><trkpt lat="14.483375216386998" lon="120.98953259094992"><ele>3.0</ele><time>2026-04-06T09:23:40.001Z</time></trkpt><trkpt lat="14.483427857946843" lon="120.98963540952111"><ele>3.0</ele><time>2026-04-06T09:23:41.001Z</time></trkpt><trkpt lat="14.483472509316933" lon="120.98973735452603"><ele>3.0</ele><time>2026-04-06T09:23:42.001Z</time></trkpt><trkpt lat="14.483502216199637" lon="120.98984205777413"><ele>3.0</ele><time>2026-04-06T09:23:43.001Z</time></trkpt><trkpt lat="14.483513696123424" lon="120.98996473787926"><ele>3.0</ele><time>2026-04-06T09:23:44.001Z</time></trkpt><trkpt lat="14.483493421004525" lon="120.9900816795581"><ele>3.0</ele><time>2026-04-06T09:23:45.001Z</time></trkpt><trkpt lat="14.483454637779776" lon="120.99021120648194"><ele>3.0</ele><time>2026-04-06T09:23:46.001Z</time></trkpt><trkpt lat="14.483405983594484" lon="120.99033386405729"><ele>4.0</ele><time>2026-04-06T09:23:47.001Z</time></trkpt><trkpt lat="14.48334679291313" lon="120.99046050962563"><ele>5.0</ele><time>2026-04-06T09:23:48.001Z</time></trkpt><trkpt lat="14.483292164168654" lon="120.99059866032071"><ele>6.0</ele><time>2026-04-06T09:23:49.001Z</time></trkpt><trkpt lat="14.483244121165768" lon="120.99073895361225"><ele>7.0</ele><time>2026-04-06T09:23:50.001Z</time></trkpt><trkpt lat="14.483203090773886" lon="120.99087515072917"><ele>7.0</ele><time>2026-04-06T09:23:51.001Z</time></trkpt><trkpt lat="14.483171666844235" lon="120.99100941984757"><ele>7.0</ele><time>2026-04-06T09:23:52.001Z</time></trkpt><trkpt lat="14.483155706768247" lon="120.99112678901277"><ele>7.0</ele><time>2026-04-06T09:23:53.001Z</time></trkpt><trkpt lat="14.48315521686391" lon="120.99124674118401"><ele>7.0</ele><time>2026-04-06T09:23:54.001Z</time></trkpt><trkpt lat="14.483167122514601" lon="120.99135991732366"><ele>7.0</ele><time>2026-04-06T09:23:55.001Z</time></trkpt><trkpt lat="14.483197252893298" lon="120.9914717812358"><ele>6.999999999999999</ele><time>2026-04-06T09:23:56.001Z</time></trkpt><trkpt lat="14.483242304720589" lon="120.99157756288379"><ele>6.999999999999999</ele><time>2026-04-06T09:23:57.001Z</time></trkpt><trkpt lat="14.483284647687393" lon="120.9916801630188"><ele>7.0</ele><time>2026-04-06T09:23:58.001Z</time></trkpt><trkpt lat="14.483319260854667" lon="120.99177960979122"><ele>7.0</ele><time>2026-04-06T09:23:59.001Z</time></trkpt><trkpt lat="14.48334858661359" lon="120.99187181513413"><ele>6.166666666666667</ele><time>2026-04-06T09:24:00.001Z</time></trkpt><trkpt lat="14.483377138150045" lon="120.9919546297788"><ele>5.333333333333334</ele><time>2026-04-06T09:24:01.001Z</time></trkpt><trkpt lat="14.483405662683968" lon="120.99203055475178"><ele>4.5</ele><time>2026-04-06T09:24:02.001Z</time></trkpt><trkpt lat="14.483432871711893" lon="120.99209445988217"><ele>3.666666666666667</ele><time>2026-04-06T09:24:03.001Z</time></trkpt><trkpt lat="14.483476890367477" lon="120.99218425050674"><ele>2.833333333333333</ele><time>2026-04-06T09:24:04.001Z</time></trkpt><trkpt lat="14.483514690943004" lon="120.99225398127403"><ele>2.0</ele><time>2026-04-06T09:24:05.001Z</time></trkpt><trkpt lat="14.483559989864423" lon="120.9923156838405"><ele>2.0</ele><time>2026-04-06T09:24:06.001Z</time></trkpt><trkpt lat="14.48362783533223" lon="120.99238991371902"><ele>2.0</ele><time>2026-04-06T09:24:07.001Z</time></trkpt><trkpt lat="14.483711615527351" lon="120.99245134862379"><ele>2.0</ele><time>2026-04-06T09:24:08.001Z</time></trkpt><trkpt lat="14.483806762843027" lon="120.99250688400537"><ele>2.0</ele><time>2026-04-06T09:24:09.001Z</time></trkpt><trkpt lat="14.483913822905139" lon="120.992574580332"><ele>2.0</ele><time>2026-04-06T09:24:10.001Z</time></trkpt><trkpt lat="14.484029514097621" lon="120.99265463591986"><ele>3.0</ele><time>2026-04-06T09:24:11.001Z</time></trkpt><trkpt lat="14.484143740739972" lon="120.99273873450416"><ele>4.0</ele><time>2026-04-06T09:24:12.001Z</time></trkpt><trkpt lat="14.484265937145514" lon="120.99282204789533"><ele>5.0</ele><time>2026-04-06T09:24:13.001Z</time></trkpt><trkpt lat="14.48438127459323" lon="120.9929003386411"><ele>6.0</ele><time>2026-04-06T09:24:14.001Z</time></trkpt><trkpt lat="14.484509932330797" lon="120.99299197279893"><ele>6.333333333333334</ele><time>2026-04-06T09:24:15.001Z</time></trkpt><trkpt lat="14.484638148432653" lon="120.99307846060535"><ele>6.666666666666667</ele><time>2026-04-06T09:24:16.001Z</time></trkpt><trkpt lat="14.48477411379944" lon="120.99316871281361"><ele>7.0</ele><time>2026-04-06T09:24:17.001Z</time></trkpt><trkpt lat="14.48491146556707" lon="120.99326151943465"><ele>5.666666666666667</ele><time>2026-04-06T09:24:18.001Z</time></trkpt><trkpt lat="14.485051975464465" lon="120.99336232884326"><ele>4.333333333333334</ele><time>2026-04-06T09:24:19.001Z</time></trkpt><trkpt lat="14.485202633937613" lon="120.99346630739424"><ele>3.0</ele><time>2026-04-06T09:24:20.001Z</time></trkpt><trkpt lat="14.485347462029571" lon="120.99357994029263"><ele>3.333333333333333</ele><time>2026-04-06T09:24:21.001Z</time></trkpt><trkpt lat="14.485488069221075" lon="120.99370667180956"><ele>3.6666666666666665</ele><time>2026-04-06T09:24:22.001Z</time></trkpt><trkpt lat="14.485615082410584" lon="120.99383824313198"><ele>4.0</ele><time>2026-04-06T09:24:23.001Z</time></trkpt><trkpt lat="14.485736243484697" lon="120.99397529833392"><ele>4.0</ele><time>2026-04-06T09:24:24.001Z</time></trkpt><trkpt lat="14.485857858516061" lon="120.99411686623529"><ele>4.0</ele><time>2026-04-06T09:24:25.001Z</time></trkpt><trkpt lat="14.485967910487004" lon="120.99425774038842"><ele>4.0</ele><time>2026-04-06T09:24:26.001Z</time></trkpt><trkpt lat="14.48607616688453" lon="120.99440156511282"><ele>4.0</ele><time>2026-04-06T09:24:27.001Z</time></trkpt><trkpt lat="14.486156752294423" lon="120.9945468760088"><ele>4.0</ele><time>2026-04-06T09:24:28.001Z</time></trkpt><trkpt lat="14.486220838293388" lon="120.99470240340779"><ele>4.0</ele><time>2026-04-06T09:24:29.001Z</time></trkpt><trkpt lat="14.486261805462975" lon="120.99486505752594"><ele>4.333333333333333</ele><time>2026-04-06T09:24:30.001Z</time></trkpt><trkpt lat="14.486275467775757" lon="120.99503000616356"><ele>4.666666666666667</ele><time>2026-04-06T09:24:31.001Z</time></trkpt><trkpt lat="14.486273589960955" lon="120.99519484844218"><ele>5.0</ele><time>2026-04-06T09:24:32.001Z</time></trkpt><trkpt lat="14.486256051756188" lon="120.99536195236044"><ele>5.0</ele><time>2026-04-06T09:24:33.001Z</time></trkpt><trkpt lat="14.486217622869926" lon="120.99552936786353"><ele>5.0</ele><time>2026-04-06T09:24:34.001Z</time></trkpt><trkpt lat="14.486159084913044" lon="120.99569532991399"><ele>5.0</ele><time>2026-04-06T09:24:35.001Z</time></trkpt><trkpt lat="14.486086315510939" lon="120.99585837487487"><ele>4.666666666666667</ele><time>2026-04-06T09:24:36.001Z</time></trkpt><trkpt lat="14.48600948954736" lon="120.99602292298741"><ele>4.333333333333333</ele><time>2026-04-06T09:24:37.001Z</time></trkpt><trkpt lat="14.485941982299723" lon="120.99618618930296"><ele>4.0</ele><time>2026-04-06T09:24:38.001Z</time></trkpt><trkpt lat="14.485891865706368" lon="120.99636050819296"><ele>4.0</ele><time>2026-04-06T09:24:39.001Z</time></trkpt><trkpt lat="14.485866885418618" lon="120.9965331712745"><ele>4.0</ele><time>2026-04-06T09:24:40.001Z</time></trkpt><trkpt lat="14.485870353912018" lon="120.99670887384691"><ele>4.0</ele><time>2026-04-06T09:24:41.001Z</time></trkpt><trkpt lat="14.485889279619734" lon="120.99688488824918"><ele>5.0</ele><time>2026-04-06T09:24:42.001Z</time></trkpt><trkpt lat="14.48593538045812" lon="120.99706012516909"><ele>6.0</ele><time>2026-04-06T09:24:43.001Z</time></trkpt><trkpt lat="14.486006362651288" lon="120.99721694337708"><ele>7.0</ele><time>2026-04-06T09:24:44.001Z</time></trkpt><trkpt lat="14.486090721827034" lon="120.99736291798789"><ele>7.0</ele><time>2026-04-06T09:24:45.001Z</time></trkpt><trkpt lat="14.48618878364785" lon="120.99747920492933"><ele>7.0</ele><time>2026-04-06T09:24:46.001Z</time></trkpt><trkpt lat="14.486303741728562" lon="120.9975862486849"><ele>7.0</ele><time>2026-04-06T09:24:47.001Z</time></trkpt><trkpt lat="14.486420182670283" lon="120.99770359107609"><ele>7.333333333333334</ele><time>2026-04-06T09:24:48.001Z</time></trkpt><trkpt lat="14.486533316823499" lon="120.99783254585945"><ele>7.666666666666666</ele><time>2026-04-06T09:24:49.001Z</time></trkpt><trkpt lat="14.486643781139033" lon="120.99796509608578"><ele>8.0</ele><time>2026-04-06T09:24:50.001Z</time></trkpt><trkpt lat="14.486756840613241" lon="120.99809459358671"><ele>8.0</ele><time>2026-04-06T09:24:51.001Z</time></trkpt><trkpt lat="14.486872067772357" lon="120.99822572281307"><ele>8.0</ele><time>2026-04-06T09:24:52.001Z</time></trkpt><trkpt lat="14.486979981372004" lon="120.99835445762373"><ele>8.0</ele><time>2026-04-06T09:24:53.001Z</time></trkpt><trkpt lat="14.487088070137151" lon="120.99848414057489"><ele>7.0</ele><time>2026-04-06T09:24:54.001Z</time></trkpt><trkpt lat="14.487196413588892" lon="120.99861339828215"><ele>6.0</ele><time>2026-04-06T09:24:55.001Z</time></trkpt><trkpt lat="14.48730818480533" lon="120.9987498668404"><ele>5.0</ele><time>2026-04-06T09:24:56.001Z</time></trkpt><trkpt lat="14.487422540953832" lon="120.998884587373"><ele>5.0</ele><time>2026-04-06T09:24:57.001Z</time></trkpt><trkpt lat="14.487536087306399" lon="120.99901429332407"><ele>5.0</ele><time>2026-04-06T09:24:58.001Z</time></trkpt><trkpt lat="14.487649013659777" lon="120.99914129774326"><ele>5.0</ele><time>2026-04-06T09:24:59.001Z</time></trkpt><trkpt lat="14.48775754895199" lon="120.99925616536906"><ele>5.75</ele><time>2026-04-06T09:25:00.001Z</time></trkpt><trkpt lat="14.487869413606221" lon="120.99935734496312"><ele>6.5</ele><time>2026-04-06T09:25:01.001Z</time></trkpt><trkpt lat="14.487989411829988" lon="120.99944592195212"><ele>7.25</ele><time>2026-04-06T09:25:02.001Z</time></trkpt><trkpt lat="14.488110863181342" lon="120.99951695476467"><ele>8.0</ele><time>2026-04-06T09:25:03.001Z</time></trkpt><trkpt lat="14.488239984758053" lon="120.99957326442923"><ele>8.0</ele><time>2026-04-06T09:25:04.001Z</time></trkpt><trkpt lat="14.488374378097758" lon="120.99962220813913"><ele>8.0</ele><time>2026-04-06T09:25:05.001Z</time></trkpt><trkpt lat="14.488512846397205" lon="120.99965940560675"><ele>8.0</ele><time>2026-04-06T09:25:06.001Z</time></trkpt><trkpt lat="14.488648320631059" lon="120.9996784205761"><ele>8.0</ele><time>2026-04-06T09:25:07.001Z</time></trkpt><trkpt lat="14.488786257924994" lon="120.99968159418887"><ele>6.75</ele><time>2026-04-06T09:25:08.001Z</time></trkpt><trkpt lat="14.48892960088135" lon="120.99967578385576"><ele>5.5</ele><time>2026-04-06T09:25:09.001Z</time></trkpt><trkpt lat="14.489080546675414" lon="120.99965607682186"><ele>4.25</ele><time>2026-04-06T09:25:10.001Z</time></trkpt><trkpt lat="14.48922858587736" lon="120.99962231204263"><ele>3.0</ele><time>2026-04-06T09:25:11.001Z</time></trkpt><trkpt lat="14.48937552964389" lon="120.99956946495061"><ele>3.0</ele><time>2026-04-06T09:25:12.001Z</time></trkpt><trkpt lat="14.489519679171714" lon="120.99949789319925"><ele>3.0</ele><time>2026-04-06T09:25:13.001Z</time></trkpt><trkpt lat="14.48965790729605" lon="120.99940372304653"><ele>3.0</ele><time>2026-04-06T09:25:14.001Z</time></trkpt><trkpt lat="14.489787534649658" lon="120.99928976116779"><ele>3.0</ele><time>2026-04-06T09:25:15.001Z</time></trkpt><trkpt lat="14.489909904885874" lon="120.99916793198747"><ele>3.0</ele><time>2026-04-06T09:25:16.001Z</time></trkpt><trkpt lat="14.490041157297458" lon="120.99905543202237"><ele>3.0</ele><time>2026-04-06T09:25:17.001Z</time></trkpt><trkpt lat="14.490162862166622" lon="120.9989401558637"><ele>1.6666666666666667</ele><time>2026-04-06T09:25:18.001Z</time></trkpt><trkpt lat="14.490284864896703" lon="120.99882439364657"><ele>0.33333333333333337</ele><time>2026-04-06T09:25:19.001Z</time></trkpt><trkpt lat="14.490395525106845" lon="120.99869592482335"><ele>-1.0</ele><time>2026-04-06T09:25:20.001Z</time></trkpt><trkpt lat="14.490515149046768" lon="120.99858329678361"><ele>-1.6666666666666665</ele><time>2026-04-06T09:25:21.001Z</time></trkpt><trkpt lat="14.490640012070731" lon="120.99846470396099"><ele>-2.3333333333333335</ele><time>2026-04-06T09:25:22.001Z</time></trkpt><trkpt lat="14.490783207223334" lon="120.99834465259879"><ele>-3.0</ele><time>2026-04-06T09:25:23.001Z</time></trkpt><trkpt lat="14.490903020219617" lon="120.99820113825079"><ele>-1.6666666666666667</ele><time>2026-04-06T09:25:24.001Z</time></trkpt><trkpt lat="14.491029153467965" lon="120.9980686514413"><ele>-0.33333333333333337</ele><time>2026-04-06T09:25:25.001Z</time></trkpt><trkpt lat="14.491112100305566" lon="120.99790572268319"><ele>1.0</ele><time>2026-04-06T09:25:26.001Z</time></trkpt><trkpt lat="14.491188405400909" lon="120.99774511408786"><ele>1.0</ele><time>2026-04-06T09:25:27.001Z</time></trkpt><trkpt lat="14.491253371142221" lon="120.99757828362695"><ele>1.0</ele><time>2026-04-06T09:25:28.001Z</time></trkpt><trkpt lat="14.49131134720519" lon="120.99740534084678"><ele>1.0</ele><time>2026-04-06T09:25:29.001Z</time></trkpt><trkpt lat="14.49136107538041" lon="120.99723226161747"><ele>0.6666666666666666</ele><time>2026-04-06T09:25:30.001Z</time></trkpt><trkpt lat="14.491407266203387" lon="120.99705527969313"><ele>0.3333333333333333</ele><time>2026-04-06T09:25:31.001Z</time></trkpt><trkpt lat="14.49145138607847" lon="120.99689479729507"><ele>0.0</ele><time>2026-04-06T09:25:32.001Z</time></trkpt><trkpt lat="14.491522952143345" lon="120.99675973398173"><ele>1.25</ele><time>2026-04-06T09:25:33.001Z</time></trkpt><trkpt lat="14.491590965356151" lon="120.99663078133695"><ele>2.5</ele><time>2026-04-06T09:25:34.001Z</time></trkpt><trkpt lat="14.491674141628582" lon="120.99651873816566"><ele>3.75</ele><time>2026-04-06T09:25:35.001Z</time></trkpt><trkpt lat="14.491768938426723" lon="120.99640834249112"><ele>5.0</ele><time>2026-04-06T09:25:36.001Z</time></trkpt><trkpt lat="14.491877610695136" lon="120.99632713346767"><ele>5.0</ele><time>2026-04-06T09:25:37.001Z</time></trkpt><trkpt lat="14.492003090374457" lon="120.99625318780076"><ele>5.0</ele><time>2026-04-06T09:25:38.001Z</time></trkpt><trkpt lat="14.492135953155486" lon="120.99621031741167"><ele>5.0</ele><time>2026-04-06T09:25:39.001Z</time></trkpt><trkpt lat="14.492268010755133" lon="120.99620224206853"><ele>5.0</ele><time>2026-04-06T09:25:40.001Z</time></trkpt><trkpt lat="14.4924002138151" lon="120.99621311052385"><ele>6.0</ele><time>2026-04-06T09:25:41.001Z</time></trkpt><trkpt lat="14.492530710918196" lon="120.99620318583547"><ele>7.0</ele><time>2026-04-06T09:25:42.001Z</time></trkpt><trkpt lat="14.492669877502241" lon="120.99621492537642"><ele>8.0</ele><time>2026-04-06T09:25:43.001Z</time></trkpt><trkpt lat="14.492804687422145" lon="120.99621747812837"><ele>9.0</ele><time>2026-04-06T09:25:44.001Z</time></trkpt><trkpt lat="14.492924103264757" lon="120.99622141635858"><ele>9.0</ele><time>2026-04-06T09:25:45.001Z</time></trkpt><trkpt lat="14.493045438579859" lon="120.99622612987046"><ele>9.0</ele><time>2026-04-06T09:25:46.001Z</time></trkpt><trkpt lat="14.493161003081086" lon="120.99623304661331"><ele>9.0</ele><time>2026-04-06T09:25:47.001Z</time></trkpt><trkpt lat="14.493274840270397" lon="120.9962370701176"><ele>9.0</ele><time>2026-04-06T09:25:48.001Z</time></trkpt><trkpt lat="14.493395470950075" lon="120.9962397590455"><ele>9.0</ele><time>2026-04-06T09:25:49.001Z</time></trkpt><trkpt lat="14.493512811394357" lon="120.996241931437"><ele>9.0</ele><time>2026-04-06T09:25:50.001Z</time></trkpt><trkpt lat="14.49362607367311" lon="120.99626790060046"><ele>9.0</ele><time>2026-04-06T09:25:51.001Z</time></trkpt><trkpt lat="14.493734295390333" lon="120.99628109806442"><ele>9.0</ele><time>2026-04-06T09:25:52.001Z</time></trkpt><trkpt lat="14.493824759983944" lon="120.9963025252165"><ele>9.0</ele><time>2026-04-06T09:25:53.001Z</time></trkpt><trkpt lat="14.49391103140835" lon="120.99632928926817"><ele>8.8</ele><time>2026-04-06T09:25:54.001Z</time></trkpt><trkpt lat="14.493988996859422" lon="120.99637453265306"><ele>8.600000000000001</ele><time>2026-04-06T09:25:55.001Z</time></trkpt><trkpt lat="14.494066195314115" lon="120.99641100558786"><ele>8.4</ele><time>2026-04-06T09:25:56.001Z</time></trkpt><trkpt lat="14.494143166141464" lon="120.99648883356335"><ele>8.200000000000001</ele><time>2026-04-06T09:25:57.001Z</time></trkpt><trkpt lat="14.494210058655947" lon="120.99658167857706"><ele>8.0</ele><time>2026-04-06T09:25:58.001Z</time></trkpt><trkpt lat="14.494277040821117" lon="120.99668981432175"><ele>8.0</ele><time>2026-04-06T09:25:59.001Z</time></trkpt><trkpt lat="14.494324927883824" lon="120.99680133099251"><ele>8.0</ele><time>2026-04-06T09:26:00.001Z</time></trkpt><trkpt lat="14.494368550717617" lon="120.996913655659"><ele>8.0</ele><time>2026-04-06T09:26:01.001Z</time></trkpt><trkpt lat="14.494419055994289" lon="120.9970307577834"><ele>8.0</ele><time>2026-04-06T09:26:02.001Z</time></trkpt><trkpt lat="14.494481001507593" lon="120.99715783868184"><ele>8.0</ele><time>2026-04-06T09:26:03.001Z</time></trkpt><trkpt lat="14.494545776539299" lon="120.99729542093208"><ele>8.0</ele><time>2026-04-06T09:26:04.001Z</time></trkpt><trkpt lat="14.494612407787455" lon="120.9974447245554"><ele>8.0</ele><time>2026-04-06T09:26:05.001Z</time></trkpt><trkpt lat="14.49467864320205" lon="120.99760055339421"><ele>6.333333333333333</ele><time>2026-04-06T09:26:06.001Z</time></trkpt><trkpt lat="14.494745908735041" lon="120.99776121771185"><ele>4.666666666666666</ele><time>2026-04-06T09:26:07.001Z</time></trkpt><trkpt lat="14.494818750552483" lon="120.99792177088122"><ele>3.0</ele><time>2026-04-06T09:26:08.001Z</time></trkpt><trkpt lat="14.494900914580471" lon="120.9980859749885"><ele>3.0</ele><time>2026-04-06T09:26:09.001Z</time></trkpt><trkpt lat="14.494984531286402" lon="120.99824659356534"><ele>3.0</ele><time>2026-04-06T09:26:10.001Z</time></trkpt><trkpt lat="14.495066386684003" lon="120.99840425941447"><ele>3.0</ele><time>2026-04-06T09:26:11.001Z</time></trkpt><trkpt lat="14.495149783313765" lon="120.99855937480294"><ele>4.666666666666666</ele><time>2026-04-06T09:26:12.001Z</time></trkpt><trkpt lat="14.495228262964387" lon="120.99870818075017"><ele>6.333333333333333</ele><time>2026-04-06T09:26:13.001Z</time></trkpt><trkpt lat="14.49530080008411" lon="120.99884902363019"><ele>8.0</ele><time>2026-04-06T09:26:14.001Z</time></trkpt><trkpt lat="14.495373670061959" lon="120.99897615194723"><ele>7.4</ele><time>2026-04-06T09:26:15.001Z</time></trkpt><trkpt lat="14.49543609175862" lon="120.99909079744467"><ele>6.800000000000001</ele><time>2026-04-06T09:26:16.001Z</time></trkpt><trkpt lat="14.495493993328855" lon="120.999195046598"><ele>6.2</ele><time>2026-04-06T09:26:17.001Z</time></trkpt><trkpt lat="14.495526423478877" lon="120.99929021881256"><ele>5.6</ele><time>2026-04-06T09:26:18.001Z</time></trkpt><trkpt lat="14.495563903039656" lon="120.999361960422"><ele>5.0</ele><time>2026-04-06T09:26:19.001Z</time></trkpt><trkpt lat="14.495607201284505" lon="120.9994102519293"><ele>5.0</ele><time>2026-04-06T09:26:20.001Z</time></trkpt><trkpt lat="14.495641615699444" lon="120.9994835834711"><ele>5.0</ele><time>2026-04-06T09:26:22.001Z</time></trkpt><trkpt lat="14.495671217814907" lon="120.99954784210749"><ele>5.0</ele><time>2026-04-06T09:26:25.001Z</time></trkpt><trkpt lat="14.495701059443727" lon="120.99960627115503"><ele>5.0</ele><time>2026-04-06T09:26:29.001Z</time></trkpt><trkpt lat="14.49573355241078" lon="120.99967967729798"><ele>5.0</ele><time>2026-04-06T09:26:31.001Z</time></trkpt><trkpt lat="14.495791721222114" lon="120.99978112080464"><ele>5.0</ele><time>2026-04-06T09:26:33.001Z</time></trkpt><trkpt lat="14.495860879765466" lon="120.99989639958655"><ele>5.0</ele><time>2026-04-06T09:26:35.001Z</time></trkpt><trkpt lat="14.495918666665398" lon="120.99999270641374"><ele>5.0</ele><time>2026-04-06T09:26:37.001Z</time></trkpt><trkpt lat="14.495957947780992" lon="121.00005800949212"><ele>5.0</ele><time>2026-04-06T09:26:39.001Z</time></trkpt><trkpt lat="14.496009558116514" lon="121.00014380933617"><ele>5.0</ele><time>2026-04-06T09:26:42.001Z</time></trkpt><trkpt lat="14.496052544906414" lon="121.00021527293954"><ele>5.0</ele><time>2026-04-06T09:26:45.001Z</time></trkpt><trkpt lat="14.496238676316368" lon="121.00021137426013"><ele>4.8</ele><time>2026-04-06T09:26:48.001Z</time></trkpt><trkpt lat="14.496313031510415" lon="121.00008809970818"><ele>4.6</ele><time>2026-04-06T09:26:50.001Z</time></trkpt><trkpt lat="14.496359655262971" lon="121.00003670838399"><ele>4.4</ele><time>2026-04-06T09:26:51.001Z</time></trkpt><trkpt lat="14.496409985463375" lon="120.99998123160536"><ele>4.2</ele><time>2026-04-06T09:26:52.001Z</time></trkpt><trkpt lat="14.496455954500009" lon="120.99993056194694"><ele>4.0</ele><time>2026-04-06T09:26:53.001Z</time></trkpt><trkpt lat="14.496537489549466" lon="120.99984068942629"><ele>4.0</ele><time>2026-04-06T09:26:55.001Z</time></trkpt><trkpt lat="14.49661932498907" lon="120.9997504858016"><ele>4.0</ele><time>2026-04-06T09:26:57.001Z</time></trkpt><trkpt lat="14.496674586765634" lon="120.99968969817472"><ele>4.0</ele><time>2026-04-06T09:26:58.001Z</time></trkpt><trkpt lat="14.496730134343974" lon="120.99962889470196"><ele>4.0</ele><time>2026-04-06T09:26:59.001Z</time></trkpt><trkpt lat="14.49679763071348" lon="120.99954061030844"><ele>4.0</ele><time>2026-04-06T09:27:00.001Z</time></trkpt><trkpt lat="14.496846036484062" lon="120.99946487554601"><ele>4.0</ele><time>2026-04-06T09:27:01.001Z</time></trkpt><trkpt lat="14.496867968948955" lon="120.99934586779759"><ele>4.0</ele><time>2026-04-06T09:27:02.001Z</time></trkpt><trkpt lat="14.49689535653074" lon="120.99923220197755"><ele>4.0</ele><time>2026-04-06T09:27:03.001Z</time></trkpt><trkpt lat="14.496923551402748" lon="120.99911597527564"><ele>4.0</ele><time>2026-04-06T09:27:04.001Z</time></trkpt><trkpt lat="14.49695115717573" lon="120.99900238030477"><ele>4.0</ele><time>2026-04-06T09:27:05.001Z</time></trkpt><trkpt lat="14.49698092736081" lon="120.99887994044758"><ele>4.0</ele><time>2026-04-06T09:27:06.001Z</time></trkpt><trkpt lat="14.497009518546717" lon="120.99876568083577"><ele>4.0</ele><time>2026-04-06T09:27:07.001Z</time></trkpt><trkpt lat="14.497047824160346" lon="120.99866546221075"><ele>4.0</ele><time>2026-04-06T09:27:08.001Z</time></trkpt><trkpt lat="14.497099436131403" lon="120.99859633761969"><ele>4.0</ele><time>2026-04-06T09:27:09.001Z</time></trkpt><trkpt lat="14.49715113575515" lon="120.99851892091549"><ele>4.166666666666666</ele><time>2026-04-06T09:27:10.001Z</time></trkpt><trkpt lat="14.497197268265129" lon="120.99844984059604"><ele>4.333333333333333</ele><time>2026-04-06T09:27:11.001Z</time></trkpt><trkpt lat="14.497241695043865" lon="120.99839058371548"><ele>4.5</ele><time>2026-04-06T09:27:12.001Z</time></trkpt><trkpt lat="14.497284160780655" lon="120.99833372608494"><ele>4.666666666666667</ele><time>2026-04-06T09:27:13.001Z</time></trkpt><trkpt lat="14.497326468672584" lon="120.9982770798034"><ele>4.833333333333334</ele><time>2026-04-06T09:27:14.001Z</time></trkpt><trkpt lat="14.497366640969108" lon="120.99822329288286"><ele>5.0</ele><time>2026-04-06T09:27:15.001Z</time></trkpt><trkpt lat="14.497437079853283" lon="120.99814977245852"><ele>5.0</ele><time>2026-04-06T09:27:17.001Z</time></trkpt><trkpt lat="14.497499858958893" lon="120.99810221617076"><ele>5.0</ele><time>2026-04-06T09:27:19.001Z</time></trkpt><trkpt lat="14.497583534021182" lon="120.99807071307639"><ele>5.0</ele><time>2026-04-06T09:27:21.001Z</time></trkpt><trkpt lat="14.497706203945306" lon="120.99805137353765"><ele>5.0</ele><time>2026-04-06T09:27:23.001Z</time></trkpt><trkpt lat="14.497771161999735" lon="120.99803872549946"><ele>5.0</ele><time>2026-04-06T09:27:24.001Z</time></trkpt><trkpt lat="14.497845046960387" lon="120.99802433929565"><ele>5.0</ele><time>2026-04-06T09:27:25.001Z</time></trkpt><trkpt lat="14.497928750973765" lon="120.99800799352252"><ele>5.0</ele><time>2026-04-06T09:27:26.001Z</time></trkpt><trkpt lat="14.498019582436163" lon="120.99799015193489"><ele>5.0</ele><time>2026-04-06T09:27:27.001Z</time></trkpt><trkpt lat="14.498111628752138" lon="120.997972071721"><ele>5.0</ele><time>2026-04-06T09:27:28.001Z</time></trkpt><trkpt lat="14.4982064459484" lon="120.997953447237"><ele>5.0</ele><time>2026-04-06T09:27:29.001Z</time></trkpt><trkpt lat="14.49829610214598" lon="120.99793583650103"><ele>5.0</ele><time>2026-04-06T09:27:30.001Z</time></trkpt><trkpt lat="14.498392251034948" lon="120.99791695043977"><ele>5.0</ele><time>2026-04-06T09:27:31.001Z</time></trkpt><trkpt lat="14.498486624673129" lon="120.99789841311477"><ele>5.0</ele><time>2026-04-06T09:27:32.001Z</time></trkpt><trkpt lat="14.49858134473584" lon="120.99787824382778"><ele>5.0</ele><time>2026-04-06T09:27:33.001Z</time></trkpt><trkpt lat="14.49866363803608" lon="120.99785860377682"><ele>5.0</ele><time>2026-04-06T09:27:34.001Z</time></trkpt><trkpt lat="14.49875757337667" lon="120.9978361159094"><ele>5.0</ele><time>2026-04-06T09:27:35.001Z</time></trkpt><trkpt lat="14.49884559500851" lon="120.99781634086871"><ele>4.666666666666667</ele><time>2026-04-06T09:27:36.001Z</time></trkpt><trkpt lat="14.498926522362098" lon="120.9977982300406"><ele>4.333333333333334</ele><time>2026-04-06T09:27:37.001Z</time></trkpt><trkpt lat="14.498999370509665" lon="120.99778192726734"><ele>4.0</ele><time>2026-04-06T09:27:38Z</time></trkpt><trkpt lat="14.499076268200652" lon="120.99776471824211"><ele>3.666666666666667</ele><time>2026-04-06T09:27:39Z</time></trkpt><trkpt lat="14.499151410286037" lon="120.99774790210621"><ele>3.3333333333333335</ele><time>2026-04-06T09:27:40Z</time></trkpt><trkpt lat="14.49922457995351" lon="120.9977315273789"><ele>3.0</ele><time>2026-04-06T09:27:41Z</time></trkpt><trkpt lat="14.499299700787361" lon="120.9977148083519"><ele>3.0</ele><time>2026-04-06T09:27:42Z</time></trkpt><trkpt lat="14.499384393580916" lon="120.9976959666689"><ele>3.0</ele><time>2026-04-06T09:27:43Z</time></trkpt><trkpt lat="14.499459587225296" lon="120.99767923780765"><ele>3.0</ele><time>2026-04-06T09:27:44Z</time></trkpt><trkpt lat="14.499547185766993" lon="120.99765974338027"><ele>3.0</ele><time>2026-04-06T09:27:45Z</time></trkpt><trkpt lat="14.499634819466388" lon="120.99764024112967"><ele>3.0</ele><time>2026-04-06T09:27:46Z</time></trkpt><trkpt lat="14.49971719806414" lon="120.99762190836292"><ele>3.0</ele><time>2026-04-06T09:27:47Z</time></trkpt><trkpt lat="14.49979783197631" lon="120.99760396386363"><ele>3.1666666666666665</ele><time>2026-04-06T09:27:48Z</time></trkpt><trkpt lat="14.499862839498963" lon="120.99758949690515"><ele>3.333333333333333</ele><time>2026-04-06T09:27:49Z</time></trkpt><trkpt lat="14.499931198681013" lon="120.99757428405954"><ele>3.5</ele><time>2026-04-06T09:27:50Z</time></trkpt><trkpt lat="14.50002780588679" lon="120.99755278482617"><ele>3.6666666666666665</ele><time>2026-04-06T09:27:52Z</time></trkpt><trkpt lat="14.500094569158579" lon="120.99751619849621"><ele>3.833333333333333</ele><time>2026-04-06T09:27:54Z</time></trkpt><trkpt lat="14.500189467602123" lon="120.99747849755"><ele>4.0</ele><time>2026-04-06T09:27:56Z</time></trkpt><trkpt lat="14.50025017978461" lon="120.99743377008052"><ele>4.2</ele><time>2026-04-06T09:27:59Z</time></trkpt><trkpt lat="14.500312143604146" lon="120.99740348462132"><ele>4.4</ele><time>2026-04-06T09:28:05.001Z</time></trkpt><trkpt lat="14.500430682518708" lon="120.99746783102684"><ele>4.6</ele><time>2026-04-06T09:28:08.001Z</time></trkpt><trkpt lat="14.500496925211023" lon="120.99751725195591"><ele>4.8</ele><time>2026-04-06T09:28:09.001Z</time></trkpt><trkpt lat="14.500568002970201" lon="120.99757883737455"><ele>5.0</ele><time>2026-04-06T09:28:10.001Z</time></trkpt><trkpt lat="14.500649262881614" lon="120.99764635049867"><ele>5.0</ele><time>2026-04-06T09:28:11.001Z</time></trkpt><trkpt lat="14.500722137522493" lon="120.99770188821594"><ele>5.0</ele><time>2026-04-06T09:28:12.001Z</time></trkpt><trkpt lat="14.500799941356208" lon="120.99774740745735"><ele>5.0</ele><time>2026-04-06T09:28:13.001Z</time></trkpt><trkpt lat="14.50087124020314" lon="120.99779491626795"><ele>5.0</ele><time>2026-04-06T09:28:14.001Z</time></trkpt><trkpt lat="14.500938186571648" lon="120.99783489700732"><ele>5.0</ele><time>2026-04-06T09:28:15.001Z</time></trkpt><trkpt lat="14.501014690175026" lon="120.99788411248659"><ele>5.0</ele><time>2026-04-06T09:28:16.001Z</time></trkpt><trkpt lat="14.50108308235948" lon="120.9979263640382"><ele>5.0</ele><time>2026-04-06T09:28:17.001Z</time></trkpt><trkpt lat="14.501156203886028" lon="120.99796875881779"><ele>5.0</ele><time>2026-04-06T09:28:18.001Z</time></trkpt><trkpt lat="14.501215044879554" lon="120.9980030728817"><ele>5.0</ele><time>2026-04-06T09:28:19.001Z</time></trkpt><trkpt lat="14.501276924823891" lon="120.99803591544799"><ele>5.0</ele><time>2026-04-06T09:28:20.001Z</time></trkpt><trkpt lat="14.501354457025437" lon="120.99808069279806"><ele>5.0</ele><time>2026-04-06T09:28:21.001Z</time></trkpt><trkpt lat="14.501408956109621" lon="120.99811337708147"><ele>5.0</ele><time>2026-04-06T09:28:22.001Z</time></trkpt><trkpt lat="14.501468174139031" lon="120.99814720166557"><ele>5.0</ele><time>2026-04-06T09:28:23.001Z</time></trkpt><trkpt lat="14.501525523293791" lon="120.99818307992967"><ele>5.2</ele><time>2026-04-06T09:28:24.001Z</time></trkpt><trkpt lat="14.501604587526938" lon="120.99821868218046"><ele>5.4</ele><time>2026-04-06T09:28:25.001Z</time></trkpt><trkpt lat="14.50166114816025" lon="120.99825636261458"><ele>5.6</ele><time>2026-04-06T09:28:26.001Z</time></trkpt><trkpt lat="14.501719205590957" lon="120.99829391342078"><ele>5.8</ele><time>2026-04-06T09:28:27.001Z</time></trkpt><trkpt lat="14.501822989785817" lon="120.99836181132692"><ele>6.0</ele><time>2026-04-06T09:28:29.001Z</time></trkpt><trkpt lat="14.50192841630591" lon="120.99842900273767"><ele>6.5</ele><time>2026-04-06T09:28:31.001Z</time></trkpt><trkpt lat="14.501984864600425" lon="120.99846158464145"><ele>7.0</ele><time>2026-04-06T09:28:32.001Z</time></trkpt><trkpt lat="14.502039739767199" lon="120.99849772533574"><ele>7.5</ele><time>2026-04-06T09:28:33.001Z</time></trkpt><trkpt lat="14.502096220932804" lon="120.99852988187139"><ele>8.0</ele><time>2026-04-06T09:28:34.001Z</time></trkpt><trkpt lat="14.502200720405394" lon="120.99859222354179"><ele>8.5</ele><time>2026-04-06T09:28:36.001Z</time></trkpt><trkpt lat="14.50230868348469" lon="120.99865599785352"><ele>9.0</ele><time>2026-04-06T09:28:38.001Z</time></trkpt><trkpt lat="14.502379641408627" lon="120.99869320980385"><ele>9.0</ele><time>2026-04-06T09:28:39.001Z</time></trkpt><trkpt lat="14.502442582718022" lon="120.9987316605348"><ele>9.0</ele><time>2026-04-06T09:28:40.001Z</time></trkpt><trkpt lat="14.502517051009939" lon="120.99876618630388"><ele>9.0</ele><time>2026-04-06T09:28:41.001Z</time></trkpt><trkpt lat="14.502592279817137" lon="120.99879783663293"><ele>9.0</ele><time>2026-04-06T09:28:42.001Z</time></trkpt><trkpt lat="14.50264998471012" lon="120.99884503097427"><ele>9.0</ele><time>2026-04-06T09:28:43.001Z</time></trkpt><trkpt lat="14.502717089966636" lon="120.99889567663793"><ele>9.0</ele><time>2026-04-06T09:28:44.001Z</time></trkpt><trkpt lat="14.502772923472637" lon="120.99893660010365"><ele>9.0</ele><time>2026-04-06T09:28:45.001Z</time></trkpt><trkpt lat="14.502833975097442" lon="120.99897606376503"><ele>9.0</ele><time>2026-04-06T09:28:46.001Z</time></trkpt><trkpt lat="14.502928883176702" lon="120.99902524752422"><ele>9.0</ele><time>2026-04-06T09:28:47.001Z</time></trkpt><trkpt lat="14.50302324452663" lon="120.99907275166925"><ele>9.0</ele><time>2026-04-06T09:28:48.001Z</time></trkpt><trkpt lat="14.503093232272052" lon="120.99912563593398"><ele>9.0</ele><time>2026-04-06T09:28:49.001Z</time></trkpt><trkpt lat="14.503174868772357" lon="120.9991782369622"><ele>9.0</ele><time>2026-04-06T09:28:50.001Z</time></trkpt><trkpt lat="14.503259816205121" lon="120.99923539356678"><ele>9.0</ele><time>2026-04-06T09:28:51.001Z</time></trkpt><trkpt lat="14.503351451970564" lon="120.99928808288361"><ele>9.0</ele><time>2026-04-06T09:28:52.001Z</time></trkpt><trkpt lat="14.503428987034887" lon="120.9993449929061"><ele>9.0</ele><time>2026-04-06T09:28:53.001Z</time></trkpt><trkpt lat="14.503512054563508" lon="120.99939779683214"><ele>9.0</ele><time>2026-04-06T09:28:54.001Z</time></trkpt><trkpt lat="14.50358444863948" lon="120.9994441526669"><ele>9.000000000000002</ele><time>2026-04-06T09:28:55.001Z</time></trkpt><trkpt lat="14.503651319687751" lon="120.99947707350437"><ele>9.0</ele><time>2026-04-06T09:28:56.001Z</time></trkpt><trkpt lat="14.503717658506895" lon="120.99951169558858"><ele>9.0</ele><time>2026-04-06T09:28:57.001Z</time></trkpt><trkpt lat="14.503787431968238" lon="120.99955898846127"><ele>9.0</ele><time>2026-04-06T09:28:58.001Z</time></trkpt><trkpt lat="14.503837779123584" lon="120.9995984735524"><ele>9.0</ele><time>2026-04-06T09:28:59.001Z</time></trkpt><trkpt lat="14.503898268713604" lon="120.99962975551702"><ele>9.000000000000002</ele><time>2026-04-06T09:29:00.001Z</time></trkpt><trkpt lat="14.503955033219562" lon="120.9996592023815"><ele>9.0</ele><time>2026-04-06T09:29:01.001Z</time></trkpt><trkpt lat="14.504018149795572" lon="120.99968787939191"><ele>9.2</ele><time>2026-04-06T09:29:02.001Z</time></trkpt><trkpt lat="14.504079053715298" lon="120.99973658066656"><ele>9.4</ele><time>2026-04-06T09:29:03.001Z</time></trkpt><trkpt lat="14.504148585961156" lon="120.99980258264851"><ele>9.6</ele><time>2026-04-06T09:29:04.001Z</time></trkpt><trkpt lat="14.50423484044531" lon="120.99985411156896"><ele>9.8</ele><time>2026-04-06T09:29:05.001Z</time></trkpt><trkpt lat="14.504319153812476" lon="120.99992036006029"><ele>10.0</ele><time>2026-04-06T09:29:06.001Z</time></trkpt><trkpt lat="14.50440424150481" lon="120.99999024281162"><ele>10.0</ele><time>2026-04-06T09:29:07.001Z</time></trkpt><trkpt lat="14.504504691406066" lon="121.00005532659469"><ele>10.0</ele><time>2026-04-06T09:29:08.001Z</time></trkpt><trkpt lat="14.50459774563898" lon="121.0001291216346"><ele>10.0</ele><time>2026-04-06T09:29:09.001Z</time></trkpt><trkpt lat="14.504699301052119" lon="121.00019985276302"><ele>10.0</ele><time>2026-04-06T09:29:10.001Z</time></trkpt><trkpt lat="14.504807839389084" lon="121.00026852624455"><ele>9.25</ele><time>2026-04-06T09:29:11.001Z</time></trkpt><trkpt lat="14.50491659177394" lon="121.0003324086056"><ele>8.5</ele><time>2026-04-06T09:29:12.001Z</time></trkpt><trkpt lat="14.505023208258384" lon="121.00040101350233"><ele>7.75</ele><time>2026-04-06T09:29:13.001Z</time></trkpt><trkpt lat="14.505129158301514" lon="121.0004620967338"><ele>7.0</ele><time>2026-04-06T09:29:14.001Z</time></trkpt><trkpt lat="14.505229755223558" lon="121.0005290774338"><ele>7.0</ele><time>2026-04-06T09:29:15.001Z</time></trkpt><trkpt lat="14.505329741514974" lon="121.00057916853342"><ele>6.999999999999999</ele><time>2026-04-06T09:29:16.001Z</time></trkpt><trkpt lat="14.505419823536199" lon="121.00062527579759"><ele>6.999999999999999</ele><time>2026-04-06T09:29:17.001Z</time></trkpt><trkpt lat="14.505506087390108" lon="121.00066842083524"><ele>7.0</ele><time>2026-04-06T09:29:18.001Z</time></trkpt><trkpt lat="14.505590978130757" lon="121.0007103736017"><ele>7.0</ele><time>2026-04-06T09:29:19.001Z</time></trkpt><trkpt lat="14.505672670806808" lon="121.00076385797568"><ele>7.6</ele><time>2026-04-06T09:29:20.001Z</time></trkpt><trkpt lat="14.505759100152195" lon="121.00080020648456"><ele>8.2</ele><time>2026-04-06T09:29:21.001Z</time></trkpt><trkpt lat="14.505847947526696" lon="121.0008375719119"><ele>8.8</ele><time>2026-04-06T09:29:22.001Z</time></trkpt><trkpt lat="14.505942314094998" lon="121.00086541154008"><ele>9.4</ele><time>2026-04-06T09:29:23.001Z</time></trkpt><trkpt lat="14.506032736578604" lon="121.00091044955532"><ele>10.0</ele><time>2026-04-06T09:29:24.001Z</time></trkpt><trkpt lat="14.50613257233323" lon="121.00094688811652"><ele>10.0</ele><time>2026-04-06T09:29:25.001Z</time></trkpt><trkpt lat="14.506223863007158" lon="121.0009874420049"><ele>10.0</ele><time>2026-04-06T09:29:26.001Z</time></trkpt><trkpt lat="14.506302397469392" lon="121.00102243725976"><ele>10.0</ele><time>2026-04-06T09:29:27.001Z</time></trkpt><trkpt lat="14.50636893742907" lon="121.00104233320211"><ele>10.0</ele><time>2026-04-06T09:29:28Z</time></trkpt><trkpt lat="14.506431915320453" lon="121.00106494803904"><ele>10.0</ele><time>2026-04-06T09:29:29Z</time></trkpt><trkpt lat="14.506532913814846" lon="121.0011013469555"><ele>10.0</ele><time>2026-04-06T09:29:31Z</time></trkpt><trkpt lat="14.50661332698251" lon="121.00112874331055"><ele>10.0</ele><time>2026-04-06T09:29:34Z</time></trkpt><trkpt lat="14.506670066246294" lon="121.00116173892926"><ele>10.0</ele><time>2026-04-06T09:29:38Z</time></trkpt><trkpt lat="14.506765980699143" lon="121.00119842853776"><ele>10.0</ele><time>2026-04-06T09:30:07Z</time></trkpt><trkpt lat="14.506833766910754" lon="121.00122599248488"><ele>10.0</ele><time>2026-04-06T09:30:08Z</time></trkpt><trkpt lat="14.506913314416924" lon="121.00125469173263"><ele>10.0</ele><time>2026-04-06T09:30:09Z</time></trkpt><trkpt lat="14.507007097176784" lon="121.00128784923682"><ele>10.0</ele><time>2026-04-06T09:30:10Z</time></trkpt><trkpt lat="14.507092530943043" lon="121.00130796316992"><ele>9.6</ele><time>2026-04-06T09:30:11Z</time></trkpt><trkpt lat="14.50718945959335" lon="121.00134828982272"><ele>9.2</ele><time>2026-04-06T09:30:12Z</time></trkpt><trkpt lat="14.507303799285227" lon="121.0013852474851"><ele>8.8</ele><time>2026-04-06T09:30:13Z</time></trkpt><trkpt lat="14.507401010559658" lon="121.00142168699742"><ele>8.4</ele><time>2026-04-06T09:30:14Z</time></trkpt><trkpt lat="14.507509832080236" lon="121.00146478888121"><ele>8.0</ele><time>2026-04-06T09:30:15Z</time></trkpt><trkpt lat="14.50762085783561" lon="121.00151349346497"><ele>8.0</ele><time>2026-04-06T09:30:16Z</time></trkpt><trkpt lat="14.507732036040608" lon="121.00157117135015"><ele>8.0</ele><time>2026-04-06T09:30:17Z</time></trkpt><trkpt lat="14.507842813786178" lon="121.0016460896578"><ele>8.0</ele><time>2026-04-06T09:30:18Z</time></trkpt><trkpt lat="14.50794585786801" lon="121.00172582769326"><ele>8.0</ele><time>2026-04-06T09:30:19Z</time></trkpt><trkpt lat="14.508053377454011" lon="121.00177683195761"><ele>8.25</ele><time>2026-04-06T09:30:20Z</time></trkpt><trkpt lat="14.50817002263506" lon="121.00179720232062"><ele>8.5</ele><time>2026-04-06T09:30:21Z</time></trkpt><trkpt lat="14.508285685831943" lon="121.00183351237108"><ele>8.75</ele><time>2026-04-06T09:30:22Z</time></trkpt><trkpt lat="14.50841595978429" lon="121.00190004325192"><ele>9.0</ele><time>2026-04-06T09:30:23Z</time></trkpt><trkpt lat="14.508543403469314" lon="121.00195140563899"><ele>9.0</ele><time>2026-04-06T09:30:24Z</time></trkpt><trkpt lat="14.508676951327423" lon="121.00199409310878"><ele>9.0</ele><time>2026-04-06T09:30:25Z</time></trkpt><trkpt lat="14.508810929859337" lon="121.00203243703963"><ele>9.0</ele><time>2026-04-06T09:30:26Z</time></trkpt><trkpt lat="14.508947279984088" lon="121.00206316206925"><ele>9.0</ele><time>2026-04-06T09:30:27Z</time></trkpt><trkpt lat="14.509088743781744" lon="121.00208837320213"><ele>8.5</ele><time>2026-04-06T09:30:28Z</time></trkpt><trkpt lat="14.509227860475317" lon="121.00211460524297"><ele>8.0</ele><time>2026-04-06T09:30:29Z</time></trkpt><trkpt lat="14.509361057442792" lon="121.00215357574079"><ele>7.5</ele><time>2026-04-06T09:30:30Z</time></trkpt><trkpt lat="14.50950816195762" lon="121.00220743660444"><ele>7.0</ele><time>2026-04-06T09:30:31Z</time></trkpt><trkpt lat="14.50965896524783" lon="121.00226655406166"><ele>6.333333333333334</ele><time>2026-04-06T09:30:32Z</time></trkpt><trkpt lat="14.509813172325066" lon="121.00232632701972"><ele>5.666666666666667</ele><time>2026-04-06T09:30:33Z</time></trkpt><trkpt lat="14.509969608596819" lon="121.00237630984003"><ele>5.0</ele><time>2026-04-06T09:30:34Z</time></trkpt><trkpt lat="14.510123611426343" lon="121.00242749301734"><ele>5.0</ele><time>2026-04-06T09:30:35Z</time></trkpt><trkpt lat="14.510292531213175" lon="121.00248455824793"><ele>5.0</ele><time>2026-04-06T09:30:36Z</time></trkpt><trkpt lat="14.510467175486223" lon="121.0025477633917"><ele>5.0</ele><time>2026-04-06T09:30:37Z</time></trkpt><trkpt lat="14.510640640968582" lon="121.00260758715478"><ele>5.333333333333334</ele><time>2026-04-06T09:30:38Z</time></trkpt><trkpt lat="14.510806124708326" lon="121.00267227536129"><ele>5.666666666666667</ele><time>2026-04-06T09:30:39Z</time></trkpt><trkpt lat="14.510967897078935" lon="121.00272698654342"><ele>6.0</ele><time>2026-04-06T09:30:40Z</time></trkpt><trkpt lat="14.511129032987103" lon="121.00278774029304"><ele>6.0</ele><time>2026-04-06T09:30:41Z</time></trkpt><trkpt lat="14.511290788378554" lon="121.00285456336455"><ele>6.0</ele><time>2026-04-06T09:30:42Z</time></trkpt><trkpt lat="14.511457888256189" lon="121.00292980708039"><ele>6.0</ele><time>2026-04-06T09:30:43Z</time></trkpt><trkpt lat="14.51162540282055" lon="121.0029887496439"><ele>6.0</ele><time>2026-04-06T09:30:44Z</time></trkpt><trkpt lat="14.51179823457393" lon="121.0030448925939"><ele>6.0</ele><time>2026-04-06T09:30:45Z</time></trkpt><trkpt lat="14.511964396709029" lon="121.00310211726253"><ele>6.0</ele><time>2026-04-06T09:30:46Z</time></trkpt><trkpt lat="14.512112360930226" lon="121.00315027945767"><ele>6.5</ele><time>2026-04-06T09:30:47Z</time></trkpt><trkpt lat="14.512233017264249" lon="121.0031921043266"><ele>7.0</ele><time>2026-04-06T09:30:48Z</time></trkpt><trkpt lat="14.51234319173169" lon="121.003223659808"><ele>7.5</ele><time>2026-04-06T09:30:49Z</time></trkpt><trkpt lat="14.512463041721118" lon="121.00326191610789"><ele>8.0</ele><time>2026-04-06T09:30:50Z</time></trkpt><trkpt lat="14.512590514837537" lon="121.00331364287412"><ele>8.0</ele><time>2026-04-06T09:30:51Z</time></trkpt><trkpt lat="14.512722177042402" lon="121.00335874564314"><ele>8.0</ele><time>2026-04-06T09:30:52Z</time></trkpt><trkpt lat="14.512864294201393" lon="121.00340424982507"><ele>8.0</ele><time>2026-04-06T09:30:53Z</time></trkpt><trkpt lat="14.513002954869696" lon="121.00345374082993"><ele>8.0</ele><time>2026-04-06T09:30:54Z</time></trkpt><trkpt lat="14.513143515410421" lon="121.00350602737012"><ele>8.0</ele><time>2026-04-06T09:30:55.001Z</time></trkpt><trkpt lat="14.513282670612123" lon="121.00355784031072"><ele>8.0</ele><time>2026-04-06T09:30:56.001Z</time></trkpt><trkpt lat="14.513421804712392" lon="121.00360436322342"><ele>8.0</ele><time>2026-04-06T09:30:57.001Z</time></trkpt><trkpt lat="14.513551608201915" lon="121.00364260842741"><ele>8.0</ele><time>2026-04-06T09:30:58.001Z</time></trkpt><trkpt lat="14.513672596460571" lon="121.00367355208114"><ele>9.0</ele><time>2026-04-06T09:30:59.001Z</time></trkpt><trkpt lat="14.513780885800726" lon="121.00372897772112"><ele>10.0</ele><time>2026-04-06T09:31:00.001Z</time></trkpt><trkpt lat="14.51388657520056" lon="121.00376634716321"><ele>11.0</ele><time>2026-04-06T09:31:01.001Z</time></trkpt><trkpt lat="14.513998052467086" lon="121.00380576305739"><ele>12.0</ele><time>2026-04-06T09:31:02.001Z</time></trkpt><trkpt lat="14.514097772014425" lon="121.0038410216883"><ele>12.0</ele><time>2026-04-06T09:31:03.001Z</time></trkpt><trkpt lat="14.51418746237472" lon="121.00387273422021"><ele>12.0</ele><time>2026-04-06T09:31:04.001Z</time></trkpt><trkpt lat="14.51426395147897" lon="121.00389977907918"><ele>12.0</ele><time>2026-04-06T09:31:05.001Z</time></trkpt><trkpt lat="14.514341302590205" lon="121.00391121372172"><ele>12.0</ele><time>2026-04-06T09:31:06.001Z</time></trkpt><trkpt lat="14.514398709209802" lon="121.00394122480935"><ele>12.0</ele><time>2026-04-06T09:31:07.001Z</time></trkpt><trkpt lat="14.514483452129488" lon="121.00397816591655"><ele>12.0</ele><time>2026-04-06T09:31:09.001Z</time></trkpt><trkpt lat="14.514554169094131" lon="121.00399255214695"><ele>11.571428571428571</ele><time>2026-04-06T09:31:11.001Z</time></trkpt><trkpt lat="14.514619760577416" lon="121.00401172836571"><ele>11.142857142857142</ele><time>2026-04-06T09:31:14.001Z</time></trkpt><trkpt lat="14.514684875699682" lon="121.00404859003842"><ele>10.714285714285715</ele><time>2026-04-06T09:31:56Z</time></trkpt><trkpt lat="14.51475300961976" lon="121.00407300212166"><ele>10.285714285714285</ele><time>2026-04-06T09:31:59Z</time></trkpt><trkpt lat="14.514823906559231" lon="121.00410474315399"><ele>9.857142857142858</ele><time>2026-04-06T09:32:02Z</time></trkpt><trkpt lat="14.514907495146824" lon="121.00410824042257"><ele>9.428571428571429</ele><time>2026-04-06T09:32:04Z</time></trkpt><trkpt lat="14.514974565456528" lon="121.00413043420225"><ele>9.0</ele><time>2026-04-06T09:32:06Z</time></trkpt><trkpt lat="14.515067538237757" lon="121.00416176201283"><ele>9.0</ele><time>2026-04-06T09:32:09Z</time></trkpt><trkpt lat="14.51515782936396" lon="121.00418276662586"><ele>9.0</ele><time>2026-04-06T09:32:11Z</time></trkpt><trkpt lat="14.515240886739633" lon="121.00419374978736"><ele>9.0</ele><time>2026-04-06T09:32:14Z</time></trkpt><trkpt lat="14.515244885818747" lon="121.00426955249465"><ele>9.0</ele><time>2026-04-06T09:32:15Z</time></trkpt><trkpt lat="14.515318948513007" lon="121.00430103150815"><ele>9.0</ele><time>2026-04-06T09:32:18Z</time></trkpt><trkpt lat="14.515429678879077" lon="121.00413425169775"><ele>8.8</ele><time>2026-04-06T09:32:19Z</time></trkpt><trkpt lat="14.515478043723698" lon="121.00403215718087"><ele>8.600000000000001</ele><time>2026-04-06T09:32:21Z</time></trkpt><trkpt lat="14.515509230998015" lon="121.00396723807526"><ele>8.4</ele><time>2026-04-06T09:32:22Z</time></trkpt><trkpt lat="14.515546104256106" lon="121.00389047975553"><ele>8.200000000000001</ele><time>2026-04-06T09:32:23Z</time></trkpt><trkpt lat="14.51558670013115" lon="121.00380597233554"><ele>8.0</ele><time>2026-04-06T09:32:24Z</time></trkpt><trkpt lat="14.51562971408646" lon="121.00371357751125"><ele>8.0</ele><time>2026-04-06T09:32:25Z</time></trkpt><trkpt lat="14.51567701164311" lon="121.00361215751161"><ele>8.0</ele><time>2026-04-06T09:32:26Z</time></trkpt><trkpt lat="14.51572579215712" lon="121.00350574392404"><ele>8.0</ele><time>2026-04-06T09:32:27Z</time></trkpt><trkpt lat="14.515781034832129" lon="121.00339446505748"><ele>8.0</ele><time>2026-04-06T09:32:28Z</time></trkpt><trkpt lat="14.515840484376549" lon="121.00327723035565"><ele>7.5</ele><time>2026-04-06T09:32:29Z</time></trkpt><trkpt lat="14.515899190953327" lon="121.00316147155924"><ele>7.0</ele><time>2026-04-06T09:32:30Z</time></trkpt><trkpt lat="14.51595725963107" lon="121.00304704074415"><ele>6.5</ele><time>2026-04-06T09:32:31Z</time></trkpt><trkpt lat="14.516016004211798" lon="121.00293127799169"><ele>6.0</ele><time>2026-04-06T09:32:32Z</time></trkpt><trkpt lat="14.516079039723765" lon="121.00281367111981"><ele>6.0</ele><time>2026-04-06T09:32:33Z</time></trkpt><trkpt lat="14.51609894096052" lon="121.00266951955618"><ele>6.0</ele><time>2026-04-06T09:32:34Z</time></trkpt><trkpt lat="14.516166631031703" lon="121.00254275888369"><ele>6.0</ele><time>2026-04-06T09:32:35Z</time></trkpt><trkpt lat="14.516234035799485" lon="121.00240443088926"><ele>6.0</ele><time>2026-04-06T09:32:36Z</time></trkpt><trkpt lat="14.516323490969043" lon="121.002257822419"><ele>6.333333333333334</ele><time>2026-04-06T09:32:37Z</time></trkpt><trkpt lat="14.516401212323588" lon="121.00211366122777"><ele>6.666666666666667</ele><time>2026-04-06T09:32:38Z</time></trkpt><trkpt lat="14.516473143989487" lon="121.00196542087991"><ele>7.0</ele><time>2026-04-06T09:32:39Z</time></trkpt><trkpt lat="14.516547110610126" lon="121.00181422201592"><ele>6.666666666666667</ele><time>2026-04-06T09:32:40Z</time></trkpt><trkpt lat="14.51662526703931" lon="121.00165844696912"><ele>6.333333333333334</ele><time>2026-04-06T09:32:41Z</time></trkpt><trkpt lat="14.516694343457251" lon="121.001514707182"><ele>6.0</ele><time>2026-04-06T09:32:42Z</time></trkpt><trkpt lat="14.51675887856569" lon="121.00138326376997"><ele>6.0</ele><time>2026-04-06T09:32:43Z</time></trkpt><trkpt lat="14.516812601364874" lon="121.00125506649024"><ele>6.0</ele><time>2026-04-06T09:32:44Z</time></trkpt><trkpt lat="14.516858166021981" lon="121.00112491307229"><ele>6.0</ele><time>2026-04-06T09:32:45Z</time></trkpt><trkpt lat="14.516904768967928" lon="121.00100528858988"><ele>6.0</ele><time>2026-04-06T09:32:46Z</time></trkpt><trkpt lat="14.516935983103513" lon="121.00088170381535"><ele>5.75</ele><time>2026-04-06T09:32:47Z</time></trkpt><trkpt lat="14.51695892276811" lon="121.00075073453421"><ele>5.5</ele><time>2026-04-06T09:32:48Z</time></trkpt><trkpt lat="14.51697957400369" lon="121.00062183616593"><ele>5.25</ele><time>2026-04-06T09:32:49Z</time></trkpt><trkpt lat="14.516991850683366" lon="121.00050860058376"><ele>5.0</ele><time>2026-04-06T09:32:50Z</time></trkpt><trkpt lat="14.516995138204258" lon="121.00040357585362"><ele>5.0</ele><time>2026-04-06T09:32:51Z</time></trkpt><trkpt lat="14.516986869745702" lon="121.00030408442605"><ele>5.0</ele><time>2026-04-06T09:32:52Z</time></trkpt><trkpt lat="14.516984308377593" lon="121.00020474021662"><ele>5.0</ele><time>2026-04-06T09:32:53Z</time></trkpt><trkpt lat="14.516973509753507" lon="121.00009960082896"><ele>5.0</ele><time>2026-04-06T09:32:54Z</time></trkpt><trkpt lat="14.516977049777996" lon="120.99998941748984"><ele>5.0</ele><time>2026-04-06T09:32:55Z</time></trkpt><trkpt lat="14.516975878706718" lon="120.9998854751048"><ele>5.0</ele><time>2026-04-06T09:32:56Z</time></trkpt><trkpt lat="14.516975417434457" lon="120.9997839966927"><ele>5.0</ele><time>2026-04-06T09:32:57Z</time></trkpt><trkpt lat="14.516977201152002" lon="120.99968203626878"><ele>5.0</ele><time>2026-04-06T09:32:58Z</time></trkpt><trkpt lat="14.51697933215128" lon="120.99959365011563"><ele>5.0</ele><time>2026-04-06T09:32:59Z</time></trkpt><trkpt lat="14.516989858256103" lon="120.99950400939271"><ele>5.0</ele><time>2026-04-06T09:33:00Z</time></trkpt><trkpt lat="14.516995392567532" lon="120.99941902880326"><ele>5.0</ele><time>2026-04-06T09:33:01Z</time></trkpt><trkpt lat="14.516992584740558" lon="120.99933610483174"><ele>5.0</ele><time>2026-04-06T09:33:02Z</time></trkpt><trkpt lat="14.516989361094259" lon="120.99926023351001"><ele>5.0</ele><time>2026-04-06T09:33:03Z</time></trkpt><trkpt lat="14.516988564400295" lon="120.99918086093419"><ele>5.0</ele><time>2026-04-06T09:33:04Z</time></trkpt><trkpt lat="14.516991467827063" lon="120.99909922783598"><ele>5.0</ele><time>2026-04-06T09:33:05Z</time></trkpt><trkpt lat="14.516994721640211" lon="120.9990224827848"><ele>5.0</ele><time>2026-04-06T09:33:06Z</time></trkpt><trkpt lat="14.51699546216582" lon="120.99894996617085"><ele>5.2</ele><time>2026-04-06T09:33:07Z</time></trkpt><trkpt lat="14.517001888556122" lon="120.9988815708686"><ele>5.4</ele><time>2026-04-06T09:33:08Z</time></trkpt><trkpt lat="14.51701896800375" lon="120.9987515239717"><ele>5.6</ele><time>2026-04-06T09:33:10Z</time></trkpt><trkpt lat="14.517024603928883" lon="120.99865764703428"><ele>5.8</ele><time>2026-04-06T09:33:12Z</time></trkpt><trkpt lat="14.517024580796964" lon="120.99853709252712"><ele>6.0</ele><time>2026-04-06T09:33:14Z</time></trkpt><trkpt lat="14.517028181114213" lon="120.99841525465297"><ele>5.999999999999999</ele><time>2026-04-06T09:33:16Z</time></trkpt><trkpt lat="14.517021990226525" lon="120.99835022996885"><ele>6.0</ele><time>2026-04-06T09:33:17Z</time></trkpt><trkpt lat="14.517026850976912" lon="120.99828375804712"><ele>6.0</ele><time>2026-04-06T09:33:18.001Z</time></trkpt><trkpt lat="14.517030623480412" lon="120.99821369304846"><ele>6.0</ele><time>2026-04-06T09:33:19.001Z</time></trkpt><trkpt lat="14.517030823634261" lon="120.9981380680575"><ele>6.0</ele><time>2026-04-06T09:33:20.001Z</time></trkpt><trkpt lat="14.517031302458474" lon="120.99806961820025"><ele>5.999999999999999</ele><time>2026-04-06T09:33:21.001Z</time></trkpt><trkpt lat="14.51703150979668" lon="120.99797044505351"><ele>6.0</ele><time>2026-04-06T09:33:23.001Z</time></trkpt><trkpt lat="14.517033797207473" lon="120.99785332579349"><ele>5.8</ele><time>2026-04-06T09:33:25.001Z</time></trkpt><trkpt lat="14.517030349236048" lon="120.99773030119373"><ele>5.6</ele><time>2026-04-06T09:33:27.001Z</time></trkpt><trkpt lat="14.517026761242233" lon="120.99766231309805"><ele>5.4</ele><time>2026-04-06T09:33:28.001Z</time></trkpt><trkpt lat="14.517047878873543" lon="120.9975393869434"><ele>5.2</ele><time>2026-04-06T09:33:30.001Z</time></trkpt><trkpt lat="14.517050659765381" lon="120.99747163355957"><ele>5.0</ele><time>2026-04-06T09:33:31.001Z</time></trkpt><trkpt lat="14.517066664263112" lon="120.99737687472555"><ele>4.833333333333334</ele><time>2026-04-06T09:33:33.001Z</time></trkpt><trkpt lat="14.517088755454845" lon="120.99729153619232"><ele>4.666666666666667</ele><time>2026-04-06T09:33:37.001Z</time></trkpt><trkpt lat="14.51710432884894" lon="120.99722159873669"><ele>4.5</ele><time>2026-04-06T09:33:39Z</time></trkpt><trkpt lat="14.51710673546899" lon="120.99712458854417"><ele>4.333333333333333</ele><time>2026-04-06T09:33:41Z</time></trkpt><trkpt lat="14.517109642253898" lon="120.99702735892002"><ele>4.166666666666666</ele><time>2026-04-06T09:33:43Z</time></trkpt><trkpt lat="14.517112297779562" lon="120.9969512371902"><ele>4.0</ele><time>2026-04-06T09:33:46Z</time></trkpt><trkpt lat="14.51712339199515" lon="120.99682570410285"><ele>4.0</ele><time>2026-04-06T09:34:09Z</time></trkpt><trkpt lat="14.517135945054354" lon="120.99674775855414"><ele>4.0</ele><time>2026-04-06T09:34:19Z</time></trkpt><trkpt lat="14.517143343052787" lon="120.99666160578822"><ele>4.0</ele><time>2026-04-06T09:34:21Z</time></trkpt><trkpt lat="14.517156291888684" lon="120.9965690625279"><ele>4.0</ele><time>2026-04-06T09:34:23Z</time></trkpt><trkpt lat="14.517172825885831" lon="120.99645111157263"><ele>4.0</ele><time>2026-04-06T09:34:25Z</time></trkpt><trkpt lat="14.517193841203952" lon="120.99631813061904"><ele>4.6</ele><time>2026-04-06T09:34:27Z</time></trkpt><trkpt lat="14.517207868124737" lon="120.99624292519809"><ele>5.2</ele><time>2026-04-06T09:34:28Z</time></trkpt><trkpt lat="14.517224002801127" lon="120.99613758630854"><ele>5.799999999999999</ele><time>2026-04-06T09:34:29Z</time></trkpt><trkpt lat="14.517243483641492" lon="120.9960381821447"><ele>6.3999999999999995</ele><time>2026-04-06T09:34:30Z</time></trkpt><trkpt lat="14.517257479031027" lon="120.99593108812356"><ele>7.0</ele><time>2026-04-06T09:34:31Z</time></trkpt><trkpt lat="14.517275486597432" lon="120.99581106555011"><ele>7.0</ele><time>2026-04-06T09:34:32Z</time></trkpt><trkpt lat="14.517289432562933" lon="120.99569774562536"><ele>6.999999999999999</ele><time>2026-04-06T09:34:33Z</time></trkpt><trkpt lat="14.517305971144612" lon="120.99557418089167"><ele>6.999999999999999</ele><time>2026-04-06T09:34:34Z</time></trkpt><trkpt lat="14.517318839863522" lon="120.99547226822787"><ele>7.0</ele><time>2026-04-06T09:34:35Z</time></trkpt><trkpt lat="14.517324786396278" lon="120.99536554295605"><ele>7.0</ele><time>2026-04-06T09:34:36Z</time></trkpt><trkpt lat="14.51733361539603" lon="120.99526440549661"><ele>7.000000000000001</ele><time>2026-04-06T09:34:37Z</time></trkpt><trkpt lat="14.51734282723019" lon="120.99518053292387"><ele>7.0</ele><time>2026-04-06T09:34:38Z</time></trkpt><trkpt lat="14.51735259847709" lon="120.99506718935352"><ele>7.0</ele><time>2026-04-06T09:34:40Z</time></trkpt><trkpt lat="14.517366282371912" lon="120.99497914838736"><ele>7.0</ele><time>2026-04-06T09:34:42Z</time></trkpt><trkpt lat="14.51737056649739" lon="120.99491078507126"><ele>7.000000000000001</ele><time>2026-04-06T09:34:44Z</time></trkpt><trkpt lat="14.517399508944319" lon="120.99481648544722"><ele>7.0</ele><time>2026-04-06T09:34:47Z</time></trkpt><trkpt lat="14.517412600687225" lon="120.99473424921261"><ele>7.166666666666667</ele><time>2026-04-06T09:34:49Z</time></trkpt><trkpt lat="14.51743114450231" lon="120.99462691743771"><ele>7.333333333333334</ele><time>2026-04-06T09:34:51Z</time></trkpt><trkpt lat="14.517453154587027" lon="120.9945461192315"><ele>7.5</ele><time>2026-04-06T09:34:53Z</time></trkpt><trkpt lat="14.517463156166546" lon="120.99447294944108"><ele>7.666666666666666</ele><time>2026-04-06T09:34:55Z</time></trkpt><trkpt lat="14.517475980988811" lon="120.99439445352697"><ele>7.833333333333333</ele><time>2026-04-06T09:34:57Z</time></trkpt><trkpt lat="14.517482247780173" lon="120.99430942561834"><ele>8.0</ele><time>2026-04-06T09:34:59Z</time></trkpt><trkpt lat="14.517477390268759" lon="120.99424354470858"><ele>8.166666666666666</ele><time>2026-04-06T09:35:01Z</time></trkpt><trkpt lat="14.517474213250374" lon="120.99415551192692"><ele>8.333333333333332</ele><time>2026-04-06T09:35:04Z</time></trkpt><trkpt lat="14.517478384337053" lon="120.99406768967695"><ele>8.5</ele><time>2026-04-06T09:35:07Z</time></trkpt><trkpt lat="14.517480731214153" lon="120.99397991790903"><ele>8.666666666666666</ele><time>2026-04-06T09:35:10Z</time></trkpt><trkpt lat="14.517486735474654" lon="120.99389996922763"><ele>8.833333333333334</ele><time>2026-04-06T09:35:14Z</time></trkpt><trkpt lat="14.517491587220528" lon="120.99378725857517"><ele>9.0</ele><time>2026-04-06T09:35:16Z</time></trkpt><trkpt lat="14.517505638989292" lon="120.99370712910526"><ele>9.0</ele><time>2026-04-06T09:35:17Z</time></trkpt><trkpt lat="14.517523252492266" lon="120.99362956617523"><ele>9.0</ele><time>2026-04-06T09:35:18Z</time></trkpt><trkpt lat="14.517557665096463" lon="120.99356890033913"><ele>9.0</ele><time>2026-04-06T09:35:19Z</time></trkpt><trkpt lat="14.517659838105114" lon="120.9934658364484"><ele>9.0</ele><time>2026-04-06T09:35:21Z</time></trkpt><trkpt lat="14.517752039190526" lon="120.99341696006101"><ele>9.0</ele><time>2026-04-06T09:35:22Z</time></trkpt><trkpt lat="14.517874441464151" lon="120.99339120662879"><ele>11.4</ele><time>2026-04-06T09:35:23Z</time></trkpt><trkpt lat="14.517987255949675" lon="120.99338407066216"><ele>13.8</ele><time>2026-04-06T09:35:24Z</time></trkpt><trkpt lat="14.518061404458033" lon="120.99343807889304"><ele>16.200000000000003</ele><time>2026-04-06T09:35:25Z</time></trkpt><trkpt lat="14.518163587465404" lon="120.99345915937828"><ele>18.6</ele><time>2026-04-06T09:35:26Z</time></trkpt><trkpt lat="14.518270361660095" lon="120.99345642669297"><ele>21.0</ele><time>2026-04-06T09:35:27Z</time></trkpt><trkpt lat="14.518413706814423" lon="120.99347512594939"><ele>21.0</ele><time>2026-04-06T09:35:28Z</time></trkpt><trkpt lat="14.51856300418425" lon="120.99348844333332"><ele>21.0</ele><time>2026-04-06T09:35:29Z</time></trkpt><trkpt lat="14.518717269910264" lon="120.99350377601343"><ele>21.0</ele><time>2026-04-06T09:35:30Z</time></trkpt><trkpt lat="14.518878166562635" lon="120.99351049458235"><ele>23.0</ele><time>2026-04-06T09:35:31Z</time></trkpt><trkpt lat="14.519044253948401" lon="120.99353966243856"><ele>25.0</ele><time>2026-04-06T09:35:32Z</time></trkpt><trkpt lat="14.519214748147574" lon="120.99355130212635"><ele>27.0</ele><time>2026-04-06T09:35:33Z</time></trkpt><trkpt lat="14.519389142212896" lon="120.99356320918658"><ele>27.0</ele><time>2026-04-06T09:35:34Z</time></trkpt><trkpt lat="14.519564551993279" lon="120.99357518560548"><ele>27.0</ele><time>2026-04-06T09:35:35Z</time></trkpt><trkpt lat="14.519745301026235" lon="120.99358752656768"><ele>27.0</ele><time>2026-04-06T09:35:36Z</time></trkpt><trkpt lat="14.519925395127082" lon="120.99359995549759"><ele>20.666666666666668</ele><time>2026-04-06T09:35:37Z</time></trkpt><trkpt lat="14.52011117793246" lon="120.99361336068687"><ele>14.333333333333332</ele><time>2026-04-06T09:35:38.001Z</time></trkpt><trkpt lat="14.520296041361187" lon="120.99362673932369"><ele>8.0</ele><time>2026-04-06T09:35:39.001Z</time></trkpt><trkpt lat="14.520483347053812" lon="120.99364029471127"><ele>7.0</ele><time>2026-04-06T09:35:40.001Z</time></trkpt><trkpt lat="14.520671141192311" lon="120.99365378638934"><ele>6.0</ele><time>2026-04-06T09:35:41.001Z</time></trkpt><trkpt lat="14.520863696140392" lon="120.99366743112697"><ele>5.0</ele><time>2026-04-06T09:35:42.001Z</time></trkpt><trkpt lat="14.521061188288064" lon="120.99368079509004"><ele>5.0</ele><time>2026-04-06T09:35:43.001Z</time></trkpt><trkpt lat="14.521259105260924" lon="120.99369374163942"><ele>5.0</ele><time>2026-04-06T09:35:44.001Z</time></trkpt><trkpt lat="14.52146174324689" lon="120.99370912053645"><ele>5.0</ele><time>2026-04-06T09:35:45Z</time></trkpt><trkpt lat="14.521671233668666" lon="120.99372021740588"><ele>5.0</ele><time>2026-04-06T09:35:46Z</time></trkpt><trkpt lat="14.521884405938524" lon="120.99373072288786"><ele>5.0</ele><time>2026-04-06T09:35:47Z</time></trkpt><trkpt lat="14.522095820416277" lon="120.99374114173695"><ele>5.0</ele><time>2026-04-06T09:35:48Z</time></trkpt><trkpt lat="14.522321714326747" lon="120.99375691858485"><ele>5.0</ele><time>2026-04-06T09:35:49Z</time></trkpt><trkpt lat="14.52253497688428" lon="120.99373713515527"><ele>5.0</ele><time>2026-04-06T09:35:50Z</time></trkpt><trkpt lat="14.52273804361077" lon="120.99375117279088"><ele>5.0</ele><time>2026-04-06T09:35:51Z</time></trkpt><trkpt lat="14.522962145909862" lon="120.99375505360555"><ele>6.0</ele><time>2026-04-06T09:35:52Z</time></trkpt><trkpt lat="14.523174879867256" lon="120.99375873754855"><ele>7.0</ele><time>2026-04-06T09:35:53Z</time></trkpt><trkpt lat="14.523395532714765" lon="120.99376255861506"><ele>8.0</ele><time>2026-04-06T09:35:54Z</time></trkpt><trkpt lat="14.52361531755704" lon="120.9937668069315"><ele>8.0</ele><time>2026-04-06T09:35:55Z</time></trkpt><trkpt lat="14.523843482358936" lon="120.9937670094812"><ele>8.0</ele><time>2026-04-06T09:35:56Z</time></trkpt><trkpt lat="14.524065375661943" lon="120.99376700948075"><ele>8.0</ele><time>2026-04-06T09:35:57Z</time></trkpt><trkpt lat="14.524297446337776" lon="120.99376700837071"><ele>8.0</ele><time>2026-04-06T09:35:58Z</time></trkpt><trkpt lat="14.524518615811042" lon="120.99376700837331"><ele>8.333333333333332</ele><time>2026-04-06T09:35:59Z</time></trkpt><trkpt lat="14.52474246424107" lon="120.9937670083751"><ele>8.666666666666666</ele><time>2026-04-06T09:36:00Z</time></trkpt><trkpt lat="14.524952237238514" lon="120.99376866388565"><ele>9.0</ele><time>2026-04-06T09:36:01Z</time></trkpt><trkpt lat="14.525135914999039" lon="120.99377059479419"><ele>9.0</ele><time>2026-04-06T09:36:02Z</time></trkpt><trkpt lat="14.525321243913773" lon="120.99377204515257"><ele>9.0</ele><time>2026-04-06T09:36:03Z</time></trkpt><trkpt lat="14.52549192166014" lon="120.99377325658998"><ele>9.0</ele><time>2026-04-06T09:36:04Z</time></trkpt><trkpt lat="14.525647854204818" lon="120.9937748913521"><ele>10.2</ele><time>2026-04-06T09:36:05Z</time></trkpt><trkpt lat="14.52576696867372" lon="120.99377640837741"><ele>11.4</ele><time>2026-04-06T09:36:06Z</time></trkpt><trkpt lat="14.525861139972713" lon="120.99377640837483"><ele>12.6</ele><time>2026-04-06T09:36:07Z</time></trkpt><trkpt lat="14.525942762546254" lon="120.99377640837484"><ele>13.8</ele><time>2026-04-06T09:36:08Z</time></trkpt><trkpt lat="14.526039857136052" lon="120.99377640837828"><ele>15.0</ele><time>2026-04-06T09:36:10Z</time></trkpt><trkpt lat="14.526125712963093" lon="120.99377363622189"><ele>15.0</ele><time>2026-04-06T09:36:12Z</time></trkpt><trkpt lat="14.526204504752188" lon="120.99377147793186"><ele>15.0</ele><time>2026-04-06T09:36:15Z</time></trkpt><trkpt lat="14.526299339058433" lon="120.99376784746961"><ele>15.0</ele><time>2026-04-06T09:36:18Z</time></trkpt><trkpt lat="14.526391546482138" lon="120.99376176230983"><ele>15.0</ele><time>2026-04-06T09:36:21Z</time></trkpt><trkpt lat="14.526472740132219" lon="120.99375632111433"><ele>15.0</ele><time>2026-04-06T09:36:25Z</time></trkpt><trkpt lat="14.52654005597479" lon="120.99375180994598"><ele>15.0</ele><time>2026-04-06T09:36:28Z</time></trkpt><trkpt lat="14.52661374000603" lon="120.99374687201201"><ele>14.0</ele><time>2026-04-06T09:36:40Z</time></trkpt><trkpt lat="14.52669033037503" lon="120.99373502592434"><ele>13.0</ele><time>2026-04-06T09:36:46Z</time></trkpt><trkpt lat="14.52677782125567" lon="120.99372606942438"><ele>12.0</ele><time>2026-04-06T09:36:48Z</time></trkpt><trkpt lat="14.526849179936868" lon="120.99371314409956"><ele>11.0</ele><time>2026-04-06T09:36:51Z</time></trkpt><trkpt lat="14.526949876627894" lon="120.99370070297121"><ele>10.0</ele><time>2026-04-06T09:36:53Z</time></trkpt><trkpt lat="14.527087407697351" lon="120.99368374655772"><ele>10.0</ele><time>2026-04-06T09:36:55Z</time></trkpt><trkpt lat="14.52715329987101" lon="120.99368669172571"><ele>10.0</ele><time>2026-04-06T09:36:56Z</time></trkpt><trkpt lat="14.527230429247565" lon="120.99367650891136"><ele>10.0</ele><time>2026-04-06T09:36:57Z</time></trkpt><trkpt lat="14.527310161662102" lon="120.99366530585111"><ele>10.0</ele><time>2026-04-06T09:36:58Z</time></trkpt><trkpt lat="14.527410246800134" lon="120.99365124313711"><ele>10.0</ele><time>2026-04-06T09:36:59Z</time></trkpt><trkpt lat="14.527505547021129" lon="120.99363970388296"><ele>10.0</ele><time>2026-04-06T09:37:00Z</time></trkpt><trkpt lat="14.52761001821426" lon="120.99362710628476"><ele>10.0</ele><time>2026-04-06T09:37:01Z</time></trkpt><trkpt lat="14.527705979058089" lon="120.9936157330311"><ele>10.0</ele><time>2026-04-06T09:37:02Z</time></trkpt><trkpt lat="14.527801345911072" lon="120.993604430177"><ele>10.0</ele><time>2026-04-06T09:37:03Z</time></trkpt><trkpt lat="14.527912150306689" lon="120.99359129766479"><ele>10.0</ele><time>2026-04-06T09:37:04Z</time></trkpt><trkpt lat="14.528056326125354" lon="120.99357420998871"><ele>10.0</ele><time>2026-04-06T09:37:05Z</time></trkpt><trkpt lat="14.528176530420934" lon="120.99354313164761"><ele>9.8</ele><time>2026-04-06T09:37:06Z</time></trkpt><trkpt lat="14.528283193096243" lon="120.99353573824024"><ele>9.6</ele><time>2026-04-06T09:37:07Z</time></trkpt><trkpt lat="14.528390911989506" lon="120.99351898548903"><ele>9.4</ele><time>2026-04-06T09:37:08Z</time></trkpt><trkpt lat="14.528504777554579" lon="120.99350520007854"><ele>9.2</ele><time>2026-04-06T09:37:09Z</time></trkpt><trkpt lat="14.528619721879915" lon="120.99350720364255"><ele>9.0</ele><time>2026-04-06T09:37:10Z</time></trkpt><trkpt lat="14.528733103946742" lon="120.99347768917085"><ele>8.5</ele><time>2026-04-06T09:37:11Z</time></trkpt><trkpt lat="14.528843203867481" lon="120.99346844628577"><ele>8.0</ele><time>2026-04-06T09:37:12Z</time></trkpt><trkpt lat="14.528957906813721" lon="120.99345760786368"><ele>7.5</ele><time>2026-04-06T09:37:13Z</time></trkpt><trkpt lat="14.529068539249437" lon="120.99344375093764"><ele>7.0</ele><time>2026-04-06T09:37:14Z</time></trkpt><trkpt lat="14.529185876692916" lon="120.99342952938292"><ele>7.0</ele><time>2026-04-06T09:37:15Z</time></trkpt><trkpt lat="14.529296352642664" lon="120.9934158014812"><ele>7.0</ele><time>2026-04-06T09:37:16Z</time></trkpt><trkpt lat="14.529407635918973" lon="120.99340265930104"><ele>7.0</ele><time>2026-04-06T09:37:17Z</time></trkpt><trkpt lat="14.529528340602097" lon="120.99338537676456"><ele>7.0</ele><time>2026-04-06T09:37:18Z</time></trkpt><trkpt lat="14.529645921795519" lon="120.99337366950624"><ele>7.0</ele><time>2026-04-06T09:37:19Z</time></trkpt><trkpt lat="14.529773631802966" lon="120.99335425228013"><ele>7.0</ele><time>2026-04-06T09:37:20Z</time></trkpt><trkpt lat="14.529898915662002" lon="120.99334124111635"><ele>7.0</ele><time>2026-04-06T09:37:21Z</time></trkpt><trkpt lat="14.530027665012135" lon="120.99332133651791"><ele>7.0</ele><time>2026-04-06T09:37:22Z</time></trkpt><trkpt lat="14.53015424015801" lon="120.99330743667568"><ele>7.0</ele><time>2026-04-06T09:37:23.001Z</time></trkpt><trkpt lat="14.530282199501626" lon="120.99329037260985"><ele>7.0</ele><time>2026-04-06T09:37:24.001Z</time></trkpt><trkpt lat="14.530405897700058" lon="120.9932781383717"><ele>7.0</ele><time>2026-04-06T09:37:25.001Z</time></trkpt><trkpt lat="14.53052069870533" lon="120.99327027498319"><ele>7.0</ele><time>2026-04-06T09:37:26.001Z</time></trkpt><trkpt lat="14.53064422208538" lon="120.99325311154823"><ele>6.0</ele><time>2026-04-06T09:37:27.001Z</time></trkpt><trkpt lat="14.530764695752833" lon="120.99324201540989"><ele>5.0</ele><time>2026-04-06T09:37:28.001Z</time></trkpt><trkpt lat="14.530875557542956" lon="120.99322721803979"><ele>4.0</ele><time>2026-04-06T09:37:29.001Z</time></trkpt><trkpt lat="14.530990880118745" lon="120.99320957207398"><ele>3.0</ele><time>2026-04-06T09:37:30.001Z</time></trkpt><trkpt lat="14.531110780895576" lon="120.99319297606132"><ele>3.75</ele><time>2026-04-06T09:37:31.001Z</time></trkpt><trkpt lat="14.531231626696893" lon="120.99318575277462"><ele>4.5</ele><time>2026-04-06T09:37:32.001Z</time></trkpt><trkpt lat="14.53135622866452" lon="120.9931792207661"><ele>5.25</ele><time>2026-04-06T09:37:33.001Z</time></trkpt><trkpt lat="14.531487792031127" lon="120.99317121021492"><ele>6.0</ele><time>2026-04-06T09:37:34.001Z</time></trkpt><trkpt lat="14.531628876616427" lon="120.99315966751706"><ele>6.0</ele><time>2026-04-06T09:37:35.001Z</time></trkpt><trkpt lat="14.531782158870481" lon="120.99314113871807"><ele>6.0</ele><time>2026-04-06T09:37:36.001Z</time></trkpt><trkpt lat="14.531940327127312" lon="120.99312976179209"><ele>6.0</ele><time>2026-04-06T09:37:37.001Z</time></trkpt><trkpt lat="14.532104484077502" lon="120.99311140764182"><ele>6.666666666666666</ele><time>2026-04-06T09:37:38.001Z</time></trkpt><trkpt lat="14.532280308315704" lon="120.99308306608143"><ele>7.333333333333333</ele><time>2026-04-06T09:37:39.001Z</time></trkpt><trkpt lat="14.532434885433595" lon="120.99305717940136"><ele>8.0</ele><time>2026-04-06T09:37:40.001Z</time></trkpt><trkpt lat="14.5325878846756" lon="120.99302971634577"><ele>8.0</ele><time>2026-04-06T09:37:41.001Z</time></trkpt><trkpt lat="14.532734248640796" lon="120.99300388848334"><ele>8.0</ele><time>2026-04-06T09:37:42.001Z</time></trkpt><trkpt lat="14.532877943076272" lon="120.99298042082515"><ele>8.0</ele><time>2026-04-06T09:37:43.001Z</time></trkpt><trkpt lat="14.533034856219627" lon="120.9929722553463"><ele>9.25</ele><time>2026-04-06T09:37:44.001Z</time></trkpt><trkpt lat="14.53318574549715" lon="120.992941199321"><ele>10.5</ele><time>2026-04-06T09:37:45.001Z</time></trkpt><trkpt lat="14.533342827479286" lon="120.99292311328841"><ele>11.75</ele><time>2026-04-06T09:37:46.001Z</time></trkpt><trkpt lat="14.533478156319138" lon="120.99290972938294"><ele>13.0</ele><time>2026-04-06T09:37:47.001Z</time></trkpt><trkpt lat="14.533611438164295" lon="120.99288706067011"><ele>11.5</ele><time>2026-04-06T09:37:48.001Z</time></trkpt><trkpt lat="14.53373406026189" lon="120.99287215598841"><ele>10.0</ele><time>2026-04-06T09:37:49.001Z</time></trkpt><trkpt lat="14.533846281438118" lon="120.9928645068585"><ele>8.5</ele><time>2026-04-06T09:37:50.001Z</time></trkpt><trkpt lat="14.533978161354355" lon="120.9928630305503"><ele>7.0</ele><time>2026-04-06T09:37:51Z</time></trkpt><trkpt lat="14.534090942627252" lon="120.99283763877645"><ele>7.0</ele><time>2026-04-06T09:37:52Z</time></trkpt><trkpt lat="14.534221940411141" lon="120.99283743200438"><ele>7.0</ele><time>2026-04-06T09:37:53Z</time></trkpt><trkpt lat="14.534329773928176" lon="120.99280682661035"><ele>7.0</ele><time>2026-04-06T09:37:54Z</time></trkpt><trkpt lat="14.534445094324946" lon="120.99278845158479"><ele>7.0</ele><time>2026-04-06T09:37:55Z</time></trkpt><trkpt lat="14.534561441038784" lon="120.9927814486196"><ele>7.5</ele><time>2026-04-06T09:37:56Z</time></trkpt><trkpt lat="14.534690522181084" lon="120.99275619455081"><ele>8.0</ele><time>2026-04-06T09:37:57Z</time></trkpt><trkpt lat="14.534786494102711" lon="120.99274747491484"><ele>8.5</ele><time>2026-04-06T09:37:58Z</time></trkpt><trkpt lat="14.534900317888386" lon="120.99273062106985"><ele>9.0</ele><time>2026-04-06T09:37:59Z</time></trkpt><trkpt lat="14.53501057700813" lon="120.99271717704495"><ele>9.0</ele><time>2026-04-06T09:38:00Z</time></trkpt><trkpt lat="14.535106277085358" lon="120.99270968110744"><ele>9.0</ele><time>2026-04-06T09:38:01Z</time></trkpt><trkpt lat="14.535210833321042" lon="120.99270039375281"><ele>9.0</ele><time>2026-04-06T09:38:02Z</time></trkpt><trkpt lat="14.535335248394079" lon="120.99267968056037"><ele>9.0</ele><time>2026-04-06T09:38:03Z</time></trkpt><trkpt lat="14.535467700235213" lon="120.99266923968989"><ele>9.0</ele><time>2026-04-06T09:38:04Z</time></trkpt><trkpt lat="14.535620240817607" lon="120.99264708798592"><ele>9.0</ele><time>2026-04-06T09:38:05Z</time></trkpt><trkpt lat="14.535765949602057" lon="120.99263567539666"><ele>9.0</ele><time>2026-04-06T09:38:06Z</time></trkpt><trkpt lat="14.535908230517258" lon="120.99261678564771"><ele>9.0</ele><time>2026-04-06T09:38:07Z</time></trkpt><trkpt lat="14.536047257231788" lon="120.99259766887131"><ele>9.0</ele><time>2026-04-06T09:38:08Z</time></trkpt><trkpt lat="14.536180580516474" lon="120.99258742211401"><ele>9.0</ele><time>2026-04-06T09:38:09Z</time></trkpt><trkpt lat="14.536327879135527" lon="120.99257722151033"><ele>9.0</ele><time>2026-04-06T09:38:10Z</time></trkpt><trkpt lat="14.53648843881501" lon="120.99255558968078"><ele>9.0</ele><time>2026-04-06T09:38:11Z</time></trkpt><trkpt lat="14.5366515126929" lon="120.9925301844831"><ele>7.666666666666667</ele><time>2026-04-06T09:38:12Z</time></trkpt><trkpt lat="14.536829028718365" lon="120.99251186837749"><ele>6.333333333333334</ele><time>2026-04-06T09:38:13Z</time></trkpt><trkpt lat="14.536958775355133" lon="120.99248888967007"><ele>5.0</ele><time>2026-04-06T09:38:14Z</time></trkpt><trkpt lat="14.537101842603734" lon="120.9924764539565"><ele>5.0</ele><time>2026-04-06T09:38:15Z</time></trkpt><trkpt lat="14.537249910308628" lon="120.99246515689993"><ele>5.0</ele><time>2026-04-06T09:38:16Z</time></trkpt><trkpt lat="14.537416448172667" lon="120.99244848785321"><ele>5.0</ele><time>2026-04-06T09:38:17Z</time></trkpt><trkpt lat="14.537578197060618" lon="120.99242815485194"><ele>5.0</ele><time>2026-04-06T09:38:18Z</time></trkpt><trkpt lat="14.537736126893089" lon="120.99241525944386"><ele>5.0</ele><time>2026-04-06T09:38:19Z</time></trkpt><trkpt lat="14.537886513389035" lon="120.99239681430787"><ele>5.0</ele><time>2026-04-06T09:38:20Z</time></trkpt><trkpt lat="14.538053669699318" lon="120.99237438674517"><ele>6.333333333333334</ele><time>2026-04-06T09:38:21Z</time></trkpt><trkpt lat="14.538221242899786" lon="120.99235128251006"><ele>7.666666666666667</ele><time>2026-04-06T09:38:22Z</time></trkpt><trkpt lat="14.538404345425183" lon="120.99232148801642"><ele>9.0</ele><time>2026-04-06T09:38:23Z</time></trkpt><trkpt lat="14.538585223098869" lon="120.99229635795828"><ele>8.0</ele><time>2026-04-06T09:38:24Z</time></trkpt><trkpt lat="14.538772805735753" lon="120.99227671640291"><ele>7.0</ele><time>2026-04-06T09:38:25Z</time></trkpt><trkpt lat="14.538966098499165" lon="120.99225981111847"><ele>6.0</ele><time>2026-04-06T09:38:26Z</time></trkpt><trkpt lat="14.539147419161791" lon="120.99224368418395"><ele>6.0</ele><time>2026-04-06T09:38:27Z</time></trkpt><trkpt lat="14.539328875680598" lon="120.99222865922246"><ele>6.0</ele><time>2026-04-06T09:38:28Z</time></trkpt><trkpt lat="14.539502251731093" lon="120.99221106715619"><ele>6.0</ele><time>2026-04-06T09:38:29Z</time></trkpt><trkpt lat="14.539682273110879" lon="120.99218876458265"><ele>7.0</ele><time>2026-04-06T09:38:30Z</time></trkpt><trkpt lat="14.539862978527182" lon="120.9921697177311"><ele>8.0</ele><time>2026-04-06T09:38:31Z</time></trkpt><trkpt lat="14.540052993495724" lon="120.99216245508853"><ele>9.0</ele><time>2026-04-06T09:38:32Z</time></trkpt><trkpt lat="14.540242940361486" lon="120.99214233770024"><ele>12.666666666666668</ele><time>2026-04-06T09:38:33Z</time></trkpt><trkpt lat="14.540431791134269" lon="120.99212236270324"><ele>16.333333333333336</ele><time>2026-04-06T09:38:34Z</time></trkpt><trkpt lat="14.540607066263837" lon="120.99210382362035"><ele>20.0</ele><time>2026-04-06T09:38:35Z</time></trkpt><trkpt lat="14.540789533848113" lon="120.99207937807635"><ele>20.0</ele><time>2026-04-06T09:38:36Z</time></trkpt><trkpt lat="14.54094069431976" lon="120.99205204928805"><ele>20.0</ele><time>2026-04-06T09:38:37Z</time></trkpt><trkpt lat="14.541079074093165" lon="120.99202832972577"><ele>20.0</ele><time>2026-04-06T09:38:38Z</time></trkpt><trkpt lat="14.541204169694822" lon="120.99200668089424"><ele>20.0</ele><time>2026-04-06T09:38:39Z</time></trkpt><trkpt lat="14.541321372514195" lon="120.99198639797233"><ele>15.666666666666668</ele><time>2026-04-06T09:38:40Z</time></trkpt><trkpt lat="14.541508481847316" lon="120.99195305461525"><ele>11.333333333333334</ele><time>2026-04-06T09:38:41Z</time></trkpt><trkpt lat="14.54166585007332" lon="120.9919248544908"><ele>7.0</ele><time>2026-04-06T09:38:42Z</time></trkpt><trkpt lat="14.541839973044285" lon="120.99189365195775"><ele>7.0</ele><time>2026-04-06T09:38:43Z</time></trkpt><trkpt lat="14.542026959466797" lon="120.99186014430218"><ele>7.0</ele><time>2026-04-06T09:38:44Z</time></trkpt><trkpt lat="14.542189196212073" lon="120.99182321302013"><ele>7.0</ele><time>2026-04-06T09:38:45Z</time></trkpt><trkpt lat="14.542392905178916" lon="120.9917972848324"><ele>7.0</ele><time>2026-04-06T09:38:46Z</time></trkpt><trkpt lat="14.542597503251029" lon="120.99176358491299"><ele>7.0</ele><time>2026-04-06T09:38:47Z</time></trkpt><trkpt lat="14.542805570298917" lon="120.99172913745133"><ele>7.0</ele><time>2026-04-06T09:38:48Z</time></trkpt><trkpt lat="14.542979042741669" lon="120.99168897718722"><ele>6.666666666666667</ele><time>2026-04-06T09:38:49Z</time></trkpt><trkpt lat="14.543151080723591" lon="120.99164680595992"><ele>6.333333333333334</ele><time>2026-04-06T09:38:50Z</time></trkpt><trkpt lat="14.543297443231074" lon="120.99158252966168"><ele>6.0</ele><time>2026-04-06T09:38:51Z</time></trkpt><trkpt lat="14.543484590976451" lon="120.99152875000264"><ele>7.0</ele><time>2026-04-06T09:38:52Z</time></trkpt><trkpt lat="14.543814651796767" lon="120.99153748204589"><ele>8.0</ele><time>2026-04-06T09:38:53Z</time></trkpt><trkpt lat="14.544068552838702" lon="120.99151207301233"><ele>8.0</ele><time>2026-04-06T09:38:54Z</time></trkpt><trkpt lat="14.54430716254591" lon="120.99148536608803"><ele>8.0</ele><time>2026-04-06T09:38:55Z</time></trkpt><trkpt lat="14.544490996808614" lon="120.99142191910497"><ele>8.0</ele><time>2026-04-06T09:38:56Z</time></trkpt><trkpt lat="14.544700556959864" lon="120.9913891462942"><ele>9.0</ele><time>2026-04-06T09:38:57Z</time></trkpt><trkpt lat="14.544885940357236" lon="120.99135336137573"><ele>10.0</ele><time>2026-04-06T09:38:58Z</time></trkpt><trkpt lat="14.545069755873595" lon="120.9913148609947"><ele>11.0</ele><time>2026-04-06T09:38:59Z</time></trkpt><trkpt lat="14.545260880575702" lon="120.99127551723761"><ele>9.666666666666666</ele><time>2026-04-06T09:39:00Z</time></trkpt><trkpt lat="14.545450712031569" lon="120.99123462862202"><ele>8.333333333333334</ele><time>2026-04-06T09:39:01Z</time></trkpt><trkpt lat="14.545641334615963" lon="120.9911961915373"><ele>7.0</ele><time>2026-04-06T09:39:02Z</time></trkpt><trkpt lat="14.545824701147135" lon="120.99114887683037"><ele>7.0</ele><time>2026-04-06T09:39:03Z</time></trkpt><trkpt lat="14.546019201107594" lon="120.99110287050362"><ele>7.0</ele><time>2026-04-06T09:39:04Z</time></trkpt><trkpt lat="14.546212359040759" lon="120.99106044015416"><ele>7.0</ele><time>2026-04-06T09:39:05Z</time></trkpt><trkpt lat="14.546391473931596" lon="120.9910073688333"><ele>8.666666666666668</ele><time>2026-04-06T09:39:06Z</time></trkpt><trkpt lat="14.54658324200354" lon="120.9909634641052"><ele>10.333333333333334</ele><time>2026-04-06T09:39:07Z</time></trkpt><trkpt lat="14.546765329862634" lon="120.99091196749794"><ele>12.0</ele><time>2026-04-06T09:39:08Z</time></trkpt><trkpt lat="14.546946641893992" lon="120.99086376493521"><ele>10.666666666666666</ele><time>2026-04-06T09:39:09Z</time></trkpt><trkpt lat="14.547114723581547" lon="120.99082017293301"><ele>9.333333333333332</ele><time>2026-04-06T09:39:10Z</time></trkpt><trkpt lat="14.547279826677606" lon="120.99078412918128"><ele>8.0</ele><time>2026-04-06T09:39:11Z</time></trkpt><trkpt lat="14.547451226174834" lon="120.99074261787189"><ele>8.0</ele><time>2026-04-06T09:39:12Z</time></trkpt><trkpt lat="14.547630770233356" lon="120.99069696403741"><ele>8.0</ele><time>2026-04-06T09:39:13Z</time></trkpt><trkpt lat="14.547815213562183" lon="120.9906494414787"><ele>8.0</ele><time>2026-04-06T09:39:14Z</time></trkpt><trkpt lat="14.547966251580151" lon="120.99061726808709"><ele>10.333333333333332</ele><time>2026-04-06T09:39:15Z</time></trkpt><trkpt lat="14.548134021366586" lon="120.99057638087535"><ele>12.666666666666666</ele><time>2026-04-06T09:39:16Z</time></trkpt><trkpt lat="14.548302899194736" lon="120.99053451505947"><ele>15.0</ele><time>2026-04-06T09:39:17Z</time></trkpt><trkpt lat="14.548468723419296" lon="120.99049264944583"><ele>15.0</ele><time>2026-04-06T09:39:18.001Z</time></trkpt><trkpt lat="14.54862590165427" lon="120.99044905286952"><ele>15.0</ele><time>2026-04-06T09:39:19.001Z</time></trkpt><trkpt lat="14.548775801132939" lon="120.99042357655829"><ele>15.0</ele><time>2026-04-06T09:39:20.001Z</time></trkpt><trkpt lat="14.548935651263701" lon="120.99038115114425"><ele>12.666666666666666</ele><time>2026-04-06T09:39:21.001Z</time></trkpt><trkpt lat="14.549097631439293" lon="120.99034372412636"><ele>10.333333333333332</ele><time>2026-04-06T09:39:22.001Z</time></trkpt><trkpt lat="14.549259683838734" lon="120.99029802334366"><ele>8.0</ele><time>2026-04-06T09:39:23.001Z</time></trkpt><trkpt lat="14.549424905659528" lon="120.99025225043762"><ele>8.333333333333332</ele><time>2026-04-06T09:39:24.001Z</time></trkpt><trkpt lat="14.549596726570142" lon="120.99021097392054"><ele>8.666666666666666</ele><time>2026-04-06T09:39:25.001Z</time></trkpt><trkpt lat="14.54977413055435" lon="120.99017808093514"><ele>9.0</ele><time>2026-04-06T09:39:26.001Z</time></trkpt><trkpt lat="14.549953954264177" lon="120.9901437602174"><ele>9.0</ele><time>2026-04-06T09:39:27.001Z</time></trkpt><trkpt lat="14.550137972196907" lon="120.99010285714122"><ele>9.0</ele><time>2026-04-06T09:39:28.001Z</time></trkpt><trkpt lat="14.550328217689549" lon="120.9900605626309"><ele>9.0</ele><time>2026-04-06T09:39:29.001Z</time></trkpt><trkpt lat="14.550508249701965" lon="120.99002713435718"><ele>8.333333333333334</ele><time>2026-04-06T09:39:30.001Z</time></trkpt><trkpt lat="14.550685340987076" lon="120.98999269678318"><ele>7.666666666666667</ele><time>2026-04-06T09:39:31.001Z</time></trkpt><trkpt lat="14.550851312278672" lon="120.9899569379392"><ele>7.0</ele><time>2026-04-06T09:39:32.001Z</time></trkpt><trkpt lat="14.550992849935938" lon="120.98992837688309"><ele>7.0</ele><time>2026-04-06T09:39:33.001Z</time></trkpt><trkpt lat="14.551147262293263" lon="120.98988866110399"><ele>7.0</ele><time>2026-04-06T09:39:34.001Z</time></trkpt><trkpt lat="14.551278613877031" lon="120.98986160426404"><ele>7.0</ele><time>2026-04-06T09:39:35.001Z</time></trkpt><trkpt lat="14.551414764093181" lon="120.98981921007292"><ele>7.0</ele><time>2026-04-06T09:39:36.001Z</time></trkpt><trkpt lat="14.551531370595969" lon="120.98979277303205"><ele>7.3999999999999995</ele><time>2026-04-06T09:39:37.001Z</time></trkpt><trkpt lat="14.551635853001246" lon="120.98977008389002"><ele>7.799999999999999</ele><time>2026-04-06T09:39:38.001Z</time></trkpt><trkpt lat="14.551735216427987" lon="120.98974792413945"><ele>8.2</ele><time>2026-04-06T09:39:39.001Z</time></trkpt><trkpt lat="14.551827588558533" lon="120.98972248982176"><ele>8.6</ele><time>2026-04-06T09:39:40.001Z</time></trkpt><trkpt lat="14.551912222265228" lon="120.98970197469"><ele>9.0</ele><time>2026-04-06T09:39:41.001Z</time></trkpt><trkpt lat="14.551986306788097" lon="120.98969503669261"><ele>9.166666666666666</ele><time>2026-04-06T09:39:42.001Z</time></trkpt><trkpt lat="14.552061884894798" lon="120.98966981245987"><ele>9.333333333333334</ele><time>2026-04-06T09:39:43.001Z</time></trkpt><trkpt lat="14.552135988424364" lon="120.98967146856518"><ele>9.5</ele><time>2026-04-06T09:39:45.001Z</time></trkpt><trkpt lat="14.55221226213228" lon="120.98973303102781"><ele>9.666666666666668</ele><time>2026-04-06T09:39:51.001Z</time></trkpt><trkpt lat="14.55222712559215" lon="120.98980834926188"><ele>9.833333333333334</ele><time>2026-04-06T09:39:52.001Z</time></trkpt><trkpt lat="14.55224161986913" lon="120.98988892269176"><ele>10.0</ele><time>2026-04-06T09:39:53.001Z</time></trkpt><trkpt lat="14.55227843647313" lon="120.99000101911896"><ele>10.0</ele><time>2026-04-06T09:39:55.001Z</time></trkpt><trkpt lat="14.552298217062043" lon="120.99007706868413"><ele>10.0</ele><time>2026-04-06T09:39:56.001Z</time></trkpt><trkpt lat="14.552330375379734" lon="120.99016536182403"><ele>10.0</ele><time>2026-04-06T09:39:58Z</time></trkpt><trkpt lat="14.55234860682584" lon="120.99023498549425"><ele>10.0</ele><time>2026-04-06T09:40:01Z</time></trkpt><trkpt lat="14.552370820649992" lon="120.99031703963597"><ele>10.0</ele><time>2026-04-06T09:40:13Z</time></trkpt><trkpt lat="14.552390072652772" lon="120.99038655764096"><ele>10.0</ele><time>2026-04-06T09:40:17Z</time></trkpt><trkpt lat="14.552421436825307" lon="120.9904884858744"><ele>10.0</ele><time>2026-04-06T09:41:16Z</time></trkpt><trkpt lat="14.552408700195933" lon="120.99055286619017"><ele>10.0</ele><time>2026-04-06T09:47:01Z</time></trkpt><trkpt lat="14.552343198143046" lon="120.9905927495155"><ele>10.0</ele><time>2026-04-06T09:47:09Z</time></trkpt><trkpt lat="14.552276199943941" lon="120.99060695900337"><ele>10.0</ele><time>2026-04-06T09:47:14Z</time></trkpt><trkpt lat="14.55221506284478" lon="120.99063126288273"><ele>10.0</ele><time>2026-04-06T09:47:21Z</time></trkpt><trkpt lat="14.552235995194811" lon="120.99056891557234"><ele>10.0</ele><time>2026-04-06T09:50:40Z</time></trkpt><trkpt lat="14.55232044815787" lon="120.99054380090706"><ele>10.0</ele><time>2026-04-06T09:50:42Z</time></trkpt><trkpt lat="14.552484108730695" lon="120.99068444036809"><ele>10.0</ele><time>2026-04-06T09:50:50Z</time></trkpt><trkpt lat="14.552499224309418" lon="120.99074840023707"><ele>10.0</ele><time>2026-04-06T09:50:51Z</time></trkpt><trkpt lat="14.552519375206865" lon="120.99081610264471"><ele>10.0</ele><time>2026-04-06T09:50:52Z</time></trkpt><trkpt lat="14.552546088398246" lon="120.99089421701801"><ele>10.0</ele><time>2026-04-06T09:50:53Z</time></trkpt><trkpt lat="14.552570433730459" lon="120.99097195243611"><ele>10.0</ele><time>2026-04-06T09:50:54Z</time></trkpt><trkpt lat="14.552599687890886" lon="120.99105170592408"><ele>10.0</ele><time>2026-04-06T09:50:55Z</time></trkpt><trkpt lat="14.552626184039292" lon="120.9911309460923"><ele>10.0</ele><time>2026-04-06T09:50:56Z</time></trkpt><trkpt lat="14.55265041886771" lon="120.9912089050293"><ele>10.0</ele><time>2026-04-06T09:50:57Z</time></trkpt><trkpt lat="14.552679618630277" lon="120.99129395530497"><ele>10.0</ele><time>2026-04-06T09:50:58Z</time></trkpt><trkpt lat="14.552706886513437" lon="120.99136727856276"><ele>10.0</ele><time>2026-04-06T09:50:59Z</time></trkpt><trkpt lat="14.55272863542948" lon="120.9914301162163"><ele>10.0</ele><time>2026-04-06T09:51:00Z</time></trkpt><trkpt lat="14.552774576784262" lon="120.99155171689698"><ele>10.0</ele><time>2026-04-06T09:51:02Z</time></trkpt><trkpt lat="14.55279807884759" lon="120.99161948791489"><ele>10.0</ele><time>2026-04-06T09:51:03Z</time></trkpt><trkpt lat="14.552823184039282" lon="120.99169282413854"><ele>10.0</ele><time>2026-04-06T09:51:04Z</time></trkpt><trkpt lat="14.552842155595972" lon="120.99176011189718"><ele>10.0</ele><time>2026-04-06T09:51:05Z</time></trkpt><trkpt lat="14.552866889597853" lon="120.99183709618714"><ele>10.0</ele><time>2026-04-06T09:51:06Z</time></trkpt><trkpt lat="14.552890009937522" lon="120.99191497435937"><ele>10.0</ele><time>2026-04-06T09:51:07Z</time></trkpt><trkpt lat="14.552903886840818" lon="120.9919890629115"><ele>10.0</ele><time>2026-04-06T09:51:08Z</time></trkpt><trkpt lat="14.552930995591979" lon="120.99206966455918"><ele>10.0</ele><time>2026-04-06T09:51:09Z</time></trkpt><trkpt lat="14.552955042392284" lon="120.99215753447587"><ele>10.0</ele><time>2026-04-06T09:51:10Z</time></trkpt><trkpt lat="14.552979793562187" lon="120.99224616200189"><ele>10.0</ele><time>2026-04-06T09:51:11Z</time></trkpt><trkpt lat="14.553006386952385" lon="120.99234414890353"><ele>10.0</ele><time>2026-04-06T09:51:12Z</time></trkpt><trkpt lat="14.553035057378777" lon="120.9924516538468"><ele>10.0</ele><time>2026-04-06T09:51:13Z</time></trkpt><trkpt lat="14.553066359793672" lon="120.99256086066657"><ele>9.75</ele><time>2026-04-06T09:51:14Z</time></trkpt><trkpt lat="14.55309704214952" lon="120.99267505640512"><ele>9.5</ele><time>2026-04-06T09:51:15Z</time></trkpt><trkpt lat="14.553129588975699" lon="120.99279014781554"><ele>9.25</ele><time>2026-04-06T09:51:16Z</time></trkpt><trkpt lat="14.553163627701323" lon="120.99291453527906"><ele>9.0</ele><time>2026-04-06T09:51:17Z</time></trkpt><trkpt lat="14.553196313774551" lon="120.99304235356588"><ele>9.0</ele><time>2026-04-06T09:51:18Z</time></trkpt><trkpt lat="14.553219731279333" lon="120.99316786942272"><ele>9.0</ele><time>2026-04-06T09:51:19Z</time></trkpt><trkpt lat="14.55324333230935" lon="120.99328883186658"><ele>9.0</ele><time>2026-04-06T09:51:20Z</time></trkpt><trkpt lat="14.553268458600943" lon="120.99340333661449"><ele>9.0</ele><time>2026-04-06T09:51:21Z</time></trkpt><trkpt lat="14.553292600920882" lon="120.99351112721091"><ele>9.166666666666666</ele><time>2026-04-06T09:51:22Z</time></trkpt><trkpt lat="14.55330883010703" lon="120.9936035492232"><ele>9.333333333333334</ele><time>2026-04-06T09:51:23Z</time></trkpt><trkpt lat="14.553325437099728" lon="120.99369718421337"><ele>9.5</ele><time>2026-04-06T09:51:24Z</time></trkpt><trkpt lat="14.553323004263722" lon="120.99378959381345"><ele>9.666666666666668</ele><time>2026-04-06T09:51:25Z</time></trkpt><trkpt lat="14.55334795544745" lon="120.99387048152602"><ele>9.833333333333334</ele><time>2026-04-06T09:51:26Z</time></trkpt><trkpt lat="14.5533560568219" lon="120.99394557791882"><ele>10.0</ele><time>2026-04-06T09:51:27Z</time></trkpt><trkpt lat="14.55334964692655" lon="120.99401291828543"><ele>10.0</ele><time>2026-04-06T09:51:28Z</time></trkpt><trkpt lat="14.553363464230902" lon="120.99411367537908"><ele>10.0</ele><time>2026-04-06T09:51:30Z</time></trkpt><trkpt lat="14.553389549163953" lon="120.99418944646091"><ele>10.0</ele><time>2026-04-06T09:51:33Z</time></trkpt><trkpt lat="14.5533995131241" lon="120.99427854880904"><ele>10.0</ele><time>2026-04-06T09:51:35Z</time></trkpt><trkpt lat="14.553410247993225" lon="120.99434775149591"><ele>10.0</ele><time>2026-04-06T09:51:36Z</time></trkpt><trkpt lat="14.553420373366171" lon="120.99442234378876"><ele>10.0</ele><time>2026-04-06T09:51:37Z</time></trkpt><trkpt lat="14.553430597751309" lon="120.99450613127834"><ele>9.4</ele><time>2026-04-06T09:51:38Z</time></trkpt><trkpt lat="14.553423830533822" lon="120.99459648189783"><ele>8.8</ele><time>2026-04-06T09:51:39Z</time></trkpt><trkpt lat="14.55343390178599" lon="120.99469067405505"><ele>8.2</ele><time>2026-04-06T09:51:40Z</time></trkpt><trkpt lat="14.553444464744908" lon="120.99478961623169"><ele>7.6</ele><time>2026-04-06T09:51:41Z</time></trkpt><trkpt lat="14.553469375764461" lon="120.99488344252126"><ele>7.0</ele><time>2026-04-06T09:51:42Z</time></trkpt><trkpt lat="14.553489881819981" lon="120.99498650871331"><ele>8.2</ele><time>2026-04-06T09:51:43Z</time></trkpt><trkpt lat="14.553502094078908" lon="120.99508763602437"><ele>9.399999999999999</ele><time>2026-04-06T09:51:44Z</time></trkpt><trkpt lat="14.553511607721335" lon="120.99519758082093"><ele>10.600000000000001</ele><time>2026-04-06T09:51:45Z</time></trkpt><trkpt lat="14.553514679883536" lon="120.99530715565942"><ele>11.8</ele><time>2026-04-06T09:51:46Z</time></trkpt><trkpt lat="14.55351211498689" lon="120.99540451671555"><ele>13.0</ele><time>2026-04-06T09:51:47Z</time></trkpt><trkpt lat="14.553527128324836" lon="120.99548367154398"><ele>13.0</ele><time>2026-04-06T09:51:48Z</time></trkpt><trkpt lat="14.55357676293876" lon="120.99559500313022"><ele>13.0</ele><time>2026-04-06T09:51:50Z</time></trkpt><trkpt lat="14.553602668144835" lon="120.99570546696535"><ele>13.0</ele><time>2026-04-06T09:51:52Z</time></trkpt><trkpt lat="14.553632255642462" lon="120.99582256476471"><ele>13.0</ele><time>2026-04-06T09:51:54Z</time></trkpt><trkpt lat="14.553658073302744" lon="120.99593162398004"><ele>13.499999999999998</ele><time>2026-04-06T09:51:56Z</time></trkpt><trkpt lat="14.553676963408252" lon="120.9960209040614"><ele>14.0</ele><time>2026-04-06T09:51:58Z</time></trkpt><trkpt lat="14.553699643411253" lon="120.99608695570106"><ele>14.5</ele><time>2026-04-06T09:52:00Z</time></trkpt><trkpt lat="14.553721975717398" lon="120.99616555251767"><ele>15.0</ele><time>2026-04-06T09:52:01Z</time></trkpt><trkpt lat="14.553735467758026" lon="120.99623969282248"><ele>15.499999999999998</ele><time>2026-04-06T09:52:02Z</time></trkpt><trkpt lat="14.553750441427567" lon="120.99631943341453"><ele>16.0</ele><time>2026-04-06T09:52:03Z</time></trkpt><trkpt lat="14.553768309890529" lon="120.9963971904245"><ele>14.833333333333332</ele><time>2026-04-06T09:52:04Z</time></trkpt><trkpt lat="14.553784847911539" lon="120.99646267247878"><ele>13.666666666666666</ele><time>2026-04-06T09:52:05.001Z</time></trkpt><trkpt lat="14.553802096098526" lon="120.99653816452906"><ele>12.5</ele><time>2026-04-06T09:52:06.001Z</time></trkpt><trkpt lat="14.553817008908164" lon="120.99661082704834"><ele>11.333333333333332</ele><time>2026-04-06T09:52:07.001Z</time></trkpt><trkpt lat="14.5538369461848" lon="120.9966897356316"><ele>10.166666666666666</ele><time>2026-04-06T09:52:08.001Z</time></trkpt><trkpt lat="14.553856158148236" lon="120.99675519168231"><ele>9.0</ele><time>2026-04-06T09:52:09.001Z</time></trkpt><trkpt lat="14.55389313784404" lon="120.99686425178395"><ele>8.5</ele><time>2026-04-06T09:52:11.001Z</time></trkpt><trkpt lat="14.553923960063676" lon="120.99694121565386"><ele>8.0</ele><time>2026-04-06T09:52:14.001Z</time></trkpt><trkpt lat="14.553942951812715" lon="120.99700659648497"><ele>7.5</ele><time>2026-04-06T09:52:27.001Z</time></trkpt><trkpt lat="14.553966872328738" lon="120.9970715324264"><ele>7.0</ele><time>2026-04-06T09:52:31.001Z</time></trkpt><trkpt lat="14.553973267469594" lon="120.99716457385202"><ele>6.5</ele><time>2026-04-06T09:52:45Z</time></trkpt><trkpt lat="14.55408735761801" lon="120.99713539926958"><ele>6.0</ele><time>2026-04-06T09:52:46Z</time></trkpt><trkpt lat="14.554190197961345" lon="120.99714737896556"><ele>6.0</ele><time>2026-04-06T09:52:48Z</time></trkpt><trkpt lat="14.554250390399522" lon="120.99711295145185"><ele>6.0</ele><time>2026-04-06T09:52:49Z</time></trkpt><trkpt lat="14.554343565644817" lon="120.99709986911935"><ele>6.0</ele><time>2026-04-06T09:52:51Z</time></trkpt><trkpt lat="14.554421639687474" lon="120.99706589464195"><ele>6.0</ele><time>2026-04-06T09:52:54Z</time></trkpt><trkpt lat="14.554501981165062" lon="120.99706236307983"><ele>6.0</ele><time>2026-04-06T09:52:55Z</time></trkpt><trkpt lat="14.554611598724987" lon="120.99703695585451"><ele>6.0</ele><time>2026-04-06T09:52:56Z</time></trkpt><trkpt lat="14.554707629678045" lon="120.9970225678795"><ele>6.75</ele><time>2026-04-06T09:52:57Z</time></trkpt><trkpt lat="14.554819178062642" lon="120.99700899431694"><ele>7.5</ele><time>2026-04-06T09:52:58Z</time></trkpt><trkpt lat="14.554932071913848" lon="120.99698690520033"><ele>8.25</ele><time>2026-04-06T09:52:59Z</time></trkpt><trkpt lat="14.55504471810299" lon="120.99696987790266"><ele>9.0</ele><time>2026-04-06T09:53:00Z</time></trkpt><trkpt lat="14.555165236087035" lon="120.99695950842899"><ele>9.0</ele><time>2026-04-06T09:53:01Z</time></trkpt><trkpt lat="14.555294717470705" lon="120.9969332941918"><ele>9.0</ele><time>2026-04-06T09:53:02Z</time></trkpt><trkpt lat="14.555431269554083" lon="120.99689047566717"><ele>9.0</ele><time>2026-04-06T09:53:03Z</time></trkpt><trkpt lat="14.555552558530133" lon="120.99686042675668"><ele>9.0</ele><time>2026-04-06T09:53:04Z</time></trkpt><trkpt lat="14.555636360389574" lon="120.99684713130603"><ele>9.0</ele><time>2026-04-06T09:53:05Z</time></trkpt><trkpt lat="14.555721194082004" lon="120.99682800321659"><ele>9.0</ele><time>2026-04-06T09:53:06Z</time></trkpt><trkpt lat="14.55580733053713" lon="120.99680921201731"><ele>9.0</ele><time>2026-04-06T09:53:07Z</time></trkpt><trkpt lat="14.5558919749965" lon="120.99678445730085"><ele>9.0</ele><time>2026-04-06T09:53:08Z</time></trkpt><trkpt lat="14.555983415107717" lon="120.99676391300133"><ele>9.0</ele><time>2026-04-06T09:53:09Z</time></trkpt><trkpt lat="14.55607950343653" lon="120.99673773419715"><ele>9.0</ele><time>2026-04-06T09:53:10Z</time></trkpt><trkpt lat="14.556177229351299" lon="120.99670967800608"><ele>9.0</ele><time>2026-04-06T09:53:11Z</time></trkpt><trkpt lat="14.556274263372217" lon="120.99667974706996"><ele>9.0</ele><time>2026-04-06T09:53:12Z</time></trkpt><trkpt lat="14.556369313095146" lon="120.99666204864232"><ele>9.0</ele><time>2026-04-06T09:53:13Z</time></trkpt><trkpt lat="14.556480371822682" lon="120.9966382704605"><ele>9.0</ele><time>2026-04-06T09:53:14Z</time></trkpt><trkpt lat="14.556582171172765" lon="120.99661775713581"><ele>8.8</ele><time>2026-04-06T09:53:15Z</time></trkpt><trkpt lat="14.55669168956652" lon="120.99659644182243"><ele>8.600000000000001</ele><time>2026-04-06T09:53:16Z</time></trkpt><trkpt lat="14.556785993615755" lon="120.99658094027025"><ele>8.4</ele><time>2026-04-06T09:53:17Z</time></trkpt><trkpt lat="14.556866360871844" lon="120.99653996414061"><ele>8.200000000000001</ele><time>2026-04-06T09:53:18Z</time></trkpt><trkpt lat="14.556949314613489" lon="120.99651290545644"><ele>8.0</ele><time>2026-04-06T09:53:19Z</time></trkpt><trkpt lat="14.5570335171653" lon="120.99651569477145"><ele>8.5</ele><time>2026-04-06T09:53:20Z</time></trkpt><trkpt lat="14.557098716116707" lon="120.99650863894594"><ele>9.0</ele><time>2026-04-06T09:53:21Z</time></trkpt><trkpt lat="14.557198980339109" lon="120.99649090225483"><ele>9.5</ele><time>2026-04-06T09:53:23Z</time></trkpt><trkpt lat="14.557262222082413" lon="120.99646256115051"><ele>10.0</ele><time>2026-04-06T09:53:26Z</time></trkpt><trkpt lat="14.557324576033151" lon="120.99648411616734"><ele>10.5</ele><time>2026-04-06T09:53:42Z</time></trkpt><trkpt lat="14.557405340454029" lon="120.996442418235"><ele>11.0</ele><time>2026-04-06T09:53:44Z</time></trkpt><trkpt lat="14.557470566803866" lon="120.99643733082266"><ele>11.0</ele><time>2026-04-06T09:53:45Z</time></trkpt><trkpt lat="14.55755430135126" lon="120.99642124811709"><ele>11.0</ele><time>2026-04-06T09:53:46Z</time></trkpt><trkpt lat="14.557639284339125" lon="120.99640340235982"><ele>11.0</ele><time>2026-04-06T09:53:47Z</time></trkpt><trkpt lat="14.557739545384747" lon="120.99638151294116"><ele>11.0</ele><time>2026-04-06T09:53:48Z</time></trkpt><trkpt lat="14.557844353081569" lon="120.99636526933276"><ele>11.0</ele><time>2026-04-06T09:53:49Z</time></trkpt><trkpt lat="14.557937582397448" lon="120.99634006746095"><ele>10.5</ele><time>2026-04-06T09:53:50Z</time></trkpt><trkpt lat="14.55802635322632" lon="120.99631333164207"><ele>10.0</ele><time>2026-04-06T09:53:51Z</time></trkpt><trkpt lat="14.558097998504993" lon="120.9962786058098"><ele>9.5</ele><time>2026-04-06T09:53:52Z</time></trkpt><trkpt lat="14.558191050247244" lon="120.99626853421833"><ele>9.0</ele><time>2026-04-06T09:53:54Z</time></trkpt><trkpt lat="14.55812434336096" lon="120.99603154305919"><ele>9.0</ele><time>2026-04-06T09:54:12.001Z</time></trkpt><trkpt lat="14.55805682073348" lon="120.99594754513822"><ele>9.0</ele><time>2026-04-06T09:54:14.001Z</time></trkpt><trkpt lat="14.558046202752973" lon="120.99588222562188"><ele>9.0</ele><time>2026-04-06T09:54:16.001Z</time></trkpt><trkpt lat="14.558179000753885" lon="120.99580846689376"><ele>9.0</ele><time>2026-04-06T09:54:19.001Z</time></trkpt><trkpt lat="14.558219790462426" lon="120.99573047244618"><ele>9.0</ele><time>2026-04-06T09:54:21.001Z</time></trkpt><trkpt lat="14.558461214550139" lon="120.99538689057239"><ele>9.000000000000002</ele><time>2026-04-06T09:57:26.002Z</time></trkpt><trkpt lat="14.558394271236395" lon="120.99537589092513"><ele>9.0</ele><time>2026-04-06T09:57:28.002Z</time></trkpt><trkpt lat="14.558330726868606" lon="120.99537821319171"><ele>9.0</ele><time>2026-04-06T09:57:30.002Z</time></trkpt><trkpt lat="14.558261329931677" lon="120.9953578324817"><ele>9.0</ele><time>2026-04-06T09:57:32Z</time></trkpt><trkpt lat="14.558203586727215" lon="120.99538975484089"><ele>9.0</ele><time>2026-04-06T09:57:59Z</time></trkpt><trkpt lat="14.558138223745134" lon="120.99539488599926"><ele>9.000000000000002</ele><time>2026-04-06T09:58:35Z</time></trkpt><trkpt lat="14.558077388708451" lon="120.99535045613631"><ele>9.0</ele><time>2026-04-06T09:58:41Z</time></trkpt><trkpt lat="14.558074504290786" lon="120.99541676135894"><ele>9.0</ele><time>2026-04-06T09:59:50Z</time></trkpt></trkseg></trk></gpx>